<?xml version="1.0" encoding="UTF-8" standalone="no" ?>
<gpx xmlns="http://www.topografix.com/GPX/1/1" xmlns:xsi="http://www.w3.org/2001/XMLSchema-instance" xsi:schemaLocation="http://www.topografix.com/GPX/1/1 http://www.topografix.com/GPX/1/1/gpx.xsd" version="1.1" creator="VisuGPX - https://www.visugpx.com">
  <metadata>
    <name>SAMMY 20 AVRIL 2025</name>
  </metadata>
  <trk>
    <name><![CDATA[Libin Marche]]></name>
    <extensions>
      <line xmlns="http://www.topografix.com/GPX/gpx_style/0/2">
        <color>0000FF</color>
        <width>4</width>
      </line>
    </extensions>
    <trkseg>
      <trkpt lat="49.97207" lon="5.31214">
        <ele>418.8</ele>
        <time>2025-04-20T15:19:30Z</time>
      </trkpt>
      <trkpt lat="49.97206" lon="5.31215">
        <ele>418.9</ele>
        <time>2025-04-20T15:19:31Z</time>
      </trkpt>
      <trkpt lat="49.97205" lon="5.31216">
        <ele>418.9</ele>
        <time>2025-04-20T15:19:32Z</time>
      </trkpt>
      <trkpt lat="49.97203" lon="5.31216">
        <ele>418.9</ele>
        <time>2025-04-20T15:19:33Z</time>
      </trkpt>
      <trkpt lat="49.97202" lon="5.31216">
        <ele>418.9</ele>
        <time>2025-04-20T15:19:34Z</time>
      </trkpt>
      <trkpt lat="49.97199" lon="5.31218">
        <ele>419</ele>
        <time>2025-04-20T15:19:51Z</time>
      </trkpt>
      <trkpt lat="49.97198" lon="5.31219">
        <ele>419</ele>
        <time>2025-04-20T15:19:52Z</time>
      </trkpt>
      <trkpt lat="49.97196" lon="5.3122">
        <ele>419</ele>
        <time>2025-04-20T15:19:53Z</time>
      </trkpt>
      <trkpt lat="49.97195" lon="5.3122">
        <ele>419.1</ele>
        <time>2025-04-20T15:19:54Z</time>
      </trkpt>
      <trkpt lat="49.97194" lon="5.31219">
        <ele>419.1</ele>
        <time>2025-04-20T15:19:55Z</time>
      </trkpt>
      <trkpt lat="49.97194" lon="5.31219">
        <ele>419.2</ele>
        <time>2025-04-20T15:19:56Z</time>
      </trkpt>
      <trkpt lat="49.97193" lon="5.31218">
        <ele>419.2</ele>
        <time>2025-04-20T15:19:57Z</time>
      </trkpt>
      <trkpt lat="49.97192" lon="5.31217">
        <ele>419.3</ele>
        <time>2025-04-20T15:19:58Z</time>
      </trkpt>
      <trkpt lat="49.97192" lon="5.31216">
        <ele>419.3</ele>
        <time>2025-04-20T15:19:59Z</time>
      </trkpt>
      <trkpt lat="49.97191" lon="5.31215">
        <ele>419.4</ele>
        <time>2025-04-20T15:20:00Z</time>
      </trkpt>
      <trkpt lat="49.9719" lon="5.31215">
        <ele>419.4</ele>
        <time>2025-04-20T15:20:01Z</time>
      </trkpt>
      <trkpt lat="49.97188" lon="5.31215">
        <ele>419.5</ele>
        <time>2025-04-20T15:20:02Z</time>
      </trkpt>
      <trkpt lat="49.97187" lon="5.31215">
        <ele>419.5</ele>
        <time>2025-04-20T15:20:03Z</time>
      </trkpt>
      <trkpt lat="49.97186" lon="5.31214">
        <ele>419.6</ele>
        <time>2025-04-20T15:20:04Z</time>
      </trkpt>
      <trkpt lat="49.97186" lon="5.31214">
        <ele>419.6</ele>
        <time>2025-04-20T15:20:05Z</time>
      </trkpt>
      <trkpt lat="49.97185" lon="5.31214">
        <ele>419.6</ele>
        <time>2025-04-20T15:20:06Z</time>
      </trkpt>
      <trkpt lat="49.97184" lon="5.31213">
        <ele>419.7</ele>
        <time>2025-04-20T15:20:07Z</time>
      </trkpt>
      <trkpt lat="49.97184" lon="5.31213">
        <ele>419.7</ele>
        <time>2025-04-20T15:20:08Z</time>
      </trkpt>
      <trkpt lat="49.97183" lon="5.31212">
        <ele>419.8</ele>
        <time>2025-04-20T15:20:09Z</time>
      </trkpt>
      <trkpt lat="49.97182" lon="5.31212">
        <ele>419.8</ele>
        <time>2025-04-20T15:20:10Z</time>
      </trkpt>
      <trkpt lat="49.97181" lon="5.31212">
        <ele>419.8</ele>
        <time>2025-04-20T15:20:11Z</time>
      </trkpt>
      <trkpt lat="49.9718" lon="5.31213">
        <ele>419.8</ele>
        <time>2025-04-20T15:20:12Z</time>
      </trkpt>
      <trkpt lat="49.9718" lon="5.31213">
        <ele>419.8</ele>
        <time>2025-04-20T15:20:13Z</time>
      </trkpt>
      <trkpt lat="49.97179" lon="5.31214">
        <ele>419.9</ele>
        <time>2025-04-20T15:20:14Z</time>
      </trkpt>
      <trkpt lat="49.97178" lon="5.31215">
        <ele>419.9</ele>
        <time>2025-04-20T15:20:15Z</time>
      </trkpt>
      <trkpt lat="49.97177" lon="5.31214">
        <ele>419.9</ele>
        <time>2025-04-20T15:20:16Z</time>
      </trkpt>
      <trkpt lat="49.97176" lon="5.31214">
        <ele>419.9</ele>
        <time>2025-04-20T15:20:17Z</time>
      </trkpt>
      <trkpt lat="49.97175" lon="5.31214">
        <ele>420</ele>
        <time>2025-04-20T15:20:18Z</time>
      </trkpt>
      <trkpt lat="49.97174" lon="5.31214">
        <ele>420</ele>
        <time>2025-04-20T15:20:19Z</time>
      </trkpt>
      <trkpt lat="49.97174" lon="5.31214">
        <ele>420</ele>
        <time>2025-04-20T15:20:20Z</time>
      </trkpt>
      <trkpt lat="49.97173" lon="5.31214">
        <ele>420.1</ele>
        <time>2025-04-20T15:20:21Z</time>
      </trkpt>
      <trkpt lat="49.97172" lon="5.31214">
        <ele>420.1</ele>
        <time>2025-04-20T15:20:22Z</time>
      </trkpt>
      <trkpt lat="49.97172" lon="5.31214">
        <ele>420.1</ele>
        <time>2025-04-20T15:20:23Z</time>
      </trkpt>
      <trkpt lat="49.97171" lon="5.31215">
        <ele>420.1</ele>
        <time>2025-04-20T15:20:24Z</time>
      </trkpt>
      <trkpt lat="49.97171" lon="5.31215">
        <ele>420.1</ele>
        <time>2025-04-20T15:20:25Z</time>
      </trkpt>
      <trkpt lat="49.9717" lon="5.31216">
        <ele>420.1</ele>
        <time>2025-04-20T15:20:26Z</time>
      </trkpt>
      <trkpt lat="49.9717" lon="5.31216">
        <ele>420.1</ele>
        <time>2025-04-20T15:20:27Z</time>
      </trkpt>
      <trkpt lat="49.97169" lon="5.31216">
        <ele>420.1</ele>
        <time>2025-04-20T15:20:28Z</time>
      </trkpt>
      <trkpt lat="49.97169" lon="5.31217">
        <ele>420.1</ele>
        <time>2025-04-20T15:20:29Z</time>
      </trkpt>
      <trkpt lat="49.97168" lon="5.31217">
        <ele>420.1</ele>
        <time>2025-04-20T15:20:30Z</time>
      </trkpt>
      <trkpt lat="49.97168" lon="5.31217">
        <ele>420.1</ele>
        <time>2025-04-20T15:20:31Z</time>
      </trkpt>
      <trkpt lat="49.97167" lon="5.31218">
        <ele>420.2</ele>
        <time>2025-04-20T15:20:32Z</time>
      </trkpt>
      <trkpt lat="49.97166" lon="5.31218">
        <ele>420.2</ele>
        <time>2025-04-20T15:20:33Z</time>
      </trkpt>
      <trkpt lat="49.97166" lon="5.31218">
        <ele>420.2</ele>
        <time>2025-04-20T15:20:34Z</time>
      </trkpt>
      <trkpt lat="49.97165" lon="5.31219">
        <ele>420.2</ele>
        <time>2025-04-20T15:20:35Z</time>
      </trkpt>
      <trkpt lat="49.97164" lon="5.31219">
        <ele>420.2</ele>
        <time>2025-04-20T15:20:36Z</time>
      </trkpt>
      <trkpt lat="49.97164" lon="5.31219">
        <ele>420.2</ele>
        <time>2025-04-20T15:20:37Z</time>
      </trkpt>
      <trkpt lat="49.97163" lon="5.31219">
        <ele>420.3</ele>
        <time>2025-04-20T15:20:38Z</time>
      </trkpt>
      <trkpt lat="49.97162" lon="5.31219">
        <ele>420.3</ele>
        <time>2025-04-20T15:20:39Z</time>
      </trkpt>
      <trkpt lat="49.97161" lon="5.31219">
        <ele>420.3</ele>
        <time>2025-04-20T15:20:40Z</time>
      </trkpt>
      <trkpt lat="49.97161" lon="5.3122">
        <ele>420.3</ele>
        <time>2025-04-20T15:20:41Z</time>
      </trkpt>
      <trkpt lat="49.9716" lon="5.3122">
        <ele>420.3</ele>
        <time>2025-04-20T15:20:42Z</time>
      </trkpt>
      <trkpt lat="49.97159" lon="5.3122">
        <ele>420.4</ele>
        <time>2025-04-20T15:20:43Z</time>
      </trkpt>
      <trkpt lat="49.97157" lon="5.3122">
        <ele>420.4</ele>
        <time>2025-04-20T15:20:44Z</time>
      </trkpt>
      <trkpt lat="49.97156" lon="5.3122">
        <ele>420.5</ele>
        <time>2025-04-20T15:20:45Z</time>
      </trkpt>
      <trkpt lat="49.97155" lon="5.31219">
        <ele>420.5</ele>
        <time>2025-04-20T15:20:46Z</time>
      </trkpt>
      <trkpt lat="49.97153" lon="5.31219">
        <ele>420.6</ele>
        <time>2025-04-20T15:20:47Z</time>
      </trkpt>
      <trkpt lat="49.97152" lon="5.31219">
        <ele>420.7</ele>
        <time>2025-04-20T15:20:48Z</time>
      </trkpt>
      <trkpt lat="49.97151" lon="5.31219">
        <ele>420.7</ele>
        <time>2025-04-20T15:20:49Z</time>
      </trkpt>
      <trkpt lat="49.9715" lon="5.31219">
        <ele>420.7</ele>
        <time>2025-04-20T15:20:50Z</time>
      </trkpt>
      <trkpt lat="49.97149" lon="5.3122">
        <ele>420.7</ele>
        <time>2025-04-20T15:20:51Z</time>
      </trkpt>
      <trkpt lat="49.97148" lon="5.3122">
        <ele>420.8</ele>
        <time>2025-04-20T15:20:52Z</time>
      </trkpt>
      <trkpt lat="49.97147" lon="5.3122">
        <ele>420.8</ele>
        <time>2025-04-20T15:20:53Z</time>
      </trkpt>
      <trkpt lat="49.97145" lon="5.31219">
        <ele>420.9</ele>
        <time>2025-04-20T15:20:54Z</time>
      </trkpt>
      <trkpt lat="49.97144" lon="5.31218">
        <ele>421</ele>
        <time>2025-04-20T15:20:55Z</time>
      </trkpt>
      <trkpt lat="49.97143" lon="5.31218">
        <ele>421</ele>
        <time>2025-04-20T15:20:56Z</time>
      </trkpt>
      <trkpt lat="49.97142" lon="5.31218">
        <ele>421</ele>
        <time>2025-04-20T15:20:57Z</time>
      </trkpt>
      <trkpt lat="49.97141" lon="5.31218">
        <ele>421.1</ele>
        <time>2025-04-20T15:20:58Z</time>
      </trkpt>
      <trkpt lat="49.97139" lon="5.31218">
        <ele>421.1</ele>
        <time>2025-04-20T15:20:59Z</time>
      </trkpt>
      <trkpt lat="49.97138" lon="5.31217">
        <ele>421.2</ele>
        <time>2025-04-20T15:21:00Z</time>
      </trkpt>
      <trkpt lat="49.97136" lon="5.31217">
        <ele>421.3</ele>
        <time>2025-04-20T15:21:01Z</time>
      </trkpt>
      <trkpt lat="49.97135" lon="5.31217">
        <ele>421.3</ele>
        <time>2025-04-20T15:21:02Z</time>
      </trkpt>
      <trkpt lat="49.97133" lon="5.31217">
        <ele>421.4</ele>
        <time>2025-04-20T15:21:03Z</time>
      </trkpt>
      <trkpt lat="49.97132" lon="5.31218">
        <ele>421.4</ele>
        <time>2025-04-20T15:21:04Z</time>
      </trkpt>
      <trkpt lat="49.97131" lon="5.31218">
        <ele>421.4</ele>
        <time>2025-04-20T15:21:05Z</time>
      </trkpt>
      <trkpt lat="49.9713" lon="5.31219">
        <ele>421.4</ele>
        <time>2025-04-20T15:21:06Z</time>
      </trkpt>
      <trkpt lat="49.97129" lon="5.3122">
        <ele>421.4</ele>
        <time>2025-04-20T15:21:07Z</time>
      </trkpt>
      <trkpt lat="49.97128" lon="5.31221">
        <ele>421.4</ele>
        <time>2025-04-20T15:21:08Z</time>
      </trkpt>
      <trkpt lat="49.97128" lon="5.31222">
        <ele>421.4</ele>
        <time>2025-04-20T15:21:09Z</time>
      </trkpt>
      <trkpt lat="49.97127" lon="5.31224">
        <ele>421.4</ele>
        <time>2025-04-20T15:21:10Z</time>
      </trkpt>
      <trkpt lat="49.97126" lon="5.31225">
        <ele>421.3</ele>
        <time>2025-04-20T15:21:11Z</time>
      </trkpt>
      <trkpt lat="49.97125" lon="5.31226">
        <ele>421.3</ele>
        <time>2025-04-20T15:21:12Z</time>
      </trkpt>
      <trkpt lat="49.97124" lon="5.31227">
        <ele>421.3</ele>
        <time>2025-04-20T15:21:13Z</time>
      </trkpt>
      <trkpt lat="49.97123" lon="5.31227">
        <ele>421.3</ele>
        <time>2025-04-20T15:21:14Z</time>
      </trkpt>
      <trkpt lat="49.97122" lon="5.31228">
        <ele>421.3</ele>
        <time>2025-04-20T15:21:15Z</time>
      </trkpt>
      <trkpt lat="49.97121" lon="5.31228">
        <ele>421.3</ele>
        <time>2025-04-20T15:21:16Z</time>
      </trkpt>
      <trkpt lat="49.9712" lon="5.31229">
        <ele>421.3</ele>
        <time>2025-04-20T15:21:17Z</time>
      </trkpt>
      <trkpt lat="49.97119" lon="5.3123">
        <ele>421.2</ele>
        <time>2025-04-20T15:21:23Z</time>
      </trkpt>
      <trkpt lat="49.97118" lon="5.31231">
        <ele>421.2</ele>
        <time>2025-04-20T15:21:24Z</time>
      </trkpt>
      <trkpt lat="49.97117" lon="5.31232">
        <ele>421.2</ele>
        <time>2025-04-20T15:21:25Z</time>
      </trkpt>
      <trkpt lat="49.97116" lon="5.31232">
        <ele>421.2</ele>
        <time>2025-04-20T15:21:26Z</time>
      </trkpt>
      <trkpt lat="49.97115" lon="5.31232">
        <ele>421.2</ele>
        <time>2025-04-20T15:21:27Z</time>
      </trkpt>
      <trkpt lat="49.97114" lon="5.31232">
        <ele>421.3</ele>
        <time>2025-04-20T15:21:28Z</time>
      </trkpt>
      <trkpt lat="49.97113" lon="5.31231">
        <ele>421.3</ele>
        <time>2025-04-20T15:21:29Z</time>
      </trkpt>
      <trkpt lat="49.97112" lon="5.31231">
        <ele>421.4</ele>
        <time>2025-04-20T15:21:30Z</time>
      </trkpt>
      <trkpt lat="49.97111" lon="5.3123">
        <ele>421.4</ele>
        <time>2025-04-20T15:21:31Z</time>
      </trkpt>
      <trkpt lat="49.9711" lon="5.3123">
        <ele>421.5</ele>
        <time>2025-04-20T15:21:32Z</time>
      </trkpt>
      <trkpt lat="49.97108" lon="5.3123">
        <ele>421.5</ele>
        <time>2025-04-20T15:21:33Z</time>
      </trkpt>
      <trkpt lat="49.97107" lon="5.3123">
        <ele>421.6</ele>
        <time>2025-04-20T15:21:34Z</time>
      </trkpt>
      <trkpt lat="49.97106" lon="5.3123">
        <ele>421.6</ele>
        <time>2025-04-20T15:21:35Z</time>
      </trkpt>
      <trkpt lat="49.97104" lon="5.3123">
        <ele>421.7</ele>
        <time>2025-04-20T15:21:36Z</time>
      </trkpt>
      <trkpt lat="49.97103" lon="5.3123">
        <ele>421.7</ele>
        <time>2025-04-20T15:21:37Z</time>
      </trkpt>
      <trkpt lat="49.97102" lon="5.3123">
        <ele>421.8</ele>
        <time>2025-04-20T15:21:38Z</time>
      </trkpt>
      <trkpt lat="49.971" lon="5.3123">
        <ele>421.8</ele>
        <time>2025-04-20T15:21:39Z</time>
      </trkpt>
      <trkpt lat="49.97099" lon="5.3123">
        <ele>421.9</ele>
        <time>2025-04-20T15:21:40Z</time>
      </trkpt>
      <trkpt lat="49.97098" lon="5.3123">
        <ele>421.9</ele>
        <time>2025-04-20T15:21:41Z</time>
      </trkpt>
      <trkpt lat="49.97097" lon="5.3123">
        <ele>421.9</ele>
        <time>2025-04-20T15:21:42Z</time>
      </trkpt>
      <trkpt lat="49.97096" lon="5.31231">
        <ele>421.9</ele>
        <time>2025-04-20T15:21:43Z</time>
      </trkpt>
      <trkpt lat="49.97095" lon="5.31231">
        <ele>422</ele>
        <time>2025-04-20T15:21:44Z</time>
      </trkpt>
      <trkpt lat="49.97093" lon="5.31232">
        <ele>422</ele>
        <time>2025-04-20T15:21:45Z</time>
      </trkpt>
      <trkpt lat="49.97093" lon="5.31232">
        <ele>422</ele>
        <time>2025-04-20T15:21:46Z</time>
      </trkpt>
      <trkpt lat="49.97092" lon="5.31232">
        <ele>422</ele>
        <time>2025-04-20T15:21:47Z</time>
      </trkpt>
      <trkpt lat="49.97092" lon="5.31232">
        <ele>422</ele>
        <time>2025-04-20T15:21:48Z</time>
      </trkpt>
      <trkpt lat="49.97091" lon="5.31232">
        <ele>422</ele>
        <time>2025-04-20T15:21:49Z</time>
      </trkpt>
      <trkpt lat="49.97091" lon="5.31233">
        <ele>422</ele>
        <time>2025-04-20T15:21:50Z</time>
      </trkpt>
      <trkpt lat="49.9709" lon="5.31233">
        <ele>422</ele>
        <time>2025-04-20T15:21:51Z</time>
      </trkpt>
      <trkpt lat="49.97089" lon="5.31233">
        <ele>422</ele>
        <time>2025-04-20T15:21:52Z</time>
      </trkpt>
      <trkpt lat="49.97088" lon="5.31233">
        <ele>422</ele>
        <time>2025-04-20T15:21:53Z</time>
      </trkpt>
      <trkpt lat="49.97087" lon="5.31233">
        <ele>422</ele>
        <time>2025-04-20T15:21:54Z</time>
      </trkpt>
      <trkpt lat="49.97086" lon="5.31234">
        <ele>422.1</ele>
        <time>2025-04-20T15:21:55Z</time>
      </trkpt>
      <trkpt lat="49.97085" lon="5.31234">
        <ele>422.1</ele>
        <time>2025-04-20T15:21:56Z</time>
      </trkpt>
      <trkpt lat="49.97084" lon="5.31234">
        <ele>422.1</ele>
        <time>2025-04-20T15:21:57Z</time>
      </trkpt>
      <trkpt lat="49.97083" lon="5.31234">
        <ele>422.2</ele>
        <time>2025-04-20T15:21:58Z</time>
      </trkpt>
      <trkpt lat="49.97082" lon="5.31234">
        <ele>422.2</ele>
        <time>2025-04-20T15:21:59Z</time>
      </trkpt>
      <trkpt lat="49.97081" lon="5.31234">
        <ele>422.2</ele>
        <time>2025-04-20T15:22:00Z</time>
      </trkpt>
      <trkpt lat="49.97079" lon="5.31234">
        <ele>422.2</ele>
        <time>2025-04-20T15:22:01Z</time>
      </trkpt>
      <trkpt lat="49.97078" lon="5.31235">
        <ele>422.2</ele>
        <time>2025-04-20T15:22:02Z</time>
      </trkpt>
      <trkpt lat="49.97077" lon="5.31235">
        <ele>422.2</ele>
        <time>2025-04-20T15:22:03Z</time>
      </trkpt>
      <trkpt lat="49.97076" lon="5.31235">
        <ele>422.2</ele>
        <time>2025-04-20T15:22:04Z</time>
      </trkpt>
      <trkpt lat="49.97075" lon="5.31235">
        <ele>422.2</ele>
        <time>2025-04-20T15:22:05Z</time>
      </trkpt>
      <trkpt lat="49.97074" lon="5.31235">
        <ele>422.2</ele>
        <time>2025-04-20T15:22:06Z</time>
      </trkpt>
      <trkpt lat="49.97072" lon="5.31235">
        <ele>422.2</ele>
        <time>2025-04-20T15:22:07Z</time>
      </trkpt>
      <trkpt lat="49.97071" lon="5.31236">
        <ele>422.2</ele>
        <time>2025-04-20T15:22:08Z</time>
      </trkpt>
      <trkpt lat="49.9707" lon="5.31236">
        <ele>422.3</ele>
        <time>2025-04-20T15:22:09Z</time>
      </trkpt>
      <trkpt lat="49.97069" lon="5.31236">
        <ele>422.3</ele>
        <time>2025-04-20T15:22:10Z</time>
      </trkpt>
      <trkpt lat="49.97068" lon="5.31236">
        <ele>422.3</ele>
        <time>2025-04-20T15:22:11Z</time>
      </trkpt>
      <trkpt lat="49.97067" lon="5.31236">
        <ele>422.3</ele>
        <time>2025-04-20T15:22:12Z</time>
      </trkpt>
      <trkpt lat="49.97066" lon="5.31236">
        <ele>422.3</ele>
        <time>2025-04-20T15:22:13Z</time>
      </trkpt>
      <trkpt lat="49.97065" lon="5.31236">
        <ele>422.3</ele>
        <time>2025-04-20T15:22:14Z</time>
      </trkpt>
      <trkpt lat="49.97064" lon="5.31237">
        <ele>422.3</ele>
        <time>2025-04-20T15:22:15Z</time>
      </trkpt>
      <trkpt lat="49.97063" lon="5.31237">
        <ele>422.3</ele>
        <time>2025-04-20T15:22:16Z</time>
      </trkpt>
      <trkpt lat="49.97062" lon="5.31237">
        <ele>422.3</ele>
        <time>2025-04-20T15:22:17Z</time>
      </trkpt>
      <trkpt lat="49.97061" lon="5.31237">
        <ele>422.4</ele>
        <time>2025-04-20T15:22:18Z</time>
      </trkpt>
      <trkpt lat="49.97059" lon="5.31238">
        <ele>422.4</ele>
        <time>2025-04-20T15:22:19Z</time>
      </trkpt>
      <trkpt lat="49.97058" lon="5.31238">
        <ele>422.4</ele>
        <time>2025-04-20T15:22:20Z</time>
      </trkpt>
      <trkpt lat="49.97057" lon="5.31238">
        <ele>422.4</ele>
        <time>2025-04-20T15:22:21Z</time>
      </trkpt>
      <trkpt lat="49.97055" lon="5.31238">
        <ele>422.4</ele>
        <time>2025-04-20T15:22:22Z</time>
      </trkpt>
      <trkpt lat="49.97054" lon="5.31238">
        <ele>422.5</ele>
        <time>2025-04-20T15:22:23Z</time>
      </trkpt>
      <trkpt lat="49.97053" lon="5.31238">
        <ele>422.6</ele>
        <time>2025-04-20T15:22:24Z</time>
      </trkpt>
      <trkpt lat="49.97051" lon="5.31239">
        <ele>422.6</ele>
        <time>2025-04-20T15:22:25Z</time>
      </trkpt>
      <trkpt lat="49.9705" lon="5.31239">
        <ele>422.7</ele>
        <time>2025-04-20T15:22:26Z</time>
      </trkpt>
      <trkpt lat="49.97049" lon="5.31239">
        <ele>422.7</ele>
        <time>2025-04-20T15:22:27Z</time>
      </trkpt>
      <trkpt lat="49.97047" lon="5.31239">
        <ele>422.8</ele>
        <time>2025-04-20T15:22:33Z</time>
      </trkpt>
      <trkpt lat="49.97047" lon="5.31239">
        <ele>422.8</ele>
        <time>2025-04-20T15:22:34Z</time>
      </trkpt>
      <trkpt lat="49.97046" lon="5.31239">
        <ele>422.9</ele>
        <time>2025-04-20T15:22:35Z</time>
      </trkpt>
      <trkpt lat="49.97045" lon="5.3124">
        <ele>422.9</ele>
        <time>2025-04-20T15:22:36Z</time>
      </trkpt>
      <trkpt lat="49.97044" lon="5.3124">
        <ele>422.9</ele>
        <time>2025-04-20T15:22:37Z</time>
      </trkpt>
      <trkpt lat="49.97043" lon="5.3124">
        <ele>422.9</ele>
        <time>2025-04-20T15:22:38Z</time>
      </trkpt>
      <trkpt lat="49.97042" lon="5.31241">
        <ele>423</ele>
        <time>2025-04-20T15:22:39Z</time>
      </trkpt>
      <trkpt lat="49.97041" lon="5.31241">
        <ele>423</ele>
        <time>2025-04-20T15:22:40Z</time>
      </trkpt>
      <trkpt lat="49.9704" lon="5.31241">
        <ele>423</ele>
        <time>2025-04-20T15:22:41Z</time>
      </trkpt>
      <trkpt lat="49.97039" lon="5.31242">
        <ele>423.1</ele>
        <time>2025-04-20T15:22:42Z</time>
      </trkpt>
      <trkpt lat="49.97038" lon="5.31242">
        <ele>423.1</ele>
        <time>2025-04-20T15:22:43Z</time>
      </trkpt>
      <trkpt lat="49.97037" lon="5.31242">
        <ele>423.1</ele>
        <time>2025-04-20T15:22:44Z</time>
      </trkpt>
      <trkpt lat="49.97036" lon="5.31243">
        <ele>423.2</ele>
        <time>2025-04-20T15:22:45Z</time>
      </trkpt>
      <trkpt lat="49.97035" lon="5.31243">
        <ele>423.2</ele>
        <time>2025-04-20T15:22:46Z</time>
      </trkpt>
      <trkpt lat="49.97034" lon="5.31243">
        <ele>423.2</ele>
        <time>2025-04-20T15:22:47Z</time>
      </trkpt>
      <trkpt lat="49.97032" lon="5.31244">
        <ele>423.2</ele>
        <time>2025-04-20T15:22:48Z</time>
      </trkpt>
      <trkpt lat="49.97031" lon="5.31244">
        <ele>423.3</ele>
        <time>2025-04-20T15:22:49Z</time>
      </trkpt>
      <trkpt lat="49.9703" lon="5.31244">
        <ele>423.3</ele>
        <time>2025-04-20T15:22:50Z</time>
      </trkpt>
      <trkpt lat="49.97029" lon="5.31244">
        <ele>423.4</ele>
        <time>2025-04-20T15:22:51Z</time>
      </trkpt>
      <trkpt lat="49.97028" lon="5.31244">
        <ele>423.4</ele>
        <time>2025-04-20T15:22:52Z</time>
      </trkpt>
      <trkpt lat="49.97027" lon="5.31244">
        <ele>423.4</ele>
        <time>2025-04-20T15:22:53Z</time>
      </trkpt>
      <trkpt lat="49.97026" lon="5.31244">
        <ele>423.5</ele>
        <time>2025-04-20T15:22:54Z</time>
      </trkpt>
      <trkpt lat="49.97025" lon="5.31245">
        <ele>423.5</ele>
        <time>2025-04-20T15:22:55Z</time>
      </trkpt>
      <trkpt lat="49.97024" lon="5.31245">
        <ele>423.5</ele>
        <time>2025-04-20T15:22:56Z</time>
      </trkpt>
      <trkpt lat="49.97023" lon="5.31245">
        <ele>423.5</ele>
        <time>2025-04-20T15:22:57Z</time>
      </trkpt>
      <trkpt lat="49.97022" lon="5.31245">
        <ele>423.5</ele>
        <time>2025-04-20T15:22:58Z</time>
      </trkpt>
      <trkpt lat="49.97021" lon="5.31246">
        <ele>423.6</ele>
        <time>2025-04-20T15:22:59Z</time>
      </trkpt>
      <trkpt lat="49.9702" lon="5.31246">
        <ele>423.5</ele>
        <time>2025-04-20T15:23:00Z</time>
      </trkpt>
      <trkpt lat="49.97019" lon="5.31247">
        <ele>423.5</ele>
        <time>2025-04-20T15:23:01Z</time>
      </trkpt>
      <trkpt lat="49.97018" lon="5.31248">
        <ele>423.5</ele>
        <time>2025-04-20T15:23:02Z</time>
      </trkpt>
      <trkpt lat="49.97016" lon="5.31249">
        <ele>423.5</ele>
        <time>2025-04-20T15:23:03Z</time>
      </trkpt>
      <trkpt lat="49.97015" lon="5.31249">
        <ele>423.5</ele>
        <time>2025-04-20T15:23:04Z</time>
      </trkpt>
      <trkpt lat="49.97014" lon="5.3125">
        <ele>423.5</ele>
        <time>2025-04-20T15:23:05Z</time>
      </trkpt>
      <trkpt lat="49.97013" lon="5.31251">
        <ele>423.5</ele>
        <time>2025-04-20T15:23:06Z</time>
      </trkpt>
      <trkpt lat="49.97012" lon="5.31251">
        <ele>423.5</ele>
        <time>2025-04-20T15:23:07Z</time>
      </trkpt>
      <trkpt lat="49.97011" lon="5.31252">
        <ele>423.5</ele>
        <time>2025-04-20T15:23:08Z</time>
      </trkpt>
      <trkpt lat="49.9701" lon="5.31252">
        <ele>423.5</ele>
        <time>2025-04-20T15:23:09Z</time>
      </trkpt>
      <trkpt lat="49.97008" lon="5.31253">
        <ele>423.5</ele>
        <time>2025-04-20T15:23:10Z</time>
      </trkpt>
      <trkpt lat="49.97007" lon="5.31254">
        <ele>423.5</ele>
        <time>2025-04-20T15:23:11Z</time>
      </trkpt>
      <trkpt lat="49.97006" lon="5.31254">
        <ele>423.5</ele>
        <time>2025-04-20T15:23:12Z</time>
      </trkpt>
      <trkpt lat="49.97005" lon="5.31255">
        <ele>423.5</ele>
        <time>2025-04-20T15:23:13Z</time>
      </trkpt>
      <trkpt lat="49.97004" lon="5.31256">
        <ele>423.5</ele>
        <time>2025-04-20T15:23:14Z</time>
      </trkpt>
      <trkpt lat="49.97003" lon="5.31256">
        <ele>423.5</ele>
        <time>2025-04-20T15:23:15Z</time>
      </trkpt>
      <trkpt lat="49.97001" lon="5.31257">
        <ele>423.5</ele>
        <time>2025-04-20T15:23:16Z</time>
      </trkpt>
      <trkpt lat="49.97" lon="5.31257">
        <ele>423.5</ele>
        <time>2025-04-20T15:23:17Z</time>
      </trkpt>
      <trkpt lat="49.96999" lon="5.31258">
        <ele>423.5</ele>
        <time>2025-04-20T15:23:18Z</time>
      </trkpt>
      <trkpt lat="49.96998" lon="5.31258">
        <ele>423.5</ele>
        <time>2025-04-20T15:23:19Z</time>
      </trkpt>
      <trkpt lat="49.96997" lon="5.31258">
        <ele>423.5</ele>
        <time>2025-04-20T15:23:20Z</time>
      </trkpt>
      <trkpt lat="49.96996" lon="5.31259">
        <ele>423.5</ele>
        <time>2025-04-20T15:23:21Z</time>
      </trkpt>
      <trkpt lat="49.96995" lon="5.31259">
        <ele>423.5</ele>
        <time>2025-04-20T15:23:22Z</time>
      </trkpt>
      <trkpt lat="49.96994" lon="5.3126">
        <ele>423.5</ele>
        <time>2025-04-20T15:23:23Z</time>
      </trkpt>
      <trkpt lat="49.96993" lon="5.3126">
        <ele>423.5</ele>
        <time>2025-04-20T15:23:24Z</time>
      </trkpt>
      <trkpt lat="49.96992" lon="5.31261">
        <ele>423.5</ele>
        <time>2025-04-20T15:23:25Z</time>
      </trkpt>
      <trkpt lat="49.9699" lon="5.31261">
        <ele>423.6</ele>
        <time>2025-04-20T15:23:26Z</time>
      </trkpt>
      <trkpt lat="49.96989" lon="5.31261">
        <ele>423.6</ele>
        <time>2025-04-20T15:23:27Z</time>
      </trkpt>
      <trkpt lat="49.96988" lon="5.31262">
        <ele>423.6</ele>
        <time>2025-04-20T15:23:28Z</time>
      </trkpt>
      <trkpt lat="49.96986" lon="5.31262">
        <ele>423.6</ele>
        <time>2025-04-20T15:23:29Z</time>
      </trkpt>
      <trkpt lat="49.96985" lon="5.31262">
        <ele>423.6</ele>
        <time>2025-04-20T15:23:30Z</time>
      </trkpt>
      <trkpt lat="49.96984" lon="5.31263">
        <ele>423.6</ele>
        <time>2025-04-20T15:23:31Z</time>
      </trkpt>
      <trkpt lat="49.96983" lon="5.31264">
        <ele>423.6</ele>
        <time>2025-04-20T15:23:32Z</time>
      </trkpt>
      <trkpt lat="49.96981" lon="5.31264">
        <ele>423.6</ele>
        <time>2025-04-20T15:23:33Z</time>
      </trkpt>
      <trkpt lat="49.9698" lon="5.31265">
        <ele>423.6</ele>
        <time>2025-04-20T15:23:34Z</time>
      </trkpt>
      <trkpt lat="49.96979" lon="5.31266">
        <ele>423.6</ele>
        <time>2025-04-20T15:23:35Z</time>
      </trkpt>
      <trkpt lat="49.96978" lon="5.31267">
        <ele>423.6</ele>
        <time>2025-04-20T15:23:36Z</time>
      </trkpt>
      <trkpt lat="49.96977" lon="5.31267">
        <ele>423.6</ele>
        <time>2025-04-20T15:23:37Z</time>
      </trkpt>
      <trkpt lat="49.96976" lon="5.31268">
        <ele>423.6</ele>
        <time>2025-04-20T15:23:38Z</time>
      </trkpt>
      <trkpt lat="49.96975" lon="5.31268">
        <ele>423.6</ele>
        <time>2025-04-20T15:23:39Z</time>
      </trkpt>
      <trkpt lat="49.96974" lon="5.31269">
        <ele>423.6</ele>
        <time>2025-04-20T15:23:40Z</time>
      </trkpt>
      <trkpt lat="49.96972" lon="5.31269">
        <ele>423.6</ele>
        <time>2025-04-20T15:23:41Z</time>
      </trkpt>
      <trkpt lat="49.96971" lon="5.3127">
        <ele>423.6</ele>
        <time>2025-04-20T15:23:42Z</time>
      </trkpt>
      <trkpt lat="49.9697" lon="5.3127">
        <ele>423.6</ele>
        <time>2025-04-20T15:23:43Z</time>
      </trkpt>
      <trkpt lat="49.96969" lon="5.3127">
        <ele>423.5</ele>
        <time>2025-04-20T15:23:44Z</time>
      </trkpt>
      <trkpt lat="49.96968" lon="5.31271">
        <ele>423.5</ele>
        <time>2025-04-20T15:23:45Z</time>
      </trkpt>
      <trkpt lat="49.96967" lon="5.31271">
        <ele>423.5</ele>
        <time>2025-04-20T15:23:46Z</time>
      </trkpt>
      <trkpt lat="49.96966" lon="5.31271">
        <ele>423.5</ele>
        <time>2025-04-20T15:23:47Z</time>
      </trkpt>
      <trkpt lat="49.96965" lon="5.31272">
        <ele>423.4</ele>
        <time>2025-04-20T15:23:48Z</time>
      </trkpt>
      <trkpt lat="49.96964" lon="5.31272">
        <ele>423.4</ele>
        <time>2025-04-20T15:23:49Z</time>
      </trkpt>
      <trkpt lat="49.96963" lon="5.31273">
        <ele>423.4</ele>
        <time>2025-04-20T15:23:50Z</time>
      </trkpt>
      <trkpt lat="49.96962" lon="5.31273">
        <ele>423.3</ele>
        <time>2025-04-20T15:23:51Z</time>
      </trkpt>
      <trkpt lat="49.96961" lon="5.31274">
        <ele>423.3</ele>
        <time>2025-04-20T15:23:52Z</time>
      </trkpt>
      <trkpt lat="49.9696" lon="5.31274">
        <ele>423.2</ele>
        <time>2025-04-20T15:23:53Z</time>
      </trkpt>
      <trkpt lat="49.96958" lon="5.31275">
        <ele>423.2</ele>
        <time>2025-04-20T15:23:54Z</time>
      </trkpt>
      <trkpt lat="49.96957" lon="5.31275">
        <ele>423.2</ele>
        <time>2025-04-20T15:23:55Z</time>
      </trkpt>
      <trkpt lat="49.96956" lon="5.31276">
        <ele>423.2</ele>
        <time>2025-04-20T15:23:56Z</time>
      </trkpt>
      <trkpt lat="49.96955" lon="5.31276">
        <ele>423.1</ele>
        <time>2025-04-20T15:23:57Z</time>
      </trkpt>
      <trkpt lat="49.96954" lon="5.31276">
        <ele>423.1</ele>
        <time>2025-04-20T15:23:58Z</time>
      </trkpt>
      <trkpt lat="49.96952" lon="5.31277">
        <ele>423.1</ele>
        <time>2025-04-20T15:23:59Z</time>
      </trkpt>
      <trkpt lat="49.96951" lon="5.31278">
        <ele>423</ele>
        <time>2025-04-20T15:24:00Z</time>
      </trkpt>
      <trkpt lat="49.9695" lon="5.31278">
        <ele>423</ele>
        <time>2025-04-20T15:24:01Z</time>
      </trkpt>
      <trkpt lat="49.96948" lon="5.31279">
        <ele>423</ele>
        <time>2025-04-20T15:24:02Z</time>
      </trkpt>
      <trkpt lat="49.96947" lon="5.31279">
        <ele>423</ele>
        <time>2025-04-20T15:24:03Z</time>
      </trkpt>
      <trkpt lat="49.96945" lon="5.31279">
        <ele>422.9</ele>
        <time>2025-04-20T15:24:04Z</time>
      </trkpt>
      <trkpt lat="49.96944" lon="5.3128">
        <ele>422.9</ele>
        <time>2025-04-20T15:24:05Z</time>
      </trkpt>
      <trkpt lat="49.96943" lon="5.3128">
        <ele>423</ele>
        <time>2025-04-20T15:24:06Z</time>
      </trkpt>
      <trkpt lat="49.96942" lon="5.3128">
        <ele>423</ele>
        <time>2025-04-20T15:24:07Z</time>
      </trkpt>
      <trkpt lat="49.96941" lon="5.31281">
        <ele>423</ele>
        <time>2025-04-20T15:24:08Z</time>
      </trkpt>
      <trkpt lat="49.9694" lon="5.31281">
        <ele>423</ele>
        <time>2025-04-20T15:24:09Z</time>
      </trkpt>
      <trkpt lat="49.96939" lon="5.31282">
        <ele>423</ele>
        <time>2025-04-20T15:24:10Z</time>
      </trkpt>
      <trkpt lat="49.96938" lon="5.31282">
        <ele>423</ele>
        <time>2025-04-20T15:24:11Z</time>
      </trkpt>
      <trkpt lat="49.96937" lon="5.31283">
        <ele>423</ele>
        <time>2025-04-20T15:24:12Z</time>
      </trkpt>
      <trkpt lat="49.96936" lon="5.31283">
        <ele>423</ele>
        <time>2025-04-20T15:24:13Z</time>
      </trkpt>
      <trkpt lat="49.96934" lon="5.31284">
        <ele>423.1</ele>
        <time>2025-04-20T15:24:14Z</time>
      </trkpt>
      <trkpt lat="49.96933" lon="5.31284">
        <ele>423.1</ele>
        <time>2025-04-20T15:24:15Z</time>
      </trkpt>
      <trkpt lat="49.96932" lon="5.31285">
        <ele>423.1</ele>
        <time>2025-04-20T15:24:16Z</time>
      </trkpt>
      <trkpt lat="49.9693" lon="5.31285">
        <ele>423.1</ele>
        <time>2025-04-20T15:24:17Z</time>
      </trkpt>
      <trkpt lat="49.96929" lon="5.31286">
        <ele>423.1</ele>
        <time>2025-04-20T15:24:18Z</time>
      </trkpt>
      <trkpt lat="49.96928" lon="5.31286">
        <ele>423.1</ele>
        <time>2025-04-20T15:24:19Z</time>
      </trkpt>
      <trkpt lat="49.96927" lon="5.31287">
        <ele>423.1</ele>
        <time>2025-04-20T15:24:20Z</time>
      </trkpt>
      <trkpt lat="49.96926" lon="5.31287">
        <ele>423.1</ele>
        <time>2025-04-20T15:24:21Z</time>
      </trkpt>
      <trkpt lat="49.96925" lon="5.31288">
        <ele>423.1</ele>
        <time>2025-04-20T15:24:22Z</time>
      </trkpt>
      <trkpt lat="49.96924" lon="5.31289">
        <ele>423.1</ele>
        <time>2025-04-20T15:24:23Z</time>
      </trkpt>
      <trkpt lat="49.96922" lon="5.3129">
        <ele>423</ele>
        <time>2025-04-20T15:24:24Z</time>
      </trkpt>
      <trkpt lat="49.96921" lon="5.3129">
        <ele>423</ele>
        <time>2025-04-20T15:24:25Z</time>
      </trkpt>
      <trkpt lat="49.9692" lon="5.31291">
        <ele>423</ele>
        <time>2025-04-20T15:24:26Z</time>
      </trkpt>
      <trkpt lat="49.96919" lon="5.31291">
        <ele>423</ele>
        <time>2025-04-20T15:24:27Z</time>
      </trkpt>
      <trkpt lat="49.96918" lon="5.31291">
        <ele>423</ele>
        <time>2025-04-20T15:24:28Z</time>
      </trkpt>
      <trkpt lat="49.96917" lon="5.31292">
        <ele>423</ele>
        <time>2025-04-20T15:24:29Z</time>
      </trkpt>
      <trkpt lat="49.96916" lon="5.31292">
        <ele>423</ele>
        <time>2025-04-20T15:24:30Z</time>
      </trkpt>
      <trkpt lat="49.96914" lon="5.31292">
        <ele>423</ele>
        <time>2025-04-20T15:24:31Z</time>
      </trkpt>
      <trkpt lat="49.96913" lon="5.31292">
        <ele>423</ele>
        <time>2025-04-20T15:24:32Z</time>
      </trkpt>
      <trkpt lat="49.96912" lon="5.31292">
        <ele>423</ele>
        <time>2025-04-20T15:24:33Z</time>
      </trkpt>
      <trkpt lat="49.96911" lon="5.31293">
        <ele>422.9</ele>
        <time>2025-04-20T15:24:34Z</time>
      </trkpt>
      <trkpt lat="49.96909" lon="5.31293">
        <ele>422.9</ele>
        <time>2025-04-20T15:24:35Z</time>
      </trkpt>
      <trkpt lat="49.96909" lon="5.31293">
        <ele>422.9</ele>
        <time>2025-04-20T15:24:36Z</time>
      </trkpt>
      <trkpt lat="49.96909" lon="5.31293">
        <ele>422.9</ele>
        <time>2025-04-20T15:24:37Z</time>
      </trkpt>
      <trkpt lat="49.96908" lon="5.31293">
        <ele>422.9</ele>
        <time>2025-04-20T15:24:38Z</time>
      </trkpt>
      <trkpt lat="49.96908" lon="5.31293">
        <ele>422.9</ele>
        <time>2025-04-20T15:24:39Z</time>
      </trkpt>
      <trkpt lat="49.96907" lon="5.31293">
        <ele>422.9</ele>
        <time>2025-04-20T15:24:40Z</time>
      </trkpt>
      <trkpt lat="49.96906" lon="5.31294">
        <ele>422.9</ele>
        <time>2025-04-20T15:24:41Z</time>
      </trkpt>
      <trkpt lat="49.96906" lon="5.31294">
        <ele>422.8</ele>
        <time>2025-04-20T15:24:42Z</time>
      </trkpt>
      <trkpt lat="49.96905" lon="5.31294">
        <ele>422.8</ele>
        <time>2025-04-20T15:24:43Z</time>
      </trkpt>
      <trkpt lat="49.96904" lon="5.31295">
        <ele>422.8</ele>
        <time>2025-04-20T15:24:44Z</time>
      </trkpt>
      <trkpt lat="49.96903" lon="5.31295">
        <ele>422.8</ele>
        <time>2025-04-20T15:24:45Z</time>
      </trkpt>
      <trkpt lat="49.96902" lon="5.31296">
        <ele>422.7</ele>
        <time>2025-04-20T15:24:46Z</time>
      </trkpt>
      <trkpt lat="49.96901" lon="5.31296">
        <ele>422.7</ele>
        <time>2025-04-20T15:24:47Z</time>
      </trkpt>
      <trkpt lat="49.969" lon="5.31296">
        <ele>422.7</ele>
        <time>2025-04-20T15:24:48Z</time>
      </trkpt>
      <trkpt lat="49.96899" lon="5.31297">
        <ele>422.6</ele>
        <time>2025-04-20T15:24:49Z</time>
      </trkpt>
      <trkpt lat="49.96898" lon="5.31297">
        <ele>422.6</ele>
        <time>2025-04-20T15:24:50Z</time>
      </trkpt>
      <trkpt lat="49.96897" lon="5.31297">
        <ele>422.6</ele>
        <time>2025-04-20T15:24:51Z</time>
      </trkpt>
      <trkpt lat="49.96896" lon="5.31298">
        <ele>422.6</ele>
        <time>2025-04-20T15:24:52Z</time>
      </trkpt>
      <trkpt lat="49.96895" lon="5.31298">
        <ele>422.6</ele>
        <time>2025-04-20T15:24:53Z</time>
      </trkpt>
      <trkpt lat="49.96894" lon="5.31298">
        <ele>422.5</ele>
        <time>2025-04-20T15:24:54Z</time>
      </trkpt>
      <trkpt lat="49.96893" lon="5.31298">
        <ele>422.5</ele>
        <time>2025-04-20T15:24:55Z</time>
      </trkpt>
      <trkpt lat="49.96892" lon="5.31298">
        <ele>422.5</ele>
        <time>2025-04-20T15:24:56Z</time>
      </trkpt>
      <trkpt lat="49.96891" lon="5.31298">
        <ele>422.5</ele>
        <time>2025-04-20T15:24:57Z</time>
      </trkpt>
      <trkpt lat="49.9689" lon="5.31298">
        <ele>422.5</ele>
        <time>2025-04-20T15:24:58Z</time>
      </trkpt>
      <trkpt lat="49.96889" lon="5.31298">
        <ele>422.6</ele>
        <time>2025-04-20T15:24:59Z</time>
      </trkpt>
      <trkpt lat="49.96889" lon="5.31298">
        <ele>422.6</ele>
        <time>2025-04-20T15:25:00Z</time>
      </trkpt>
      <trkpt lat="49.96888" lon="5.31298">
        <ele>422.6</ele>
        <time>2025-04-20T15:25:01Z</time>
      </trkpt>
      <trkpt lat="49.96887" lon="5.31297">
        <ele>422.6</ele>
        <time>2025-04-20T15:25:02Z</time>
      </trkpt>
      <trkpt lat="49.96886" lon="5.31297">
        <ele>422.6</ele>
        <time>2025-04-20T15:25:03Z</time>
      </trkpt>
      <trkpt lat="49.96885" lon="5.31297">
        <ele>422.6</ele>
        <time>2025-04-20T15:25:04Z</time>
      </trkpt>
      <trkpt lat="49.96883" lon="5.31297">
        <ele>422.6</ele>
        <time>2025-04-20T15:25:05Z</time>
      </trkpt>
      <trkpt lat="49.96882" lon="5.31297">
        <ele>422.6</ele>
        <time>2025-04-20T15:25:06Z</time>
      </trkpt>
      <trkpt lat="49.96881" lon="5.31297">
        <ele>422.6</ele>
        <time>2025-04-20T15:25:07Z</time>
      </trkpt>
      <trkpt lat="49.9688" lon="5.31297">
        <ele>422.6</ele>
        <time>2025-04-20T15:25:08Z</time>
      </trkpt>
      <trkpt lat="49.96879" lon="5.31297">
        <ele>422.6</ele>
        <time>2025-04-20T15:25:09Z</time>
      </trkpt>
      <trkpt lat="49.96877" lon="5.31298">
        <ele>422.6</ele>
        <time>2025-04-20T15:25:10Z</time>
      </trkpt>
      <trkpt lat="49.96876" lon="5.31298">
        <ele>422.6</ele>
        <time>2025-04-20T15:25:11Z</time>
      </trkpt>
      <trkpt lat="49.96875" lon="5.31298">
        <ele>422.6</ele>
        <time>2025-04-20T15:25:12Z</time>
      </trkpt>
      <trkpt lat="49.96873" lon="5.31298">
        <ele>422.6</ele>
        <time>2025-04-20T15:25:13Z</time>
      </trkpt>
      <trkpt lat="49.96872" lon="5.31298">
        <ele>422.6</ele>
        <time>2025-04-20T15:25:14Z</time>
      </trkpt>
      <trkpt lat="49.96871" lon="5.31298">
        <ele>422.5</ele>
        <time>2025-04-20T15:25:15Z</time>
      </trkpt>
      <trkpt lat="49.96869" lon="5.31298">
        <ele>422.5</ele>
        <time>2025-04-20T15:25:16Z</time>
      </trkpt>
      <trkpt lat="49.96868" lon="5.31298">
        <ele>422.5</ele>
        <time>2025-04-20T15:25:17Z</time>
      </trkpt>
      <trkpt lat="49.96867" lon="5.31298">
        <ele>422.5</ele>
        <time>2025-04-20T15:25:18Z</time>
      </trkpt>
      <trkpt lat="49.96866" lon="5.31298">
        <ele>422.6</ele>
        <time>2025-04-20T15:25:19Z</time>
      </trkpt>
      <trkpt lat="49.96865" lon="5.31298">
        <ele>422.6</ele>
        <time>2025-04-20T15:25:20Z</time>
      </trkpt>
      <trkpt lat="49.96864" lon="5.31297">
        <ele>422.6</ele>
        <time>2025-04-20T15:25:21Z</time>
      </trkpt>
      <trkpt lat="49.96862" lon="5.31297">
        <ele>422.6</ele>
        <time>2025-04-20T15:25:22Z</time>
      </trkpt>
      <trkpt lat="49.96861" lon="5.31297">
        <ele>422.6</ele>
        <time>2025-04-20T15:25:23Z</time>
      </trkpt>
      <trkpt lat="49.9686" lon="5.31297">
        <ele>422.6</ele>
        <time>2025-04-20T15:25:24Z</time>
      </trkpt>
      <trkpt lat="49.96859" lon="5.31297">
        <ele>422.6</ele>
        <time>2025-04-20T15:25:25Z</time>
      </trkpt>
      <trkpt lat="49.96858" lon="5.31297">
        <ele>422.6</ele>
        <time>2025-04-20T15:25:26Z</time>
      </trkpt>
      <trkpt lat="49.96857" lon="5.31297">
        <ele>422.5</ele>
        <time>2025-04-20T15:25:27Z</time>
      </trkpt>
      <trkpt lat="49.96856" lon="5.31297">
        <ele>422.5</ele>
        <time>2025-04-20T15:25:28Z</time>
      </trkpt>
      <trkpt lat="49.96854" lon="5.31298">
        <ele>422.5</ele>
        <time>2025-04-20T15:25:29Z</time>
      </trkpt>
      <trkpt lat="49.96853" lon="5.31298">
        <ele>422.5</ele>
        <time>2025-04-20T15:25:30Z</time>
      </trkpt>
      <trkpt lat="49.96852" lon="5.31298">
        <ele>422.4</ele>
        <time>2025-04-20T15:25:31Z</time>
      </trkpt>
      <trkpt lat="49.96851" lon="5.31298">
        <ele>422.4</ele>
        <time>2025-04-20T15:25:32Z</time>
      </trkpt>
      <trkpt lat="49.96849" lon="5.31298">
        <ele>422.4</ele>
        <time>2025-04-20T15:25:33Z</time>
      </trkpt>
      <trkpt lat="49.96848" lon="5.31299">
        <ele>422.4</ele>
        <time>2025-04-20T15:25:34Z</time>
      </trkpt>
      <trkpt lat="49.96847" lon="5.31299">
        <ele>422.4</ele>
        <time>2025-04-20T15:25:35Z</time>
      </trkpt>
      <trkpt lat="49.96846" lon="5.31299">
        <ele>422.3</ele>
        <time>2025-04-20T15:25:36Z</time>
      </trkpt>
      <trkpt lat="49.96845" lon="5.31299">
        <ele>422.3</ele>
        <time>2025-04-20T15:25:37Z</time>
      </trkpt>
      <trkpt lat="49.96843" lon="5.31299">
        <ele>422.3</ele>
        <time>2025-04-20T15:25:38Z</time>
      </trkpt>
      <trkpt lat="49.96842" lon="5.31299">
        <ele>422.3</ele>
        <time>2025-04-20T15:25:39Z</time>
      </trkpt>
      <trkpt lat="49.96841" lon="5.31299">
        <ele>422.3</ele>
        <time>2025-04-20T15:25:40Z</time>
      </trkpt>
      <trkpt lat="49.9684" lon="5.31299">
        <ele>422.3</ele>
        <time>2025-04-20T15:25:41Z</time>
      </trkpt>
      <trkpt lat="49.96839" lon="5.31299">
        <ele>422.3</ele>
        <time>2025-04-20T15:25:42Z</time>
      </trkpt>
      <trkpt lat="49.96838" lon="5.31298">
        <ele>422.3</ele>
        <time>2025-04-20T15:25:43Z</time>
      </trkpt>
      <trkpt lat="49.96837" lon="5.31298">
        <ele>422.3</ele>
        <time>2025-04-20T15:25:44Z</time>
      </trkpt>
      <trkpt lat="49.96836" lon="5.31298">
        <ele>422.3</ele>
        <time>2025-04-20T15:25:45Z</time>
      </trkpt>
      <trkpt lat="49.96835" lon="5.31298">
        <ele>422.3</ele>
        <time>2025-04-20T15:25:46Z</time>
      </trkpt>
      <trkpt lat="49.96834" lon="5.31297">
        <ele>422.3</ele>
        <time>2025-04-20T15:25:47Z</time>
      </trkpt>
      <trkpt lat="49.96833" lon="5.31297">
        <ele>422.3</ele>
        <time>2025-04-20T15:25:48Z</time>
      </trkpt>
      <trkpt lat="49.96832" lon="5.31296">
        <ele>422.3</ele>
        <time>2025-04-20T15:25:49Z</time>
      </trkpt>
      <trkpt lat="49.96831" lon="5.31296">
        <ele>422.3</ele>
        <time>2025-04-20T15:25:50Z</time>
      </trkpt>
      <trkpt lat="49.9683" lon="5.31296">
        <ele>422.3</ele>
        <time>2025-04-20T15:25:51Z</time>
      </trkpt>
      <trkpt lat="49.96829" lon="5.31295">
        <ele>422.3</ele>
        <time>2025-04-20T15:25:52Z</time>
      </trkpt>
      <trkpt lat="49.96829" lon="5.31295">
        <ele>422.3</ele>
        <time>2025-04-20T15:25:53Z</time>
      </trkpt>
      <trkpt lat="49.96828" lon="5.31295">
        <ele>422.3</ele>
        <time>2025-04-20T15:25:54Z</time>
      </trkpt>
      <trkpt lat="49.96828" lon="5.31295">
        <ele>422.3</ele>
        <time>2025-04-20T15:25:55Z</time>
      </trkpt>
      <trkpt lat="49.96827" lon="5.31294">
        <ele>422.3</ele>
        <time>2025-04-20T15:25:56Z</time>
      </trkpt>
      <trkpt lat="49.96827" lon="5.31294">
        <ele>422.3</ele>
        <time>2025-04-20T15:25:57Z</time>
      </trkpt>
      <trkpt lat="49.96826" lon="5.31294">
        <ele>422.3</ele>
        <time>2025-04-20T15:25:58Z</time>
      </trkpt>
      <trkpt lat="49.96826" lon="5.31294">
        <ele>422.3</ele>
        <time>2025-04-20T15:25:59Z</time>
      </trkpt>
      <trkpt lat="49.96826" lon="5.31294">
        <ele>422.2</ele>
        <time>2025-04-20T15:26:00Z</time>
      </trkpt>
      <trkpt lat="49.96826" lon="5.31294">
        <ele>422.2</ele>
        <time>2025-04-20T15:26:01Z</time>
      </trkpt>
      <trkpt lat="49.96825" lon="5.31294">
        <ele>422.2</ele>
        <time>2025-04-20T15:26:02Z</time>
      </trkpt>
      <trkpt lat="49.96825" lon="5.31294">
        <ele>422.2</ele>
        <time>2025-04-20T15:26:03Z</time>
      </trkpt>
      <trkpt lat="49.96824" lon="5.31294">
        <ele>422.2</ele>
        <time>2025-04-20T15:26:04Z</time>
      </trkpt>
      <trkpt lat="49.96823" lon="5.31294">
        <ele>422.2</ele>
        <time>2025-04-20T15:26:05Z</time>
      </trkpt>
      <trkpt lat="49.96822" lon="5.31293">
        <ele>422.2</ele>
        <time>2025-04-20T15:26:06Z</time>
      </trkpt>
      <trkpt lat="49.96822" lon="5.31293">
        <ele>422.2</ele>
        <time>2025-04-20T15:26:07Z</time>
      </trkpt>
      <trkpt lat="49.9682" lon="5.31292">
        <ele>422.2</ele>
        <time>2025-04-20T15:26:08Z</time>
      </trkpt>
      <trkpt lat="49.96819" lon="5.31292">
        <ele>422.2</ele>
        <time>2025-04-20T15:26:09Z</time>
      </trkpt>
      <trkpt lat="49.96818" lon="5.31291">
        <ele>422.3</ele>
        <time>2025-04-20T15:26:10Z</time>
      </trkpt>
      <trkpt lat="49.96817" lon="5.3129">
        <ele>422.3</ele>
        <time>2025-04-20T15:26:11Z</time>
      </trkpt>
      <trkpt lat="49.96816" lon="5.3129">
        <ele>422.3</ele>
        <time>2025-04-20T15:26:12Z</time>
      </trkpt>
      <trkpt lat="49.96815" lon="5.31289">
        <ele>422.3</ele>
        <time>2025-04-20T15:26:13Z</time>
      </trkpt>
      <trkpt lat="49.96814" lon="5.31288">
        <ele>422.4</ele>
        <time>2025-04-20T15:26:14Z</time>
      </trkpt>
      <trkpt lat="49.96813" lon="5.31288">
        <ele>422.4</ele>
        <time>2025-04-20T15:26:15Z</time>
      </trkpt>
      <trkpt lat="49.96812" lon="5.31287">
        <ele>422.4</ele>
        <time>2025-04-20T15:26:16Z</time>
      </trkpt>
      <trkpt lat="49.96811" lon="5.31287">
        <ele>422.4</ele>
        <time>2025-04-20T15:26:17Z</time>
      </trkpt>
      <trkpt lat="49.9681" lon="5.31286">
        <ele>422.4</ele>
        <time>2025-04-20T15:26:18Z</time>
      </trkpt>
      <trkpt lat="49.96809" lon="5.31286">
        <ele>422.5</ele>
        <time>2025-04-20T15:26:19Z</time>
      </trkpt>
      <trkpt lat="49.96808" lon="5.31285">
        <ele>422.5</ele>
        <time>2025-04-20T15:26:20Z</time>
      </trkpt>
      <trkpt lat="49.96807" lon="5.31285">
        <ele>422.5</ele>
        <time>2025-04-20T15:26:21Z</time>
      </trkpt>
      <trkpt lat="49.96806" lon="5.31284">
        <ele>422.6</ele>
        <time>2025-04-20T15:26:22Z</time>
      </trkpt>
      <trkpt lat="49.96805" lon="5.31283">
        <ele>422.6</ele>
        <time>2025-04-20T15:26:23Z</time>
      </trkpt>
      <trkpt lat="49.96804" lon="5.31283">
        <ele>422.6</ele>
        <time>2025-04-20T15:26:24Z</time>
      </trkpt>
      <trkpt lat="49.96803" lon="5.31282">
        <ele>422.6</ele>
        <time>2025-04-20T15:26:25Z</time>
      </trkpt>
      <trkpt lat="49.96802" lon="5.31282">
        <ele>422.6</ele>
        <time>2025-04-20T15:26:26Z</time>
      </trkpt>
      <trkpt lat="49.96802" lon="5.31282">
        <ele>422.6</ele>
        <time>2025-04-20T15:26:27Z</time>
      </trkpt>
      <trkpt lat="49.96801" lon="5.31281">
        <ele>422.6</ele>
        <time>2025-04-20T15:26:28Z</time>
      </trkpt>
      <trkpt lat="49.968" lon="5.31281">
        <ele>422.6</ele>
        <time>2025-04-20T15:26:29Z</time>
      </trkpt>
      <trkpt lat="49.96799" lon="5.3128">
        <ele>422.6</ele>
        <time>2025-04-20T15:26:30Z</time>
      </trkpt>
      <trkpt lat="49.96798" lon="5.3128">
        <ele>422.6</ele>
        <time>2025-04-20T15:26:31Z</time>
      </trkpt>
      <trkpt lat="49.96797" lon="5.31279">
        <ele>422.6</ele>
        <time>2025-04-20T15:26:32Z</time>
      </trkpt>
      <trkpt lat="49.96796" lon="5.31279">
        <ele>422.6</ele>
        <time>2025-04-20T15:26:33Z</time>
      </trkpt>
      <trkpt lat="49.96795" lon="5.31278">
        <ele>422.6</ele>
        <time>2025-04-20T15:26:34Z</time>
      </trkpt>
      <trkpt lat="49.96794" lon="5.31277">
        <ele>422.6</ele>
        <time>2025-04-20T15:26:35Z</time>
      </trkpt>
      <trkpt lat="49.96793" lon="5.31277">
        <ele>422.6</ele>
        <time>2025-04-20T15:26:36Z</time>
      </trkpt>
      <trkpt lat="49.96792" lon="5.31276">
        <ele>422.6</ele>
        <time>2025-04-20T15:26:37Z</time>
      </trkpt>
      <trkpt lat="49.96791" lon="5.31276">
        <ele>422.6</ele>
        <time>2025-04-20T15:26:38Z</time>
      </trkpt>
      <trkpt lat="49.96789" lon="5.31275">
        <ele>422.6</ele>
        <time>2025-04-20T15:26:39Z</time>
      </trkpt>
      <trkpt lat="49.96788" lon="5.31274">
        <ele>422.6</ele>
        <time>2025-04-20T15:26:40Z</time>
      </trkpt>
      <trkpt lat="49.96787" lon="5.31274">
        <ele>422.6</ele>
        <time>2025-04-20T15:26:41Z</time>
      </trkpt>
      <trkpt lat="49.96786" lon="5.31273">
        <ele>422.6</ele>
        <time>2025-04-20T15:26:42Z</time>
      </trkpt>
      <trkpt lat="49.96785" lon="5.31272">
        <ele>422.6</ele>
        <time>2025-04-20T15:26:43Z</time>
      </trkpt>
      <trkpt lat="49.96784" lon="5.31272">
        <ele>422.6</ele>
        <time>2025-04-20T15:26:44Z</time>
      </trkpt>
      <trkpt lat="49.96782" lon="5.31271">
        <ele>422.6</ele>
        <time>2025-04-20T15:26:45Z</time>
      </trkpt>
      <trkpt lat="49.96782" lon="5.31271">
        <ele>422.6</ele>
        <time>2025-04-20T15:26:46Z</time>
      </trkpt>
      <trkpt lat="49.96781" lon="5.31271">
        <ele>422.6</ele>
        <time>2025-04-20T15:26:47Z</time>
      </trkpt>
      <trkpt lat="49.9678" lon="5.3127">
        <ele>422.6</ele>
        <time>2025-04-20T15:26:48Z</time>
      </trkpt>
      <trkpt lat="49.96779" lon="5.3127">
        <ele>422.6</ele>
        <time>2025-04-20T15:26:49Z</time>
      </trkpt>
      <trkpt lat="49.96778" lon="5.3127">
        <ele>422.6</ele>
        <time>2025-04-20T15:26:50Z</time>
      </trkpt>
      <trkpt lat="49.96777" lon="5.3127">
        <ele>422.6</ele>
        <time>2025-04-20T15:26:51Z</time>
      </trkpt>
      <trkpt lat="49.96776" lon="5.3127">
        <ele>422.6</ele>
        <time>2025-04-20T15:26:52Z</time>
      </trkpt>
      <trkpt lat="49.96775" lon="5.31269">
        <ele>422.6</ele>
        <time>2025-04-20T15:26:53Z</time>
      </trkpt>
      <trkpt lat="49.96774" lon="5.31269">
        <ele>422.6</ele>
        <time>2025-04-20T15:26:54Z</time>
      </trkpt>
      <trkpt lat="49.96772" lon="5.31269">
        <ele>422.6</ele>
        <time>2025-04-20T15:26:55Z</time>
      </trkpt>
      <trkpt lat="49.96771" lon="5.31269">
        <ele>422.6</ele>
        <time>2025-04-20T15:26:56Z</time>
      </trkpt>
      <trkpt lat="49.9677" lon="5.31269">
        <ele>422.6</ele>
        <time>2025-04-20T15:26:57Z</time>
      </trkpt>
      <trkpt lat="49.96769" lon="5.31268">
        <ele>422.6</ele>
        <time>2025-04-20T15:26:58Z</time>
      </trkpt>
      <trkpt lat="49.96768" lon="5.31268">
        <ele>422.6</ele>
        <time>2025-04-20T15:26:59Z</time>
      </trkpt>
      <trkpt lat="49.96767" lon="5.31268">
        <ele>422.6</ele>
        <time>2025-04-20T15:27:00Z</time>
      </trkpt>
      <trkpt lat="49.96766" lon="5.31268">
        <ele>422.6</ele>
        <time>2025-04-20T15:27:01Z</time>
      </trkpt>
      <trkpt lat="49.96765" lon="5.31267">
        <ele>422.6</ele>
        <time>2025-04-20T15:27:02Z</time>
      </trkpt>
      <trkpt lat="49.96764" lon="5.31267">
        <ele>422.6</ele>
        <time>2025-04-20T15:27:03Z</time>
      </trkpt>
      <trkpt lat="49.96763" lon="5.31267">
        <ele>422.6</ele>
        <time>2025-04-20T15:27:04Z</time>
      </trkpt>
      <trkpt lat="49.96762" lon="5.31268">
        <ele>422.5</ele>
        <time>2025-04-20T15:27:05Z</time>
      </trkpt>
      <trkpt lat="49.96761" lon="5.31268">
        <ele>422.5</ele>
        <time>2025-04-20T15:27:06Z</time>
      </trkpt>
      <trkpt lat="49.9676" lon="5.31268">
        <ele>422.5</ele>
        <time>2025-04-20T15:27:07Z</time>
      </trkpt>
      <trkpt lat="49.96759" lon="5.31269">
        <ele>422.4</ele>
        <time>2025-04-20T15:27:08Z</time>
      </trkpt>
      <trkpt lat="49.96758" lon="5.3127">
        <ele>422.4</ele>
        <time>2025-04-20T15:27:55Z</time>
      </trkpt>
      <trkpt lat="49.96758" lon="5.31271">
        <ele>422.3</ele>
        <time>2025-04-20T15:27:56Z</time>
      </trkpt>
      <trkpt lat="49.96757" lon="5.31272">
        <ele>422.3</ele>
        <time>2025-04-20T15:27:57Z</time>
      </trkpt>
      <trkpt lat="49.96757" lon="5.31273">
        <ele>422.2</ele>
        <time>2025-04-20T15:27:58Z</time>
      </trkpt>
      <trkpt lat="49.96757" lon="5.31274">
        <ele>422.2</ele>
        <time>2025-04-20T15:27:59Z</time>
      </trkpt>
      <trkpt lat="49.96758" lon="5.31276">
        <ele>422.1</ele>
        <time>2025-04-20T15:28:00Z</time>
      </trkpt>
      <trkpt lat="49.96758" lon="5.31278">
        <ele>422</ele>
        <time>2025-04-20T15:28:01Z</time>
      </trkpt>
      <trkpt lat="49.96759" lon="5.31279">
        <ele>421.9</ele>
        <time>2025-04-20T15:28:02Z</time>
      </trkpt>
      <trkpt lat="49.96759" lon="5.31281">
        <ele>421.9</ele>
        <time>2025-04-20T15:28:03Z</time>
      </trkpt>
      <trkpt lat="49.9676" lon="5.31283">
        <ele>421.8</ele>
        <time>2025-04-20T15:28:04Z</time>
      </trkpt>
      <trkpt lat="49.9676" lon="5.31284">
        <ele>421.8</ele>
        <time>2025-04-20T15:28:05Z</time>
      </trkpt>
      <trkpt lat="49.96761" lon="5.31286">
        <ele>421.7</ele>
        <time>2025-04-20T15:28:06Z</time>
      </trkpt>
      <trkpt lat="49.96762" lon="5.31287">
        <ele>421.7</ele>
        <time>2025-04-20T15:28:07Z</time>
      </trkpt>
      <trkpt lat="49.96762" lon="5.31288">
        <ele>421.6</ele>
        <time>2025-04-20T15:28:08Z</time>
      </trkpt>
      <trkpt lat="49.96763" lon="5.31289">
        <ele>421.6</ele>
        <time>2025-04-20T15:28:09Z</time>
      </trkpt>
      <trkpt lat="49.96763" lon="5.3129">
        <ele>421.6</ele>
        <time>2025-04-20T15:28:10Z</time>
      </trkpt>
      <trkpt lat="49.96764" lon="5.31291">
        <ele>421.5</ele>
        <time>2025-04-20T15:28:11Z</time>
      </trkpt>
      <trkpt lat="49.96764" lon="5.31292">
        <ele>421.5</ele>
        <time>2025-04-20T15:28:12Z</time>
      </trkpt>
      <trkpt lat="49.96765" lon="5.31293">
        <ele>421.5</ele>
        <time>2025-04-20T15:28:13Z</time>
      </trkpt>
      <trkpt lat="49.96765" lon="5.31294">
        <ele>421.4</ele>
        <time>2025-04-20T15:28:14Z</time>
      </trkpt>
      <trkpt lat="49.96766" lon="5.31296">
        <ele>421.4</ele>
        <time>2025-04-20T15:28:15Z</time>
      </trkpt>
      <trkpt lat="49.96767" lon="5.31297">
        <ele>421.3</ele>
        <time>2025-04-20T15:28:16Z</time>
      </trkpt>
      <trkpt lat="49.96767" lon="5.31299">
        <ele>421.2</ele>
        <time>2025-04-20T15:28:17Z</time>
      </trkpt>
      <trkpt lat="49.96768" lon="5.31301">
        <ele>421.2</ele>
        <time>2025-04-20T15:28:18Z</time>
      </trkpt>
      <trkpt lat="49.96769" lon="5.31302">
        <ele>421.1</ele>
        <time>2025-04-20T15:28:19Z</time>
      </trkpt>
      <trkpt lat="49.96769" lon="5.31304">
        <ele>421.1</ele>
        <time>2025-04-20T15:28:20Z</time>
      </trkpt>
      <trkpt lat="49.9677" lon="5.31306">
        <ele>421</ele>
        <time>2025-04-20T15:28:21Z</time>
      </trkpt>
      <trkpt lat="49.9677" lon="5.31307">
        <ele>420.9</ele>
        <time>2025-04-20T15:28:22Z</time>
      </trkpt>
      <trkpt lat="49.96771" lon="5.31309">
        <ele>420.8</ele>
        <time>2025-04-20T15:28:23Z</time>
      </trkpt>
      <trkpt lat="49.96772" lon="5.3131">
        <ele>420.7</ele>
        <time>2025-04-20T15:28:24Z</time>
      </trkpt>
      <trkpt lat="49.96773" lon="5.31312">
        <ele>420.6</ele>
        <time>2025-04-20T15:28:25Z</time>
      </trkpt>
      <trkpt lat="49.96773" lon="5.31313">
        <ele>420.4</ele>
        <time>2025-04-20T15:28:26Z</time>
      </trkpt>
      <trkpt lat="49.96774" lon="5.31315">
        <ele>420.3</ele>
        <time>2025-04-20T15:28:27Z</time>
      </trkpt>
      <trkpt lat="49.96775" lon="5.31317">
        <ele>420.2</ele>
        <time>2025-04-20T15:28:28Z</time>
      </trkpt>
      <trkpt lat="49.96775" lon="5.31318">
        <ele>420.1</ele>
        <time>2025-04-20T15:28:29Z</time>
      </trkpt>
      <trkpt lat="49.96776" lon="5.3132">
        <ele>420</ele>
        <time>2025-04-20T15:28:30Z</time>
      </trkpt>
      <trkpt lat="49.96777" lon="5.31321">
        <ele>419.9</ele>
        <time>2025-04-20T15:28:31Z</time>
      </trkpt>
      <trkpt lat="49.96777" lon="5.31323">
        <ele>419.8</ele>
        <time>2025-04-20T15:28:32Z</time>
      </trkpt>
      <trkpt lat="49.96778" lon="5.31324">
        <ele>419.7</ele>
        <time>2025-04-20T15:28:33Z</time>
      </trkpt>
      <trkpt lat="49.96779" lon="5.31325">
        <ele>419.6</ele>
        <time>2025-04-20T15:28:34Z</time>
      </trkpt>
      <trkpt lat="49.96779" lon="5.31327">
        <ele>419.5</ele>
        <time>2025-04-20T15:28:35Z</time>
      </trkpt>
      <trkpt lat="49.9678" lon="5.31328">
        <ele>419.5</ele>
        <time>2025-04-20T15:28:36Z</time>
      </trkpt>
      <trkpt lat="49.96781" lon="5.31329">
        <ele>419.4</ele>
        <time>2025-04-20T15:28:37Z</time>
      </trkpt>
      <trkpt lat="49.96782" lon="5.3133">
        <ele>419.4</ele>
        <time>2025-04-20T15:28:38Z</time>
      </trkpt>
      <trkpt lat="49.96783" lon="5.31331">
        <ele>419.3</ele>
        <time>2025-04-20T15:28:39Z</time>
      </trkpt>
      <trkpt lat="49.96784" lon="5.31332">
        <ele>419.3</ele>
        <time>2025-04-20T15:28:40Z</time>
      </trkpt>
      <trkpt lat="49.96785" lon="5.31333">
        <ele>419.3</ele>
        <time>2025-04-20T15:28:41Z</time>
      </trkpt>
      <trkpt lat="49.96786" lon="5.31334">
        <ele>419.3</ele>
        <time>2025-04-20T15:28:42Z</time>
      </trkpt>
      <trkpt lat="49.96787" lon="5.31335">
        <ele>419.3</ele>
        <time>2025-04-20T15:28:43Z</time>
      </trkpt>
      <trkpt lat="49.96788" lon="5.31336">
        <ele>419.3</ele>
        <time>2025-04-20T15:28:44Z</time>
      </trkpt>
      <trkpt lat="49.96788" lon="5.31337">
        <ele>419.3</ele>
        <time>2025-04-20T15:28:45Z</time>
      </trkpt>
      <trkpt lat="49.96789" lon="5.31338">
        <ele>419.2</ele>
        <time>2025-04-20T15:28:46Z</time>
      </trkpt>
      <trkpt lat="49.9679" lon="5.31339">
        <ele>419.2</ele>
        <time>2025-04-20T15:28:47Z</time>
      </trkpt>
      <trkpt lat="49.96791" lon="5.31341">
        <ele>419.2</ele>
        <time>2025-04-20T15:28:48Z</time>
      </trkpt>
      <trkpt lat="49.96792" lon="5.31342">
        <ele>419.2</ele>
        <time>2025-04-20T15:28:49Z</time>
      </trkpt>
      <trkpt lat="49.96792" lon="5.31344">
        <ele>419.1</ele>
        <time>2025-04-20T15:28:50Z</time>
      </trkpt>
      <trkpt lat="49.96793" lon="5.31346">
        <ele>419.1</ele>
        <time>2025-04-20T15:28:51Z</time>
      </trkpt>
      <trkpt lat="49.96794" lon="5.31347">
        <ele>419.1</ele>
        <time>2025-04-20T15:28:52Z</time>
      </trkpt>
      <trkpt lat="49.96794" lon="5.3135">
        <ele>419</ele>
        <time>2025-04-20T15:28:53Z</time>
      </trkpt>
      <trkpt lat="49.96794" lon="5.31352">
        <ele>418.9</ele>
        <time>2025-04-20T15:28:54Z</time>
      </trkpt>
      <trkpt lat="49.96795" lon="5.31353">
        <ele>418.9</ele>
        <time>2025-04-20T15:28:55Z</time>
      </trkpt>
      <trkpt lat="49.96795" lon="5.31354">
        <ele>418.9</ele>
        <time>2025-04-20T15:28:56Z</time>
      </trkpt>
      <trkpt lat="49.96795" lon="5.31356">
        <ele>418.8</ele>
        <time>2025-04-20T15:28:57Z</time>
      </trkpt>
      <trkpt lat="49.96796" lon="5.31357">
        <ele>418.8</ele>
        <time>2025-04-20T15:28:58Z</time>
      </trkpt>
      <trkpt lat="49.96796" lon="5.31359">
        <ele>418.7</ele>
        <time>2025-04-20T15:28:59Z</time>
      </trkpt>
      <trkpt lat="49.96796" lon="5.31361">
        <ele>418.7</ele>
        <time>2025-04-20T15:29:00Z</time>
      </trkpt>
      <trkpt lat="49.96797" lon="5.31362">
        <ele>418.6</ele>
        <time>2025-04-20T15:29:01Z</time>
      </trkpt>
      <trkpt lat="49.96797" lon="5.31364">
        <ele>418.5</ele>
        <time>2025-04-20T15:29:02Z</time>
      </trkpt>
      <trkpt lat="49.96798" lon="5.31366">
        <ele>418.4</ele>
        <time>2025-04-20T15:29:03Z</time>
      </trkpt>
      <trkpt lat="49.96798" lon="5.31368">
        <ele>418.3</ele>
        <time>2025-04-20T15:29:04Z</time>
      </trkpt>
      <trkpt lat="49.96799" lon="5.31369">
        <ele>418.2</ele>
        <time>2025-04-20T15:29:05Z</time>
      </trkpt>
      <trkpt lat="49.96799" lon="5.31371">
        <ele>418.1</ele>
        <time>2025-04-20T15:29:06Z</time>
      </trkpt>
      <trkpt lat="49.968" lon="5.31373">
        <ele>418</ele>
        <time>2025-04-20T15:29:07Z</time>
      </trkpt>
      <trkpt lat="49.968" lon="5.31375">
        <ele>417.9</ele>
        <time>2025-04-20T15:29:08Z</time>
      </trkpt>
      <trkpt lat="49.968" lon="5.31377">
        <ele>417.8</ele>
        <time>2025-04-20T15:29:09Z</time>
      </trkpt>
      <trkpt lat="49.968" lon="5.31379">
        <ele>417.6</ele>
        <time>2025-04-20T15:29:10Z</time>
      </trkpt>
      <trkpt lat="49.96801" lon="5.31381">
        <ele>417.5</ele>
        <time>2025-04-20T15:29:11Z</time>
      </trkpt>
      <trkpt lat="49.96801" lon="5.31383">
        <ele>417.4</ele>
        <time>2025-04-20T15:29:12Z</time>
      </trkpt>
      <trkpt lat="49.96801" lon="5.31385">
        <ele>417.3</ele>
        <time>2025-04-20T15:29:13Z</time>
      </trkpt>
      <trkpt lat="49.96801" lon="5.31387">
        <ele>417.1</ele>
        <time>2025-04-20T15:29:14Z</time>
      </trkpt>
      <trkpt lat="49.96802" lon="5.31389">
        <ele>417</ele>
        <time>2025-04-20T15:29:15Z</time>
      </trkpt>
      <trkpt lat="49.96802" lon="5.3139">
        <ele>416.9</ele>
        <time>2025-04-20T15:29:16Z</time>
      </trkpt>
      <trkpt lat="49.96803" lon="5.31392">
        <ele>416.9</ele>
        <time>2025-04-20T15:29:17Z</time>
      </trkpt>
      <trkpt lat="49.96803" lon="5.31394">
        <ele>416.8</ele>
        <time>2025-04-20T15:29:18Z</time>
      </trkpt>
      <trkpt lat="49.96804" lon="5.31395">
        <ele>416.8</ele>
        <time>2025-04-20T15:29:19Z</time>
      </trkpt>
      <trkpt lat="49.96804" lon="5.31397">
        <ele>416.7</ele>
        <time>2025-04-20T15:29:20Z</time>
      </trkpt>
      <trkpt lat="49.96805" lon="5.31399">
        <ele>416.6</ele>
        <time>2025-04-20T15:29:21Z</time>
      </trkpt>
      <trkpt lat="49.96805" lon="5.31401">
        <ele>416.6</ele>
        <time>2025-04-20T15:29:22Z</time>
      </trkpt>
      <trkpt lat="49.96805" lon="5.31403">
        <ele>416.5</ele>
        <time>2025-04-20T15:29:23Z</time>
      </trkpt>
      <trkpt lat="49.96805" lon="5.31405">
        <ele>416.4</ele>
        <time>2025-04-20T15:29:24Z</time>
      </trkpt>
      <trkpt lat="49.96806" lon="5.31407">
        <ele>416.4</ele>
        <time>2025-04-20T15:29:25Z</time>
      </trkpt>
      <trkpt lat="49.96806" lon="5.31408">
        <ele>416.3</ele>
        <time>2025-04-20T15:29:26Z</time>
      </trkpt>
      <trkpt lat="49.96807" lon="5.31413">
        <ele>416.2</ele>
        <time>2025-04-20T15:29:35Z</time>
      </trkpt>
      <trkpt lat="49.96808" lon="5.31414">
        <ele>416.1</ele>
        <time>2025-04-20T15:29:36Z</time>
      </trkpt>
      <trkpt lat="49.96808" lon="5.31416">
        <ele>416</ele>
        <time>2025-04-20T15:29:37Z</time>
      </trkpt>
      <trkpt lat="49.96809" lon="5.31418">
        <ele>415.9</ele>
        <time>2025-04-20T15:29:38Z</time>
      </trkpt>
      <trkpt lat="49.9681" lon="5.31419">
        <ele>415.8</ele>
        <time>2025-04-20T15:29:39Z</time>
      </trkpt>
      <trkpt lat="49.9681" lon="5.31421">
        <ele>415.7</ele>
        <time>2025-04-20T15:29:40Z</time>
      </trkpt>
      <trkpt lat="49.96811" lon="5.31422">
        <ele>415.6</ele>
        <time>2025-04-20T15:29:41Z</time>
      </trkpt>
      <trkpt lat="49.96812" lon="5.31424">
        <ele>415.6</ele>
        <time>2025-04-20T15:29:42Z</time>
      </trkpt>
      <trkpt lat="49.96813" lon="5.31425">
        <ele>415.5</ele>
        <time>2025-04-20T15:29:43Z</time>
      </trkpt>
      <trkpt lat="49.96814" lon="5.31425">
        <ele>415.5</ele>
        <time>2025-04-20T15:29:44Z</time>
      </trkpt>
      <trkpt lat="49.96815" lon="5.31426">
        <ele>415.4</ele>
        <time>2025-04-20T15:29:45Z</time>
      </trkpt>
      <trkpt lat="49.96816" lon="5.31427">
        <ele>415.4</ele>
        <time>2025-04-20T15:29:46Z</time>
      </trkpt>
      <trkpt lat="49.96817" lon="5.31428">
        <ele>415.4</ele>
        <time>2025-04-20T15:29:47Z</time>
      </trkpt>
      <trkpt lat="49.96818" lon="5.31429">
        <ele>415.3</ele>
        <time>2025-04-20T15:29:48Z</time>
      </trkpt>
      <trkpt lat="49.96819" lon="5.3143">
        <ele>415.3</ele>
        <time>2025-04-20T15:29:49Z</time>
      </trkpt>
      <trkpt lat="49.9682" lon="5.31431">
        <ele>415.3</ele>
        <time>2025-04-20T15:29:50Z</time>
      </trkpt>
      <trkpt lat="49.96821" lon="5.31431">
        <ele>415.2</ele>
        <time>2025-04-20T15:29:51Z</time>
      </trkpt>
      <trkpt lat="49.96822" lon="5.31432">
        <ele>415.2</ele>
        <time>2025-04-20T15:29:52Z</time>
      </trkpt>
      <trkpt lat="49.96822" lon="5.31432">
        <ele>415.2</ele>
        <time>2025-04-20T15:29:53Z</time>
      </trkpt>
      <trkpt lat="49.96823" lon="5.31433">
        <ele>415.2</ele>
        <time>2025-04-20T15:29:54Z</time>
      </trkpt>
      <trkpt lat="49.96824" lon="5.31434">
        <ele>415.2</ele>
        <time>2025-04-20T15:29:55Z</time>
      </trkpt>
      <trkpt lat="49.96825" lon="5.31434">
        <ele>415.2</ele>
        <time>2025-04-20T15:29:56Z</time>
      </trkpt>
      <trkpt lat="49.96826" lon="5.31435">
        <ele>415.2</ele>
        <time>2025-04-20T15:29:57Z</time>
      </trkpt>
      <trkpt lat="49.96827" lon="5.31435">
        <ele>415.2</ele>
        <time>2025-04-20T15:29:58Z</time>
      </trkpt>
      <trkpt lat="49.96828" lon="5.31436">
        <ele>415.2</ele>
        <time>2025-04-20T15:29:59Z</time>
      </trkpt>
      <trkpt lat="49.96829" lon="5.31437">
        <ele>415.1</ele>
        <time>2025-04-20T15:30:00Z</time>
      </trkpt>
      <trkpt lat="49.9683" lon="5.31438">
        <ele>415.1</ele>
        <time>2025-04-20T15:30:01Z</time>
      </trkpt>
      <trkpt lat="49.96831" lon="5.31439">
        <ele>415.1</ele>
        <time>2025-04-20T15:30:02Z</time>
      </trkpt>
      <trkpt lat="49.96832" lon="5.31439">
        <ele>415.1</ele>
        <time>2025-04-20T15:30:03Z</time>
      </trkpt>
      <trkpt lat="49.96833" lon="5.3144">
        <ele>415.1</ele>
        <time>2025-04-20T15:30:04Z</time>
      </trkpt>
      <trkpt lat="49.96834" lon="5.31441">
        <ele>415.1</ele>
        <time>2025-04-20T15:30:05Z</time>
      </trkpt>
      <trkpt lat="49.96835" lon="5.31442">
        <ele>415.1</ele>
        <time>2025-04-20T15:30:06Z</time>
      </trkpt>
      <trkpt lat="49.96837" lon="5.31443">
        <ele>415.1</ele>
        <time>2025-04-20T15:30:07Z</time>
      </trkpt>
      <trkpt lat="49.96838" lon="5.31443">
        <ele>415</ele>
        <time>2025-04-20T15:30:08Z</time>
      </trkpt>
      <trkpt lat="49.96839" lon="5.31444">
        <ele>415</ele>
        <time>2025-04-20T15:30:09Z</time>
      </trkpt>
      <trkpt lat="49.9684" lon="5.31445">
        <ele>415</ele>
        <time>2025-04-20T15:30:10Z</time>
      </trkpt>
      <trkpt lat="49.96842" lon="5.31446">
        <ele>414.9</ele>
        <time>2025-04-20T15:30:11Z</time>
      </trkpt>
      <trkpt lat="49.96843" lon="5.31447">
        <ele>414.8</ele>
        <time>2025-04-20T15:30:12Z</time>
      </trkpt>
      <trkpt lat="49.96844" lon="5.31448">
        <ele>414.8</ele>
        <time>2025-04-20T15:30:13Z</time>
      </trkpt>
      <trkpt lat="49.96845" lon="5.31448">
        <ele>414.7</ele>
        <time>2025-04-20T15:30:14Z</time>
      </trkpt>
      <trkpt lat="49.96846" lon="5.31449">
        <ele>414.7</ele>
        <time>2025-04-20T15:30:15Z</time>
      </trkpt>
      <trkpt lat="49.96847" lon="5.3145">
        <ele>414.6</ele>
        <time>2025-04-20T15:30:16Z</time>
      </trkpt>
      <trkpt lat="49.96848" lon="5.3145">
        <ele>414.6</ele>
        <time>2025-04-20T15:30:17Z</time>
      </trkpt>
      <trkpt lat="49.96849" lon="5.31451">
        <ele>414.5</ele>
        <time>2025-04-20T15:30:18Z</time>
      </trkpt>
      <trkpt lat="49.9685" lon="5.31451">
        <ele>414.5</ele>
        <time>2025-04-20T15:30:19Z</time>
      </trkpt>
      <trkpt lat="49.96851" lon="5.31452">
        <ele>414.5</ele>
        <time>2025-04-20T15:30:20Z</time>
      </trkpt>
      <trkpt lat="49.96852" lon="5.31452">
        <ele>414.5</ele>
        <time>2025-04-20T15:30:21Z</time>
      </trkpt>
      <trkpt lat="49.96854" lon="5.31452">
        <ele>414.5</ele>
        <time>2025-04-20T15:30:22Z</time>
      </trkpt>
      <trkpt lat="49.96855" lon="5.31452">
        <ele>414.5</ele>
        <time>2025-04-20T15:30:23Z</time>
      </trkpt>
      <trkpt lat="49.96857" lon="5.31453">
        <ele>414.4</ele>
        <time>2025-04-20T15:30:24Z</time>
      </trkpt>
      <trkpt lat="49.96859" lon="5.31454">
        <ele>414.3</ele>
        <time>2025-04-20T15:30:25Z</time>
      </trkpt>
      <trkpt lat="49.9686" lon="5.31455">
        <ele>414.3</ele>
        <time>2025-04-20T15:30:26Z</time>
      </trkpt>
      <trkpt lat="49.96862" lon="5.31456">
        <ele>414.2</ele>
        <time>2025-04-20T15:30:27Z</time>
      </trkpt>
      <trkpt lat="49.96863" lon="5.31457">
        <ele>414.1</ele>
        <time>2025-04-20T15:30:28Z</time>
      </trkpt>
      <trkpt lat="49.96864" lon="5.31458">
        <ele>414</ele>
        <time>2025-04-20T15:30:29Z</time>
      </trkpt>
      <trkpt lat="49.96865" lon="5.31459">
        <ele>414</ele>
        <time>2025-04-20T15:30:30Z</time>
      </trkpt>
      <trkpt lat="49.96866" lon="5.3146">
        <ele>413.9</ele>
        <time>2025-04-20T15:30:31Z</time>
      </trkpt>
      <trkpt lat="49.96868" lon="5.31461">
        <ele>413.8</ele>
        <time>2025-04-20T15:31:00Z</time>
      </trkpt>
      <trkpt lat="49.96869" lon="5.31461">
        <ele>413.8</ele>
        <time>2025-04-20T15:31:01Z</time>
      </trkpt>
      <trkpt lat="49.9687" lon="5.31461">
        <ele>413.8</ele>
        <time>2025-04-20T15:31:02Z</time>
      </trkpt>
      <trkpt lat="49.96871" lon="5.31462">
        <ele>413.8</ele>
        <time>2025-04-20T15:31:03Z</time>
      </trkpt>
      <trkpt lat="49.96872" lon="5.31462">
        <ele>413.7</ele>
        <time>2025-04-20T15:31:04Z</time>
      </trkpt>
      <trkpt lat="49.96872" lon="5.31462">
        <ele>413.7</ele>
        <time>2025-04-20T15:31:05Z</time>
      </trkpt>
      <trkpt lat="49.96873" lon="5.31463">
        <ele>413.7</ele>
        <time>2025-04-20T15:31:06Z</time>
      </trkpt>
      <trkpt lat="49.96874" lon="5.31464">
        <ele>413.6</ele>
        <time>2025-04-20T15:31:07Z</time>
      </trkpt>
      <trkpt lat="49.96875" lon="5.31465">
        <ele>413.5</ele>
        <time>2025-04-20T15:31:08Z</time>
      </trkpt>
      <trkpt lat="49.96877" lon="5.31465">
        <ele>413.5</ele>
        <time>2025-04-20T15:31:09Z</time>
      </trkpt>
      <trkpt lat="49.96878" lon="5.31466">
        <ele>413.4</ele>
        <time>2025-04-20T15:31:10Z</time>
      </trkpt>
      <trkpt lat="49.96879" lon="5.31466">
        <ele>413.4</ele>
        <time>2025-04-20T15:31:11Z</time>
      </trkpt>
      <trkpt lat="49.96881" lon="5.31466">
        <ele>413.4</ele>
        <time>2025-04-20T15:31:12Z</time>
      </trkpt>
      <trkpt lat="49.96882" lon="5.31466">
        <ele>413.4</ele>
        <time>2025-04-20T15:31:13Z</time>
      </trkpt>
      <trkpt lat="49.96883" lon="5.31466">
        <ele>413.4</ele>
        <time>2025-04-20T15:31:14Z</time>
      </trkpt>
      <trkpt lat="49.96885" lon="5.31466">
        <ele>413.4</ele>
        <time>2025-04-20T15:31:15Z</time>
      </trkpt>
      <trkpt lat="49.96886" lon="5.31466">
        <ele>413.4</ele>
        <time>2025-04-20T15:31:16Z</time>
      </trkpt>
      <trkpt lat="49.96888" lon="5.31467">
        <ele>413.4</ele>
        <time>2025-04-20T15:31:17Z</time>
      </trkpt>
      <trkpt lat="49.96889" lon="5.31467">
        <ele>413.4</ele>
        <time>2025-04-20T15:31:18Z</time>
      </trkpt>
      <trkpt lat="49.96891" lon="5.31467">
        <ele>413.3</ele>
        <time>2025-04-20T15:31:19Z</time>
      </trkpt>
      <trkpt lat="49.96892" lon="5.31468">
        <ele>413.3</ele>
        <time>2025-04-20T15:31:20Z</time>
      </trkpt>
      <trkpt lat="49.96893" lon="5.31469">
        <ele>413.2</ele>
        <time>2025-04-20T15:31:21Z</time>
      </trkpt>
      <trkpt lat="49.96894" lon="5.31469">
        <ele>413.2</ele>
        <time>2025-04-20T15:31:22Z</time>
      </trkpt>
      <trkpt lat="49.96895" lon="5.3147">
        <ele>413.2</ele>
        <time>2025-04-20T15:31:23Z</time>
      </trkpt>
      <trkpt lat="49.96896" lon="5.3147">
        <ele>413.1</ele>
        <time>2025-04-20T15:31:24Z</time>
      </trkpt>
      <trkpt lat="49.96897" lon="5.31471">
        <ele>413.1</ele>
        <time>2025-04-20T15:31:25Z</time>
      </trkpt>
      <trkpt lat="49.96898" lon="5.31471">
        <ele>413</ele>
        <time>2025-04-20T15:31:26Z</time>
      </trkpt>
      <trkpt lat="49.96899" lon="5.31472">
        <ele>413</ele>
        <time>2025-04-20T15:31:27Z</time>
      </trkpt>
      <trkpt lat="49.969" lon="5.31472">
        <ele>413</ele>
        <time>2025-04-20T15:31:28Z</time>
      </trkpt>
      <trkpt lat="49.96902" lon="5.31472">
        <ele>413</ele>
        <time>2025-04-20T15:31:29Z</time>
      </trkpt>
      <trkpt lat="49.96903" lon="5.31473">
        <ele>413</ele>
        <time>2025-04-20T15:31:30Z</time>
      </trkpt>
      <trkpt lat="49.96906" lon="5.31472">
        <ele>413</ele>
        <time>2025-04-20T15:31:42Z</time>
      </trkpt>
      <trkpt lat="49.96908" lon="5.31472">
        <ele>413</ele>
        <time>2025-04-20T15:31:43Z</time>
      </trkpt>
      <trkpt lat="49.9691" lon="5.31471">
        <ele>413</ele>
        <time>2025-04-20T15:31:44Z</time>
      </trkpt>
      <trkpt lat="49.96911" lon="5.31471">
        <ele>413</ele>
        <time>2025-04-20T15:31:45Z</time>
      </trkpt>
      <trkpt lat="49.96913" lon="5.31471">
        <ele>413</ele>
        <time>2025-04-20T15:31:46Z</time>
      </trkpt>
      <trkpt lat="49.96914" lon="5.31471">
        <ele>413</ele>
        <time>2025-04-20T15:31:47Z</time>
      </trkpt>
      <trkpt lat="49.96915" lon="5.31471">
        <ele>413</ele>
        <time>2025-04-20T15:31:48Z</time>
      </trkpt>
      <trkpt lat="49.96916" lon="5.31471">
        <ele>413</ele>
        <time>2025-04-20T15:31:49Z</time>
      </trkpt>
      <trkpt lat="49.96918" lon="5.31472">
        <ele>413</ele>
        <time>2025-04-20T15:31:50Z</time>
      </trkpt>
      <trkpt lat="49.96919" lon="5.31472">
        <ele>412.9</ele>
        <time>2025-04-20T15:31:51Z</time>
      </trkpt>
      <trkpt lat="49.9692" lon="5.31472">
        <ele>412.9</ele>
        <time>2025-04-20T15:31:52Z</time>
      </trkpt>
      <trkpt lat="49.96921" lon="5.31472">
        <ele>412.9</ele>
        <time>2025-04-20T15:31:58Z</time>
      </trkpt>
      <trkpt lat="49.96921" lon="5.31472">
        <ele>412.9</ele>
        <time>2025-04-20T15:31:59Z</time>
      </trkpt>
      <trkpt lat="49.96922" lon="5.31472">
        <ele>412.8</ele>
        <time>2025-04-20T15:32:00Z</time>
      </trkpt>
      <trkpt lat="49.96922" lon="5.31472">
        <ele>412.8</ele>
        <time>2025-04-20T15:32:01Z</time>
      </trkpt>
      <trkpt lat="49.96923" lon="5.31472">
        <ele>412.8</ele>
        <time>2025-04-20T15:32:02Z</time>
      </trkpt>
      <trkpt lat="49.96924" lon="5.31472">
        <ele>412.7</ele>
        <time>2025-04-20T15:32:03Z</time>
      </trkpt>
      <trkpt lat="49.96924" lon="5.31473">
        <ele>412.7</ele>
        <time>2025-04-20T15:32:04Z</time>
      </trkpt>
      <trkpt lat="49.96925" lon="5.31473">
        <ele>412.6</ele>
        <time>2025-04-20T15:32:05Z</time>
      </trkpt>
      <trkpt lat="49.96926" lon="5.31474">
        <ele>412.5</ele>
        <time>2025-04-20T15:32:06Z</time>
      </trkpt>
      <trkpt lat="49.96928" lon="5.31474">
        <ele>412.5</ele>
        <time>2025-04-20T15:32:07Z</time>
      </trkpt>
      <trkpt lat="49.96929" lon="5.31475">
        <ele>412.4</ele>
        <time>2025-04-20T15:32:08Z</time>
      </trkpt>
      <trkpt lat="49.9693" lon="5.31475">
        <ele>412.4</ele>
        <time>2025-04-20T15:32:09Z</time>
      </trkpt>
      <trkpt lat="49.96931" lon="5.31475">
        <ele>412.3</ele>
        <time>2025-04-20T15:32:10Z</time>
      </trkpt>
      <trkpt lat="49.96933" lon="5.31475">
        <ele>412.3</ele>
        <time>2025-04-20T15:32:11Z</time>
      </trkpt>
      <trkpt lat="49.96934" lon="5.31475">
        <ele>412.2</ele>
        <time>2025-04-20T15:32:12Z</time>
      </trkpt>
      <trkpt lat="49.96936" lon="5.31474">
        <ele>412.2</ele>
        <time>2025-04-20T15:32:13Z</time>
      </trkpt>
      <trkpt lat="49.96937" lon="5.31474">
        <ele>412.2</ele>
        <time>2025-04-20T15:32:14Z</time>
      </trkpt>
      <trkpt lat="49.96939" lon="5.31475">
        <ele>412.1</ele>
        <time>2025-04-20T15:32:15Z</time>
      </trkpt>
      <trkpt lat="49.96941" lon="5.31475">
        <ele>412</ele>
        <time>2025-04-20T15:32:16Z</time>
      </trkpt>
      <trkpt lat="49.96942" lon="5.31475">
        <ele>412</ele>
        <time>2025-04-20T15:32:17Z</time>
      </trkpt>
      <trkpt lat="49.96944" lon="5.31475">
        <ele>411.9</ele>
        <time>2025-04-20T15:32:18Z</time>
      </trkpt>
      <trkpt lat="49.96945" lon="5.31475">
        <ele>411.9</ele>
        <time>2025-04-20T15:32:19Z</time>
      </trkpt>
      <trkpt lat="49.96946" lon="5.31476">
        <ele>411.9</ele>
        <time>2025-04-20T15:32:20Z</time>
      </trkpt>
      <trkpt lat="49.96948" lon="5.31476">
        <ele>411.9</ele>
        <time>2025-04-20T15:32:21Z</time>
      </trkpt>
      <trkpt lat="49.96949" lon="5.31476">
        <ele>411.9</ele>
        <time>2025-04-20T15:32:22Z</time>
      </trkpt>
      <trkpt lat="49.9695" lon="5.31476">
        <ele>411.9</ele>
        <time>2025-04-20T15:32:23Z</time>
      </trkpt>
      <trkpt lat="49.96951" lon="5.31476">
        <ele>411.9</ele>
        <time>2025-04-20T15:32:31Z</time>
      </trkpt>
      <trkpt lat="49.96952" lon="5.31476">
        <ele>411.9</ele>
        <time>2025-04-20T15:32:32Z</time>
      </trkpt>
      <trkpt lat="49.96953" lon="5.31475">
        <ele>411.9</ele>
        <time>2025-04-20T15:32:33Z</time>
      </trkpt>
      <trkpt lat="49.96953" lon="5.31475">
        <ele>411.9</ele>
        <time>2025-04-20T15:32:34Z</time>
      </trkpt>
      <trkpt lat="49.96954" lon="5.31476">
        <ele>411.9</ele>
        <time>2025-04-20T15:32:35Z</time>
      </trkpt>
      <trkpt lat="49.96955" lon="5.31476">
        <ele>411.9</ele>
        <time>2025-04-20T15:32:36Z</time>
      </trkpt>
      <trkpt lat="49.96956" lon="5.31476">
        <ele>411.9</ele>
        <time>2025-04-20T15:32:37Z</time>
      </trkpt>
      <trkpt lat="49.96958" lon="5.31476">
        <ele>411.9</ele>
        <time>2025-04-20T15:32:38Z</time>
      </trkpt>
      <trkpt lat="49.96959" lon="5.31476">
        <ele>411.9</ele>
        <time>2025-04-20T15:32:39Z</time>
      </trkpt>
      <trkpt lat="49.9696" lon="5.31476">
        <ele>411.9</ele>
        <time>2025-04-20T15:32:40Z</time>
      </trkpt>
      <trkpt lat="49.96962" lon="5.31476">
        <ele>411.9</ele>
        <time>2025-04-20T15:32:41Z</time>
      </trkpt>
      <trkpt lat="49.96963" lon="5.31476">
        <ele>411.9</ele>
        <time>2025-04-20T15:32:42Z</time>
      </trkpt>
      <trkpt lat="49.96964" lon="5.31477">
        <ele>411.8</ele>
        <time>2025-04-20T15:32:43Z</time>
      </trkpt>
      <trkpt lat="49.96965" lon="5.31477">
        <ele>411.8</ele>
        <time>2025-04-20T15:32:44Z</time>
      </trkpt>
      <trkpt lat="49.96967" lon="5.31477">
        <ele>411.8</ele>
        <time>2025-04-20T15:32:45Z</time>
      </trkpt>
      <trkpt lat="49.96968" lon="5.31477">
        <ele>411.8</ele>
        <time>2025-04-20T15:32:46Z</time>
      </trkpt>
      <trkpt lat="49.96969" lon="5.31478">
        <ele>411.8</ele>
        <time>2025-04-20T15:32:47Z</time>
      </trkpt>
      <trkpt lat="49.9697" lon="5.31478">
        <ele>411.8</ele>
        <time>2025-04-20T15:32:48Z</time>
      </trkpt>
      <trkpt lat="49.9697" lon="5.31479">
        <ele>411.8</ele>
        <time>2025-04-20T15:32:49Z</time>
      </trkpt>
      <trkpt lat="49.96972" lon="5.31481">
        <ele>411.7</ele>
        <time>2025-04-20T15:32:57Z</time>
      </trkpt>
      <trkpt lat="49.96972" lon="5.31482">
        <ele>411.7</ele>
        <time>2025-04-20T15:32:58Z</time>
      </trkpt>
      <trkpt lat="49.96972" lon="5.31483">
        <ele>411.6</ele>
        <time>2025-04-20T15:32:59Z</time>
      </trkpt>
      <trkpt lat="49.96971" lon="5.31483">
        <ele>411.6</ele>
        <time>2025-04-20T15:33:00Z</time>
      </trkpt>
      <trkpt lat="49.96971" lon="5.31484">
        <ele>411.6</ele>
        <time>2025-04-20T15:33:01Z</time>
      </trkpt>
      <trkpt lat="49.9697" lon="5.31484">
        <ele>411.6</ele>
        <time>2025-04-20T15:33:02Z</time>
      </trkpt>
      <trkpt lat="49.9697" lon="5.31485">
        <ele>411.5</ele>
        <time>2025-04-20T15:33:03Z</time>
      </trkpt>
      <trkpt lat="49.96969" lon="5.31486">
        <ele>411.5</ele>
        <time>2025-04-20T15:33:04Z</time>
      </trkpt>
      <trkpt lat="49.96968" lon="5.31487">
        <ele>411.5</ele>
        <time>2025-04-20T15:33:05Z</time>
      </trkpt>
      <trkpt lat="49.96968" lon="5.31488">
        <ele>411.4</ele>
        <time>2025-04-20T15:33:06Z</time>
      </trkpt>
      <trkpt lat="49.96967" lon="5.31489">
        <ele>411.4</ele>
        <time>2025-04-20T15:33:07Z</time>
      </trkpt>
      <trkpt lat="49.96966" lon="5.3149">
        <ele>411.4</ele>
        <time>2025-04-20T15:33:08Z</time>
      </trkpt>
      <trkpt lat="49.96965" lon="5.31491">
        <ele>411.3</ele>
        <time>2025-04-20T15:33:09Z</time>
      </trkpt>
      <trkpt lat="49.96964" lon="5.31492">
        <ele>411.3</ele>
        <time>2025-04-20T15:33:10Z</time>
      </trkpt>
      <trkpt lat="49.96964" lon="5.31494">
        <ele>411.2</ele>
        <time>2025-04-20T15:33:11Z</time>
      </trkpt>
      <trkpt lat="49.96963" lon="5.31495">
        <ele>411.2</ele>
        <time>2025-04-20T15:33:12Z</time>
      </trkpt>
      <trkpt lat="49.96962" lon="5.31496">
        <ele>411.1</ele>
        <time>2025-04-20T15:33:13Z</time>
      </trkpt>
      <trkpt lat="49.96961" lon="5.31497">
        <ele>411.1</ele>
        <time>2025-04-20T15:33:14Z</time>
      </trkpt>
      <trkpt lat="49.9696" lon="5.31498">
        <ele>411.1</ele>
        <time>2025-04-20T15:33:15Z</time>
      </trkpt>
      <trkpt lat="49.9696" lon="5.31499">
        <ele>411</ele>
        <time>2025-04-20T15:33:16Z</time>
      </trkpt>
      <trkpt lat="49.96959" lon="5.315">
        <ele>411</ele>
        <time>2025-04-20T15:33:17Z</time>
      </trkpt>
      <trkpt lat="49.96958" lon="5.31501">
        <ele>410.9</ele>
        <time>2025-04-20T15:33:18Z</time>
      </trkpt>
      <trkpt lat="49.96957" lon="5.31502">
        <ele>410.8</ele>
        <time>2025-04-20T15:33:19Z</time>
      </trkpt>
      <trkpt lat="49.96956" lon="5.31503">
        <ele>410.7</ele>
        <time>2025-04-20T15:33:20Z</time>
      </trkpt>
      <trkpt lat="49.96955" lon="5.31505">
        <ele>410.7</ele>
        <time>2025-04-20T15:33:21Z</time>
      </trkpt>
      <trkpt lat="49.96954" lon="5.31505">
        <ele>410.6</ele>
        <time>2025-04-20T15:33:22Z</time>
      </trkpt>
      <trkpt lat="49.96953" lon="5.31506">
        <ele>410.6</ele>
        <time>2025-04-20T15:33:23Z</time>
      </trkpt>
      <trkpt lat="49.96952" lon="5.31507">
        <ele>410.5</ele>
        <time>2025-04-20T15:33:24Z</time>
      </trkpt>
      <trkpt lat="49.96951" lon="5.31508">
        <ele>410.4</ele>
        <time>2025-04-20T15:33:25Z</time>
      </trkpt>
      <trkpt lat="49.9695" lon="5.31509">
        <ele>410.4</ele>
        <time>2025-04-20T15:33:26Z</time>
      </trkpt>
      <trkpt lat="49.96949" lon="5.3151">
        <ele>410.3</ele>
        <time>2025-04-20T15:33:27Z</time>
      </trkpt>
      <trkpt lat="49.96948" lon="5.31511">
        <ele>410.2</ele>
        <time>2025-04-20T15:33:28Z</time>
      </trkpt>
      <trkpt lat="49.96948" lon="5.31513">
        <ele>410.1</ele>
        <time>2025-04-20T15:33:29Z</time>
      </trkpt>
      <trkpt lat="49.96947" lon="5.31514">
        <ele>410</ele>
        <time>2025-04-20T15:33:30Z</time>
      </trkpt>
      <trkpt lat="49.96946" lon="5.31515">
        <ele>409.9</ele>
        <time>2025-04-20T15:33:31Z</time>
      </trkpt>
      <trkpt lat="49.96945" lon="5.31516">
        <ele>409.8</ele>
        <time>2025-04-20T15:33:32Z</time>
      </trkpt>
      <trkpt lat="49.96944" lon="5.31518">
        <ele>409.7</ele>
        <time>2025-04-20T15:33:33Z</time>
      </trkpt>
      <trkpt lat="49.96943" lon="5.31519">
        <ele>409.7</ele>
        <time>2025-04-20T15:33:34Z</time>
      </trkpt>
      <trkpt lat="49.96943" lon="5.3152">
        <ele>409.6</ele>
        <time>2025-04-20T15:33:35Z</time>
      </trkpt>
      <trkpt lat="49.96942" lon="5.31521">
        <ele>409.6</ele>
        <time>2025-04-20T15:33:36Z</time>
      </trkpt>
      <trkpt lat="49.9694" lon="5.31522">
        <ele>409.5</ele>
        <time>2025-04-20T15:33:37Z</time>
      </trkpt>
      <trkpt lat="49.96939" lon="5.31523">
        <ele>409.5</ele>
        <time>2025-04-20T15:33:38Z</time>
      </trkpt>
      <trkpt lat="49.96938" lon="5.31524">
        <ele>409.4</ele>
        <time>2025-04-20T15:33:39Z</time>
      </trkpt>
      <trkpt lat="49.96937" lon="5.31525">
        <ele>409.4</ele>
        <time>2025-04-20T15:33:40Z</time>
      </trkpt>
      <trkpt lat="49.96936" lon="5.31527">
        <ele>409.4</ele>
        <time>2025-04-20T15:33:41Z</time>
      </trkpt>
      <trkpt lat="49.96935" lon="5.31528">
        <ele>409.3</ele>
        <time>2025-04-20T15:33:42Z</time>
      </trkpt>
      <trkpt lat="49.96935" lon="5.31529">
        <ele>409.3</ele>
        <time>2025-04-20T15:33:43Z</time>
      </trkpt>
      <trkpt lat="49.96934" lon="5.31531">
        <ele>409.2</ele>
        <time>2025-04-20T15:33:44Z</time>
      </trkpt>
      <trkpt lat="49.96933" lon="5.31532">
        <ele>409.2</ele>
        <time>2025-04-20T15:33:45Z</time>
      </trkpt>
      <trkpt lat="49.96932" lon="5.31533">
        <ele>409.2</ele>
        <time>2025-04-20T15:33:46Z</time>
      </trkpt>
      <trkpt lat="49.96931" lon="5.31533">
        <ele>409.2</ele>
        <time>2025-04-20T15:33:47Z</time>
      </trkpt>
      <trkpt lat="49.96931" lon="5.31534">
        <ele>409.2</ele>
        <time>2025-04-20T15:33:48Z</time>
      </trkpt>
      <trkpt lat="49.9693" lon="5.31535">
        <ele>409.1</ele>
        <time>2025-04-20T15:33:49Z</time>
      </trkpt>
      <trkpt lat="49.96929" lon="5.31536">
        <ele>409.1</ele>
        <time>2025-04-20T15:33:50Z</time>
      </trkpt>
      <trkpt lat="49.96929" lon="5.31536">
        <ele>409.1</ele>
        <time>2025-04-20T15:33:51Z</time>
      </trkpt>
      <trkpt lat="49.96928" lon="5.31537">
        <ele>409</ele>
        <time>2025-04-20T15:33:52Z</time>
      </trkpt>
      <trkpt lat="49.96927" lon="5.31539">
        <ele>409</ele>
        <time>2025-04-20T15:33:53Z</time>
      </trkpt>
      <trkpt lat="49.96926" lon="5.3154">
        <ele>409</ele>
        <time>2025-04-20T15:33:54Z</time>
      </trkpt>
      <trkpt lat="49.96925" lon="5.31541">
        <ele>408.9</ele>
        <time>2025-04-20T15:33:55Z</time>
      </trkpt>
      <trkpt lat="49.96924" lon="5.31542">
        <ele>408.9</ele>
        <time>2025-04-20T15:33:56Z</time>
      </trkpt>
      <trkpt lat="49.96923" lon="5.31543">
        <ele>408.8</ele>
        <time>2025-04-20T15:33:57Z</time>
      </trkpt>
      <trkpt lat="49.96922" lon="5.31544">
        <ele>408.8</ele>
        <time>2025-04-20T15:33:58Z</time>
      </trkpt>
      <trkpt lat="49.96921" lon="5.31545">
        <ele>408.7</ele>
        <time>2025-04-20T15:33:59Z</time>
      </trkpt>
      <trkpt lat="49.9692" lon="5.31546">
        <ele>408.7</ele>
        <time>2025-04-20T15:34:00Z</time>
      </trkpt>
      <trkpt lat="49.9692" lon="5.31547">
        <ele>408.6</ele>
        <time>2025-04-20T15:34:01Z</time>
      </trkpt>
      <trkpt lat="49.96919" lon="5.31548">
        <ele>408.5</ele>
        <time>2025-04-20T15:34:02Z</time>
      </trkpt>
      <trkpt lat="49.96918" lon="5.31549">
        <ele>408.4</ele>
        <time>2025-04-20T15:34:03Z</time>
      </trkpt>
      <trkpt lat="49.96917" lon="5.3155">
        <ele>408.4</ele>
        <time>2025-04-20T15:34:04Z</time>
      </trkpt>
      <trkpt lat="49.96917" lon="5.31551">
        <ele>408.3</ele>
        <time>2025-04-20T15:34:05Z</time>
      </trkpt>
      <trkpt lat="49.96916" lon="5.31552">
        <ele>408.2</ele>
        <time>2025-04-20T15:34:06Z</time>
      </trkpt>
      <trkpt lat="49.96915" lon="5.31553">
        <ele>408.2</ele>
        <time>2025-04-20T15:34:07Z</time>
      </trkpt>
      <trkpt lat="49.96914" lon="5.31554">
        <ele>408.1</ele>
        <time>2025-04-20T15:34:08Z</time>
      </trkpt>
      <trkpt lat="49.96914" lon="5.31556">
        <ele>408</ele>
        <time>2025-04-20T15:34:09Z</time>
      </trkpt>
      <trkpt lat="49.96913" lon="5.31557">
        <ele>408</ele>
        <time>2025-04-20T15:34:10Z</time>
      </trkpt>
      <trkpt lat="49.96912" lon="5.31558">
        <ele>407.9</ele>
        <time>2025-04-20T15:34:11Z</time>
      </trkpt>
      <trkpt lat="49.96911" lon="5.3156">
        <ele>407.9</ele>
        <time>2025-04-20T15:34:12Z</time>
      </trkpt>
      <trkpt lat="49.96911" lon="5.31561">
        <ele>407.8</ele>
        <time>2025-04-20T15:34:13Z</time>
      </trkpt>
      <trkpt lat="49.9691" lon="5.31562">
        <ele>407.8</ele>
        <time>2025-04-20T15:34:14Z</time>
      </trkpt>
      <trkpt lat="49.96909" lon="5.31564">
        <ele>407.7</ele>
        <time>2025-04-20T15:34:15Z</time>
      </trkpt>
      <trkpt lat="49.96908" lon="5.31565">
        <ele>407.7</ele>
        <time>2025-04-20T15:34:16Z</time>
      </trkpt>
      <trkpt lat="49.96908" lon="5.31566">
        <ele>407.6</ele>
        <time>2025-04-20T15:34:17Z</time>
      </trkpt>
      <trkpt lat="49.96907" lon="5.31568">
        <ele>407.6</ele>
        <time>2025-04-20T15:34:18Z</time>
      </trkpt>
      <trkpt lat="49.96906" lon="5.31569">
        <ele>407.5</ele>
        <time>2025-04-20T15:34:19Z</time>
      </trkpt>
      <trkpt lat="49.96905" lon="5.3157">
        <ele>407.5</ele>
        <time>2025-04-20T15:34:20Z</time>
      </trkpt>
      <trkpt lat="49.96904" lon="5.31571">
        <ele>407.4</ele>
        <time>2025-04-20T15:34:21Z</time>
      </trkpt>
      <trkpt lat="49.96904" lon="5.31572">
        <ele>407.4</ele>
        <time>2025-04-20T15:34:22Z</time>
      </trkpt>
      <trkpt lat="49.96903" lon="5.31573">
        <ele>407.4</ele>
        <time>2025-04-20T15:34:23Z</time>
      </trkpt>
      <trkpt lat="49.96902" lon="5.31574">
        <ele>407.4</ele>
        <time>2025-04-20T15:34:24Z</time>
      </trkpt>
      <trkpt lat="49.96901" lon="5.31574">
        <ele>407.3</ele>
        <time>2025-04-20T15:34:25Z</time>
      </trkpt>
      <trkpt lat="49.969" lon="5.31575">
        <ele>407.3</ele>
        <time>2025-04-20T15:34:26Z</time>
      </trkpt>
      <trkpt lat="49.96899" lon="5.31576">
        <ele>407.3</ele>
        <time>2025-04-20T15:34:27Z</time>
      </trkpt>
      <trkpt lat="49.96898" lon="5.31577">
        <ele>407.2</ele>
        <time>2025-04-20T15:34:28Z</time>
      </trkpt>
      <trkpt lat="49.96897" lon="5.31578">
        <ele>407.2</ele>
        <time>2025-04-20T15:34:29Z</time>
      </trkpt>
      <trkpt lat="49.96896" lon="5.31579">
        <ele>407.2</ele>
        <time>2025-04-20T15:34:30Z</time>
      </trkpt>
      <trkpt lat="49.96895" lon="5.3158">
        <ele>407.1</ele>
        <time>2025-04-20T15:34:31Z</time>
      </trkpt>
      <trkpt lat="49.96894" lon="5.31581">
        <ele>407.1</ele>
        <time>2025-04-20T15:34:32Z</time>
      </trkpt>
      <trkpt lat="49.96893" lon="5.31582">
        <ele>407.1</ele>
        <time>2025-04-20T15:34:33Z</time>
      </trkpt>
      <trkpt lat="49.96892" lon="5.31583">
        <ele>407</ele>
        <time>2025-04-20T15:34:34Z</time>
      </trkpt>
      <trkpt lat="49.96891" lon="5.31584">
        <ele>407</ele>
        <time>2025-04-20T15:34:35Z</time>
      </trkpt>
      <trkpt lat="49.9689" lon="5.31585">
        <ele>406.9</ele>
        <time>2025-04-20T15:34:36Z</time>
      </trkpt>
      <trkpt lat="49.96889" lon="5.31586">
        <ele>406.9</ele>
        <time>2025-04-20T15:34:37Z</time>
      </trkpt>
      <trkpt lat="49.96888" lon="5.31588">
        <ele>406.8</ele>
        <time>2025-04-20T15:34:38Z</time>
      </trkpt>
      <trkpt lat="49.96887" lon="5.31589">
        <ele>406.8</ele>
        <time>2025-04-20T15:34:39Z</time>
      </trkpt>
      <trkpt lat="49.96886" lon="5.3159">
        <ele>406.8</ele>
        <time>2025-04-20T15:34:40Z</time>
      </trkpt>
      <trkpt lat="49.96885" lon="5.31591">
        <ele>406.7</ele>
        <time>2025-04-20T15:34:41Z</time>
      </trkpt>
      <trkpt lat="49.96884" lon="5.31592">
        <ele>406.7</ele>
        <time>2025-04-20T15:34:42Z</time>
      </trkpt>
      <trkpt lat="49.96883" lon="5.31593">
        <ele>406.7</ele>
        <time>2025-04-20T15:34:43Z</time>
      </trkpt>
      <trkpt lat="49.96882" lon="5.31594">
        <ele>406.6</ele>
        <time>2025-04-20T15:34:44Z</time>
      </trkpt>
      <trkpt lat="49.96881" lon="5.31596">
        <ele>406.6</ele>
        <time>2025-04-20T15:34:45Z</time>
      </trkpt>
      <trkpt lat="49.9688" lon="5.31597">
        <ele>406.5</ele>
        <time>2025-04-20T15:34:46Z</time>
      </trkpt>
      <trkpt lat="49.96879" lon="5.31598">
        <ele>406.5</ele>
        <time>2025-04-20T15:34:47Z</time>
      </trkpt>
      <trkpt lat="49.96878" lon="5.316">
        <ele>406.4</ele>
        <time>2025-04-20T15:34:48Z</time>
      </trkpt>
      <trkpt lat="49.96877" lon="5.31601">
        <ele>406.4</ele>
        <time>2025-04-20T15:34:49Z</time>
      </trkpt>
      <trkpt lat="49.96876" lon="5.31602">
        <ele>406.3</ele>
        <time>2025-04-20T15:34:50Z</time>
      </trkpt>
      <trkpt lat="49.96875" lon="5.31604">
        <ele>406.3</ele>
        <time>2025-04-20T15:34:51Z</time>
      </trkpt>
      <trkpt lat="49.96874" lon="5.31605">
        <ele>406.2</ele>
        <time>2025-04-20T15:34:52Z</time>
      </trkpt>
      <trkpt lat="49.96872" lon="5.31606">
        <ele>406.2</ele>
        <time>2025-04-20T15:34:53Z</time>
      </trkpt>
      <trkpt lat="49.96871" lon="5.31607">
        <ele>406.1</ele>
        <time>2025-04-20T15:34:54Z</time>
      </trkpt>
      <trkpt lat="49.96871" lon="5.31608">
        <ele>406.1</ele>
        <time>2025-04-20T15:34:55Z</time>
      </trkpt>
      <trkpt lat="49.96871" lon="5.31608">
        <ele>406.1</ele>
        <time>2025-04-20T15:34:56Z</time>
      </trkpt>
      <trkpt lat="49.9687" lon="5.31609">
        <ele>406.1</ele>
        <time>2025-04-20T15:34:57Z</time>
      </trkpt>
      <trkpt lat="49.9687" lon="5.31609">
        <ele>406.1</ele>
        <time>2025-04-20T15:34:58Z</time>
      </trkpt>
      <trkpt lat="49.96869" lon="5.3161">
        <ele>406</ele>
        <time>2025-04-20T15:34:59Z</time>
      </trkpt>
      <trkpt lat="49.96869" lon="5.3161">
        <ele>406</ele>
        <time>2025-04-20T15:35:00Z</time>
      </trkpt>
      <trkpt lat="49.96868" lon="5.3161">
        <ele>406.1</ele>
        <time>2025-04-20T15:35:01Z</time>
      </trkpt>
      <trkpt lat="49.96868" lon="5.31609">
        <ele>406.1</ele>
        <time>2025-04-20T15:35:02Z</time>
      </trkpt>
      <trkpt lat="49.96868" lon="5.31608">
        <ele>406.1</ele>
        <time>2025-04-20T15:35:03Z</time>
      </trkpt>
      <trkpt lat="49.96867" lon="5.31607">
        <ele>406.1</ele>
        <time>2025-04-20T15:35:04Z</time>
      </trkpt>
      <trkpt lat="49.96867" lon="5.31606">
        <ele>406.2</ele>
        <time>2025-04-20T15:35:05Z</time>
      </trkpt>
      <trkpt lat="49.96867" lon="5.31605">
        <ele>406.2</ele>
        <time>2025-04-20T15:35:06Z</time>
      </trkpt>
      <trkpt lat="49.96867" lon="5.31604">
        <ele>406.2</ele>
        <time>2025-04-20T15:35:07Z</time>
      </trkpt>
      <trkpt lat="49.96866" lon="5.31604">
        <ele>406.3</ele>
        <time>2025-04-20T15:35:08Z</time>
      </trkpt>
      <trkpt lat="49.96866" lon="5.31603">
        <ele>406.3</ele>
        <time>2025-04-20T15:35:09Z</time>
      </trkpt>
      <trkpt lat="49.96865" lon="5.31602">
        <ele>406.3</ele>
        <time>2025-04-20T15:35:10Z</time>
      </trkpt>
      <trkpt lat="49.96864" lon="5.31601">
        <ele>406.4</ele>
        <time>2025-04-20T15:35:11Z</time>
      </trkpt>
      <trkpt lat="49.96862" lon="5.316">
        <ele>406.4</ele>
        <time>2025-04-20T15:35:44Z</time>
      </trkpt>
      <trkpt lat="49.96861" lon="5.31599">
        <ele>406.4</ele>
        <time>2025-04-20T15:35:45Z</time>
      </trkpt>
      <trkpt lat="49.9686" lon="5.31599">
        <ele>406.5</ele>
        <time>2025-04-20T15:35:46Z</time>
      </trkpt>
      <trkpt lat="49.9686" lon="5.31599">
        <ele>406.4</ele>
        <time>2025-04-20T15:35:47Z</time>
      </trkpt>
      <trkpt lat="49.96859" lon="5.316">
        <ele>406.4</ele>
        <time>2025-04-20T15:35:48Z</time>
      </trkpt>
      <trkpt lat="49.9686" lon="5.31601">
        <ele>406.4</ele>
        <time>2025-04-20T15:35:49Z</time>
      </trkpt>
      <trkpt lat="49.9686" lon="5.31602">
        <ele>406.4</ele>
        <time>2025-04-20T15:35:50Z</time>
      </trkpt>
      <trkpt lat="49.9686" lon="5.31603">
        <ele>406.3</ele>
        <time>2025-04-20T15:35:51Z</time>
      </trkpt>
      <trkpt lat="49.96861" lon="5.31605">
        <ele>406.2</ele>
        <time>2025-04-20T15:35:52Z</time>
      </trkpt>
      <trkpt lat="49.96862" lon="5.31606">
        <ele>406.2</ele>
        <time>2025-04-20T15:35:53Z</time>
      </trkpt>
      <trkpt lat="49.96863" lon="5.31608">
        <ele>406.1</ele>
        <time>2025-04-20T15:35:54Z</time>
      </trkpt>
      <trkpt lat="49.96863" lon="5.3161">
        <ele>406.1</ele>
        <time>2025-04-20T15:35:55Z</time>
      </trkpt>
      <trkpt lat="49.96864" lon="5.31611">
        <ele>406</ele>
        <time>2025-04-20T15:35:56Z</time>
      </trkpt>
      <trkpt lat="49.96865" lon="5.31613">
        <ele>405.9</ele>
        <time>2025-04-20T15:35:57Z</time>
      </trkpt>
      <trkpt lat="49.96866" lon="5.31614">
        <ele>405.9</ele>
        <time>2025-04-20T15:35:58Z</time>
      </trkpt>
      <trkpt lat="49.96866" lon="5.31616">
        <ele>405.8</ele>
        <time>2025-04-20T15:35:59Z</time>
      </trkpt>
      <trkpt lat="49.96867" lon="5.31617">
        <ele>405.8</ele>
        <time>2025-04-20T15:36:00Z</time>
      </trkpt>
      <trkpt lat="49.96867" lon="5.31619">
        <ele>405.7</ele>
        <time>2025-04-20T15:36:01Z</time>
      </trkpt>
      <trkpt lat="49.96867" lon="5.3162">
        <ele>405.7</ele>
        <time>2025-04-20T15:36:02Z</time>
      </trkpt>
      <trkpt lat="49.96867" lon="5.31621">
        <ele>405.6</ele>
        <time>2025-04-20T15:36:03Z</time>
      </trkpt>
      <trkpt lat="49.96867" lon="5.31622">
        <ele>405.6</ele>
        <time>2025-04-20T15:36:04Z</time>
      </trkpt>
      <trkpt lat="49.96865" lon="5.31624">
        <ele>405.5</ele>
        <time>2025-04-20T15:37:21Z</time>
      </trkpt>
      <trkpt lat="49.96865" lon="5.31626">
        <ele>405.5</ele>
        <time>2025-04-20T15:37:22Z</time>
      </trkpt>
      <trkpt lat="49.96864" lon="5.31627">
        <ele>405.4</ele>
        <time>2025-04-20T15:37:23Z</time>
      </trkpt>
      <trkpt lat="49.96863" lon="5.31628">
        <ele>405.4</ele>
        <time>2025-04-20T15:37:24Z</time>
      </trkpt>
      <trkpt lat="49.96862" lon="5.31629">
        <ele>405.4</ele>
        <time>2025-04-20T15:37:25Z</time>
      </trkpt>
      <trkpt lat="49.96861" lon="5.3163">
        <ele>405.3</ele>
        <time>2025-04-20T15:37:26Z</time>
      </trkpt>
      <trkpt lat="49.9686" lon="5.31631">
        <ele>405.3</ele>
        <time>2025-04-20T15:37:27Z</time>
      </trkpt>
      <trkpt lat="49.9686" lon="5.31632">
        <ele>405.2</ele>
        <time>2025-04-20T15:37:28Z</time>
      </trkpt>
      <trkpt lat="49.96859" lon="5.31633">
        <ele>405.2</ele>
        <time>2025-04-20T15:37:29Z</time>
      </trkpt>
      <trkpt lat="49.96858" lon="5.31634">
        <ele>405.2</ele>
        <time>2025-04-20T15:37:30Z</time>
      </trkpt>
      <trkpt lat="49.96857" lon="5.31636">
        <ele>405.1</ele>
        <time>2025-04-20T15:37:31Z</time>
      </trkpt>
      <trkpt lat="49.96856" lon="5.31637">
        <ele>405.1</ele>
        <time>2025-04-20T15:37:32Z</time>
      </trkpt>
      <trkpt lat="49.96856" lon="5.31638">
        <ele>405</ele>
        <time>2025-04-20T15:37:33Z</time>
      </trkpt>
      <trkpt lat="49.96855" lon="5.31639">
        <ele>405</ele>
        <time>2025-04-20T15:37:34Z</time>
      </trkpt>
      <trkpt lat="49.96855" lon="5.31641">
        <ele>404.9</ele>
        <time>2025-04-20T15:37:35Z</time>
      </trkpt>
      <trkpt lat="49.96854" lon="5.31642">
        <ele>404.9</ele>
        <time>2025-04-20T15:37:36Z</time>
      </trkpt>
      <trkpt lat="49.96853" lon="5.31643">
        <ele>404.9</ele>
        <time>2025-04-20T15:37:37Z</time>
      </trkpt>
      <trkpt lat="49.96853" lon="5.31644">
        <ele>404.8</ele>
        <time>2025-04-20T15:37:38Z</time>
      </trkpt>
      <trkpt lat="49.96852" lon="5.31645">
        <ele>404.8</ele>
        <time>2025-04-20T15:37:39Z</time>
      </trkpt>
      <trkpt lat="49.96852" lon="5.31646">
        <ele>404.8</ele>
        <time>2025-04-20T15:37:40Z</time>
      </trkpt>
      <trkpt lat="49.96852" lon="5.31646">
        <ele>404.7</ele>
        <time>2025-04-20T15:37:41Z</time>
      </trkpt>
      <trkpt lat="49.96852" lon="5.31646">
        <ele>404.7</ele>
        <time>2025-04-20T15:37:42Z</time>
      </trkpt>
      <trkpt lat="49.96852" lon="5.31647">
        <ele>404.7</ele>
        <time>2025-04-20T15:37:43Z</time>
      </trkpt>
      <trkpt lat="49.96852" lon="5.31647">
        <ele>404.7</ele>
        <time>2025-04-20T15:37:44Z</time>
      </trkpt>
      <trkpt lat="49.96851" lon="5.31648">
        <ele>404.7</ele>
        <time>2025-04-20T15:37:45Z</time>
      </trkpt>
      <trkpt lat="49.96851" lon="5.31648">
        <ele>404.7</ele>
        <time>2025-04-20T15:37:46Z</time>
      </trkpt>
      <trkpt lat="49.96851" lon="5.31649">
        <ele>404.6</ele>
        <time>2025-04-20T15:37:47Z</time>
      </trkpt>
      <trkpt lat="49.9685" lon="5.31649">
        <ele>404.6</ele>
        <time>2025-04-20T15:37:48Z</time>
      </trkpt>
      <trkpt lat="49.9685" lon="5.3165">
        <ele>404.6</ele>
        <time>2025-04-20T15:37:49Z</time>
      </trkpt>
      <trkpt lat="49.96849" lon="5.31651">
        <ele>404.6</ele>
        <time>2025-04-20T15:37:50Z</time>
      </trkpt>
      <trkpt lat="49.96849" lon="5.31653">
        <ele>404.5</ele>
        <time>2025-04-20T15:37:51Z</time>
      </trkpt>
      <trkpt lat="49.96849" lon="5.31654">
        <ele>404.4</ele>
        <time>2025-04-20T15:37:52Z</time>
      </trkpt>
      <trkpt lat="49.96848" lon="5.31656">
        <ele>404.4</ele>
        <time>2025-04-20T15:37:53Z</time>
      </trkpt>
      <trkpt lat="49.96848" lon="5.31658">
        <ele>404.3</ele>
        <time>2025-04-20T15:37:54Z</time>
      </trkpt>
      <trkpt lat="49.96848" lon="5.31659">
        <ele>404.3</ele>
        <time>2025-04-20T15:37:55Z</time>
      </trkpt>
      <trkpt lat="49.96847" lon="5.31661">
        <ele>404.2</ele>
        <time>2025-04-20T15:37:56Z</time>
      </trkpt>
      <trkpt lat="49.96847" lon="5.31663">
        <ele>404.1</ele>
        <time>2025-04-20T15:37:57Z</time>
      </trkpt>
      <trkpt lat="49.96846" lon="5.31664">
        <ele>404.1</ele>
        <time>2025-04-20T15:37:58Z</time>
      </trkpt>
      <trkpt lat="49.96846" lon="5.31666">
        <ele>404</ele>
        <time>2025-04-20T15:37:59Z</time>
      </trkpt>
      <trkpt lat="49.96846" lon="5.31668">
        <ele>403.9</ele>
        <time>2025-04-20T15:38:00Z</time>
      </trkpt>
      <trkpt lat="49.96845" lon="5.3167">
        <ele>403.8</ele>
        <time>2025-04-20T15:38:01Z</time>
      </trkpt>
      <trkpt lat="49.96845" lon="5.31672">
        <ele>403.7</ele>
        <time>2025-04-20T15:38:02Z</time>
      </trkpt>
      <trkpt lat="49.96845" lon="5.31674">
        <ele>403.7</ele>
        <time>2025-04-20T15:38:03Z</time>
      </trkpt>
      <trkpt lat="49.96844" lon="5.31675">
        <ele>403.6</ele>
        <time>2025-04-20T15:38:04Z</time>
      </trkpt>
      <trkpt lat="49.96844" lon="5.31677">
        <ele>403.5</ele>
        <time>2025-04-20T15:38:05Z</time>
      </trkpt>
      <trkpt lat="49.96844" lon="5.31679">
        <ele>403.4</ele>
        <time>2025-04-20T15:38:06Z</time>
      </trkpt>
      <trkpt lat="49.96843" lon="5.31681">
        <ele>403.3</ele>
        <time>2025-04-20T15:38:07Z</time>
      </trkpt>
      <trkpt lat="49.96843" lon="5.31682">
        <ele>403.2</ele>
        <time>2025-04-20T15:38:08Z</time>
      </trkpt>
      <trkpt lat="49.96843" lon="5.31684">
        <ele>403.2</ele>
        <time>2025-04-20T15:38:09Z</time>
      </trkpt>
      <trkpt lat="49.96842" lon="5.31685">
        <ele>403.1</ele>
        <time>2025-04-20T15:38:10Z</time>
      </trkpt>
      <trkpt lat="49.96842" lon="5.31687">
        <ele>403.1</ele>
        <time>2025-04-20T15:38:11Z</time>
      </trkpt>
      <trkpt lat="49.96841" lon="5.31688">
        <ele>403</ele>
        <time>2025-04-20T15:38:12Z</time>
      </trkpt>
      <trkpt lat="49.96841" lon="5.31689">
        <ele>403</ele>
        <time>2025-04-20T15:38:13Z</time>
      </trkpt>
      <trkpt lat="49.9684" lon="5.3169">
        <ele>402.9</ele>
        <time>2025-04-20T15:38:14Z</time>
      </trkpt>
      <trkpt lat="49.96839" lon="5.31692">
        <ele>402.9</ele>
        <time>2025-04-20T15:38:15Z</time>
      </trkpt>
      <trkpt lat="49.96839" lon="5.31693">
        <ele>402.9</ele>
        <time>2025-04-20T15:38:16Z</time>
      </trkpt>
      <trkpt lat="49.96839" lon="5.31695">
        <ele>402.8</ele>
        <time>2025-04-20T15:38:17Z</time>
      </trkpt>
      <trkpt lat="49.96838" lon="5.31696">
        <ele>402.8</ele>
        <time>2025-04-20T15:38:18Z</time>
      </trkpt>
      <trkpt lat="49.96838" lon="5.31698">
        <ele>402.8</ele>
        <time>2025-04-20T15:38:19Z</time>
      </trkpt>
      <trkpt lat="49.96837" lon="5.317">
        <ele>402.9</ele>
        <time>2025-04-20T15:38:20Z</time>
      </trkpt>
      <trkpt lat="49.96837" lon="5.31703">
        <ele>402.9</ele>
        <time>2025-04-20T15:38:21Z</time>
      </trkpt>
      <trkpt lat="49.96837" lon="5.31705">
        <ele>402.9</ele>
        <time>2025-04-20T15:38:22Z</time>
      </trkpt>
      <trkpt lat="49.96837" lon="5.31707">
        <ele>402.9</ele>
        <time>2025-04-20T15:38:23Z</time>
      </trkpt>
      <trkpt lat="49.96836" lon="5.31709">
        <ele>402.9</ele>
        <time>2025-04-20T15:38:24Z</time>
      </trkpt>
      <trkpt lat="49.96836" lon="5.31711">
        <ele>402.9</ele>
        <time>2025-04-20T15:38:25Z</time>
      </trkpt>
      <trkpt lat="49.96835" lon="5.31713">
        <ele>402.9</ele>
        <time>2025-04-20T15:38:26Z</time>
      </trkpt>
      <trkpt lat="49.96835" lon="5.31715">
        <ele>402.9</ele>
        <time>2025-04-20T15:38:27Z</time>
      </trkpt>
      <trkpt lat="49.96834" lon="5.31717">
        <ele>403</ele>
        <time>2025-04-20T15:38:28Z</time>
      </trkpt>
      <trkpt lat="49.96834" lon="5.31719">
        <ele>403</ele>
        <time>2025-04-20T15:38:29Z</time>
      </trkpt>
      <trkpt lat="49.96833" lon="5.3172">
        <ele>403</ele>
        <time>2025-04-20T15:38:30Z</time>
      </trkpt>
      <trkpt lat="49.96832" lon="5.31722">
        <ele>403</ele>
        <time>2025-04-20T15:38:31Z</time>
      </trkpt>
      <trkpt lat="49.96831" lon="5.31724">
        <ele>403</ele>
        <time>2025-04-20T15:38:32Z</time>
      </trkpt>
      <trkpt lat="49.96831" lon="5.31725">
        <ele>402.9</ele>
        <time>2025-04-20T15:38:33Z</time>
      </trkpt>
      <trkpt lat="49.9683" lon="5.31727">
        <ele>402.8</ele>
        <time>2025-04-20T15:38:34Z</time>
      </trkpt>
      <trkpt lat="49.9683" lon="5.31728">
        <ele>402.8</ele>
        <time>2025-04-20T15:38:35Z</time>
      </trkpt>
      <trkpt lat="49.96829" lon="5.3173">
        <ele>402.7</ele>
        <time>2025-04-20T15:38:36Z</time>
      </trkpt>
      <trkpt lat="49.96829" lon="5.31732">
        <ele>402.6</ele>
        <time>2025-04-20T15:38:37Z</time>
      </trkpt>
      <trkpt lat="49.96828" lon="5.31734">
        <ele>402.6</ele>
        <time>2025-04-20T15:38:38Z</time>
      </trkpt>
      <trkpt lat="49.96828" lon="5.31735">
        <ele>402.5</ele>
        <time>2025-04-20T15:38:39Z</time>
      </trkpt>
      <trkpt lat="49.96828" lon="5.31736">
        <ele>402.5</ele>
        <time>2025-04-20T15:38:40Z</time>
      </trkpt>
      <trkpt lat="49.96827" lon="5.31738">
        <ele>402.4</ele>
        <time>2025-04-20T15:38:41Z</time>
      </trkpt>
      <trkpt lat="49.96827" lon="5.31739">
        <ele>402.4</ele>
        <time>2025-04-20T15:38:42Z</time>
      </trkpt>
      <trkpt lat="49.96826" lon="5.3174">
        <ele>402.4</ele>
        <time>2025-04-20T15:38:43Z</time>
      </trkpt>
      <trkpt lat="49.96826" lon="5.31742">
        <ele>402.3</ele>
        <time>2025-04-20T15:38:44Z</time>
      </trkpt>
      <trkpt lat="49.96826" lon="5.31743">
        <ele>402.2</ele>
        <time>2025-04-20T15:38:45Z</time>
      </trkpt>
      <trkpt lat="49.96825" lon="5.31745">
        <ele>402.2</ele>
        <time>2025-04-20T15:38:46Z</time>
      </trkpt>
      <trkpt lat="49.96825" lon="5.31747">
        <ele>402.1</ele>
        <time>2025-04-20T15:38:47Z</time>
      </trkpt>
      <trkpt lat="49.96825" lon="5.31749">
        <ele>402</ele>
        <time>2025-04-20T15:38:48Z</time>
      </trkpt>
      <trkpt lat="49.96824" lon="5.31751">
        <ele>401.9</ele>
        <time>2025-04-20T15:38:49Z</time>
      </trkpt>
      <trkpt lat="49.96823" lon="5.31754">
        <ele>401.9</ele>
        <time>2025-04-20T15:38:50Z</time>
      </trkpt>
      <trkpt lat="49.96823" lon="5.31756">
        <ele>401.8</ele>
        <time>2025-04-20T15:38:51Z</time>
      </trkpt>
      <trkpt lat="49.96822" lon="5.31758">
        <ele>401.7</ele>
        <time>2025-04-20T15:38:52Z</time>
      </trkpt>
      <trkpt lat="49.96821" lon="5.3176">
        <ele>401.6</ele>
        <time>2025-04-20T15:38:53Z</time>
      </trkpt>
      <trkpt lat="49.9682" lon="5.31763">
        <ele>401.5</ele>
        <time>2025-04-20T15:38:54Z</time>
      </trkpt>
      <trkpt lat="49.96819" lon="5.31766">
        <ele>401.4</ele>
        <time>2025-04-20T15:38:55Z</time>
      </trkpt>
      <trkpt lat="49.96819" lon="5.31768">
        <ele>401.4</ele>
        <time>2025-04-20T15:38:56Z</time>
      </trkpt>
      <trkpt lat="49.96818" lon="5.3177">
        <ele>401.3</ele>
        <time>2025-04-20T15:38:57Z</time>
      </trkpt>
      <trkpt lat="49.96818" lon="5.31772">
        <ele>401.2</ele>
        <time>2025-04-20T15:38:58Z</time>
      </trkpt>
      <trkpt lat="49.96818" lon="5.31774">
        <ele>401.1</ele>
        <time>2025-04-20T15:38:59Z</time>
      </trkpt>
      <trkpt lat="49.96818" lon="5.31776">
        <ele>401.1</ele>
        <time>2025-04-20T15:39:00Z</time>
      </trkpt>
      <trkpt lat="49.96819" lon="5.31777">
        <ele>401</ele>
        <time>2025-04-20T15:39:01Z</time>
      </trkpt>
      <trkpt lat="49.96818" lon="5.31778">
        <ele>401</ele>
        <time>2025-04-20T15:39:22Z</time>
      </trkpt>
      <trkpt lat="49.96818" lon="5.31778">
        <ele>401</ele>
        <time>2025-04-20T15:39:23Z</time>
      </trkpt>
      <trkpt lat="49.96818" lon="5.31779">
        <ele>401</ele>
        <time>2025-04-20T15:39:24Z</time>
      </trkpt>
      <trkpt lat="49.96818" lon="5.31779">
        <ele>401.1</ele>
        <time>2025-04-20T15:39:25Z</time>
      </trkpt>
      <trkpt lat="49.96817" lon="5.3178">
        <ele>401.1</ele>
        <time>2025-04-20T15:39:26Z</time>
      </trkpt>
      <trkpt lat="49.96817" lon="5.31781">
        <ele>401.1</ele>
        <time>2025-04-20T15:39:27Z</time>
      </trkpt>
      <trkpt lat="49.96816" lon="5.31782">
        <ele>401.2</ele>
        <time>2025-04-20T15:39:28Z</time>
      </trkpt>
      <trkpt lat="49.96815" lon="5.31783">
        <ele>401.2</ele>
        <time>2025-04-20T15:39:29Z</time>
      </trkpt>
      <trkpt lat="49.96814" lon="5.31784">
        <ele>401.3</ele>
        <time>2025-04-20T15:39:30Z</time>
      </trkpt>
      <trkpt lat="49.96814" lon="5.31785">
        <ele>401.4</ele>
        <time>2025-04-20T15:39:31Z</time>
      </trkpt>
      <trkpt lat="49.96813" lon="5.31787">
        <ele>401.5</ele>
        <time>2025-04-20T15:39:32Z</time>
      </trkpt>
      <trkpt lat="49.96812" lon="5.31788">
        <ele>401.6</ele>
        <time>2025-04-20T15:39:33Z</time>
      </trkpt>
      <trkpt lat="49.96812" lon="5.3179">
        <ele>401.7</ele>
        <time>2025-04-20T15:39:34Z</time>
      </trkpt>
      <trkpt lat="49.96812" lon="5.31791">
        <ele>401.8</ele>
        <time>2025-04-20T15:39:35Z</time>
      </trkpt>
      <trkpt lat="49.96812" lon="5.31792">
        <ele>401.8</ele>
        <time>2025-04-20T15:39:36Z</time>
      </trkpt>
      <trkpt lat="49.96812" lon="5.31792">
        <ele>401.8</ele>
        <time>2025-04-20T15:39:37Z</time>
      </trkpt>
      <trkpt lat="49.96812" lon="5.31793">
        <ele>401.8</ele>
        <time>2025-04-20T15:39:38Z</time>
      </trkpt>
      <trkpt lat="49.96811" lon="5.31793">
        <ele>401.9</ele>
        <time>2025-04-20T15:39:39Z</time>
      </trkpt>
      <trkpt lat="49.96811" lon="5.31793">
        <ele>401.9</ele>
        <time>2025-04-20T15:39:40Z</time>
      </trkpt>
      <trkpt lat="49.96811" lon="5.31795">
        <ele>402</ele>
        <time>2025-04-20T15:39:41Z</time>
      </trkpt>
      <trkpt lat="49.96811" lon="5.31796">
        <ele>402</ele>
        <time>2025-04-20T15:39:42Z</time>
      </trkpt>
      <trkpt lat="49.96811" lon="5.31797">
        <ele>402.1</ele>
        <time>2025-04-20T15:39:43Z</time>
      </trkpt>
      <trkpt lat="49.96811" lon="5.31799">
        <ele>402.2</ele>
        <time>2025-04-20T15:39:44Z</time>
      </trkpt>
      <trkpt lat="49.9681" lon="5.31801">
        <ele>402.4</ele>
        <time>2025-04-20T15:39:45Z</time>
      </trkpt>
      <trkpt lat="49.9681" lon="5.31802">
        <ele>402.5</ele>
        <time>2025-04-20T15:39:46Z</time>
      </trkpt>
      <trkpt lat="49.9681" lon="5.31804">
        <ele>402.6</ele>
        <time>2025-04-20T15:39:47Z</time>
      </trkpt>
      <trkpt lat="49.96809" lon="5.31806">
        <ele>402.8</ele>
        <time>2025-04-20T15:39:48Z</time>
      </trkpt>
      <trkpt lat="49.96808" lon="5.31807">
        <ele>402.9</ele>
        <time>2025-04-20T15:39:49Z</time>
      </trkpt>
      <trkpt lat="49.96808" lon="5.31809">
        <ele>403</ele>
        <time>2025-04-20T15:39:50Z</time>
      </trkpt>
      <trkpt lat="49.96807" lon="5.3181">
        <ele>403.1</ele>
        <time>2025-04-20T15:39:51Z</time>
      </trkpt>
      <trkpt lat="49.96806" lon="5.31812">
        <ele>403.2</ele>
        <time>2025-04-20T15:39:52Z</time>
      </trkpt>
      <trkpt lat="49.96806" lon="5.31813">
        <ele>403.3</ele>
        <time>2025-04-20T15:39:53Z</time>
      </trkpt>
      <trkpt lat="49.96805" lon="5.31814">
        <ele>403.4</ele>
        <time>2025-04-20T15:39:54Z</time>
      </trkpt>
      <trkpt lat="49.96804" lon="5.31816">
        <ele>403.4</ele>
        <time>2025-04-20T15:39:55Z</time>
      </trkpt>
      <trkpt lat="49.96804" lon="5.31817">
        <ele>403.5</ele>
        <time>2025-04-20T15:39:56Z</time>
      </trkpt>
      <trkpt lat="49.96803" lon="5.31819">
        <ele>403.6</ele>
        <time>2025-04-20T15:39:57Z</time>
      </trkpt>
      <trkpt lat="49.96802" lon="5.31821">
        <ele>403.7</ele>
        <time>2025-04-20T15:39:58Z</time>
      </trkpt>
      <trkpt lat="49.96802" lon="5.31822">
        <ele>403.8</ele>
        <time>2025-04-20T15:39:59Z</time>
      </trkpt>
      <trkpt lat="49.96801" lon="5.31824">
        <ele>403.9</ele>
        <time>2025-04-20T15:40:00Z</time>
      </trkpt>
      <trkpt lat="49.96801" lon="5.31825">
        <ele>403.9</ele>
        <time>2025-04-20T15:40:01Z</time>
      </trkpt>
      <trkpt lat="49.968" lon="5.31827">
        <ele>404</ele>
        <time>2025-04-20T15:40:02Z</time>
      </trkpt>
      <trkpt lat="49.968" lon="5.31828">
        <ele>404</ele>
        <time>2025-04-20T15:40:03Z</time>
      </trkpt>
      <trkpt lat="49.96799" lon="5.31829">
        <ele>404.1</ele>
        <time>2025-04-20T15:40:04Z</time>
      </trkpt>
      <trkpt lat="49.96799" lon="5.31831">
        <ele>404.2</ele>
        <time>2025-04-20T15:40:05Z</time>
      </trkpt>
      <trkpt lat="49.96798" lon="5.31832">
        <ele>404.2</ele>
        <time>2025-04-20T15:40:06Z</time>
      </trkpt>
      <trkpt lat="49.96797" lon="5.31833">
        <ele>404.3</ele>
        <time>2025-04-20T15:40:07Z</time>
      </trkpt>
      <trkpt lat="49.96797" lon="5.31835">
        <ele>404.4</ele>
        <time>2025-04-20T15:40:08Z</time>
      </trkpt>
      <trkpt lat="49.96796" lon="5.31836">
        <ele>404.5</ele>
        <time>2025-04-20T15:40:09Z</time>
      </trkpt>
      <trkpt lat="49.96795" lon="5.31838">
        <ele>404.5</ele>
        <time>2025-04-20T15:40:10Z</time>
      </trkpt>
      <trkpt lat="49.96795" lon="5.31839">
        <ele>404.6</ele>
        <time>2025-04-20T15:40:11Z</time>
      </trkpt>
      <trkpt lat="49.96794" lon="5.3184">
        <ele>404.7</ele>
        <time>2025-04-20T15:40:12Z</time>
      </trkpt>
      <trkpt lat="49.96793" lon="5.31841">
        <ele>404.7</ele>
        <time>2025-04-20T15:40:13Z</time>
      </trkpt>
      <trkpt lat="49.96792" lon="5.31843">
        <ele>404.8</ele>
        <time>2025-04-20T15:40:14Z</time>
      </trkpt>
      <trkpt lat="49.96792" lon="5.31844">
        <ele>404.9</ele>
        <time>2025-04-20T15:40:15Z</time>
      </trkpt>
      <trkpt lat="49.96791" lon="5.31845">
        <ele>404.9</ele>
        <time>2025-04-20T15:40:16Z</time>
      </trkpt>
      <trkpt lat="49.9679" lon="5.31846">
        <ele>405</ele>
        <time>2025-04-20T15:40:17Z</time>
      </trkpt>
      <trkpt lat="49.9679" lon="5.31847">
        <ele>405.1</ele>
        <time>2025-04-20T15:40:18Z</time>
      </trkpt>
      <trkpt lat="49.96789" lon="5.31849">
        <ele>405.2</ele>
        <time>2025-04-20T15:40:19Z</time>
      </trkpt>
      <trkpt lat="49.96788" lon="5.3185">
        <ele>405.2</ele>
        <time>2025-04-20T15:40:20Z</time>
      </trkpt>
      <trkpt lat="49.96787" lon="5.31852">
        <ele>405.3</ele>
        <time>2025-04-20T15:40:21Z</time>
      </trkpt>
      <trkpt lat="49.96787" lon="5.31853">
        <ele>405.4</ele>
        <time>2025-04-20T15:40:22Z</time>
      </trkpt>
      <trkpt lat="49.96786" lon="5.31855">
        <ele>405.5</ele>
        <time>2025-04-20T15:40:23Z</time>
      </trkpt>
      <trkpt lat="49.96785" lon="5.31856">
        <ele>405.6</ele>
        <time>2025-04-20T15:40:24Z</time>
      </trkpt>
      <trkpt lat="49.96785" lon="5.31858">
        <ele>405.6</ele>
        <time>2025-04-20T15:40:25Z</time>
      </trkpt>
      <trkpt lat="49.96784" lon="5.31859">
        <ele>405.7</ele>
        <time>2025-04-20T15:40:26Z</time>
      </trkpt>
      <trkpt lat="49.96783" lon="5.31861">
        <ele>405.8</ele>
        <time>2025-04-20T15:40:27Z</time>
      </trkpt>
      <trkpt lat="49.96783" lon="5.31862">
        <ele>405.9</ele>
        <time>2025-04-20T15:40:28Z</time>
      </trkpt>
      <trkpt lat="49.96782" lon="5.31864">
        <ele>405.9</ele>
        <time>2025-04-20T15:40:29Z</time>
      </trkpt>
      <trkpt lat="49.96781" lon="5.31865">
        <ele>406</ele>
        <time>2025-04-20T15:40:30Z</time>
      </trkpt>
      <trkpt lat="49.9678" lon="5.31866">
        <ele>406.1</ele>
        <time>2025-04-20T15:40:31Z</time>
      </trkpt>
      <trkpt lat="49.96779" lon="5.31869">
        <ele>406.3</ele>
        <time>2025-04-20T15:40:44Z</time>
      </trkpt>
      <trkpt lat="49.96778" lon="5.3187">
        <ele>406.3</ele>
        <time>2025-04-20T15:40:45Z</time>
      </trkpt>
      <trkpt lat="49.96778" lon="5.31871">
        <ele>406.4</ele>
        <time>2025-04-20T15:40:46Z</time>
      </trkpt>
      <trkpt lat="49.96777" lon="5.31872">
        <ele>406.4</ele>
        <time>2025-04-20T15:40:47Z</time>
      </trkpt>
      <trkpt lat="49.96777" lon="5.31873">
        <ele>406.5</ele>
        <time>2025-04-20T15:40:48Z</time>
      </trkpt>
      <trkpt lat="49.96776" lon="5.31873">
        <ele>406.6</ele>
        <time>2025-04-20T15:40:49Z</time>
      </trkpt>
      <trkpt lat="49.96776" lon="5.31874">
        <ele>406.6</ele>
        <time>2025-04-20T15:40:50Z</time>
      </trkpt>
      <trkpt lat="49.96775" lon="5.31876">
        <ele>406.7</ele>
        <time>2025-04-20T15:40:51Z</time>
      </trkpt>
      <trkpt lat="49.96774" lon="5.31877">
        <ele>406.8</ele>
        <time>2025-04-20T15:40:52Z</time>
      </trkpt>
      <trkpt lat="49.96773" lon="5.31878">
        <ele>406.9</ele>
        <time>2025-04-20T15:40:53Z</time>
      </trkpt>
      <trkpt lat="49.96773" lon="5.3188">
        <ele>407</ele>
        <time>2025-04-20T15:40:54Z</time>
      </trkpt>
      <trkpt lat="49.96772" lon="5.31881">
        <ele>407.1</ele>
        <time>2025-04-20T15:40:55Z</time>
      </trkpt>
      <trkpt lat="49.96771" lon="5.31882">
        <ele>407.2</ele>
        <time>2025-04-20T15:40:56Z</time>
      </trkpt>
      <trkpt lat="49.9677" lon="5.31883">
        <ele>407.3</ele>
        <time>2025-04-20T15:40:57Z</time>
      </trkpt>
      <trkpt lat="49.9677" lon="5.31885">
        <ele>407.4</ele>
        <time>2025-04-20T15:40:58Z</time>
      </trkpt>
      <trkpt lat="49.96769" lon="5.31886">
        <ele>407.5</ele>
        <time>2025-04-20T15:40:59Z</time>
      </trkpt>
      <trkpt lat="49.96768" lon="5.31887">
        <ele>407.6</ele>
        <time>2025-04-20T15:41:00Z</time>
      </trkpt>
      <trkpt lat="49.96767" lon="5.31889">
        <ele>407.7</ele>
        <time>2025-04-20T15:41:01Z</time>
      </trkpt>
      <trkpt lat="49.96767" lon="5.3189">
        <ele>407.8</ele>
        <time>2025-04-20T15:41:02Z</time>
      </trkpt>
      <trkpt lat="49.96766" lon="5.31891">
        <ele>407.9</ele>
        <time>2025-04-20T15:41:03Z</time>
      </trkpt>
      <trkpt lat="49.96765" lon="5.31892">
        <ele>408</ele>
        <time>2025-04-20T15:41:04Z</time>
      </trkpt>
      <trkpt lat="49.96765" lon="5.31894">
        <ele>408.1</ele>
        <time>2025-04-20T15:41:05Z</time>
      </trkpt>
      <trkpt lat="49.96764" lon="5.31895">
        <ele>408.2</ele>
        <time>2025-04-20T15:41:06Z</time>
      </trkpt>
      <trkpt lat="49.96764" lon="5.31897">
        <ele>408.3</ele>
        <time>2025-04-20T15:41:07Z</time>
      </trkpt>
      <trkpt lat="49.96763" lon="5.31899">
        <ele>408.4</ele>
        <time>2025-04-20T15:41:08Z</time>
      </trkpt>
      <trkpt lat="49.96763" lon="5.319">
        <ele>408.5</ele>
        <time>2025-04-20T15:41:09Z</time>
      </trkpt>
      <trkpt lat="49.96763" lon="5.31902">
        <ele>408.6</ele>
        <time>2025-04-20T15:41:10Z</time>
      </trkpt>
      <trkpt lat="49.96762" lon="5.31903">
        <ele>408.6</ele>
        <time>2025-04-20T15:41:11Z</time>
      </trkpt>
      <trkpt lat="49.96762" lon="5.31905">
        <ele>408.7</ele>
        <time>2025-04-20T15:41:12Z</time>
      </trkpt>
      <trkpt lat="49.96761" lon="5.31906">
        <ele>408.8</ele>
        <time>2025-04-20T15:41:13Z</time>
      </trkpt>
      <trkpt lat="49.96761" lon="5.31907">
        <ele>408.9</ele>
        <time>2025-04-20T15:41:14Z</time>
      </trkpt>
      <trkpt lat="49.9676" lon="5.31909">
        <ele>409</ele>
        <time>2025-04-20T15:41:15Z</time>
      </trkpt>
      <trkpt lat="49.96759" lon="5.3191">
        <ele>409.1</ele>
        <time>2025-04-20T15:41:16Z</time>
      </trkpt>
      <trkpt lat="49.96758" lon="5.3191">
        <ele>409.2</ele>
        <time>2025-04-20T15:41:17Z</time>
      </trkpt>
      <trkpt lat="49.96757" lon="5.31911">
        <ele>409.3</ele>
        <time>2025-04-20T15:41:18Z</time>
      </trkpt>
      <trkpt lat="49.96756" lon="5.31912">
        <ele>409.4</ele>
        <time>2025-04-20T15:41:19Z</time>
      </trkpt>
      <trkpt lat="49.96755" lon="5.31913">
        <ele>409.5</ele>
        <time>2025-04-20T15:41:20Z</time>
      </trkpt>
      <trkpt lat="49.96754" lon="5.31915">
        <ele>409.7</ele>
        <time>2025-04-20T15:42:30Z</time>
      </trkpt>
      <trkpt lat="49.96753" lon="5.31916">
        <ele>409.7</ele>
        <time>2025-04-20T15:42:31Z</time>
      </trkpt>
      <trkpt lat="49.96753" lon="5.31917">
        <ele>409.8</ele>
        <time>2025-04-20T15:42:32Z</time>
      </trkpt>
      <trkpt lat="49.96753" lon="5.31918">
        <ele>409.8</ele>
        <time>2025-04-20T15:42:33Z</time>
      </trkpt>
      <trkpt lat="49.96753" lon="5.3192">
        <ele>409.9</ele>
        <time>2025-04-20T15:42:34Z</time>
      </trkpt>
      <trkpt lat="49.96753" lon="5.31921">
        <ele>409.9</ele>
        <time>2025-04-20T15:42:35Z</time>
      </trkpt>
      <trkpt lat="49.96753" lon="5.31923">
        <ele>410</ele>
        <time>2025-04-20T15:42:36Z</time>
      </trkpt>
      <trkpt lat="49.96753" lon="5.31925">
        <ele>410</ele>
        <time>2025-04-20T15:42:37Z</time>
      </trkpt>
      <trkpt lat="49.96753" lon="5.31926">
        <ele>410.1</ele>
        <time>2025-04-20T15:42:38Z</time>
      </trkpt>
      <trkpt lat="49.96754" lon="5.31928">
        <ele>410.2</ele>
        <time>2025-04-20T15:42:39Z</time>
      </trkpt>
      <trkpt lat="49.96754" lon="5.3193">
        <ele>410.2</ele>
        <time>2025-04-20T15:42:40Z</time>
      </trkpt>
      <trkpt lat="49.96754" lon="5.31932">
        <ele>410.3</ele>
        <time>2025-04-20T15:42:41Z</time>
      </trkpt>
      <trkpt lat="49.96755" lon="5.31934">
        <ele>410.3</ele>
        <time>2025-04-20T15:42:42Z</time>
      </trkpt>
      <trkpt lat="49.96755" lon="5.31936">
        <ele>410.4</ele>
        <time>2025-04-20T15:42:43Z</time>
      </trkpt>
      <trkpt lat="49.96755" lon="5.31938">
        <ele>410.4</ele>
        <time>2025-04-20T15:42:44Z</time>
      </trkpt>
      <trkpt lat="49.96755" lon="5.3194">
        <ele>410.5</ele>
        <time>2025-04-20T15:42:45Z</time>
      </trkpt>
      <trkpt lat="49.96755" lon="5.31942">
        <ele>410.5</ele>
        <time>2025-04-20T15:42:46Z</time>
      </trkpt>
      <trkpt lat="49.96755" lon="5.31944">
        <ele>410.6</ele>
        <time>2025-04-20T15:42:47Z</time>
      </trkpt>
      <trkpt lat="49.96755" lon="5.31946">
        <ele>410.7</ele>
        <time>2025-04-20T15:42:48Z</time>
      </trkpt>
      <trkpt lat="49.96755" lon="5.31948">
        <ele>410.9</ele>
        <time>2025-04-20T15:42:49Z</time>
      </trkpt>
      <trkpt lat="49.96755" lon="5.3195">
        <ele>411</ele>
        <time>2025-04-20T15:42:50Z</time>
      </trkpt>
      <trkpt lat="49.96755" lon="5.31952">
        <ele>411.1</ele>
        <time>2025-04-20T15:42:51Z</time>
      </trkpt>
      <trkpt lat="49.96755" lon="5.31954">
        <ele>411.2</ele>
        <time>2025-04-20T15:42:52Z</time>
      </trkpt>
      <trkpt lat="49.96755" lon="5.31956">
        <ele>411.4</ele>
        <time>2025-04-20T15:42:53Z</time>
      </trkpt>
      <trkpt lat="49.96755" lon="5.31957">
        <ele>411.5</ele>
        <time>2025-04-20T15:42:54Z</time>
      </trkpt>
      <trkpt lat="49.96755" lon="5.31959">
        <ele>411.6</ele>
        <time>2025-04-20T15:42:55Z</time>
      </trkpt>
      <trkpt lat="49.96755" lon="5.31961">
        <ele>411.7</ele>
        <time>2025-04-20T15:42:56Z</time>
      </trkpt>
      <trkpt lat="49.96755" lon="5.31963">
        <ele>411.8</ele>
        <time>2025-04-20T15:42:57Z</time>
      </trkpt>
      <trkpt lat="49.96755" lon="5.31965">
        <ele>411.9</ele>
        <time>2025-04-20T15:42:58Z</time>
      </trkpt>
      <trkpt lat="49.96756" lon="5.31967">
        <ele>412</ele>
        <time>2025-04-20T15:42:59Z</time>
      </trkpt>
      <trkpt lat="49.96756" lon="5.31969">
        <ele>412.2</ele>
        <time>2025-04-20T15:43:00Z</time>
      </trkpt>
      <trkpt lat="49.96756" lon="5.31971">
        <ele>412.3</ele>
        <time>2025-04-20T15:43:01Z</time>
      </trkpt>
      <trkpt lat="49.96756" lon="5.31973">
        <ele>412.4</ele>
        <time>2025-04-20T15:43:02Z</time>
      </trkpt>
      <trkpt lat="49.96756" lon="5.31975">
        <ele>412.5</ele>
        <time>2025-04-20T15:43:03Z</time>
      </trkpt>
      <trkpt lat="49.96756" lon="5.31976">
        <ele>412.5</ele>
        <time>2025-04-20T15:43:04Z</time>
      </trkpt>
      <trkpt lat="49.96756" lon="5.31976">
        <ele>412.5</ele>
        <time>2025-04-20T15:43:05Z</time>
      </trkpt>
      <trkpt lat="49.96756" lon="5.31976">
        <ele>412.5</ele>
        <time>2025-04-20T15:43:06Z</time>
      </trkpt>
      <trkpt lat="49.96756" lon="5.31977">
        <ele>412.5</ele>
        <time>2025-04-20T15:43:07Z</time>
      </trkpt>
      <trkpt lat="49.96756" lon="5.31977">
        <ele>412.5</ele>
        <time>2025-04-20T15:43:08Z</time>
      </trkpt>
      <trkpt lat="49.96756" lon="5.31977">
        <ele>412.5</ele>
        <time>2025-04-20T15:43:09Z</time>
      </trkpt>
      <trkpt lat="49.96756" lon="5.31978">
        <ele>412.5</ele>
        <time>2025-04-20T15:43:10Z</time>
      </trkpt>
      <trkpt lat="49.96757" lon="5.31979">
        <ele>412.6</ele>
        <time>2025-04-20T15:43:11Z</time>
      </trkpt>
      <trkpt lat="49.96757" lon="5.3198">
        <ele>412.6</ele>
        <time>2025-04-20T15:43:12Z</time>
      </trkpt>
      <trkpt lat="49.96757" lon="5.31982">
        <ele>412.6</ele>
        <time>2025-04-20T15:43:13Z</time>
      </trkpt>
      <trkpt lat="49.96757" lon="5.31983">
        <ele>412.7</ele>
        <time>2025-04-20T15:43:14Z</time>
      </trkpt>
      <trkpt lat="49.96757" lon="5.31985">
        <ele>412.7</ele>
        <time>2025-04-20T15:43:15Z</time>
      </trkpt>
      <trkpt lat="49.96757" lon="5.31987">
        <ele>412.8</ele>
        <time>2025-04-20T15:43:16Z</time>
      </trkpt>
      <trkpt lat="49.96756" lon="5.31988">
        <ele>412.9</ele>
        <time>2025-04-20T15:43:17Z</time>
      </trkpt>
      <trkpt lat="49.96756" lon="5.3199">
        <ele>413</ele>
        <time>2025-04-20T15:43:18Z</time>
      </trkpt>
      <trkpt lat="49.96756" lon="5.31991">
        <ele>413.1</ele>
        <time>2025-04-20T15:43:19Z</time>
      </trkpt>
      <trkpt lat="49.96756" lon="5.31993">
        <ele>413.1</ele>
        <time>2025-04-20T15:43:20Z</time>
      </trkpt>
      <trkpt lat="49.96755" lon="5.31994">
        <ele>413.2</ele>
        <time>2025-04-20T15:43:21Z</time>
      </trkpt>
      <trkpt lat="49.96755" lon="5.31996">
        <ele>413.3</ele>
        <time>2025-04-20T15:43:22Z</time>
      </trkpt>
      <trkpt lat="49.96755" lon="5.31997">
        <ele>413.4</ele>
        <time>2025-04-20T15:43:23Z</time>
      </trkpt>
      <trkpt lat="49.96755" lon="5.31999">
        <ele>413.4</ele>
        <time>2025-04-20T15:43:24Z</time>
      </trkpt>
      <trkpt lat="49.96755" lon="5.32">
        <ele>413.5</ele>
        <time>2025-04-20T15:43:25Z</time>
      </trkpt>
      <trkpt lat="49.96755" lon="5.32002">
        <ele>413.6</ele>
        <time>2025-04-20T15:43:26Z</time>
      </trkpt>
      <trkpt lat="49.96755" lon="5.32004">
        <ele>413.8</ele>
        <time>2025-04-20T15:43:27Z</time>
      </trkpt>
      <trkpt lat="49.96755" lon="5.32005">
        <ele>413.9</ele>
        <time>2025-04-20T15:43:28Z</time>
      </trkpt>
      <trkpt lat="49.96755" lon="5.32007">
        <ele>414</ele>
        <time>2025-04-20T15:43:29Z</time>
      </trkpt>
      <trkpt lat="49.96754" lon="5.32009">
        <ele>414.2</ele>
        <time>2025-04-20T15:43:30Z</time>
      </trkpt>
      <trkpt lat="49.96754" lon="5.32011">
        <ele>414.4</ele>
        <time>2025-04-20T15:43:31Z</time>
      </trkpt>
      <trkpt lat="49.96754" lon="5.32013">
        <ele>414.5</ele>
        <time>2025-04-20T15:43:32Z</time>
      </trkpt>
      <trkpt lat="49.96754" lon="5.32015">
        <ele>414.7</ele>
        <time>2025-04-20T15:43:33Z</time>
      </trkpt>
      <trkpt lat="49.96754" lon="5.32017">
        <ele>414.8</ele>
        <time>2025-04-20T15:43:34Z</time>
      </trkpt>
      <trkpt lat="49.96754" lon="5.32019">
        <ele>414.9</ele>
        <time>2025-04-20T15:43:35Z</time>
      </trkpt>
      <trkpt lat="49.96754" lon="5.32021">
        <ele>415.1</ele>
        <time>2025-04-20T15:43:36Z</time>
      </trkpt>
      <trkpt lat="49.96754" lon="5.32023">
        <ele>415.2</ele>
        <time>2025-04-20T15:43:37Z</time>
      </trkpt>
      <trkpt lat="49.96754" lon="5.32023">
        <ele>415.2</ele>
        <time>2025-04-20T15:43:38Z</time>
      </trkpt>
      <trkpt lat="49.96754" lon="5.32023">
        <ele>415.2</ele>
        <time>2025-04-20T15:43:39Z</time>
      </trkpt>
      <trkpt lat="49.96754" lon="5.32024">
        <ele>415.2</ele>
        <time>2025-04-20T15:43:40Z</time>
      </trkpt>
      <trkpt lat="49.96754" lon="5.32024">
        <ele>415.3</ele>
        <time>2025-04-20T15:43:41Z</time>
      </trkpt>
      <trkpt lat="49.96754" lon="5.32024">
        <ele>415.3</ele>
        <time>2025-04-20T15:43:42Z</time>
      </trkpt>
      <trkpt lat="49.96754" lon="5.32025">
        <ele>415.4</ele>
        <time>2025-04-20T15:43:43Z</time>
      </trkpt>
      <trkpt lat="49.96754" lon="5.32026">
        <ele>415.4</ele>
        <time>2025-04-20T15:43:44Z</time>
      </trkpt>
      <trkpt lat="49.96754" lon="5.32027">
        <ele>415.6</ele>
        <time>2025-04-20T15:43:45Z</time>
      </trkpt>
      <trkpt lat="49.96753" lon="5.32028">
        <ele>415.7</ele>
        <time>2025-04-20T15:43:46Z</time>
      </trkpt>
      <trkpt lat="49.96753" lon="5.32031">
        <ele>415.7</ele>
        <time>2025-04-20T15:43:47Z</time>
      </trkpt>
      <trkpt lat="49.96754" lon="5.32033">
        <ele>415.8</ele>
        <time>2025-04-20T15:43:48Z</time>
      </trkpt>
      <trkpt lat="49.96754" lon="5.32036">
        <ele>415.8</ele>
        <time>2025-04-20T15:43:49Z</time>
      </trkpt>
      <trkpt lat="49.96755" lon="5.32039">
        <ele>415.9</ele>
        <time>2025-04-20T15:43:50Z</time>
      </trkpt>
      <trkpt lat="49.96755" lon="5.32041">
        <ele>416</ele>
        <time>2025-04-20T15:43:51Z</time>
      </trkpt>
      <trkpt lat="49.96755" lon="5.32044">
        <ele>416</ele>
        <time>2025-04-20T15:43:52Z</time>
      </trkpt>
      <trkpt lat="49.96755" lon="5.32046">
        <ele>416.1</ele>
        <time>2025-04-20T15:43:53Z</time>
      </trkpt>
      <trkpt lat="49.96755" lon="5.32048">
        <ele>416.2</ele>
        <time>2025-04-20T15:43:54Z</time>
      </trkpt>
      <trkpt lat="49.96755" lon="5.3205">
        <ele>416.3</ele>
        <time>2025-04-20T15:43:55Z</time>
      </trkpt>
      <trkpt lat="49.96754" lon="5.32052">
        <ele>416.4</ele>
        <time>2025-04-20T15:43:56Z</time>
      </trkpt>
      <trkpt lat="49.96754" lon="5.32054">
        <ele>416.5</ele>
        <time>2025-04-20T15:43:57Z</time>
      </trkpt>
      <trkpt lat="49.96754" lon="5.32056">
        <ele>416.6</ele>
        <time>2025-04-20T15:43:58Z</time>
      </trkpt>
      <trkpt lat="49.96754" lon="5.32058">
        <ele>416.7</ele>
        <time>2025-04-20T15:43:59Z</time>
      </trkpt>
      <trkpt lat="49.96754" lon="5.3206">
        <ele>416.8</ele>
        <time>2025-04-20T15:44:00Z</time>
      </trkpt>
      <trkpt lat="49.96753" lon="5.32062">
        <ele>416.9</ele>
        <time>2025-04-20T15:44:01Z</time>
      </trkpt>
      <trkpt lat="49.96753" lon="5.32064">
        <ele>417</ele>
        <time>2025-04-20T15:44:02Z</time>
      </trkpt>
      <trkpt lat="49.96753" lon="5.32066">
        <ele>417.1</ele>
        <time>2025-04-20T15:44:03Z</time>
      </trkpt>
      <trkpt lat="49.96753" lon="5.32068">
        <ele>417.2</ele>
        <time>2025-04-20T15:44:04Z</time>
      </trkpt>
      <trkpt lat="49.96752" lon="5.3207">
        <ele>417.3</ele>
        <time>2025-04-20T15:44:05Z</time>
      </trkpt>
      <trkpt lat="49.96752" lon="5.32072">
        <ele>417.4</ele>
        <time>2025-04-20T15:44:06Z</time>
      </trkpt>
      <trkpt lat="49.96752" lon="5.32074">
        <ele>417.5</ele>
        <time>2025-04-20T15:44:07Z</time>
      </trkpt>
      <trkpt lat="49.96752" lon="5.32076">
        <ele>417.6</ele>
        <time>2025-04-20T15:44:08Z</time>
      </trkpt>
      <trkpt lat="49.96752" lon="5.32078">
        <ele>417.7</ele>
        <time>2025-04-20T15:44:09Z</time>
      </trkpt>
      <trkpt lat="49.96752" lon="5.3208">
        <ele>417.8</ele>
        <time>2025-04-20T15:44:10Z</time>
      </trkpt>
      <trkpt lat="49.96752" lon="5.32082">
        <ele>417.8</ele>
        <time>2025-04-20T15:44:11Z</time>
      </trkpt>
      <trkpt lat="49.96751" lon="5.32084">
        <ele>418</ele>
        <time>2025-04-20T15:44:12Z</time>
      </trkpt>
      <trkpt lat="49.96751" lon="5.32086">
        <ele>418.1</ele>
        <time>2025-04-20T15:44:13Z</time>
      </trkpt>
      <trkpt lat="49.96751" lon="5.32088">
        <ele>418.3</ele>
        <time>2025-04-20T15:44:14Z</time>
      </trkpt>
      <trkpt lat="49.96751" lon="5.3209">
        <ele>418.4</ele>
        <time>2025-04-20T15:44:15Z</time>
      </trkpt>
      <trkpt lat="49.96751" lon="5.32092">
        <ele>418.6</ele>
        <time>2025-04-20T15:44:16Z</time>
      </trkpt>
      <trkpt lat="49.96751" lon="5.32094">
        <ele>418.7</ele>
        <time>2025-04-20T15:44:17Z</time>
      </trkpt>
      <trkpt lat="49.9675" lon="5.32096">
        <ele>418.9</ele>
        <time>2025-04-20T15:44:18Z</time>
      </trkpt>
      <trkpt lat="49.9675" lon="5.32098">
        <ele>419.1</ele>
        <time>2025-04-20T15:44:19Z</time>
      </trkpt>
      <trkpt lat="49.9675" lon="5.321">
        <ele>419.2</ele>
        <time>2025-04-20T15:44:20Z</time>
      </trkpt>
      <trkpt lat="49.9675" lon="5.32102">
        <ele>419.4</ele>
        <time>2025-04-20T15:44:21Z</time>
      </trkpt>
      <trkpt lat="49.96749" lon="5.32104">
        <ele>419.6</ele>
        <time>2025-04-20T15:44:22Z</time>
      </trkpt>
      <trkpt lat="49.96749" lon="5.32106">
        <ele>419.7</ele>
        <time>2025-04-20T15:44:23Z</time>
      </trkpt>
      <trkpt lat="49.96748" lon="5.32108">
        <ele>419.9</ele>
        <time>2025-04-20T15:44:24Z</time>
      </trkpt>
      <trkpt lat="49.96748" lon="5.3211">
        <ele>420.1</ele>
        <time>2025-04-20T15:44:25Z</time>
      </trkpt>
      <trkpt lat="49.96748" lon="5.32112">
        <ele>420.2</ele>
        <time>2025-04-20T15:44:26Z</time>
      </trkpt>
      <trkpt lat="49.96747" lon="5.32114">
        <ele>420.4</ele>
        <time>2025-04-20T15:44:27Z</time>
      </trkpt>
      <trkpt lat="49.96747" lon="5.32115">
        <ele>420.5</ele>
        <time>2025-04-20T15:44:28Z</time>
      </trkpt>
      <trkpt lat="49.96746" lon="5.32117">
        <ele>420.7</ele>
        <time>2025-04-20T15:44:29Z</time>
      </trkpt>
      <trkpt lat="49.96746" lon="5.32119">
        <ele>420.8</ele>
        <time>2025-04-20T15:44:30Z</time>
      </trkpt>
      <trkpt lat="49.96746" lon="5.3212">
        <ele>420.9</ele>
        <time>2025-04-20T15:44:31Z</time>
      </trkpt>
      <trkpt lat="49.96746" lon="5.32121">
        <ele>421</ele>
        <time>2025-04-20T15:44:32Z</time>
      </trkpt>
      <trkpt lat="49.96745" lon="5.32123">
        <ele>421.1</ele>
        <time>2025-04-20T15:44:33Z</time>
      </trkpt>
      <trkpt lat="49.96745" lon="5.32124">
        <ele>421.2</ele>
        <time>2025-04-20T15:44:34Z</time>
      </trkpt>
      <trkpt lat="49.96745" lon="5.32126">
        <ele>421.3</ele>
        <time>2025-04-20T15:44:35Z</time>
      </trkpt>
      <trkpt lat="49.96745" lon="5.32128">
        <ele>421.5</ele>
        <time>2025-04-20T15:44:36Z</time>
      </trkpt>
      <trkpt lat="49.96744" lon="5.3213">
        <ele>421.6</ele>
        <time>2025-04-20T15:44:37Z</time>
      </trkpt>
      <trkpt lat="49.96744" lon="5.32132">
        <ele>421.8</ele>
        <time>2025-04-20T15:44:38Z</time>
      </trkpt>
      <trkpt lat="49.96743" lon="5.32133">
        <ele>421.9</ele>
        <time>2025-04-20T15:44:39Z</time>
      </trkpt>
      <trkpt lat="49.96743" lon="5.32135">
        <ele>422</ele>
        <time>2025-04-20T15:44:40Z</time>
      </trkpt>
      <trkpt lat="49.96742" lon="5.32137">
        <ele>422.1</ele>
        <time>2025-04-20T15:44:41Z</time>
      </trkpt>
      <trkpt lat="49.96742" lon="5.32138">
        <ele>422.3</ele>
        <time>2025-04-20T15:44:42Z</time>
      </trkpt>
      <trkpt lat="49.96741" lon="5.32139">
        <ele>422.3</ele>
        <time>2025-04-20T15:44:43Z</time>
      </trkpt>
      <trkpt lat="49.9674" lon="5.32141">
        <ele>422.4</ele>
        <time>2025-04-20T15:44:44Z</time>
      </trkpt>
      <trkpt lat="49.96739" lon="5.32142">
        <ele>422.5</ele>
        <time>2025-04-20T15:44:45Z</time>
      </trkpt>
      <trkpt lat="49.96739" lon="5.32144">
        <ele>422.6</ele>
        <time>2025-04-20T15:44:46Z</time>
      </trkpt>
      <trkpt lat="49.96738" lon="5.32145">
        <ele>422.6</ele>
        <time>2025-04-20T15:44:47Z</time>
      </trkpt>
      <trkpt lat="49.96738" lon="5.32146">
        <ele>422.7</ele>
        <time>2025-04-20T15:44:48Z</time>
      </trkpt>
      <trkpt lat="49.96737" lon="5.32148">
        <ele>422.8</ele>
        <time>2025-04-20T15:44:49Z</time>
      </trkpt>
      <trkpt lat="49.96736" lon="5.32149">
        <ele>422.9</ele>
        <time>2025-04-20T15:44:50Z</time>
      </trkpt>
      <trkpt lat="49.96736" lon="5.32151">
        <ele>422.9</ele>
        <time>2025-04-20T15:44:51Z</time>
      </trkpt>
      <trkpt lat="49.96735" lon="5.32152">
        <ele>423</ele>
        <time>2025-04-20T15:44:52Z</time>
      </trkpt>
      <trkpt lat="49.96734" lon="5.32154">
        <ele>423.1</ele>
        <time>2025-04-20T15:44:53Z</time>
      </trkpt>
      <trkpt lat="49.96733" lon="5.32155">
        <ele>423.2</ele>
        <time>2025-04-20T15:44:54Z</time>
      </trkpt>
      <trkpt lat="49.96733" lon="5.32157">
        <ele>423.3</ele>
        <time>2025-04-20T15:44:55Z</time>
      </trkpt>
      <trkpt lat="49.96732" lon="5.32159">
        <ele>423.4</ele>
        <time>2025-04-20T15:44:56Z</time>
      </trkpt>
      <trkpt lat="49.96731" lon="5.3216">
        <ele>423.5</ele>
        <time>2025-04-20T15:44:57Z</time>
      </trkpt>
      <trkpt lat="49.9673" lon="5.32162">
        <ele>423.5</ele>
        <time>2025-04-20T15:44:58Z</time>
      </trkpt>
      <trkpt lat="49.9673" lon="5.32164">
        <ele>423.6</ele>
        <time>2025-04-20T15:44:59Z</time>
      </trkpt>
      <trkpt lat="49.96729" lon="5.32166">
        <ele>423.7</ele>
        <time>2025-04-20T15:45:00Z</time>
      </trkpt>
      <trkpt lat="49.96728" lon="5.32167">
        <ele>423.8</ele>
        <time>2025-04-20T15:45:01Z</time>
      </trkpt>
      <trkpt lat="49.96728" lon="5.32169">
        <ele>423.9</ele>
        <time>2025-04-20T15:45:02Z</time>
      </trkpt>
      <trkpt lat="49.96727" lon="5.32171">
        <ele>424</ele>
        <time>2025-04-20T15:45:19Z</time>
      </trkpt>
      <trkpt lat="49.96726" lon="5.32172">
        <ele>424</ele>
        <time>2025-04-20T15:45:20Z</time>
      </trkpt>
      <trkpt lat="49.96726" lon="5.32173">
        <ele>424.1</ele>
        <time>2025-04-20T15:45:21Z</time>
      </trkpt>
      <trkpt lat="49.96725" lon="5.32174">
        <ele>424.1</ele>
        <time>2025-04-20T15:45:22Z</time>
      </trkpt>
      <trkpt lat="49.96725" lon="5.32175">
        <ele>424.2</ele>
        <time>2025-04-20T15:45:23Z</time>
      </trkpt>
      <trkpt lat="49.96724" lon="5.32176">
        <ele>424.3</ele>
        <time>2025-04-20T15:45:24Z</time>
      </trkpt>
      <trkpt lat="49.96724" lon="5.32177">
        <ele>424.3</ele>
        <time>2025-04-20T15:45:25Z</time>
      </trkpt>
      <trkpt lat="49.96723" lon="5.32179">
        <ele>424.4</ele>
        <time>2025-04-20T15:45:26Z</time>
      </trkpt>
      <trkpt lat="49.96723" lon="5.3218">
        <ele>424.5</ele>
        <time>2025-04-20T15:45:27Z</time>
      </trkpt>
      <trkpt lat="49.96722" lon="5.32182">
        <ele>424.6</ele>
        <time>2025-04-20T15:45:28Z</time>
      </trkpt>
      <trkpt lat="49.96721" lon="5.32184">
        <ele>424.6</ele>
        <time>2025-04-20T15:45:29Z</time>
      </trkpt>
      <trkpt lat="49.96721" lon="5.32185">
        <ele>424.7</ele>
        <time>2025-04-20T15:45:30Z</time>
      </trkpt>
      <trkpt lat="49.9672" lon="5.32187">
        <ele>424.8</ele>
        <time>2025-04-20T15:45:31Z</time>
      </trkpt>
      <trkpt lat="49.96719" lon="5.32189">
        <ele>424.9</ele>
        <time>2025-04-20T15:45:32Z</time>
      </trkpt>
      <trkpt lat="49.96719" lon="5.3219">
        <ele>425</ele>
        <time>2025-04-20T15:45:33Z</time>
      </trkpt>
      <trkpt lat="49.96718" lon="5.32192">
        <ele>425.1</ele>
        <time>2025-04-20T15:45:34Z</time>
      </trkpt>
      <trkpt lat="49.96717" lon="5.32194">
        <ele>425.2</ele>
        <time>2025-04-20T15:45:35Z</time>
      </trkpt>
      <trkpt lat="49.96717" lon="5.32196">
        <ele>425.2</ele>
        <time>2025-04-20T15:45:36Z</time>
      </trkpt>
      <trkpt lat="49.96716" lon="5.32197">
        <ele>425.3</ele>
        <time>2025-04-20T15:45:37Z</time>
      </trkpt>
      <trkpt lat="49.96715" lon="5.32199">
        <ele>425.4</ele>
        <time>2025-04-20T15:45:38Z</time>
      </trkpt>
      <trkpt lat="49.96714" lon="5.322">
        <ele>425.5</ele>
        <time>2025-04-20T15:45:39Z</time>
      </trkpt>
      <trkpt lat="49.96714" lon="5.32202">
        <ele>425.6</ele>
        <time>2025-04-20T15:45:40Z</time>
      </trkpt>
      <trkpt lat="49.96713" lon="5.32204">
        <ele>425.7</ele>
        <time>2025-04-20T15:45:41Z</time>
      </trkpt>
      <trkpt lat="49.96712" lon="5.32205">
        <ele>425.8</ele>
        <time>2025-04-20T15:45:42Z</time>
      </trkpt>
      <trkpt lat="49.96711" lon="5.32207">
        <ele>425.8</ele>
        <time>2025-04-20T15:45:43Z</time>
      </trkpt>
      <trkpt lat="49.96711" lon="5.32209">
        <ele>425.9</ele>
        <time>2025-04-20T15:45:44Z</time>
      </trkpt>
      <trkpt lat="49.9671" lon="5.3221">
        <ele>426</ele>
        <time>2025-04-20T15:45:45Z</time>
      </trkpt>
      <trkpt lat="49.96709" lon="5.32212">
        <ele>426.1</ele>
        <time>2025-04-20T15:46:06Z</time>
      </trkpt>
      <trkpt lat="49.96708" lon="5.32213">
        <ele>426.2</ele>
        <time>2025-04-20T15:46:07Z</time>
      </trkpt>
      <trkpt lat="49.96708" lon="5.32215">
        <ele>426.2</ele>
        <time>2025-04-20T15:46:08Z</time>
      </trkpt>
      <trkpt lat="49.96707" lon="5.32216">
        <ele>426.3</ele>
        <time>2025-04-20T15:46:09Z</time>
      </trkpt>
      <trkpt lat="49.96707" lon="5.32217">
        <ele>426.4</ele>
        <time>2025-04-20T15:46:10Z</time>
      </trkpt>
      <trkpt lat="49.96706" lon="5.32219">
        <ele>426.4</ele>
        <time>2025-04-20T15:46:11Z</time>
      </trkpt>
      <trkpt lat="49.96706" lon="5.3222">
        <ele>426.5</ele>
        <time>2025-04-20T15:46:12Z</time>
      </trkpt>
      <trkpt lat="49.96705" lon="5.32222">
        <ele>426.6</ele>
        <time>2025-04-20T15:46:13Z</time>
      </trkpt>
      <trkpt lat="49.96704" lon="5.32223">
        <ele>426.7</ele>
        <time>2025-04-20T15:46:14Z</time>
      </trkpt>
      <trkpt lat="49.96704" lon="5.32225">
        <ele>426.7</ele>
        <time>2025-04-20T15:46:15Z</time>
      </trkpt>
      <trkpt lat="49.96703" lon="5.32226">
        <ele>426.7</ele>
        <time>2025-04-20T15:46:16Z</time>
      </trkpt>
      <trkpt lat="49.96702" lon="5.32228">
        <ele>426.8</ele>
        <time>2025-04-20T15:46:17Z</time>
      </trkpt>
      <trkpt lat="49.96702" lon="5.3223">
        <ele>426.8</ele>
        <time>2025-04-20T15:46:18Z</time>
      </trkpt>
      <trkpt lat="49.96701" lon="5.32231">
        <ele>426.8</ele>
        <time>2025-04-20T15:46:19Z</time>
      </trkpt>
      <trkpt lat="49.967" lon="5.32233">
        <ele>426.9</ele>
        <time>2025-04-20T15:46:20Z</time>
      </trkpt>
      <trkpt lat="49.96699" lon="5.32235">
        <ele>426.9</ele>
        <time>2025-04-20T15:46:21Z</time>
      </trkpt>
      <trkpt lat="49.96699" lon="5.32236">
        <ele>426.9</ele>
        <time>2025-04-20T15:46:22Z</time>
      </trkpt>
      <trkpt lat="49.96698" lon="5.32238">
        <ele>426.9</ele>
        <time>2025-04-20T15:46:23Z</time>
      </trkpt>
      <trkpt lat="49.96697" lon="5.32239">
        <ele>427</ele>
        <time>2025-04-20T15:46:24Z</time>
      </trkpt>
      <trkpt lat="49.96696" lon="5.32241">
        <ele>427</ele>
        <time>2025-04-20T15:46:25Z</time>
      </trkpt>
      <trkpt lat="49.96695" lon="5.32243">
        <ele>427</ele>
        <time>2025-04-20T15:46:26Z</time>
      </trkpt>
      <trkpt lat="49.96694" lon="5.32244">
        <ele>427</ele>
        <time>2025-04-20T15:46:27Z</time>
      </trkpt>
      <trkpt lat="49.96693" lon="5.32246">
        <ele>427</ele>
        <time>2025-04-20T15:46:28Z</time>
      </trkpt>
      <trkpt lat="49.96693" lon="5.32248">
        <ele>427.1</ele>
        <time>2025-04-20T15:46:29Z</time>
      </trkpt>
      <trkpt lat="49.96692" lon="5.3225">
        <ele>427.1</ele>
        <time>2025-04-20T15:46:30Z</time>
      </trkpt>
      <trkpt lat="49.96691" lon="5.32251">
        <ele>427.2</ele>
        <time>2025-04-20T15:46:31Z</time>
      </trkpt>
      <trkpt lat="49.9669" lon="5.32253">
        <ele>427.3</ele>
        <time>2025-04-20T15:46:32Z</time>
      </trkpt>
      <trkpt lat="49.9669" lon="5.32255">
        <ele>427.3</ele>
        <time>2025-04-20T15:46:33Z</time>
      </trkpt>
      <trkpt lat="49.96689" lon="5.32256">
        <ele>427.4</ele>
        <time>2025-04-20T15:46:34Z</time>
      </trkpt>
      <trkpt lat="49.96688" lon="5.32258">
        <ele>427.5</ele>
        <time>2025-04-20T15:46:35Z</time>
      </trkpt>
      <trkpt lat="49.96687" lon="5.3226">
        <ele>427.6</ele>
        <time>2025-04-20T15:46:36Z</time>
      </trkpt>
      <trkpt lat="49.96687" lon="5.32261">
        <ele>427.7</ele>
        <time>2025-04-20T15:46:37Z</time>
      </trkpt>
      <trkpt lat="49.96686" lon="5.32263">
        <ele>427.8</ele>
        <time>2025-04-20T15:46:38Z</time>
      </trkpt>
      <trkpt lat="49.96685" lon="5.32265">
        <ele>427.9</ele>
        <time>2025-04-20T15:46:39Z</time>
      </trkpt>
      <trkpt lat="49.96685" lon="5.32266">
        <ele>427.9</ele>
        <time>2025-04-20T15:46:40Z</time>
      </trkpt>
      <trkpt lat="49.96684" lon="5.32268">
        <ele>428</ele>
        <time>2025-04-20T15:46:41Z</time>
      </trkpt>
      <trkpt lat="49.96684" lon="5.32269">
        <ele>428.1</ele>
        <time>2025-04-20T15:46:42Z</time>
      </trkpt>
      <trkpt lat="49.96683" lon="5.32271">
        <ele>428.2</ele>
        <time>2025-04-20T15:46:43Z</time>
      </trkpt>
      <trkpt lat="49.96682" lon="5.32273">
        <ele>428.3</ele>
        <time>2025-04-20T15:46:44Z</time>
      </trkpt>
      <trkpt lat="49.96682" lon="5.32275">
        <ele>428.3</ele>
        <time>2025-04-20T15:46:45Z</time>
      </trkpt>
      <trkpt lat="49.96681" lon="5.32276">
        <ele>428.4</ele>
        <time>2025-04-20T15:46:46Z</time>
      </trkpt>
      <trkpt lat="49.96681" lon="5.32278">
        <ele>428.5</ele>
        <time>2025-04-20T15:46:47Z</time>
      </trkpt>
      <trkpt lat="49.9668" lon="5.3228">
        <ele>428.6</ele>
        <time>2025-04-20T15:46:48Z</time>
      </trkpt>
      <trkpt lat="49.96679" lon="5.32281">
        <ele>428.7</ele>
        <time>2025-04-20T15:46:49Z</time>
      </trkpt>
      <trkpt lat="49.96679" lon="5.32283">
        <ele>428.7</ele>
        <time>2025-04-20T15:46:50Z</time>
      </trkpt>
      <trkpt lat="49.96678" lon="5.32284">
        <ele>428.8</ele>
        <time>2025-04-20T15:46:51Z</time>
      </trkpt>
      <trkpt lat="49.96678" lon="5.32286">
        <ele>428.9</ele>
        <time>2025-04-20T15:46:52Z</time>
      </trkpt>
      <trkpt lat="49.96678" lon="5.32288">
        <ele>429</ele>
        <time>2025-04-20T15:46:53Z</time>
      </trkpt>
      <trkpt lat="49.96677" lon="5.32289">
        <ele>429</ele>
        <time>2025-04-20T15:46:54Z</time>
      </trkpt>
      <trkpt lat="49.96677" lon="5.32291">
        <ele>429.1</ele>
        <time>2025-04-20T15:46:55Z</time>
      </trkpt>
      <trkpt lat="49.96676" lon="5.32292">
        <ele>429.2</ele>
        <time>2025-04-20T15:46:56Z</time>
      </trkpt>
      <trkpt lat="49.96676" lon="5.32294">
        <ele>429.3</ele>
        <time>2025-04-20T15:46:57Z</time>
      </trkpt>
      <trkpt lat="49.96675" lon="5.32296">
        <ele>429.3</ele>
        <time>2025-04-20T15:46:58Z</time>
      </trkpt>
      <trkpt lat="49.96675" lon="5.32297">
        <ele>429.4</ele>
        <time>2025-04-20T15:46:59Z</time>
      </trkpt>
      <trkpt lat="49.96674" lon="5.32299">
        <ele>429.5</ele>
        <time>2025-04-20T15:47:00Z</time>
      </trkpt>
      <trkpt lat="49.96674" lon="5.323">
        <ele>429.6</ele>
        <time>2025-04-20T15:47:01Z</time>
      </trkpt>
      <trkpt lat="49.96673" lon="5.32302">
        <ele>429.6</ele>
        <time>2025-04-20T15:47:02Z</time>
      </trkpt>
      <trkpt lat="49.96673" lon="5.32304">
        <ele>429.7</ele>
        <time>2025-04-20T15:47:03Z</time>
      </trkpt>
      <trkpt lat="49.96672" lon="5.32305">
        <ele>429.8</ele>
        <time>2025-04-20T15:47:04Z</time>
      </trkpt>
      <trkpt lat="49.96672" lon="5.32307">
        <ele>429.9</ele>
        <time>2025-04-20T15:47:05Z</time>
      </trkpt>
      <trkpt lat="49.96671" lon="5.32308">
        <ele>429.9</ele>
        <time>2025-04-20T15:47:06Z</time>
      </trkpt>
      <trkpt lat="49.96671" lon="5.3231">
        <ele>430</ele>
        <time>2025-04-20T15:47:07Z</time>
      </trkpt>
      <trkpt lat="49.96671" lon="5.32312">
        <ele>430.1</ele>
        <time>2025-04-20T15:47:08Z</time>
      </trkpt>
      <trkpt lat="49.9667" lon="5.32313">
        <ele>430.1</ele>
        <time>2025-04-20T15:47:09Z</time>
      </trkpt>
      <trkpt lat="49.9667" lon="5.32315">
        <ele>430.2</ele>
        <time>2025-04-20T15:47:10Z</time>
      </trkpt>
      <trkpt lat="49.96669" lon="5.32317">
        <ele>430.3</ele>
        <time>2025-04-20T15:47:11Z</time>
      </trkpt>
      <trkpt lat="49.96669" lon="5.32319">
        <ele>430.4</ele>
        <time>2025-04-20T15:47:12Z</time>
      </trkpt>
      <trkpt lat="49.96669" lon="5.3232">
        <ele>430.5</ele>
        <time>2025-04-20T15:47:13Z</time>
      </trkpt>
      <trkpt lat="49.96668" lon="5.32322">
        <ele>430.5</ele>
        <time>2025-04-20T15:47:14Z</time>
      </trkpt>
      <trkpt lat="49.96667" lon="5.32326">
        <ele>430.7</ele>
        <time>2025-04-20T15:47:48Z</time>
      </trkpt>
      <trkpt lat="49.96667" lon="5.32327">
        <ele>430.8</ele>
        <time>2025-04-20T15:47:49Z</time>
      </trkpt>
      <trkpt lat="49.96666" lon="5.32328">
        <ele>430.8</ele>
        <time>2025-04-20T15:47:50Z</time>
      </trkpt>
      <trkpt lat="49.96666" lon="5.32329">
        <ele>430.8</ele>
        <time>2025-04-20T15:47:51Z</time>
      </trkpt>
      <trkpt lat="49.96666" lon="5.3233">
        <ele>430.9</ele>
        <time>2025-04-20T15:47:52Z</time>
      </trkpt>
      <trkpt lat="49.96665" lon="5.32331">
        <ele>430.9</ele>
        <time>2025-04-20T15:47:53Z</time>
      </trkpt>
      <trkpt lat="49.96665" lon="5.32333">
        <ele>431</ele>
        <time>2025-04-20T15:47:54Z</time>
      </trkpt>
      <trkpt lat="49.96665" lon="5.32335">
        <ele>431</ele>
        <time>2025-04-20T15:47:55Z</time>
      </trkpt>
      <trkpt lat="49.96664" lon="5.32337">
        <ele>431</ele>
        <time>2025-04-20T15:47:56Z</time>
      </trkpt>
      <trkpt lat="49.96664" lon="5.32338">
        <ele>431</ele>
        <time>2025-04-20T15:47:57Z</time>
      </trkpt>
      <trkpt lat="49.96663" lon="5.3234">
        <ele>431</ele>
        <time>2025-04-20T15:47:58Z</time>
      </trkpt>
      <trkpt lat="49.96663" lon="5.32342">
        <ele>431</ele>
        <time>2025-04-20T15:47:59Z</time>
      </trkpt>
      <trkpt lat="49.96662" lon="5.32344">
        <ele>431.1</ele>
        <time>2025-04-20T15:48:00Z</time>
      </trkpt>
      <trkpt lat="49.96662" lon="5.32345">
        <ele>431.1</ele>
        <time>2025-04-20T15:48:01Z</time>
      </trkpt>
      <trkpt lat="49.96661" lon="5.32347">
        <ele>431.1</ele>
        <time>2025-04-20T15:48:02Z</time>
      </trkpt>
      <trkpt lat="49.96661" lon="5.32349">
        <ele>431.1</ele>
        <time>2025-04-20T15:48:03Z</time>
      </trkpt>
      <trkpt lat="49.9666" lon="5.32351">
        <ele>431.1</ele>
        <time>2025-04-20T15:48:04Z</time>
      </trkpt>
      <trkpt lat="49.96659" lon="5.32352">
        <ele>431.2</ele>
        <time>2025-04-20T15:48:05Z</time>
      </trkpt>
      <trkpt lat="49.96659" lon="5.32354">
        <ele>431.2</ele>
        <time>2025-04-20T15:48:06Z</time>
      </trkpt>
      <trkpt lat="49.96658" lon="5.32355">
        <ele>431.2</ele>
        <time>2025-04-20T15:48:07Z</time>
      </trkpt>
      <trkpt lat="49.96657" lon="5.32357">
        <ele>431.3</ele>
        <time>2025-04-20T15:48:08Z</time>
      </trkpt>
      <trkpt lat="49.96657" lon="5.32358">
        <ele>431.3</ele>
        <time>2025-04-20T15:48:09Z</time>
      </trkpt>
      <trkpt lat="49.96656" lon="5.3236">
        <ele>431.4</ele>
        <time>2025-04-20T15:48:10Z</time>
      </trkpt>
      <trkpt lat="49.96655" lon="5.32361">
        <ele>431.4</ele>
        <time>2025-04-20T15:48:11Z</time>
      </trkpt>
      <trkpt lat="49.96654" lon="5.32363">
        <ele>431.4</ele>
        <time>2025-04-20T15:48:12Z</time>
      </trkpt>
      <trkpt lat="49.96653" lon="5.32367">
        <ele>431.5</ele>
        <time>2025-04-20T15:48:38Z</time>
      </trkpt>
      <trkpt lat="49.96653" lon="5.32368">
        <ele>431.5</ele>
        <time>2025-04-20T15:48:39Z</time>
      </trkpt>
      <trkpt lat="49.96652" lon="5.3237">
        <ele>431.5</ele>
        <time>2025-04-20T15:48:40Z</time>
      </trkpt>
      <trkpt lat="49.96652" lon="5.32371">
        <ele>431.5</ele>
        <time>2025-04-20T15:48:41Z</time>
      </trkpt>
      <trkpt lat="49.96651" lon="5.32372">
        <ele>431.6</ele>
        <time>2025-04-20T15:48:42Z</time>
      </trkpt>
      <trkpt lat="49.96651" lon="5.32373">
        <ele>431.6</ele>
        <time>2025-04-20T15:48:43Z</time>
      </trkpt>
      <trkpt lat="49.9665" lon="5.32374">
        <ele>431.6</ele>
        <time>2025-04-20T15:48:44Z</time>
      </trkpt>
      <trkpt lat="49.9665" lon="5.32376">
        <ele>431.6</ele>
        <time>2025-04-20T15:48:45Z</time>
      </trkpt>
      <trkpt lat="49.96649" lon="5.32377">
        <ele>431.6</ele>
        <time>2025-04-20T15:48:46Z</time>
      </trkpt>
      <trkpt lat="49.96648" lon="5.32379">
        <ele>431.7</ele>
        <time>2025-04-20T15:48:53Z</time>
      </trkpt>
      <trkpt lat="49.96647" lon="5.3238">
        <ele>431.7</ele>
        <time>2025-04-20T15:48:54Z</time>
      </trkpt>
      <trkpt lat="49.96647" lon="5.3238">
        <ele>431.7</ele>
        <time>2025-04-20T15:48:55Z</time>
      </trkpt>
      <trkpt lat="49.96646" lon="5.32381">
        <ele>431.7</ele>
        <time>2025-04-20T15:48:56Z</time>
      </trkpt>
      <trkpt lat="49.96645" lon="5.32383">
        <ele>431.8</ele>
        <time>2025-04-20T15:48:57Z</time>
      </trkpt>
      <trkpt lat="49.96645" lon="5.32384">
        <ele>431.8</ele>
        <time>2025-04-20T15:48:58Z</time>
      </trkpt>
      <trkpt lat="49.96644" lon="5.32385">
        <ele>431.8</ele>
        <time>2025-04-20T15:48:59Z</time>
      </trkpt>
      <trkpt lat="49.96644" lon="5.32386">
        <ele>431.8</ele>
        <time>2025-04-20T15:49:00Z</time>
      </trkpt>
      <trkpt lat="49.96643" lon="5.32388">
        <ele>431.8</ele>
        <time>2025-04-20T15:49:01Z</time>
      </trkpt>
      <trkpt lat="49.96642" lon="5.3239">
        <ele>431.9</ele>
        <time>2025-04-20T15:49:02Z</time>
      </trkpt>
      <trkpt lat="49.96642" lon="5.32391">
        <ele>431.8</ele>
        <time>2025-04-20T15:49:03Z</time>
      </trkpt>
      <trkpt lat="49.96641" lon="5.32393">
        <ele>431.8</ele>
        <time>2025-04-20T15:49:04Z</time>
      </trkpt>
      <trkpt lat="49.9664" lon="5.32394">
        <ele>431.8</ele>
        <time>2025-04-20T15:49:05Z</time>
      </trkpt>
      <trkpt lat="49.9664" lon="5.32396">
        <ele>431.7</ele>
        <time>2025-04-20T15:49:06Z</time>
      </trkpt>
      <trkpt lat="49.96639" lon="5.32397">
        <ele>431.7</ele>
        <time>2025-04-20T15:49:07Z</time>
      </trkpt>
      <trkpt lat="49.96638" lon="5.32398">
        <ele>431.7</ele>
        <time>2025-04-20T15:49:08Z</time>
      </trkpt>
      <trkpt lat="49.96637" lon="5.324">
        <ele>431.6</ele>
        <time>2025-04-20T15:49:09Z</time>
      </trkpt>
      <trkpt lat="49.96637" lon="5.32401">
        <ele>431.6</ele>
        <time>2025-04-20T15:49:10Z</time>
      </trkpt>
      <trkpt lat="49.96636" lon="5.32402">
        <ele>431.6</ele>
        <time>2025-04-20T15:49:11Z</time>
      </trkpt>
      <trkpt lat="49.96635" lon="5.32404">
        <ele>431.5</ele>
        <time>2025-04-20T15:49:12Z</time>
      </trkpt>
      <trkpt lat="49.96634" lon="5.32405">
        <ele>431.5</ele>
        <time>2025-04-20T15:49:13Z</time>
      </trkpt>
      <trkpt lat="49.96633" lon="5.32406">
        <ele>431.5</ele>
        <time>2025-04-20T15:49:14Z</time>
      </trkpt>
      <trkpt lat="49.96633" lon="5.32408">
        <ele>431.5</ele>
        <time>2025-04-20T15:49:15Z</time>
      </trkpt>
      <trkpt lat="49.96632" lon="5.32409">
        <ele>431.5</ele>
        <time>2025-04-20T15:49:16Z</time>
      </trkpt>
      <trkpt lat="49.96631" lon="5.32411">
        <ele>431.4</ele>
        <time>2025-04-20T15:49:17Z</time>
      </trkpt>
      <trkpt lat="49.9663" lon="5.32412">
        <ele>431.4</ele>
        <time>2025-04-20T15:49:18Z</time>
      </trkpt>
      <trkpt lat="49.9663" lon="5.32414">
        <ele>431.4</ele>
        <time>2025-04-20T15:49:19Z</time>
      </trkpt>
      <trkpt lat="49.96629" lon="5.32415">
        <ele>431.4</ele>
        <time>2025-04-20T15:49:20Z</time>
      </trkpt>
      <trkpt lat="49.96628" lon="5.32417">
        <ele>431.4</ele>
        <time>2025-04-20T15:49:21Z</time>
      </trkpt>
      <trkpt lat="49.96627" lon="5.32419">
        <ele>431.4</ele>
        <time>2025-04-20T15:49:37Z</time>
      </trkpt>
      <trkpt lat="49.96626" lon="5.32419">
        <ele>431.5</ele>
        <time>2025-04-20T15:49:38Z</time>
      </trkpt>
      <trkpt lat="49.96625" lon="5.3242">
        <ele>431.5</ele>
        <time>2025-04-20T15:49:39Z</time>
      </trkpt>
      <trkpt lat="49.96625" lon="5.32421">
        <ele>431.5</ele>
        <time>2025-04-20T15:49:40Z</time>
      </trkpt>
      <trkpt lat="49.96625" lon="5.32421">
        <ele>431.5</ele>
        <time>2025-04-20T15:49:41Z</time>
      </trkpt>
      <trkpt lat="49.96624" lon="5.32422">
        <ele>431.5</ele>
        <time>2025-04-20T15:49:42Z</time>
      </trkpt>
      <trkpt lat="49.96624" lon="5.32423">
        <ele>431.5</ele>
        <time>2025-04-20T15:49:43Z</time>
      </trkpt>
      <trkpt lat="49.96623" lon="5.32425">
        <ele>431.6</ele>
        <time>2025-04-20T15:49:44Z</time>
      </trkpt>
      <trkpt lat="49.96623" lon="5.32426">
        <ele>431.6</ele>
        <time>2025-04-20T15:49:45Z</time>
      </trkpt>
      <trkpt lat="49.96622" lon="5.32427">
        <ele>431.6</ele>
        <time>2025-04-20T15:49:46Z</time>
      </trkpt>
      <trkpt lat="49.96621" lon="5.32429">
        <ele>431.6</ele>
        <time>2025-04-20T15:49:47Z</time>
      </trkpt>
      <trkpt lat="49.96621" lon="5.3243">
        <ele>431.7</ele>
        <time>2025-04-20T15:49:48Z</time>
      </trkpt>
      <trkpt lat="49.9662" lon="5.32431">
        <ele>431.7</ele>
        <time>2025-04-20T15:49:49Z</time>
      </trkpt>
      <trkpt lat="49.9662" lon="5.32433">
        <ele>431.7</ele>
        <time>2025-04-20T15:49:50Z</time>
      </trkpt>
      <trkpt lat="49.96619" lon="5.32434">
        <ele>431.7</ele>
        <time>2025-04-20T15:49:51Z</time>
      </trkpt>
      <trkpt lat="49.96618" lon="5.32435">
        <ele>431.7</ele>
        <time>2025-04-20T15:49:52Z</time>
      </trkpt>
      <trkpt lat="49.96618" lon="5.32436">
        <ele>431.8</ele>
        <time>2025-04-20T15:49:53Z</time>
      </trkpt>
      <trkpt lat="49.96617" lon="5.32437">
        <ele>431.8</ele>
        <time>2025-04-20T15:49:54Z</time>
      </trkpt>
      <trkpt lat="49.96616" lon="5.32439">
        <ele>431.8</ele>
        <time>2025-04-20T15:49:55Z</time>
      </trkpt>
      <trkpt lat="49.96616" lon="5.3244">
        <ele>431.8</ele>
        <time>2025-04-20T15:49:56Z</time>
      </trkpt>
      <trkpt lat="49.96615" lon="5.32441">
        <ele>431.9</ele>
        <time>2025-04-20T15:49:57Z</time>
      </trkpt>
      <trkpt lat="49.96614" lon="5.32443">
        <ele>431.9</ele>
        <time>2025-04-20T15:49:58Z</time>
      </trkpt>
      <trkpt lat="49.96614" lon="5.32444">
        <ele>431.9</ele>
        <time>2025-04-20T15:49:59Z</time>
      </trkpt>
      <trkpt lat="49.96613" lon="5.32446">
        <ele>431.9</ele>
        <time>2025-04-20T15:50:00Z</time>
      </trkpt>
      <trkpt lat="49.96612" lon="5.32447">
        <ele>431.9</ele>
        <time>2025-04-20T15:50:01Z</time>
      </trkpt>
      <trkpt lat="49.96612" lon="5.32449">
        <ele>431.8</ele>
        <time>2025-04-20T15:50:02Z</time>
      </trkpt>
      <trkpt lat="49.96611" lon="5.3245">
        <ele>431.8</ele>
        <time>2025-04-20T15:50:03Z</time>
      </trkpt>
      <trkpt lat="49.9661" lon="5.32452">
        <ele>431.8</ele>
        <time>2025-04-20T15:50:04Z</time>
      </trkpt>
      <trkpt lat="49.96609" lon="5.32454">
        <ele>431.8</ele>
        <time>2025-04-20T15:50:05Z</time>
      </trkpt>
      <trkpt lat="49.96609" lon="5.32456">
        <ele>431.7</ele>
        <time>2025-04-20T15:50:06Z</time>
      </trkpt>
      <trkpt lat="49.96608" lon="5.32457">
        <ele>431.7</ele>
        <time>2025-04-20T15:50:07Z</time>
      </trkpt>
      <trkpt lat="49.96607" lon="5.32459">
        <ele>431.7</ele>
        <time>2025-04-20T15:50:08Z</time>
      </trkpt>
      <trkpt lat="49.96606" lon="5.32461">
        <ele>431.7</ele>
        <time>2025-04-20T15:50:09Z</time>
      </trkpt>
      <trkpt lat="49.96606" lon="5.32462">
        <ele>431.7</ele>
        <time>2025-04-20T15:50:10Z</time>
      </trkpt>
      <trkpt lat="49.96605" lon="5.32464">
        <ele>431.7</ele>
        <time>2025-04-20T15:50:11Z</time>
      </trkpt>
      <trkpt lat="49.96604" lon="5.32465">
        <ele>431.7</ele>
        <time>2025-04-20T15:50:12Z</time>
      </trkpt>
      <trkpt lat="49.96604" lon="5.32467">
        <ele>431.7</ele>
        <time>2025-04-20T15:50:13Z</time>
      </trkpt>
      <trkpt lat="49.96603" lon="5.32468">
        <ele>431.7</ele>
        <time>2025-04-20T15:50:14Z</time>
      </trkpt>
      <trkpt lat="49.96603" lon="5.3247">
        <ele>431.7</ele>
        <time>2025-04-20T15:50:15Z</time>
      </trkpt>
      <trkpt lat="49.96602" lon="5.32472">
        <ele>431.7</ele>
        <time>2025-04-20T15:50:16Z</time>
      </trkpt>
      <trkpt lat="49.96601" lon="5.32473">
        <ele>431.7</ele>
        <time>2025-04-20T15:50:17Z</time>
      </trkpt>
      <trkpt lat="49.96601" lon="5.32475">
        <ele>431.7</ele>
        <time>2025-04-20T15:50:18Z</time>
      </trkpt>
      <trkpt lat="49.966" lon="5.32477">
        <ele>431.8</ele>
        <time>2025-04-20T15:50:19Z</time>
      </trkpt>
      <trkpt lat="49.966" lon="5.32479">
        <ele>431.8</ele>
        <time>2025-04-20T15:50:20Z</time>
      </trkpt>
      <trkpt lat="49.96599" lon="5.3248">
        <ele>431.9</ele>
        <time>2025-04-20T15:50:21Z</time>
      </trkpt>
      <trkpt lat="49.96599" lon="5.32482">
        <ele>431.9</ele>
        <time>2025-04-20T15:50:22Z</time>
      </trkpt>
      <trkpt lat="49.96598" lon="5.32484">
        <ele>431.9</ele>
        <time>2025-04-20T15:50:23Z</time>
      </trkpt>
      <trkpt lat="49.96598" lon="5.32486">
        <ele>432</ele>
        <time>2025-04-20T15:50:24Z</time>
      </trkpt>
      <trkpt lat="49.96597" lon="5.32488">
        <ele>432</ele>
        <time>2025-04-20T15:50:25Z</time>
      </trkpt>
      <trkpt lat="49.96597" lon="5.3249">
        <ele>432</ele>
        <time>2025-04-20T15:50:26Z</time>
      </trkpt>
      <trkpt lat="49.96596" lon="5.32492">
        <ele>432.1</ele>
        <time>2025-04-20T15:50:27Z</time>
      </trkpt>
      <trkpt lat="49.96596" lon="5.32493">
        <ele>432.1</ele>
        <time>2025-04-20T15:50:28Z</time>
      </trkpt>
      <trkpt lat="49.96595" lon="5.32495">
        <ele>432.1</ele>
        <time>2025-04-20T15:50:29Z</time>
      </trkpt>
      <trkpt lat="49.96595" lon="5.32497">
        <ele>432.2</ele>
        <time>2025-04-20T15:50:30Z</time>
      </trkpt>
      <trkpt lat="49.96594" lon="5.32499">
        <ele>432.2</ele>
        <time>2025-04-20T15:50:31Z</time>
      </trkpt>
      <trkpt lat="49.96594" lon="5.325">
        <ele>432.2</ele>
        <time>2025-04-20T15:50:32Z</time>
      </trkpt>
      <trkpt lat="49.96594" lon="5.32502">
        <ele>432.1</ele>
        <time>2025-04-20T15:50:33Z</time>
      </trkpt>
      <trkpt lat="49.96594" lon="5.32504">
        <ele>432</ele>
        <time>2025-04-20T15:50:34Z</time>
      </trkpt>
      <trkpt lat="49.96593" lon="5.32506">
        <ele>431.9</ele>
        <time>2025-04-20T15:50:35Z</time>
      </trkpt>
      <trkpt lat="49.96593" lon="5.32507">
        <ele>431.7</ele>
        <time>2025-04-20T15:50:36Z</time>
      </trkpt>
      <trkpt lat="49.96593" lon="5.32509">
        <ele>431.6</ele>
        <time>2025-04-20T15:50:37Z</time>
      </trkpt>
      <trkpt lat="49.96593" lon="5.32511">
        <ele>431.5</ele>
        <time>2025-04-20T15:50:38Z</time>
      </trkpt>
      <trkpt lat="49.96593" lon="5.32513">
        <ele>431.4</ele>
        <time>2025-04-20T15:50:39Z</time>
      </trkpt>
      <trkpt lat="49.96593" lon="5.32515">
        <ele>431.2</ele>
        <time>2025-04-20T15:50:40Z</time>
      </trkpt>
      <trkpt lat="49.96593" lon="5.32516">
        <ele>431.1</ele>
        <time>2025-04-20T15:50:41Z</time>
      </trkpt>
      <trkpt lat="49.96593" lon="5.32518">
        <ele>431</ele>
        <time>2025-04-20T15:50:42Z</time>
      </trkpt>
      <trkpt lat="49.96593" lon="5.3252">
        <ele>430.8</ele>
        <time>2025-04-20T15:50:43Z</time>
      </trkpt>
      <trkpt lat="49.96593" lon="5.32522">
        <ele>430.7</ele>
        <time>2025-04-20T15:50:44Z</time>
      </trkpt>
      <trkpt lat="49.96594" lon="5.32524">
        <ele>430.5</ele>
        <time>2025-04-20T15:50:45Z</time>
      </trkpt>
      <trkpt lat="49.96594" lon="5.32526">
        <ele>430.4</ele>
        <time>2025-04-20T15:50:46Z</time>
      </trkpt>
      <trkpt lat="49.96594" lon="5.32528">
        <ele>430.2</ele>
        <time>2025-04-20T15:50:47Z</time>
      </trkpt>
      <trkpt lat="49.96595" lon="5.3253">
        <ele>430.2</ele>
        <time>2025-04-20T15:50:48Z</time>
      </trkpt>
      <trkpt lat="49.96595" lon="5.32531">
        <ele>430.1</ele>
        <time>2025-04-20T15:50:49Z</time>
      </trkpt>
      <trkpt lat="49.96596" lon="5.32533">
        <ele>430</ele>
        <time>2025-04-20T15:50:50Z</time>
      </trkpt>
      <trkpt lat="49.96596" lon="5.32535">
        <ele>430</ele>
        <time>2025-04-20T15:50:51Z</time>
      </trkpt>
      <trkpt lat="49.96597" lon="5.32537">
        <ele>429.9</ele>
        <time>2025-04-20T15:50:52Z</time>
      </trkpt>
      <trkpt lat="49.96597" lon="5.32538">
        <ele>429.8</ele>
        <time>2025-04-20T15:50:53Z</time>
      </trkpt>
      <trkpt lat="49.96598" lon="5.3254">
        <ele>429.7</ele>
        <time>2025-04-20T15:50:54Z</time>
      </trkpt>
      <trkpt lat="49.96599" lon="5.32542">
        <ele>429.6</ele>
        <time>2025-04-20T15:50:55Z</time>
      </trkpt>
      <trkpt lat="49.96599" lon="5.32544">
        <ele>429.5</ele>
        <time>2025-04-20T15:50:56Z</time>
      </trkpt>
      <trkpt lat="49.966" lon="5.32546">
        <ele>429.4</ele>
        <time>2025-04-20T15:50:57Z</time>
      </trkpt>
      <trkpt lat="49.966" lon="5.32548">
        <ele>429.3</ele>
        <time>2025-04-20T15:50:58Z</time>
      </trkpt>
      <trkpt lat="49.96601" lon="5.3255">
        <ele>429.2</ele>
        <time>2025-04-20T15:50:59Z</time>
      </trkpt>
      <trkpt lat="49.96602" lon="5.32551">
        <ele>429.1</ele>
        <time>2025-04-20T15:51:00Z</time>
      </trkpt>
      <trkpt lat="49.96602" lon="5.32553">
        <ele>429</ele>
        <time>2025-04-20T15:51:01Z</time>
      </trkpt>
      <trkpt lat="49.96602" lon="5.32555">
        <ele>429</ele>
        <time>2025-04-20T15:51:02Z</time>
      </trkpt>
      <trkpt lat="49.96603" lon="5.32556">
        <ele>428.9</ele>
        <time>2025-04-20T15:51:03Z</time>
      </trkpt>
      <trkpt lat="49.96603" lon="5.32558">
        <ele>428.7</ele>
        <time>2025-04-20T15:51:04Z</time>
      </trkpt>
      <trkpt lat="49.96604" lon="5.32559">
        <ele>428.6</ele>
        <time>2025-04-20T15:51:05Z</time>
      </trkpt>
      <trkpt lat="49.96604" lon="5.32561">
        <ele>428.5</ele>
        <time>2025-04-20T15:51:06Z</time>
      </trkpt>
      <trkpt lat="49.96605" lon="5.32562">
        <ele>428.4</ele>
        <time>2025-04-20T15:51:07Z</time>
      </trkpt>
      <trkpt lat="49.96606" lon="5.32564">
        <ele>428.2</ele>
        <time>2025-04-20T15:51:08Z</time>
      </trkpt>
      <trkpt lat="49.96606" lon="5.32566">
        <ele>428.1</ele>
        <time>2025-04-20T15:51:09Z</time>
      </trkpt>
      <trkpt lat="49.96607" lon="5.32567">
        <ele>428</ele>
        <time>2025-04-20T15:51:10Z</time>
      </trkpt>
      <trkpt lat="49.96607" lon="5.32569">
        <ele>427.9</ele>
        <time>2025-04-20T15:51:11Z</time>
      </trkpt>
      <trkpt lat="49.96608" lon="5.32571">
        <ele>427.8</ele>
        <time>2025-04-20T15:51:12Z</time>
      </trkpt>
      <trkpt lat="49.96608" lon="5.32572">
        <ele>427.6</ele>
        <time>2025-04-20T15:51:13Z</time>
      </trkpt>
      <trkpt lat="49.96609" lon="5.32574">
        <ele>427.5</ele>
        <time>2025-04-20T15:51:14Z</time>
      </trkpt>
      <trkpt lat="49.9661" lon="5.32575">
        <ele>427.4</ele>
        <time>2025-04-20T15:51:15Z</time>
      </trkpt>
      <trkpt lat="49.96611" lon="5.32577">
        <ele>427.2</ele>
        <time>2025-04-20T15:51:56Z</time>
      </trkpt>
      <trkpt lat="49.96612" lon="5.32577">
        <ele>427.2</ele>
        <time>2025-04-20T15:51:57Z</time>
      </trkpt>
      <trkpt lat="49.96613" lon="5.32577">
        <ele>427.1</ele>
        <time>2025-04-20T15:51:58Z</time>
      </trkpt>
      <trkpt lat="49.96613" lon="5.32578">
        <ele>427</ele>
        <time>2025-04-20T15:51:59Z</time>
      </trkpt>
      <trkpt lat="49.96614" lon="5.32579">
        <ele>426.9</ele>
        <time>2025-04-20T15:52:00Z</time>
      </trkpt>
      <trkpt lat="49.96616" lon="5.32579">
        <ele>426.8</ele>
        <time>2025-04-20T15:52:01Z</time>
      </trkpt>
      <trkpt lat="49.96617" lon="5.3258">
        <ele>426.7</ele>
        <time>2025-04-20T15:52:02Z</time>
      </trkpt>
      <trkpt lat="49.96618" lon="5.32581">
        <ele>426.6</ele>
        <time>2025-04-20T15:52:03Z</time>
      </trkpt>
      <trkpt lat="49.9662" lon="5.32582">
        <ele>426.4</ele>
        <time>2025-04-20T15:52:04Z</time>
      </trkpt>
      <trkpt lat="49.96621" lon="5.32583">
        <ele>426.3</ele>
        <time>2025-04-20T15:52:05Z</time>
      </trkpt>
      <trkpt lat="49.96622" lon="5.32583">
        <ele>426.2</ele>
        <time>2025-04-20T15:52:06Z</time>
      </trkpt>
      <trkpt lat="49.96623" lon="5.32584">
        <ele>426.1</ele>
        <time>2025-04-20T15:52:07Z</time>
      </trkpt>
      <trkpt lat="49.96625" lon="5.32585">
        <ele>426</ele>
        <time>2025-04-20T15:52:08Z</time>
      </trkpt>
      <trkpt lat="49.96626" lon="5.32586">
        <ele>425.9</ele>
        <time>2025-04-20T15:52:09Z</time>
      </trkpt>
      <trkpt lat="49.96627" lon="5.32587">
        <ele>425.7</ele>
        <time>2025-04-20T15:52:10Z</time>
      </trkpt>
      <trkpt lat="49.96628" lon="5.32588">
        <ele>425.6</ele>
        <time>2025-04-20T15:52:11Z</time>
      </trkpt>
      <trkpt lat="49.96629" lon="5.32589">
        <ele>425.5</ele>
        <time>2025-04-20T15:52:12Z</time>
      </trkpt>
      <trkpt lat="49.9663" lon="5.3259">
        <ele>425.4</ele>
        <time>2025-04-20T15:52:13Z</time>
      </trkpt>
      <trkpt lat="49.9663" lon="5.3259">
        <ele>425.4</ele>
        <time>2025-04-20T15:52:14Z</time>
      </trkpt>
      <trkpt lat="49.96631" lon="5.32591">
        <ele>425.3</ele>
        <time>2025-04-20T15:52:15Z</time>
      </trkpt>
      <trkpt lat="49.96632" lon="5.32592">
        <ele>425.2</ele>
        <time>2025-04-20T15:52:16Z</time>
      </trkpt>
      <trkpt lat="49.96633" lon="5.32593">
        <ele>425.1</ele>
        <time>2025-04-20T15:52:17Z</time>
      </trkpt>
      <trkpt lat="49.96634" lon="5.32594">
        <ele>425</ele>
        <time>2025-04-20T15:52:18Z</time>
      </trkpt>
      <trkpt lat="49.96635" lon="5.32595">
        <ele>424.9</ele>
        <time>2025-04-20T15:53:19Z</time>
      </trkpt>
      <trkpt lat="49.96635" lon="5.32595">
        <ele>424.8</ele>
        <time>2025-04-20T15:53:20Z</time>
      </trkpt>
      <trkpt lat="49.96636" lon="5.32596">
        <ele>424.8</ele>
        <time>2025-04-20T15:53:21Z</time>
      </trkpt>
      <trkpt lat="49.96637" lon="5.32596">
        <ele>424.7</ele>
        <time>2025-04-20T15:53:22Z</time>
      </trkpt>
      <trkpt lat="49.96637" lon="5.32597">
        <ele>424.6</ele>
        <time>2025-04-20T15:53:23Z</time>
      </trkpt>
      <trkpt lat="49.96638" lon="5.32598">
        <ele>424.5</ele>
        <time>2025-04-20T15:53:24Z</time>
      </trkpt>
      <trkpt lat="49.96639" lon="5.32598">
        <ele>424.4</ele>
        <time>2025-04-20T15:53:25Z</time>
      </trkpt>
      <trkpt lat="49.9664" lon="5.326">
        <ele>424.3</ele>
        <time>2025-04-20T15:53:26Z</time>
      </trkpt>
      <trkpt lat="49.96641" lon="5.32601">
        <ele>424.1</ele>
        <time>2025-04-20T15:53:27Z</time>
      </trkpt>
      <trkpt lat="49.96642" lon="5.32603">
        <ele>424</ele>
        <time>2025-04-20T15:53:37Z</time>
      </trkpt>
      <trkpt lat="49.96643" lon="5.32604">
        <ele>423.9</ele>
        <time>2025-04-20T15:53:38Z</time>
      </trkpt>
      <trkpt lat="49.96643" lon="5.32604">
        <ele>423.8</ele>
        <time>2025-04-20T15:53:39Z</time>
      </trkpt>
      <trkpt lat="49.96644" lon="5.32605">
        <ele>423.7</ele>
        <time>2025-04-20T15:53:40Z</time>
      </trkpt>
      <trkpt lat="49.96644" lon="5.32606">
        <ele>423.6</ele>
        <time>2025-04-20T15:53:41Z</time>
      </trkpt>
      <trkpt lat="49.96645" lon="5.32607">
        <ele>423.5</ele>
        <time>2025-04-20T15:53:42Z</time>
      </trkpt>
      <trkpt lat="49.96646" lon="5.32608">
        <ele>423.4</ele>
        <time>2025-04-20T15:53:43Z</time>
      </trkpt>
      <trkpt lat="49.96647" lon="5.32609">
        <ele>423.2</ele>
        <time>2025-04-20T15:53:44Z</time>
      </trkpt>
      <trkpt lat="49.96648" lon="5.3261">
        <ele>423</ele>
        <time>2025-04-20T15:53:45Z</time>
      </trkpt>
      <trkpt lat="49.96649" lon="5.32611">
        <ele>422.8</ele>
        <time>2025-04-20T15:53:46Z</time>
      </trkpt>
      <trkpt lat="49.96651" lon="5.32612">
        <ele>422.7</ele>
        <time>2025-04-20T15:53:47Z</time>
      </trkpt>
      <trkpt lat="49.96652" lon="5.32614">
        <ele>422.5</ele>
        <time>2025-04-20T15:53:48Z</time>
      </trkpt>
      <trkpt lat="49.96653" lon="5.32615">
        <ele>422.4</ele>
        <time>2025-04-20T15:53:49Z</time>
      </trkpt>
      <trkpt lat="49.96654" lon="5.32616">
        <ele>422.2</ele>
        <time>2025-04-20T15:53:50Z</time>
      </trkpt>
      <trkpt lat="49.96655" lon="5.32617">
        <ele>422.1</ele>
        <time>2025-04-20T15:53:51Z</time>
      </trkpt>
      <trkpt lat="49.96656" lon="5.32618">
        <ele>421.9</ele>
        <time>2025-04-20T15:53:52Z</time>
      </trkpt>
      <trkpt lat="49.96657" lon="5.32619">
        <ele>421.7</ele>
        <time>2025-04-20T15:53:53Z</time>
      </trkpt>
      <trkpt lat="49.96658" lon="5.3262">
        <ele>421.6</ele>
        <time>2025-04-20T15:53:54Z</time>
      </trkpt>
      <trkpt lat="49.96659" lon="5.32622">
        <ele>421.4</ele>
        <time>2025-04-20T15:53:55Z</time>
      </trkpt>
      <trkpt lat="49.9666" lon="5.32623">
        <ele>421.3</ele>
        <time>2025-04-20T15:53:56Z</time>
      </trkpt>
      <trkpt lat="49.96661" lon="5.32624">
        <ele>421.2</ele>
        <time>2025-04-20T15:53:57Z</time>
      </trkpt>
      <trkpt lat="49.96662" lon="5.32625">
        <ele>421</ele>
        <time>2025-04-20T15:53:58Z</time>
      </trkpt>
      <trkpt lat="49.96663" lon="5.32626">
        <ele>420.9</ele>
        <time>2025-04-20T15:53:59Z</time>
      </trkpt>
      <trkpt lat="49.96664" lon="5.32627">
        <ele>420.7</ele>
        <time>2025-04-20T15:54:00Z</time>
      </trkpt>
      <trkpt lat="49.96665" lon="5.32628">
        <ele>420.6</ele>
        <time>2025-04-20T15:54:01Z</time>
      </trkpt>
      <trkpt lat="49.96666" lon="5.32629">
        <ele>420.4</ele>
        <time>2025-04-20T15:54:02Z</time>
      </trkpt>
      <trkpt lat="49.96668" lon="5.3263">
        <ele>420.2</ele>
        <time>2025-04-20T15:54:03Z</time>
      </trkpt>
      <trkpt lat="49.96669" lon="5.3263">
        <ele>420.1</ele>
        <time>2025-04-20T15:54:04Z</time>
      </trkpt>
      <trkpt lat="49.9667" lon="5.32631">
        <ele>419.9</ele>
        <time>2025-04-20T15:54:05Z</time>
      </trkpt>
      <trkpt lat="49.96671" lon="5.32632">
        <ele>419.8</ele>
        <time>2025-04-20T15:54:06Z</time>
      </trkpt>
      <trkpt lat="49.96673" lon="5.32632">
        <ele>419.6</ele>
        <time>2025-04-20T15:54:07Z</time>
      </trkpt>
      <trkpt lat="49.96674" lon="5.32633">
        <ele>419.5</ele>
        <time>2025-04-20T15:54:08Z</time>
      </trkpt>
      <trkpt lat="49.96675" lon="5.32633">
        <ele>419.4</ele>
        <time>2025-04-20T15:54:09Z</time>
      </trkpt>
      <trkpt lat="49.96676" lon="5.32633">
        <ele>419.3</ele>
        <time>2025-04-20T15:54:10Z</time>
      </trkpt>
      <trkpt lat="49.96677" lon="5.32634">
        <ele>419.1</ele>
        <time>2025-04-20T15:54:11Z</time>
      </trkpt>
      <trkpt lat="49.96678" lon="5.32634">
        <ele>419</ele>
        <time>2025-04-20T15:54:12Z</time>
      </trkpt>
      <trkpt lat="49.96679" lon="5.32635">
        <ele>418.9</ele>
        <time>2025-04-20T15:54:13Z</time>
      </trkpt>
      <trkpt lat="49.9668" lon="5.32635">
        <ele>418.8</ele>
        <time>2025-04-20T15:54:14Z</time>
      </trkpt>
      <trkpt lat="49.96681" lon="5.32636">
        <ele>418.6</ele>
        <time>2025-04-20T15:54:15Z</time>
      </trkpt>
      <trkpt lat="49.96682" lon="5.32636">
        <ele>418.5</ele>
        <time>2025-04-20T15:54:16Z</time>
      </trkpt>
      <trkpt lat="49.96683" lon="5.32637">
        <ele>418.3</ele>
        <time>2025-04-20T15:54:17Z</time>
      </trkpt>
      <trkpt lat="49.96684" lon="5.32637">
        <ele>418.2</ele>
        <time>2025-04-20T15:54:18Z</time>
      </trkpt>
      <trkpt lat="49.96686" lon="5.32637">
        <ele>418</ele>
        <time>2025-04-20T15:54:19Z</time>
      </trkpt>
      <trkpt lat="49.96687" lon="5.32638">
        <ele>417.9</ele>
        <time>2025-04-20T15:54:20Z</time>
      </trkpt>
      <trkpt lat="49.96688" lon="5.32638">
        <ele>417.7</ele>
        <time>2025-04-20T15:54:21Z</time>
      </trkpt>
      <trkpt lat="49.9669" lon="5.32638">
        <ele>417.6</ele>
        <time>2025-04-20T15:54:22Z</time>
      </trkpt>
      <trkpt lat="49.96691" lon="5.32638">
        <ele>417.4</ele>
        <time>2025-04-20T15:54:23Z</time>
      </trkpt>
      <trkpt lat="49.96693" lon="5.32637">
        <ele>417.3</ele>
        <time>2025-04-20T15:54:24Z</time>
      </trkpt>
      <trkpt lat="49.96694" lon="5.32637">
        <ele>417.1</ele>
        <time>2025-04-20T15:54:25Z</time>
      </trkpt>
      <trkpt lat="49.96696" lon="5.32637">
        <ele>416.9</ele>
        <time>2025-04-20T15:54:26Z</time>
      </trkpt>
      <trkpt lat="49.96697" lon="5.32637">
        <ele>416.8</ele>
        <time>2025-04-20T15:54:27Z</time>
      </trkpt>
      <trkpt lat="49.96699" lon="5.32637">
        <ele>416.6</ele>
        <time>2025-04-20T15:54:28Z</time>
      </trkpt>
      <trkpt lat="49.967" lon="5.32637">
        <ele>416.3</ele>
        <time>2025-04-20T15:54:29Z</time>
      </trkpt>
      <trkpt lat="49.96702" lon="5.32637">
        <ele>416.1</ele>
        <time>2025-04-20T15:54:30Z</time>
      </trkpt>
      <trkpt lat="49.96703" lon="5.32637">
        <ele>415.9</ele>
        <time>2025-04-20T15:54:31Z</time>
      </trkpt>
      <trkpt lat="49.96704" lon="5.32637">
        <ele>415.7</ele>
        <time>2025-04-20T15:54:32Z</time>
      </trkpt>
      <trkpt lat="49.96706" lon="5.32636">
        <ele>415.6</ele>
        <time>2025-04-20T15:54:33Z</time>
      </trkpt>
      <trkpt lat="49.96707" lon="5.32636">
        <ele>415.4</ele>
        <time>2025-04-20T15:54:34Z</time>
      </trkpt>
      <trkpt lat="49.96708" lon="5.32635">
        <ele>415.3</ele>
        <time>2025-04-20T15:54:35Z</time>
      </trkpt>
      <trkpt lat="49.9671" lon="5.32635">
        <ele>415.1</ele>
        <time>2025-04-20T15:54:36Z</time>
      </trkpt>
      <trkpt lat="49.96711" lon="5.32634">
        <ele>415</ele>
        <time>2025-04-20T15:54:37Z</time>
      </trkpt>
      <trkpt lat="49.96712" lon="5.32633">
        <ele>414.9</ele>
        <time>2025-04-20T15:54:38Z</time>
      </trkpt>
      <trkpt lat="49.96714" lon="5.32632">
        <ele>414.7</ele>
        <time>2025-04-20T15:54:39Z</time>
      </trkpt>
      <trkpt lat="49.96715" lon="5.32632">
        <ele>414.6</ele>
        <time>2025-04-20T15:54:40Z</time>
      </trkpt>
      <trkpt lat="49.96716" lon="5.32631">
        <ele>414.4</ele>
        <time>2025-04-20T15:54:41Z</time>
      </trkpt>
      <trkpt lat="49.96717" lon="5.32631">
        <ele>414.3</ele>
        <time>2025-04-20T15:54:42Z</time>
      </trkpt>
      <trkpt lat="49.96719" lon="5.3263">
        <ele>414.1</ele>
        <time>2025-04-20T15:54:43Z</time>
      </trkpt>
      <trkpt lat="49.9672" lon="5.32629">
        <ele>414</ele>
        <time>2025-04-20T15:54:44Z</time>
      </trkpt>
      <trkpt lat="49.96721" lon="5.32629">
        <ele>413.9</ele>
        <time>2025-04-20T15:54:45Z</time>
      </trkpt>
      <trkpt lat="49.96722" lon="5.32629">
        <ele>413.7</ele>
        <time>2025-04-20T15:54:46Z</time>
      </trkpt>
      <trkpt lat="49.96724" lon="5.32628">
        <ele>413.5</ele>
        <time>2025-04-20T15:54:47Z</time>
      </trkpt>
      <trkpt lat="49.96725" lon="5.32628">
        <ele>413.3</ele>
        <time>2025-04-20T15:54:48Z</time>
      </trkpt>
      <trkpt lat="49.96726" lon="5.32627">
        <ele>413.2</ele>
        <time>2025-04-20T15:54:49Z</time>
      </trkpt>
      <trkpt lat="49.96728" lon="5.32626">
        <ele>413</ele>
        <time>2025-04-20T15:54:50Z</time>
      </trkpt>
      <trkpt lat="49.96729" lon="5.32626">
        <ele>412.8</ele>
        <time>2025-04-20T15:54:51Z</time>
      </trkpt>
      <trkpt lat="49.9673" lon="5.32625">
        <ele>412.7</ele>
        <time>2025-04-20T15:54:52Z</time>
      </trkpt>
      <trkpt lat="49.96732" lon="5.32625">
        <ele>412.5</ele>
        <time>2025-04-20T15:54:53Z</time>
      </trkpt>
      <trkpt lat="49.96733" lon="5.32624">
        <ele>412.3</ele>
        <time>2025-04-20T15:54:54Z</time>
      </trkpt>
      <trkpt lat="49.96735" lon="5.32623">
        <ele>412.1</ele>
        <time>2025-04-20T15:54:55Z</time>
      </trkpt>
      <trkpt lat="49.96736" lon="5.32623">
        <ele>412</ele>
        <time>2025-04-20T15:54:56Z</time>
      </trkpt>
      <trkpt lat="49.96737" lon="5.32622">
        <ele>411.8</ele>
        <time>2025-04-20T15:54:57Z</time>
      </trkpt>
      <trkpt lat="49.96739" lon="5.32621">
        <ele>411.7</ele>
        <time>2025-04-20T15:54:58Z</time>
      </trkpt>
      <trkpt lat="49.9674" lon="5.3262">
        <ele>411.5</ele>
        <time>2025-04-20T15:54:59Z</time>
      </trkpt>
      <trkpt lat="49.96742" lon="5.3262">
        <ele>411.4</ele>
        <time>2025-04-20T15:55:00Z</time>
      </trkpt>
      <trkpt lat="49.96743" lon="5.32619">
        <ele>411.2</ele>
        <time>2025-04-20T15:55:01Z</time>
      </trkpt>
      <trkpt lat="49.96745" lon="5.32618">
        <ele>411.1</ele>
        <time>2025-04-20T15:55:02Z</time>
      </trkpt>
      <trkpt lat="49.96746" lon="5.32618">
        <ele>410.9</ele>
        <time>2025-04-20T15:55:03Z</time>
      </trkpt>
      <trkpt lat="49.96747" lon="5.32617">
        <ele>410.8</ele>
        <time>2025-04-20T15:55:04Z</time>
      </trkpt>
      <trkpt lat="49.96748" lon="5.32616">
        <ele>410.7</ele>
        <time>2025-04-20T15:55:05Z</time>
      </trkpt>
      <trkpt lat="49.96749" lon="5.32616">
        <ele>410.6</ele>
        <time>2025-04-20T15:55:06Z</time>
      </trkpt>
      <trkpt lat="49.9675" lon="5.32615">
        <ele>410.5</ele>
        <time>2025-04-20T15:55:07Z</time>
      </trkpt>
      <trkpt lat="49.96751" lon="5.32615">
        <ele>410.5</ele>
        <time>2025-04-20T15:55:08Z</time>
      </trkpt>
      <trkpt lat="49.96753" lon="5.32614">
        <ele>410.4</ele>
        <time>2025-04-20T15:55:09Z</time>
      </trkpt>
      <trkpt lat="49.96754" lon="5.32613">
        <ele>410.4</ele>
        <time>2025-04-20T15:55:10Z</time>
      </trkpt>
      <trkpt lat="49.96755" lon="5.32612">
        <ele>410.3</ele>
        <time>2025-04-20T15:55:11Z</time>
      </trkpt>
      <trkpt lat="49.96756" lon="5.32611">
        <ele>410.3</ele>
        <time>2025-04-20T15:55:12Z</time>
      </trkpt>
      <trkpt lat="49.96757" lon="5.3261">
        <ele>410.3</ele>
        <time>2025-04-20T15:55:13Z</time>
      </trkpt>
      <trkpt lat="49.96759" lon="5.3261">
        <ele>410.3</ele>
        <time>2025-04-20T15:55:14Z</time>
      </trkpt>
      <trkpt lat="49.9676" lon="5.32609">
        <ele>410.3</ele>
        <time>2025-04-20T15:55:15Z</time>
      </trkpt>
      <trkpt lat="49.96761" lon="5.32608">
        <ele>410.2</ele>
        <time>2025-04-20T15:55:16Z</time>
      </trkpt>
      <trkpt lat="49.96763" lon="5.32608">
        <ele>410.2</ele>
        <time>2025-04-20T15:55:17Z</time>
      </trkpt>
      <trkpt lat="49.96764" lon="5.32607">
        <ele>410.1</ele>
        <time>2025-04-20T15:55:18Z</time>
      </trkpt>
      <trkpt lat="49.96766" lon="5.32606">
        <ele>410.1</ele>
        <time>2025-04-20T15:55:19Z</time>
      </trkpt>
      <trkpt lat="49.96767" lon="5.32606">
        <ele>410</ele>
        <time>2025-04-20T15:55:20Z</time>
      </trkpt>
      <trkpt lat="49.96769" lon="5.32606">
        <ele>409.9</ele>
        <time>2025-04-20T15:55:21Z</time>
      </trkpt>
      <trkpt lat="49.9677" lon="5.32605">
        <ele>409.8</ele>
        <time>2025-04-20T15:55:22Z</time>
      </trkpt>
      <trkpt lat="49.96772" lon="5.32605">
        <ele>409.7</ele>
        <time>2025-04-20T15:55:23Z</time>
      </trkpt>
      <trkpt lat="49.96773" lon="5.32605">
        <ele>409.5</ele>
        <time>2025-04-20T15:55:24Z</time>
      </trkpt>
      <trkpt lat="49.96775" lon="5.32605">
        <ele>409.4</ele>
        <time>2025-04-20T15:55:25Z</time>
      </trkpt>
      <trkpt lat="49.96776" lon="5.32605">
        <ele>409.2</ele>
        <time>2025-04-20T15:55:26Z</time>
      </trkpt>
      <trkpt lat="49.96778" lon="5.32605">
        <ele>409.1</ele>
        <time>2025-04-20T15:55:27Z</time>
      </trkpt>
      <trkpt lat="49.96779" lon="5.32605">
        <ele>408.9</ele>
        <time>2025-04-20T15:55:28Z</time>
      </trkpt>
      <trkpt lat="49.96781" lon="5.32605">
        <ele>408.8</ele>
        <time>2025-04-20T15:55:29Z</time>
      </trkpt>
      <trkpt lat="49.96783" lon="5.32605">
        <ele>408.6</ele>
        <time>2025-04-20T15:55:30Z</time>
      </trkpt>
      <trkpt lat="49.96784" lon="5.32604">
        <ele>408.5</ele>
        <time>2025-04-20T15:55:31Z</time>
      </trkpt>
      <trkpt lat="49.96786" lon="5.32604">
        <ele>408.4</ele>
        <time>2025-04-20T15:55:32Z</time>
      </trkpt>
      <trkpt lat="49.96787" lon="5.32604">
        <ele>408.3</ele>
        <time>2025-04-20T15:55:33Z</time>
      </trkpt>
      <trkpt lat="49.96788" lon="5.32603">
        <ele>408.1</ele>
        <time>2025-04-20T15:55:34Z</time>
      </trkpt>
      <trkpt lat="49.9679" lon="5.32603">
        <ele>408</ele>
        <time>2025-04-20T15:55:35Z</time>
      </trkpt>
      <trkpt lat="49.96791" lon="5.32603">
        <ele>407.9</ele>
        <time>2025-04-20T15:55:36Z</time>
      </trkpt>
      <trkpt lat="49.96792" lon="5.32603">
        <ele>407.8</ele>
        <time>2025-04-20T15:55:37Z</time>
      </trkpt>
      <trkpt lat="49.96793" lon="5.32602">
        <ele>407.8</ele>
        <time>2025-04-20T15:55:38Z</time>
      </trkpt>
      <trkpt lat="49.96794" lon="5.32602">
        <ele>407.7</ele>
        <time>2025-04-20T15:55:39Z</time>
      </trkpt>
      <trkpt lat="49.96795" lon="5.32601">
        <ele>407.6</ele>
        <time>2025-04-20T15:55:40Z</time>
      </trkpt>
      <trkpt lat="49.96797" lon="5.32601">
        <ele>407.5</ele>
        <time>2025-04-20T15:55:41Z</time>
      </trkpt>
      <trkpt lat="49.96798" lon="5.32601">
        <ele>407.4</ele>
        <time>2025-04-20T15:55:42Z</time>
      </trkpt>
      <trkpt lat="49.96799" lon="5.32601">
        <ele>407.3</ele>
        <time>2025-04-20T15:55:43Z</time>
      </trkpt>
      <trkpt lat="49.968" lon="5.32601">
        <ele>407.2</ele>
        <time>2025-04-20T15:55:44Z</time>
      </trkpt>
      <trkpt lat="49.96801" lon="5.32601">
        <ele>407</ele>
        <time>2025-04-20T15:55:45Z</time>
      </trkpt>
      <trkpt lat="49.96802" lon="5.32601">
        <ele>406.9</ele>
        <time>2025-04-20T15:55:46Z</time>
      </trkpt>
      <trkpt lat="49.96804" lon="5.32601">
        <ele>406.7</ele>
        <time>2025-04-20T15:55:47Z</time>
      </trkpt>
      <trkpt lat="49.96805" lon="5.32601">
        <ele>406.6</ele>
        <time>2025-04-20T15:55:48Z</time>
      </trkpt>
      <trkpt lat="49.96806" lon="5.32601">
        <ele>406.5</ele>
        <time>2025-04-20T15:55:49Z</time>
      </trkpt>
      <trkpt lat="49.96807" lon="5.32601">
        <ele>406.4</ele>
        <time>2025-04-20T15:55:50Z</time>
      </trkpt>
      <trkpt lat="49.96808" lon="5.32601">
        <ele>406.3</ele>
        <time>2025-04-20T15:55:51Z</time>
      </trkpt>
      <trkpt lat="49.96809" lon="5.32601">
        <ele>406.2</ele>
        <time>2025-04-20T15:55:52Z</time>
      </trkpt>
      <trkpt lat="49.9681" lon="5.32601">
        <ele>406.1</ele>
        <time>2025-04-20T15:55:53Z</time>
      </trkpt>
      <trkpt lat="49.96811" lon="5.32601">
        <ele>406</ele>
        <time>2025-04-20T15:55:54Z</time>
      </trkpt>
      <trkpt lat="49.96812" lon="5.32602">
        <ele>405.9</ele>
        <time>2025-04-20T15:55:55Z</time>
      </trkpt>
      <trkpt lat="49.96812" lon="5.32602">
        <ele>405.9</ele>
        <time>2025-04-20T15:55:56Z</time>
      </trkpt>
      <trkpt lat="49.96813" lon="5.32602">
        <ele>405.8</ele>
        <time>2025-04-20T15:55:57Z</time>
      </trkpt>
      <trkpt lat="49.96813" lon="5.32602">
        <ele>405.8</ele>
        <time>2025-04-20T15:55:58Z</time>
      </trkpt>
      <trkpt lat="49.96813" lon="5.32602">
        <ele>405.7</ele>
        <time>2025-04-20T15:55:59Z</time>
      </trkpt>
      <trkpt lat="49.96814" lon="5.32602">
        <ele>405.7</ele>
        <time>2025-04-20T15:56:00Z</time>
      </trkpt>
      <trkpt lat="49.96814" lon="5.32603">
        <ele>405.6</ele>
        <time>2025-04-20T15:56:01Z</time>
      </trkpt>
      <trkpt lat="49.96815" lon="5.32603">
        <ele>405.5</ele>
        <time>2025-04-20T15:56:02Z</time>
      </trkpt>
      <trkpt lat="49.96815" lon="5.32603">
        <ele>405.4</ele>
        <time>2025-04-20T15:56:03Z</time>
      </trkpt>
      <trkpt lat="49.96816" lon="5.32604">
        <ele>405.4</ele>
        <time>2025-04-20T15:56:04Z</time>
      </trkpt>
      <trkpt lat="49.96816" lon="5.32604">
        <ele>405.3</ele>
        <time>2025-04-20T15:56:05Z</time>
      </trkpt>
      <trkpt lat="49.96817" lon="5.32604">
        <ele>405.2</ele>
        <time>2025-04-20T15:56:06Z</time>
      </trkpt>
      <trkpt lat="49.96817" lon="5.32605">
        <ele>405.1</ele>
        <time>2025-04-20T15:56:07Z</time>
      </trkpt>
      <trkpt lat="49.96819" lon="5.32605">
        <ele>405</ele>
        <time>2025-04-20T15:58:34Z</time>
      </trkpt>
      <trkpt lat="49.9682" lon="5.32604">
        <ele>404.9</ele>
        <time>2025-04-20T15:58:35Z</time>
      </trkpt>
      <trkpt lat="49.96822" lon="5.32604">
        <ele>404.8</ele>
        <time>2025-04-20T15:58:36Z</time>
      </trkpt>
      <trkpt lat="49.96823" lon="5.32604">
        <ele>404.8</ele>
        <time>2025-04-20T15:58:37Z</time>
      </trkpt>
      <trkpt lat="49.96824" lon="5.32603">
        <ele>404.8</ele>
        <time>2025-04-20T15:58:38Z</time>
      </trkpt>
      <trkpt lat="49.96825" lon="5.32603">
        <ele>404.8</ele>
        <time>2025-04-20T15:58:39Z</time>
      </trkpt>
      <trkpt lat="49.96826" lon="5.32602">
        <ele>404.9</ele>
        <time>2025-04-20T15:58:40Z</time>
      </trkpt>
      <trkpt lat="49.96826" lon="5.32601">
        <ele>404.9</ele>
        <time>2025-04-20T15:58:41Z</time>
      </trkpt>
      <trkpt lat="49.96827" lon="5.32601">
        <ele>404.9</ele>
        <time>2025-04-20T15:58:42Z</time>
      </trkpt>
      <trkpt lat="49.96828" lon="5.32601">
        <ele>404.9</ele>
        <time>2025-04-20T15:58:43Z</time>
      </trkpt>
      <trkpt lat="49.96829" lon="5.326">
        <ele>404.9</ele>
        <time>2025-04-20T15:58:44Z</time>
      </trkpt>
      <trkpt lat="49.9683" lon="5.32601">
        <ele>404.8</ele>
        <time>2025-04-20T15:58:45Z</time>
      </trkpt>
      <trkpt lat="49.96831" lon="5.32601">
        <ele>404.7</ele>
        <time>2025-04-20T15:58:46Z</time>
      </trkpt>
      <trkpt lat="49.96832" lon="5.32601">
        <ele>404.6</ele>
        <time>2025-04-20T15:58:47Z</time>
      </trkpt>
      <trkpt lat="49.96833" lon="5.32601">
        <ele>404.5</ele>
        <time>2025-04-20T15:58:48Z</time>
      </trkpt>
      <trkpt lat="49.96834" lon="5.32601">
        <ele>404.5</ele>
        <time>2025-04-20T15:58:49Z</time>
      </trkpt>
      <trkpt lat="49.96835" lon="5.32601">
        <ele>404.4</ele>
        <time>2025-04-20T15:58:50Z</time>
      </trkpt>
      <trkpt lat="49.96836" lon="5.32601">
        <ele>404.4</ele>
        <time>2025-04-20T15:58:51Z</time>
      </trkpt>
      <trkpt lat="49.96837" lon="5.32601">
        <ele>404.4</ele>
        <time>2025-04-20T15:58:52Z</time>
      </trkpt>
      <trkpt lat="49.96838" lon="5.32601">
        <ele>404.3</ele>
        <time>2025-04-20T15:58:53Z</time>
      </trkpt>
      <trkpt lat="49.96839" lon="5.32601">
        <ele>404.3</ele>
        <time>2025-04-20T15:58:54Z</time>
      </trkpt>
      <trkpt lat="49.96841" lon="5.32601">
        <ele>404.3</ele>
        <time>2025-04-20T15:58:55Z</time>
      </trkpt>
      <trkpt lat="49.96842" lon="5.32601">
        <ele>404.3</ele>
        <time>2025-04-20T15:58:56Z</time>
      </trkpt>
      <trkpt lat="49.96844" lon="5.32601">
        <ele>404.2</ele>
        <time>2025-04-20T15:58:57Z</time>
      </trkpt>
      <trkpt lat="49.96845" lon="5.326">
        <ele>404.2</ele>
        <time>2025-04-20T15:58:58Z</time>
      </trkpt>
      <trkpt lat="49.96847" lon="5.326">
        <ele>404.2</ele>
        <time>2025-04-20T15:58:59Z</time>
      </trkpt>
      <trkpt lat="49.96848" lon="5.326">
        <ele>404.2</ele>
        <time>2025-04-20T15:59:00Z</time>
      </trkpt>
      <trkpt lat="49.9685" lon="5.32599">
        <ele>404.2</ele>
        <time>2025-04-20T15:59:16Z</time>
      </trkpt>
      <trkpt lat="49.96851" lon="5.32599">
        <ele>404.2</ele>
        <time>2025-04-20T15:59:17Z</time>
      </trkpt>
      <trkpt lat="49.96852" lon="5.32599">
        <ele>404.1</ele>
        <time>2025-04-20T15:59:18Z</time>
      </trkpt>
      <trkpt lat="49.96853" lon="5.32599">
        <ele>404.1</ele>
        <time>2025-04-20T15:59:19Z</time>
      </trkpt>
      <trkpt lat="49.96854" lon="5.32599">
        <ele>404.1</ele>
        <time>2025-04-20T15:59:20Z</time>
      </trkpt>
      <trkpt lat="49.96855" lon="5.326">
        <ele>404</ele>
        <time>2025-04-20T15:59:21Z</time>
      </trkpt>
      <trkpt lat="49.96856" lon="5.326">
        <ele>404</ele>
        <time>2025-04-20T15:59:28Z</time>
      </trkpt>
      <trkpt lat="49.96857" lon="5.326">
        <ele>404</ele>
        <time>2025-04-20T15:59:29Z</time>
      </trkpt>
      <trkpt lat="49.96858" lon="5.32599">
        <ele>403.9</ele>
        <time>2025-04-20T15:59:30Z</time>
      </trkpt>
      <trkpt lat="49.96859" lon="5.32599">
        <ele>403.9</ele>
        <time>2025-04-20T15:59:31Z</time>
      </trkpt>
      <trkpt lat="49.9686" lon="5.32599">
        <ele>403.9</ele>
        <time>2025-04-20T15:59:32Z</time>
      </trkpt>
      <trkpt lat="49.96861" lon="5.32599">
        <ele>403.9</ele>
        <time>2025-04-20T15:59:33Z</time>
      </trkpt>
      <trkpt lat="49.96862" lon="5.32599">
        <ele>403.8</ele>
        <time>2025-04-20T15:59:34Z</time>
      </trkpt>
      <trkpt lat="49.96862" lon="5.326">
        <ele>403.8</ele>
        <time>2025-04-20T15:59:35Z</time>
      </trkpt>
      <trkpt lat="49.96863" lon="5.326">
        <ele>403.7</ele>
        <time>2025-04-20T15:59:36Z</time>
      </trkpt>
      <trkpt lat="49.96864" lon="5.326">
        <ele>403.7</ele>
        <time>2025-04-20T15:59:37Z</time>
      </trkpt>
      <trkpt lat="49.96865" lon="5.326">
        <ele>403.6</ele>
        <time>2025-04-20T15:59:38Z</time>
      </trkpt>
      <trkpt lat="49.96865" lon="5.32601">
        <ele>403.6</ele>
        <time>2025-04-20T15:59:39Z</time>
      </trkpt>
      <trkpt lat="49.96866" lon="5.32601">
        <ele>403.6</ele>
        <time>2025-04-20T15:59:40Z</time>
      </trkpt>
      <trkpt lat="49.96867" lon="5.32601">
        <ele>403.5</ele>
        <time>2025-04-20T15:59:41Z</time>
      </trkpt>
      <trkpt lat="49.96867" lon="5.32601">
        <ele>403.5</ele>
        <time>2025-04-20T15:59:42Z</time>
      </trkpt>
      <trkpt lat="49.96868" lon="5.32602">
        <ele>403.4</ele>
        <time>2025-04-20T15:59:43Z</time>
      </trkpt>
      <trkpt lat="49.96869" lon="5.32602">
        <ele>403.4</ele>
        <time>2025-04-20T15:59:44Z</time>
      </trkpt>
      <trkpt lat="49.9687" lon="5.32602">
        <ele>403.3</ele>
        <time>2025-04-20T15:59:45Z</time>
      </trkpt>
      <trkpt lat="49.96871" lon="5.32602">
        <ele>403.3</ele>
        <time>2025-04-20T15:59:46Z</time>
      </trkpt>
      <trkpt lat="49.96872" lon="5.32603">
        <ele>403.2</ele>
        <time>2025-04-20T15:59:47Z</time>
      </trkpt>
      <trkpt lat="49.96873" lon="5.32603">
        <ele>403.2</ele>
        <time>2025-04-20T15:59:48Z</time>
      </trkpt>
      <trkpt lat="49.96875" lon="5.32603">
        <ele>403.1</ele>
        <time>2025-04-20T15:59:49Z</time>
      </trkpt>
      <trkpt lat="49.96876" lon="5.32602">
        <ele>403.1</ele>
        <time>2025-04-20T15:59:50Z</time>
      </trkpt>
      <trkpt lat="49.96878" lon="5.32602">
        <ele>403.1</ele>
        <time>2025-04-20T15:59:51Z</time>
      </trkpt>
      <trkpt lat="49.96879" lon="5.32602">
        <ele>403</ele>
        <time>2025-04-20T15:59:52Z</time>
      </trkpt>
      <trkpt lat="49.9688" lon="5.32602">
        <ele>403</ele>
        <time>2025-04-20T15:59:53Z</time>
      </trkpt>
      <trkpt lat="49.96881" lon="5.32602">
        <ele>402.9</ele>
        <time>2025-04-20T15:59:54Z</time>
      </trkpt>
      <trkpt lat="49.96882" lon="5.32602">
        <ele>402.9</ele>
        <time>2025-04-20T15:59:55Z</time>
      </trkpt>
      <trkpt lat="49.96883" lon="5.32603">
        <ele>402.8</ele>
        <time>2025-04-20T15:59:56Z</time>
      </trkpt>
      <trkpt lat="49.96884" lon="5.32603">
        <ele>402.8</ele>
        <time>2025-04-20T15:59:57Z</time>
      </trkpt>
      <trkpt lat="49.96885" lon="5.32603">
        <ele>402.7</ele>
        <time>2025-04-20T15:59:58Z</time>
      </trkpt>
      <trkpt lat="49.96886" lon="5.32604">
        <ele>402.6</ele>
        <time>2025-04-20T15:59:59Z</time>
      </trkpt>
      <trkpt lat="49.96887" lon="5.32603">
        <ele>402.6</ele>
        <time>2025-04-20T16:00:00Z</time>
      </trkpt>
      <trkpt lat="49.96888" lon="5.32603">
        <ele>402.6</ele>
        <time>2025-04-20T16:00:01Z</time>
      </trkpt>
      <trkpt lat="49.96888" lon="5.32603">
        <ele>402.6</ele>
        <time>2025-04-20T16:00:02Z</time>
      </trkpt>
      <trkpt lat="49.96889" lon="5.32603">
        <ele>402.6</ele>
        <time>2025-04-20T16:00:03Z</time>
      </trkpt>
      <trkpt lat="49.9689" lon="5.32603">
        <ele>402.6</ele>
        <time>2025-04-20T16:00:04Z</time>
      </trkpt>
      <trkpt lat="49.96891" lon="5.32602">
        <ele>402.6</ele>
        <time>2025-04-20T16:00:05Z</time>
      </trkpt>
      <trkpt lat="49.96893" lon="5.32602">
        <ele>402.6</ele>
        <time>2025-04-20T16:00:06Z</time>
      </trkpt>
      <trkpt lat="49.96894" lon="5.32602">
        <ele>402.6</ele>
        <time>2025-04-20T16:00:07Z</time>
      </trkpt>
      <trkpt lat="49.96896" lon="5.32601">
        <ele>402.5</ele>
        <time>2025-04-20T16:00:08Z</time>
      </trkpt>
      <trkpt lat="49.96898" lon="5.32601">
        <ele>402.5</ele>
        <time>2025-04-20T16:00:09Z</time>
      </trkpt>
      <trkpt lat="49.96899" lon="5.32601">
        <ele>402.5</ele>
        <time>2025-04-20T16:00:10Z</time>
      </trkpt>
      <trkpt lat="49.96901" lon="5.32601">
        <ele>402.4</ele>
        <time>2025-04-20T16:00:11Z</time>
      </trkpt>
      <trkpt lat="49.96902" lon="5.32601">
        <ele>402.4</ele>
        <time>2025-04-20T16:00:12Z</time>
      </trkpt>
      <trkpt lat="49.96904" lon="5.32602">
        <ele>402.3</ele>
        <time>2025-04-20T16:00:13Z</time>
      </trkpt>
      <trkpt lat="49.96905" lon="5.32602">
        <ele>402.3</ele>
        <time>2025-04-20T16:00:14Z</time>
      </trkpt>
      <trkpt lat="49.96906" lon="5.32602">
        <ele>402.2</ele>
        <time>2025-04-20T16:00:15Z</time>
      </trkpt>
      <trkpt lat="49.96908" lon="5.32602">
        <ele>402.2</ele>
        <time>2025-04-20T16:00:16Z</time>
      </trkpt>
      <trkpt lat="49.96909" lon="5.32602">
        <ele>402.2</ele>
        <time>2025-04-20T16:00:17Z</time>
      </trkpt>
      <trkpt lat="49.9691" lon="5.32602">
        <ele>402.2</ele>
        <time>2025-04-20T16:00:18Z</time>
      </trkpt>
      <trkpt lat="49.96912" lon="5.32602">
        <ele>402.2</ele>
        <time>2025-04-20T16:00:19Z</time>
      </trkpt>
      <trkpt lat="49.96913" lon="5.32601">
        <ele>402.1</ele>
        <time>2025-04-20T16:00:20Z</time>
      </trkpt>
      <trkpt lat="49.96914" lon="5.32601">
        <ele>402.1</ele>
        <time>2025-04-20T16:00:21Z</time>
      </trkpt>
      <trkpt lat="49.96915" lon="5.32601">
        <ele>402.1</ele>
        <time>2025-04-20T16:00:22Z</time>
      </trkpt>
      <trkpt lat="49.96916" lon="5.32601">
        <ele>402.1</ele>
        <time>2025-04-20T16:00:23Z</time>
      </trkpt>
      <trkpt lat="49.96917" lon="5.32601">
        <ele>402.1</ele>
        <time>2025-04-20T16:00:24Z</time>
      </trkpt>
      <trkpt lat="49.96918" lon="5.32601">
        <ele>402.2</ele>
        <time>2025-04-20T16:00:25Z</time>
      </trkpt>
      <trkpt lat="49.96919" lon="5.32601">
        <ele>402.2</ele>
        <time>2025-04-20T16:00:26Z</time>
      </trkpt>
      <trkpt lat="49.9692" lon="5.32602">
        <ele>402.2</ele>
        <time>2025-04-20T16:00:27Z</time>
      </trkpt>
      <trkpt lat="49.96921" lon="5.32602">
        <ele>402.2</ele>
        <time>2025-04-20T16:00:28Z</time>
      </trkpt>
      <trkpt lat="49.96922" lon="5.32603">
        <ele>402.3</ele>
        <time>2025-04-20T16:00:29Z</time>
      </trkpt>
      <trkpt lat="49.96923" lon="5.32603">
        <ele>402.3</ele>
        <time>2025-04-20T16:00:30Z</time>
      </trkpt>
      <trkpt lat="49.96925" lon="5.32604">
        <ele>402.3</ele>
        <time>2025-04-20T16:00:31Z</time>
      </trkpt>
      <trkpt lat="49.96926" lon="5.32604">
        <ele>402.3</ele>
        <time>2025-04-20T16:00:32Z</time>
      </trkpt>
      <trkpt lat="49.96927" lon="5.32605">
        <ele>402.4</ele>
        <time>2025-04-20T16:00:33Z</time>
      </trkpt>
      <trkpt lat="49.96928" lon="5.32605">
        <ele>402.4</ele>
        <time>2025-04-20T16:00:34Z</time>
      </trkpt>
      <trkpt lat="49.9693" lon="5.32606">
        <ele>402.4</ele>
        <time>2025-04-20T16:00:35Z</time>
      </trkpt>
      <trkpt lat="49.96931" lon="5.32606">
        <ele>402.5</ele>
        <time>2025-04-20T16:00:36Z</time>
      </trkpt>
      <trkpt lat="49.96932" lon="5.32607">
        <ele>402.5</ele>
        <time>2025-04-20T16:00:37Z</time>
      </trkpt>
      <trkpt lat="49.96933" lon="5.32608">
        <ele>402.5</ele>
        <time>2025-04-20T16:00:38Z</time>
      </trkpt>
      <trkpt lat="49.96935" lon="5.32609">
        <ele>402.5</ele>
        <time>2025-04-20T16:00:39Z</time>
      </trkpt>
      <trkpt lat="49.96936" lon="5.32609">
        <ele>402.5</ele>
        <time>2025-04-20T16:00:40Z</time>
      </trkpt>
      <trkpt lat="49.96937" lon="5.3261">
        <ele>402.6</ele>
        <time>2025-04-20T16:00:41Z</time>
      </trkpt>
      <trkpt lat="49.96938" lon="5.3261">
        <ele>402.6</ele>
        <time>2025-04-20T16:00:42Z</time>
      </trkpt>
      <trkpt lat="49.96939" lon="5.3261">
        <ele>402.7</ele>
        <time>2025-04-20T16:00:43Z</time>
      </trkpt>
      <trkpt lat="49.96941" lon="5.3261">
        <ele>402.8</ele>
        <time>2025-04-20T16:00:44Z</time>
      </trkpt>
      <trkpt lat="49.96942" lon="5.3261">
        <ele>402.9</ele>
        <time>2025-04-20T16:00:45Z</time>
      </trkpt>
      <trkpt lat="49.96943" lon="5.3261">
        <ele>403</ele>
        <time>2025-04-20T16:00:46Z</time>
      </trkpt>
      <trkpt lat="49.96944" lon="5.32609">
        <ele>403.1</ele>
        <time>2025-04-20T16:00:47Z</time>
      </trkpt>
      <trkpt lat="49.96945" lon="5.32609">
        <ele>403.1</ele>
        <time>2025-04-20T16:00:48Z</time>
      </trkpt>
      <trkpt lat="49.96946" lon="5.32609">
        <ele>403.2</ele>
        <time>2025-04-20T16:00:49Z</time>
      </trkpt>
      <trkpt lat="49.96947" lon="5.32609">
        <ele>403.2</ele>
        <time>2025-04-20T16:00:50Z</time>
      </trkpt>
      <trkpt lat="49.96949" lon="5.32609">
        <ele>403.2</ele>
        <time>2025-04-20T16:00:51Z</time>
      </trkpt>
      <trkpt lat="49.9695" lon="5.32609">
        <ele>403.2</ele>
        <time>2025-04-20T16:00:52Z</time>
      </trkpt>
      <trkpt lat="49.96951" lon="5.32609">
        <ele>403.2</ele>
        <time>2025-04-20T16:00:53Z</time>
      </trkpt>
      <trkpt lat="49.96952" lon="5.32609">
        <ele>403.2</ele>
        <time>2025-04-20T16:00:54Z</time>
      </trkpt>
      <trkpt lat="49.96954" lon="5.32609">
        <ele>403.2</ele>
        <time>2025-04-20T16:00:55Z</time>
      </trkpt>
      <trkpt lat="49.96955" lon="5.32609">
        <ele>403.2</ele>
        <time>2025-04-20T16:00:56Z</time>
      </trkpt>
      <trkpt lat="49.96956" lon="5.32608">
        <ele>403.2</ele>
        <time>2025-04-20T16:00:57Z</time>
      </trkpt>
      <trkpt lat="49.96958" lon="5.32608">
        <ele>403.2</ele>
        <time>2025-04-20T16:00:58Z</time>
      </trkpt>
      <trkpt lat="49.96959" lon="5.32608">
        <ele>403.2</ele>
        <time>2025-04-20T16:00:59Z</time>
      </trkpt>
      <trkpt lat="49.9696" lon="5.32608">
        <ele>403.2</ele>
        <time>2025-04-20T16:01:00Z</time>
      </trkpt>
      <trkpt lat="49.96961" lon="5.32608">
        <ele>403.2</ele>
        <time>2025-04-20T16:01:01Z</time>
      </trkpt>
      <trkpt lat="49.96962" lon="5.32608">
        <ele>403.2</ele>
        <time>2025-04-20T16:01:02Z</time>
      </trkpt>
      <trkpt lat="49.96963" lon="5.32608">
        <ele>403.2</ele>
        <time>2025-04-20T16:01:03Z</time>
      </trkpt>
      <trkpt lat="49.96964" lon="5.32608">
        <ele>403.2</ele>
        <time>2025-04-20T16:01:04Z</time>
      </trkpt>
      <trkpt lat="49.96966" lon="5.32608">
        <ele>403.2</ele>
        <time>2025-04-20T16:01:05Z</time>
      </trkpt>
      <trkpt lat="49.96967" lon="5.32608">
        <ele>403.2</ele>
        <time>2025-04-20T16:01:06Z</time>
      </trkpt>
      <trkpt lat="49.96968" lon="5.32609">
        <ele>403.2</ele>
        <time>2025-04-20T16:01:07Z</time>
      </trkpt>
      <trkpt lat="49.96969" lon="5.32609">
        <ele>403.2</ele>
        <time>2025-04-20T16:01:08Z</time>
      </trkpt>
      <trkpt lat="49.9697" lon="5.32609">
        <ele>403.2</ele>
        <time>2025-04-20T16:01:09Z</time>
      </trkpt>
      <trkpt lat="49.96971" lon="5.32609">
        <ele>403.2</ele>
        <time>2025-04-20T16:01:10Z</time>
      </trkpt>
      <trkpt lat="49.96972" lon="5.32609">
        <ele>403.2</ele>
        <time>2025-04-20T16:01:11Z</time>
      </trkpt>
      <trkpt lat="49.96974" lon="5.32609">
        <ele>403.2</ele>
        <time>2025-04-20T16:01:12Z</time>
      </trkpt>
      <trkpt lat="49.96975" lon="5.32609">
        <ele>403.2</ele>
        <time>2025-04-20T16:01:13Z</time>
      </trkpt>
      <trkpt lat="49.96976" lon="5.3261">
        <ele>403.2</ele>
        <time>2025-04-20T16:01:14Z</time>
      </trkpt>
      <trkpt lat="49.96977" lon="5.3261">
        <ele>403.3</ele>
        <time>2025-04-20T16:01:15Z</time>
      </trkpt>
      <trkpt lat="49.96978" lon="5.3261">
        <ele>403.3</ele>
        <time>2025-04-20T16:01:16Z</time>
      </trkpt>
      <trkpt lat="49.96979" lon="5.3261">
        <ele>403.3</ele>
        <time>2025-04-20T16:01:17Z</time>
      </trkpt>
      <trkpt lat="49.96981" lon="5.3261">
        <ele>403.4</ele>
        <time>2025-04-20T16:01:18Z</time>
      </trkpt>
      <trkpt lat="49.96982" lon="5.32611">
        <ele>403.4</ele>
        <time>2025-04-20T16:01:19Z</time>
      </trkpt>
      <trkpt lat="49.96983" lon="5.32611">
        <ele>403.4</ele>
        <time>2025-04-20T16:01:20Z</time>
      </trkpt>
      <trkpt lat="49.96984" lon="5.32611">
        <ele>403.4</ele>
        <time>2025-04-20T16:01:21Z</time>
      </trkpt>
      <trkpt lat="49.96985" lon="5.32611">
        <ele>403.5</ele>
        <time>2025-04-20T16:01:22Z</time>
      </trkpt>
      <trkpt lat="49.96987" lon="5.32611">
        <ele>403.5</ele>
        <time>2025-04-20T16:01:23Z</time>
      </trkpt>
      <trkpt lat="49.96988" lon="5.32611">
        <ele>403.6</ele>
        <time>2025-04-20T16:01:24Z</time>
      </trkpt>
      <trkpt lat="49.96989" lon="5.3261">
        <ele>403.6</ele>
        <time>2025-04-20T16:01:25Z</time>
      </trkpt>
      <trkpt lat="49.9699" lon="5.3261">
        <ele>403.7</ele>
        <time>2025-04-20T16:01:26Z</time>
      </trkpt>
      <trkpt lat="49.96991" lon="5.3261">
        <ele>403.8</ele>
        <time>2025-04-20T16:01:27Z</time>
      </trkpt>
      <trkpt lat="49.96992" lon="5.3261">
        <ele>403.8</ele>
        <time>2025-04-20T16:01:28Z</time>
      </trkpt>
      <trkpt lat="49.96993" lon="5.32609">
        <ele>403.9</ele>
        <time>2025-04-20T16:01:29Z</time>
      </trkpt>
      <trkpt lat="49.96994" lon="5.32609">
        <ele>403.9</ele>
        <time>2025-04-20T16:01:30Z</time>
      </trkpt>
      <trkpt lat="49.96995" lon="5.32609">
        <ele>404</ele>
        <time>2025-04-20T16:01:31Z</time>
      </trkpt>
      <trkpt lat="49.96997" lon="5.32609">
        <ele>404</ele>
        <time>2025-04-20T16:01:32Z</time>
      </trkpt>
      <trkpt lat="49.96998" lon="5.32609">
        <ele>404.1</ele>
        <time>2025-04-20T16:01:33Z</time>
      </trkpt>
      <trkpt lat="49.96999" lon="5.32609">
        <ele>404.1</ele>
        <time>2025-04-20T16:01:34Z</time>
      </trkpt>
      <trkpt lat="49.97" lon="5.32609">
        <ele>404.1</ele>
        <time>2025-04-20T16:01:35Z</time>
      </trkpt>
      <trkpt lat="49.97001" lon="5.3261">
        <ele>404.1</ele>
        <time>2025-04-20T16:01:36Z</time>
      </trkpt>
      <trkpt lat="49.97002" lon="5.3261">
        <ele>404.2</ele>
        <time>2025-04-20T16:01:37Z</time>
      </trkpt>
      <trkpt lat="49.97003" lon="5.3261">
        <ele>404.2</ele>
        <time>2025-04-20T16:01:38Z</time>
      </trkpt>
      <trkpt lat="49.97004" lon="5.3261">
        <ele>404.3</ele>
        <time>2025-04-20T16:01:39Z</time>
      </trkpt>
      <trkpt lat="49.97005" lon="5.3261">
        <ele>404.4</ele>
        <time>2025-04-20T16:01:40Z</time>
      </trkpt>
      <trkpt lat="49.97006" lon="5.32611">
        <ele>404.5</ele>
        <time>2025-04-20T16:01:41Z</time>
      </trkpt>
      <trkpt lat="49.97008" lon="5.32611">
        <ele>404.6</ele>
        <time>2025-04-20T16:01:42Z</time>
      </trkpt>
      <trkpt lat="49.97009" lon="5.32611">
        <ele>404.6</ele>
        <time>2025-04-20T16:01:43Z</time>
      </trkpt>
      <trkpt lat="49.9701" lon="5.32612">
        <ele>404.5</ele>
        <time>2025-04-20T16:01:44Z</time>
      </trkpt>
      <trkpt lat="49.97011" lon="5.32612">
        <ele>404.5</ele>
        <time>2025-04-20T16:01:45Z</time>
      </trkpt>
      <trkpt lat="49.97012" lon="5.32612">
        <ele>404.5</ele>
        <time>2025-04-20T16:01:46Z</time>
      </trkpt>
      <trkpt lat="49.97013" lon="5.32612">
        <ele>404.6</ele>
        <time>2025-04-20T16:01:47Z</time>
      </trkpt>
      <trkpt lat="49.97014" lon="5.32612">
        <ele>404.7</ele>
        <time>2025-04-20T16:01:48Z</time>
      </trkpt>
      <trkpt lat="49.97015" lon="5.32612">
        <ele>404.9</ele>
        <time>2025-04-20T16:01:49Z</time>
      </trkpt>
      <trkpt lat="49.97016" lon="5.32612">
        <ele>405.1</ele>
        <time>2025-04-20T16:01:50Z</time>
      </trkpt>
      <trkpt lat="49.97017" lon="5.32611">
        <ele>405.2</ele>
        <time>2025-04-20T16:01:51Z</time>
      </trkpt>
      <trkpt lat="49.97018" lon="5.32611">
        <ele>405.3</ele>
        <time>2025-04-20T16:01:52Z</time>
      </trkpt>
      <trkpt lat="49.97019" lon="5.32611">
        <ele>405.4</ele>
        <time>2025-04-20T16:01:53Z</time>
      </trkpt>
      <trkpt lat="49.97021" lon="5.3261">
        <ele>405.5</ele>
        <time>2025-04-20T16:01:54Z</time>
      </trkpt>
      <trkpt lat="49.97022" lon="5.3261">
        <ele>405.6</ele>
        <time>2025-04-20T16:01:55Z</time>
      </trkpt>
      <trkpt lat="49.97023" lon="5.32609">
        <ele>405.8</ele>
        <time>2025-04-20T16:01:56Z</time>
      </trkpt>
      <trkpt lat="49.97025" lon="5.32609">
        <ele>405.9</ele>
        <time>2025-04-20T16:01:57Z</time>
      </trkpt>
      <trkpt lat="49.97026" lon="5.32608">
        <ele>406</ele>
        <time>2025-04-20T16:01:58Z</time>
      </trkpt>
      <trkpt lat="49.97027" lon="5.32607">
        <ele>406.1</ele>
        <time>2025-04-20T16:01:59Z</time>
      </trkpt>
      <trkpt lat="49.97029" lon="5.32606">
        <ele>406.2</ele>
        <time>2025-04-20T16:02:00Z</time>
      </trkpt>
      <trkpt lat="49.9703" lon="5.32605">
        <ele>406.2</ele>
        <time>2025-04-20T16:02:01Z</time>
      </trkpt>
      <trkpt lat="49.97031" lon="5.32604">
        <ele>406.2</ele>
        <time>2025-04-20T16:02:02Z</time>
      </trkpt>
      <trkpt lat="49.97032" lon="5.32603">
        <ele>406.2</ele>
        <time>2025-04-20T16:02:03Z</time>
      </trkpt>
      <trkpt lat="49.97033" lon="5.32603">
        <ele>406.2</ele>
        <time>2025-04-20T16:02:04Z</time>
      </trkpt>
      <trkpt lat="49.97034" lon="5.32602">
        <ele>406.2</ele>
        <time>2025-04-20T16:02:22Z</time>
      </trkpt>
      <trkpt lat="49.97035" lon="5.32602">
        <ele>406.2</ele>
        <time>2025-04-20T16:02:23Z</time>
      </trkpt>
      <trkpt lat="49.97035" lon="5.32602">
        <ele>406.2</ele>
        <time>2025-04-20T16:02:24Z</time>
      </trkpt>
      <trkpt lat="49.97036" lon="5.32602">
        <ele>406.2</ele>
        <time>2025-04-20T16:02:25Z</time>
      </trkpt>
      <trkpt lat="49.97037" lon="5.32603">
        <ele>406.2</ele>
        <time>2025-04-20T16:02:26Z</time>
      </trkpt>
      <trkpt lat="49.97037" lon="5.32603">
        <ele>406.2</ele>
        <time>2025-04-20T16:02:27Z</time>
      </trkpt>
      <trkpt lat="49.97038" lon="5.32603">
        <ele>406.2</ele>
        <time>2025-04-20T16:02:28Z</time>
      </trkpt>
      <trkpt lat="49.97039" lon="5.32604">
        <ele>406.2</ele>
        <time>2025-04-20T16:02:29Z</time>
      </trkpt>
      <trkpt lat="49.9704" lon="5.32604">
        <ele>406.1</ele>
        <time>2025-04-20T16:02:30Z</time>
      </trkpt>
      <trkpt lat="49.97041" lon="5.32605">
        <ele>406.1</ele>
        <time>2025-04-20T16:02:31Z</time>
      </trkpt>
      <trkpt lat="49.97042" lon="5.32606">
        <ele>406.1</ele>
        <time>2025-04-20T16:02:32Z</time>
      </trkpt>
      <trkpt lat="49.97043" lon="5.32606">
        <ele>406.1</ele>
        <time>2025-04-20T16:02:33Z</time>
      </trkpt>
      <trkpt lat="49.97044" lon="5.32607">
        <ele>406.1</ele>
        <time>2025-04-20T16:02:34Z</time>
      </trkpt>
      <trkpt lat="49.97045" lon="5.32608">
        <ele>406</ele>
        <time>2025-04-20T16:02:35Z</time>
      </trkpt>
      <trkpt lat="49.97046" lon="5.32608">
        <ele>406</ele>
        <time>2025-04-20T16:02:36Z</time>
      </trkpt>
      <trkpt lat="49.97048" lon="5.32609">
        <ele>406</ele>
        <time>2025-04-20T16:02:37Z</time>
      </trkpt>
      <trkpt lat="49.97049" lon="5.3261">
        <ele>406</ele>
        <time>2025-04-20T16:02:38Z</time>
      </trkpt>
      <trkpt lat="49.97051" lon="5.3261">
        <ele>406</ele>
        <time>2025-04-20T16:02:39Z</time>
      </trkpt>
      <trkpt lat="49.97052" lon="5.32611">
        <ele>406</ele>
        <time>2025-04-20T16:02:40Z</time>
      </trkpt>
      <trkpt lat="49.97054" lon="5.32611">
        <ele>406</ele>
        <time>2025-04-20T16:02:41Z</time>
      </trkpt>
      <trkpt lat="49.97055" lon="5.32611">
        <ele>406</ele>
        <time>2025-04-20T16:02:42Z</time>
      </trkpt>
      <trkpt lat="49.97056" lon="5.32612">
        <ele>405.9</ele>
        <time>2025-04-20T16:02:43Z</time>
      </trkpt>
      <trkpt lat="49.97057" lon="5.32612">
        <ele>405.7</ele>
        <time>2025-04-20T16:02:44Z</time>
      </trkpt>
      <trkpt lat="49.97058" lon="5.32613">
        <ele>405.6</ele>
        <time>2025-04-20T16:02:45Z</time>
      </trkpt>
      <trkpt lat="49.9706" lon="5.32614">
        <ele>405.4</ele>
        <time>2025-04-20T16:02:46Z</time>
      </trkpt>
      <trkpt lat="49.97061" lon="5.32614">
        <ele>405.2</ele>
        <time>2025-04-20T16:02:47Z</time>
      </trkpt>
      <trkpt lat="49.97062" lon="5.32615">
        <ele>405</ele>
        <time>2025-04-20T16:02:48Z</time>
      </trkpt>
      <trkpt lat="49.97063" lon="5.32616">
        <ele>404.9</ele>
        <time>2025-04-20T16:02:49Z</time>
      </trkpt>
      <trkpt lat="49.97064" lon="5.32617">
        <ele>404.7</ele>
        <time>2025-04-20T16:02:50Z</time>
      </trkpt>
      <trkpt lat="49.97065" lon="5.32618">
        <ele>404.6</ele>
        <time>2025-04-20T16:02:51Z</time>
      </trkpt>
      <trkpt lat="49.97066" lon="5.32619">
        <ele>404.5</ele>
        <time>2025-04-20T16:02:52Z</time>
      </trkpt>
      <trkpt lat="49.97068" lon="5.32619">
        <ele>404.4</ele>
        <time>2025-04-20T16:02:53Z</time>
      </trkpt>
      <trkpt lat="49.97069" lon="5.3262">
        <ele>404.3</ele>
        <time>2025-04-20T16:02:54Z</time>
      </trkpt>
      <trkpt lat="49.9707" lon="5.3262">
        <ele>404.2</ele>
        <time>2025-04-20T16:02:55Z</time>
      </trkpt>
      <trkpt lat="49.97071" lon="5.32621">
        <ele>404.1</ele>
        <time>2025-04-20T16:02:56Z</time>
      </trkpt>
      <trkpt lat="49.97072" lon="5.32621">
        <ele>404</ele>
        <time>2025-04-20T16:02:57Z</time>
      </trkpt>
      <trkpt lat="49.97073" lon="5.32622">
        <ele>403.9</ele>
        <time>2025-04-20T16:02:58Z</time>
      </trkpt>
      <trkpt lat="49.97074" lon="5.32622">
        <ele>403.9</ele>
        <time>2025-04-20T16:02:59Z</time>
      </trkpt>
      <trkpt lat="49.97074" lon="5.32622">
        <ele>403.9</ele>
        <time>2025-04-20T16:03:00Z</time>
      </trkpt>
      <trkpt lat="49.97075" lon="5.32622">
        <ele>403.9</ele>
        <time>2025-04-20T16:03:01Z</time>
      </trkpt>
      <trkpt lat="49.97076" lon="5.32622">
        <ele>403.8</ele>
        <time>2025-04-20T16:03:02Z</time>
      </trkpt>
      <trkpt lat="49.97076" lon="5.32622">
        <ele>403.8</ele>
        <time>2025-04-20T16:03:03Z</time>
      </trkpt>
      <trkpt lat="49.97077" lon="5.32622">
        <ele>403.8</ele>
        <time>2025-04-20T16:03:04Z</time>
      </trkpt>
      <trkpt lat="49.97078" lon="5.32623">
        <ele>403.7</ele>
        <time>2025-04-20T16:03:05Z</time>
      </trkpt>
      <trkpt lat="49.97079" lon="5.32623">
        <ele>403.7</ele>
        <time>2025-04-20T16:03:06Z</time>
      </trkpt>
      <trkpt lat="49.9708" lon="5.32623">
        <ele>403.7</ele>
        <time>2025-04-20T16:03:07Z</time>
      </trkpt>
      <trkpt lat="49.97081" lon="5.32623">
        <ele>403.6</ele>
        <time>2025-04-20T16:03:08Z</time>
      </trkpt>
      <trkpt lat="49.97082" lon="5.32624">
        <ele>403.6</ele>
        <time>2025-04-20T16:03:09Z</time>
      </trkpt>
      <trkpt lat="49.97083" lon="5.32625">
        <ele>403.5</ele>
        <time>2025-04-20T16:03:10Z</time>
      </trkpt>
      <trkpt lat="49.97085" lon="5.32625">
        <ele>403.4</ele>
        <time>2025-04-20T16:03:11Z</time>
      </trkpt>
      <trkpt lat="49.97086" lon="5.32626">
        <ele>403.3</ele>
        <time>2025-04-20T16:03:12Z</time>
      </trkpt>
      <trkpt lat="49.97088" lon="5.32626">
        <ele>403.2</ele>
        <time>2025-04-20T16:03:13Z</time>
      </trkpt>
      <trkpt lat="49.97089" lon="5.32626">
        <ele>403.1</ele>
        <time>2025-04-20T16:03:14Z</time>
      </trkpt>
      <trkpt lat="49.97091" lon="5.32626">
        <ele>403</ele>
        <time>2025-04-20T16:03:15Z</time>
      </trkpt>
      <trkpt lat="49.97093" lon="5.32626">
        <ele>402.9</ele>
        <time>2025-04-20T16:03:16Z</time>
      </trkpt>
      <trkpt lat="49.97094" lon="5.32626">
        <ele>402.8</ele>
        <time>2025-04-20T16:03:17Z</time>
      </trkpt>
      <trkpt lat="49.97095" lon="5.32626">
        <ele>402.7</ele>
        <time>2025-04-20T16:03:18Z</time>
      </trkpt>
      <trkpt lat="49.97096" lon="5.32626">
        <ele>402.7</ele>
        <time>2025-04-20T16:03:19Z</time>
      </trkpt>
      <trkpt lat="49.97097" lon="5.32627">
        <ele>402.6</ele>
        <time>2025-04-20T16:03:20Z</time>
      </trkpt>
      <trkpt lat="49.97098" lon="5.32627">
        <ele>402.6</ele>
        <time>2025-04-20T16:03:21Z</time>
      </trkpt>
      <trkpt lat="49.97099" lon="5.32627">
        <ele>402.6</ele>
        <time>2025-04-20T16:03:22Z</time>
      </trkpt>
      <trkpt lat="49.971" lon="5.32628">
        <ele>402.5</ele>
        <time>2025-04-20T16:03:23Z</time>
      </trkpt>
      <trkpt lat="49.97101" lon="5.32628">
        <ele>402.5</ele>
        <time>2025-04-20T16:03:24Z</time>
      </trkpt>
      <trkpt lat="49.97102" lon="5.32629">
        <ele>402.6</ele>
        <time>2025-04-20T16:03:36Z</time>
      </trkpt>
      <trkpt lat="49.97103" lon="5.3263">
        <ele>402.6</ele>
        <time>2025-04-20T16:03:37Z</time>
      </trkpt>
      <trkpt lat="49.97104" lon="5.3263">
        <ele>402.7</ele>
        <time>2025-04-20T16:03:38Z</time>
      </trkpt>
      <trkpt lat="49.97105" lon="5.32631">
        <ele>402.7</ele>
        <time>2025-04-20T16:03:39Z</time>
      </trkpt>
      <trkpt lat="49.97106" lon="5.32631">
        <ele>402.7</ele>
        <time>2025-04-20T16:03:40Z</time>
      </trkpt>
      <trkpt lat="49.97107" lon="5.32631">
        <ele>402.7</ele>
        <time>2025-04-20T16:03:41Z</time>
      </trkpt>
      <trkpt lat="49.97108" lon="5.32632">
        <ele>402.8</ele>
        <time>2025-04-20T16:03:42Z</time>
      </trkpt>
      <trkpt lat="49.97109" lon="5.32632">
        <ele>402.8</ele>
        <time>2025-04-20T16:03:43Z</time>
      </trkpt>
      <trkpt lat="49.9711" lon="5.32633">
        <ele>402.9</ele>
        <time>2025-04-20T16:03:44Z</time>
      </trkpt>
      <trkpt lat="49.97111" lon="5.32633">
        <ele>403</ele>
        <time>2025-04-20T16:03:45Z</time>
      </trkpt>
      <trkpt lat="49.97112" lon="5.32634">
        <ele>403</ele>
        <time>2025-04-20T16:03:46Z</time>
      </trkpt>
      <trkpt lat="49.97112" lon="5.32635">
        <ele>402.9</ele>
        <time>2025-04-20T16:03:47Z</time>
      </trkpt>
      <trkpt lat="49.97113" lon="5.32635">
        <ele>402.9</ele>
        <time>2025-04-20T16:03:48Z</time>
      </trkpt>
      <trkpt lat="49.97114" lon="5.32636">
        <ele>402.9</ele>
        <time>2025-04-20T16:03:49Z</time>
      </trkpt>
      <trkpt lat="49.97115" lon="5.32637">
        <ele>402.8</ele>
        <time>2025-04-20T16:03:50Z</time>
      </trkpt>
      <trkpt lat="49.97116" lon="5.32638">
        <ele>402.8</ele>
        <time>2025-04-20T16:03:51Z</time>
      </trkpt>
      <trkpt lat="49.97117" lon="5.32639">
        <ele>402.8</ele>
        <time>2025-04-20T16:03:52Z</time>
      </trkpt>
      <trkpt lat="49.97117" lon="5.3264">
        <ele>402.5</ele>
        <time>2025-04-20T16:03:53Z</time>
      </trkpt>
      <trkpt lat="49.97118" lon="5.32641">
        <ele>402.1</ele>
        <time>2025-04-20T16:03:54Z</time>
      </trkpt>
      <trkpt lat="49.97119" lon="5.32642">
        <ele>401.8</ele>
        <time>2025-04-20T16:03:55Z</time>
      </trkpt>
      <trkpt lat="49.9712" lon="5.32643">
        <ele>401.4</ele>
        <time>2025-04-20T16:03:56Z</time>
      </trkpt>
      <trkpt lat="49.97121" lon="5.32644">
        <ele>401.1</ele>
        <time>2025-04-20T16:03:57Z</time>
      </trkpt>
      <trkpt lat="49.97122" lon="5.32645">
        <ele>400.8</ele>
        <time>2025-04-20T16:03:58Z</time>
      </trkpt>
      <trkpt lat="49.97123" lon="5.32647">
        <ele>400.5</ele>
        <time>2025-04-20T16:03:59Z</time>
      </trkpt>
      <trkpt lat="49.97125" lon="5.32648">
        <ele>400.3</ele>
        <time>2025-04-20T16:04:00Z</time>
      </trkpt>
      <trkpt lat="49.97126" lon="5.32649">
        <ele>400</ele>
        <time>2025-04-20T16:04:01Z</time>
      </trkpt>
      <trkpt lat="49.97127" lon="5.3265">
        <ele>399.9</ele>
        <time>2025-04-20T16:04:02Z</time>
      </trkpt>
      <trkpt lat="49.97128" lon="5.32651">
        <ele>399.7</ele>
        <time>2025-04-20T16:04:03Z</time>
      </trkpt>
      <trkpt lat="49.97129" lon="5.32652">
        <ele>399.6</ele>
        <time>2025-04-20T16:04:04Z</time>
      </trkpt>
      <trkpt lat="49.9713" lon="5.32653">
        <ele>399.5</ele>
        <time>2025-04-20T16:04:05Z</time>
      </trkpt>
      <trkpt lat="49.97131" lon="5.32654">
        <ele>399.4</ele>
        <time>2025-04-20T16:04:06Z</time>
      </trkpt>
      <trkpt lat="49.97132" lon="5.32655">
        <ele>399.4</ele>
        <time>2025-04-20T16:04:07Z</time>
      </trkpt>
      <trkpt lat="49.97133" lon="5.32657">
        <ele>399.3</ele>
        <time>2025-04-20T16:04:08Z</time>
      </trkpt>
      <trkpt lat="49.97134" lon="5.32658">
        <ele>399.3</ele>
        <time>2025-04-20T16:04:09Z</time>
      </trkpt>
      <trkpt lat="49.97135" lon="5.32658">
        <ele>399.4</ele>
        <time>2025-04-20T16:04:10Z</time>
      </trkpt>
      <trkpt lat="49.97136" lon="5.32659">
        <ele>399.4</ele>
        <time>2025-04-20T16:04:11Z</time>
      </trkpt>
      <trkpt lat="49.97137" lon="5.3266">
        <ele>399.5</ele>
        <time>2025-04-20T16:04:12Z</time>
      </trkpt>
      <trkpt lat="49.97138" lon="5.32661">
        <ele>399.5</ele>
        <time>2025-04-20T16:04:13Z</time>
      </trkpt>
      <trkpt lat="49.97139" lon="5.32661">
        <ele>399.6</ele>
        <time>2025-04-20T16:04:14Z</time>
      </trkpt>
      <trkpt lat="49.9714" lon="5.32662">
        <ele>399.5</ele>
        <time>2025-04-20T16:04:15Z</time>
      </trkpt>
      <trkpt lat="49.97141" lon="5.32663">
        <ele>399.5</ele>
        <time>2025-04-20T16:04:16Z</time>
      </trkpt>
      <trkpt lat="49.97142" lon="5.32664">
        <ele>399.5</ele>
        <time>2025-04-20T16:04:17Z</time>
      </trkpt>
      <trkpt lat="49.97143" lon="5.32666">
        <ele>399.6</ele>
        <time>2025-04-20T16:04:18Z</time>
      </trkpt>
      <trkpt lat="49.97144" lon="5.32667">
        <ele>399.6</ele>
        <time>2025-04-20T16:04:19Z</time>
      </trkpt>
      <trkpt lat="49.97145" lon="5.32668">
        <ele>399.2</ele>
        <time>2025-04-20T16:04:20Z</time>
      </trkpt>
      <trkpt lat="49.97146" lon="5.32669">
        <ele>398.9</ele>
        <time>2025-04-20T16:04:21Z</time>
      </trkpt>
      <trkpt lat="49.97147" lon="5.3267">
        <ele>398.6</ele>
        <time>2025-04-20T16:04:22Z</time>
      </trkpt>
      <trkpt lat="49.97148" lon="5.3267">
        <ele>398.4</ele>
        <time>2025-04-20T16:04:23Z</time>
      </trkpt>
      <trkpt lat="49.97148" lon="5.32671">
        <ele>398.1</ele>
        <time>2025-04-20T16:04:24Z</time>
      </trkpt>
      <trkpt lat="49.97149" lon="5.32672">
        <ele>397.9</ele>
        <time>2025-04-20T16:04:25Z</time>
      </trkpt>
      <trkpt lat="49.9715" lon="5.32673">
        <ele>397.7</ele>
        <time>2025-04-20T16:04:26Z</time>
      </trkpt>
      <trkpt lat="49.97152" lon="5.32673">
        <ele>397.5</ele>
        <time>2025-04-20T16:04:27Z</time>
      </trkpt>
      <trkpt lat="49.97153" lon="5.32674">
        <ele>397.3</ele>
        <time>2025-04-20T16:04:28Z</time>
      </trkpt>
      <trkpt lat="49.97154" lon="5.32674">
        <ele>397.2</ele>
        <time>2025-04-20T16:04:29Z</time>
      </trkpt>
      <trkpt lat="49.97155" lon="5.32675">
        <ele>397</ele>
        <time>2025-04-20T16:04:30Z</time>
      </trkpt>
      <trkpt lat="49.97156" lon="5.32675">
        <ele>396.9</ele>
        <time>2025-04-20T16:04:31Z</time>
      </trkpt>
      <trkpt lat="49.97157" lon="5.32676">
        <ele>396.8</ele>
        <time>2025-04-20T16:04:32Z</time>
      </trkpt>
      <trkpt lat="49.97158" lon="5.32676">
        <ele>396.7</ele>
        <time>2025-04-20T16:04:33Z</time>
      </trkpt>
      <trkpt lat="49.97159" lon="5.32677">
        <ele>396.6</ele>
        <time>2025-04-20T16:04:34Z</time>
      </trkpt>
      <trkpt lat="49.97159" lon="5.32677">
        <ele>396.6</ele>
        <time>2025-04-20T16:04:35Z</time>
      </trkpt>
      <trkpt lat="49.9716" lon="5.32677">
        <ele>396.6</ele>
        <time>2025-04-20T16:04:36Z</time>
      </trkpt>
      <trkpt lat="49.9716" lon="5.32677">
        <ele>396.5</ele>
        <time>2025-04-20T16:04:37Z</time>
      </trkpt>
      <trkpt lat="49.97161" lon="5.32679">
        <ele>396.3</ele>
        <time>2025-04-20T16:05:05Z</time>
      </trkpt>
      <trkpt lat="49.97162" lon="5.32679">
        <ele>396.2</ele>
        <time>2025-04-20T16:05:06Z</time>
      </trkpt>
      <trkpt lat="49.97162" lon="5.3268">
        <ele>396.1</ele>
        <time>2025-04-20T16:05:07Z</time>
      </trkpt>
      <trkpt lat="49.97163" lon="5.3268">
        <ele>396</ele>
        <time>2025-04-20T16:05:08Z</time>
      </trkpt>
      <trkpt lat="49.97163" lon="5.32681">
        <ele>395.9</ele>
        <time>2025-04-20T16:05:09Z</time>
      </trkpt>
      <trkpt lat="49.97164" lon="5.32681">
        <ele>395.8</ele>
        <time>2025-04-20T16:05:10Z</time>
      </trkpt>
      <trkpt lat="49.97165" lon="5.32682">
        <ele>395.8</ele>
        <time>2025-04-20T16:05:11Z</time>
      </trkpt>
      <trkpt lat="49.97166" lon="5.32683">
        <ele>395.7</ele>
        <time>2025-04-20T16:05:12Z</time>
      </trkpt>
      <trkpt lat="49.97167" lon="5.32683">
        <ele>395.6</ele>
        <time>2025-04-20T16:05:13Z</time>
      </trkpt>
      <trkpt lat="49.97168" lon="5.32684">
        <ele>395.3</ele>
        <time>2025-04-20T16:05:14Z</time>
      </trkpt>
      <trkpt lat="49.9717" lon="5.32684">
        <ele>395</ele>
        <time>2025-04-20T16:05:15Z</time>
      </trkpt>
      <trkpt lat="49.97171" lon="5.32685">
        <ele>394.7</ele>
        <time>2025-04-20T16:05:16Z</time>
      </trkpt>
      <trkpt lat="49.97172" lon="5.32685">
        <ele>394.4</ele>
        <time>2025-04-20T16:05:17Z</time>
      </trkpt>
      <trkpt lat="49.97173" lon="5.32686">
        <ele>394.1</ele>
        <time>2025-04-20T16:05:18Z</time>
      </trkpt>
      <trkpt lat="49.97174" lon="5.32686">
        <ele>393.9</ele>
        <time>2025-04-20T16:05:19Z</time>
      </trkpt>
      <trkpt lat="49.97175" lon="5.32687">
        <ele>393.7</ele>
        <time>2025-04-20T16:05:20Z</time>
      </trkpt>
      <trkpt lat="49.97176" lon="5.32688">
        <ele>393.5</ele>
        <time>2025-04-20T16:05:21Z</time>
      </trkpt>
      <trkpt lat="49.97177" lon="5.32689">
        <ele>393.3</ele>
        <time>2025-04-20T16:05:22Z</time>
      </trkpt>
      <trkpt lat="49.97177" lon="5.3269">
        <ele>393.1</ele>
        <time>2025-04-20T16:05:23Z</time>
      </trkpt>
      <trkpt lat="49.97178" lon="5.32691">
        <ele>393</ele>
        <time>2025-04-20T16:05:24Z</time>
      </trkpt>
      <trkpt lat="49.97179" lon="5.32692">
        <ele>392.8</ele>
        <time>2025-04-20T16:05:25Z</time>
      </trkpt>
      <trkpt lat="49.97179" lon="5.32693">
        <ele>392.7</ele>
        <time>2025-04-20T16:05:26Z</time>
      </trkpt>
      <trkpt lat="49.9718" lon="5.32694">
        <ele>392.6</ele>
        <time>2025-04-20T16:05:27Z</time>
      </trkpt>
      <trkpt lat="49.9718" lon="5.32694">
        <ele>392.5</ele>
        <time>2025-04-20T16:05:28Z</time>
      </trkpt>
      <trkpt lat="49.97181" lon="5.32695">
        <ele>392.3</ele>
        <time>2025-04-20T16:05:29Z</time>
      </trkpt>
      <trkpt lat="49.97182" lon="5.32696">
        <ele>392.1</ele>
        <time>2025-04-20T16:05:30Z</time>
      </trkpt>
      <trkpt lat="49.97183" lon="5.32697">
        <ele>391.8</ele>
        <time>2025-04-20T16:05:31Z</time>
      </trkpt>
      <trkpt lat="49.97184" lon="5.32697">
        <ele>391.6</ele>
        <time>2025-04-20T16:05:32Z</time>
      </trkpt>
      <trkpt lat="49.97185" lon="5.32698">
        <ele>391.4</ele>
        <time>2025-04-20T16:05:33Z</time>
      </trkpt>
      <trkpt lat="49.97186" lon="5.32699">
        <ele>391.1</ele>
        <time>2025-04-20T16:05:34Z</time>
      </trkpt>
      <trkpt lat="49.97187" lon="5.327">
        <ele>390.9</ele>
        <time>2025-04-20T16:05:35Z</time>
      </trkpt>
      <trkpt lat="49.97188" lon="5.32701">
        <ele>390.7</ele>
        <time>2025-04-20T16:05:36Z</time>
      </trkpt>
      <trkpt lat="49.97189" lon="5.32702">
        <ele>390.5</ele>
        <time>2025-04-20T16:05:37Z</time>
      </trkpt>
      <trkpt lat="49.9719" lon="5.32703">
        <ele>390.4</ele>
        <time>2025-04-20T16:05:38Z</time>
      </trkpt>
      <trkpt lat="49.97191" lon="5.32703">
        <ele>390.2</ele>
        <time>2025-04-20T16:05:39Z</time>
      </trkpt>
      <trkpt lat="49.97191" lon="5.32705">
        <ele>390</ele>
        <time>2025-04-20T16:05:40Z</time>
      </trkpt>
      <trkpt lat="49.97192" lon="5.32706">
        <ele>389.9</ele>
        <time>2025-04-20T16:05:41Z</time>
      </trkpt>
      <trkpt lat="49.97192" lon="5.32707">
        <ele>389.7</ele>
        <time>2025-04-20T16:05:42Z</time>
      </trkpt>
      <trkpt lat="49.97192" lon="5.32709">
        <ele>389.4</ele>
        <time>2025-04-20T16:05:43Z</time>
      </trkpt>
      <trkpt lat="49.97193" lon="5.32711">
        <ele>389.2</ele>
        <time>2025-04-20T16:05:44Z</time>
      </trkpt>
      <trkpt lat="49.97193" lon="5.32713">
        <ele>389</ele>
        <time>2025-04-20T16:05:45Z</time>
      </trkpt>
      <trkpt lat="49.97193" lon="5.32714">
        <ele>388.8</ele>
        <time>2025-04-20T16:05:46Z</time>
      </trkpt>
      <trkpt lat="49.97194" lon="5.32716">
        <ele>388.7</ele>
        <time>2025-04-20T16:05:47Z</time>
      </trkpt>
      <trkpt lat="49.97194" lon="5.32717">
        <ele>388.6</ele>
        <time>2025-04-20T16:05:48Z</time>
      </trkpt>
      <trkpt lat="49.97194" lon="5.32718">
        <ele>388.4</ele>
        <time>2025-04-20T16:05:49Z</time>
      </trkpt>
      <trkpt lat="49.97194" lon="5.32719">
        <ele>388.3</ele>
        <time>2025-04-20T16:05:50Z</time>
      </trkpt>
      <trkpt lat="49.97194" lon="5.3272">
        <ele>388.2</ele>
        <time>2025-04-20T16:05:51Z</time>
      </trkpt>
      <trkpt lat="49.97194" lon="5.32721">
        <ele>388</ele>
        <time>2025-04-20T16:05:52Z</time>
      </trkpt>
      <trkpt lat="49.97194" lon="5.32723">
        <ele>387.8</ele>
        <time>2025-04-20T16:05:53Z</time>
      </trkpt>
      <trkpt lat="49.97193" lon="5.32724">
        <ele>387.5</ele>
        <time>2025-04-20T16:05:54Z</time>
      </trkpt>
      <trkpt lat="49.97193" lon="5.32726">
        <ele>387.1</ele>
        <time>2025-04-20T16:05:55Z</time>
      </trkpt>
      <trkpt lat="49.97193" lon="5.32727">
        <ele>387</ele>
        <time>2025-04-20T16:05:56Z</time>
      </trkpt>
      <trkpt lat="49.97192" lon="5.32727">
        <ele>386.8</ele>
        <time>2025-04-20T16:05:57Z</time>
      </trkpt>
      <trkpt lat="49.97192" lon="5.32728">
        <ele>386.6</ele>
        <time>2025-04-20T16:05:58Z</time>
      </trkpt>
      <trkpt lat="49.97192" lon="5.32729">
        <ele>386.5</ele>
        <time>2025-04-20T16:05:59Z</time>
      </trkpt>
      <trkpt lat="49.97192" lon="5.3273">
        <ele>386.3</ele>
        <time>2025-04-20T16:06:00Z</time>
      </trkpt>
      <trkpt lat="49.97192" lon="5.32731">
        <ele>386.1</ele>
        <time>2025-04-20T16:06:01Z</time>
      </trkpt>
      <trkpt lat="49.97192" lon="5.32731">
        <ele>385.9</ele>
        <time>2025-04-20T16:06:02Z</time>
      </trkpt>
      <trkpt lat="49.97192" lon="5.32732">
        <ele>385.7</ele>
        <time>2025-04-20T16:06:03Z</time>
      </trkpt>
      <trkpt lat="49.97193" lon="5.32733">
        <ele>385.6</ele>
        <time>2025-04-20T16:06:04Z</time>
      </trkpt>
      <trkpt lat="49.97193" lon="5.32734">
        <ele>385.4</ele>
        <time>2025-04-20T16:06:05Z</time>
      </trkpt>
      <trkpt lat="49.97194" lon="5.32735">
        <ele>385.3</ele>
        <time>2025-04-20T16:06:06Z</time>
      </trkpt>
      <trkpt lat="49.97194" lon="5.32736">
        <ele>385.1</ele>
        <time>2025-04-20T16:06:07Z</time>
      </trkpt>
      <trkpt lat="49.97196" lon="5.32736">
        <ele>384.7</ele>
        <time>2025-04-20T16:06:13Z</time>
      </trkpt>
      <trkpt lat="49.97196" lon="5.32736">
        <ele>384.6</ele>
        <time>2025-04-20T16:06:14Z</time>
      </trkpt>
      <trkpt lat="49.97197" lon="5.32736">
        <ele>384.4</ele>
        <time>2025-04-20T16:06:15Z</time>
      </trkpt>
      <trkpt lat="49.97198" lon="5.32737">
        <ele>384.2</ele>
        <time>2025-04-20T16:06:16Z</time>
      </trkpt>
      <trkpt lat="49.97199" lon="5.32736">
        <ele>384.1</ele>
        <time>2025-04-20T16:06:17Z</time>
      </trkpt>
      <trkpt lat="49.972" lon="5.32736">
        <ele>383.9</ele>
        <time>2025-04-20T16:06:18Z</time>
      </trkpt>
      <trkpt lat="49.97201" lon="5.32736">
        <ele>383.8</ele>
        <time>2025-04-20T16:06:19Z</time>
      </trkpt>
      <trkpt lat="49.97202" lon="5.32736">
        <ele>383.5</ele>
        <time>2025-04-20T16:06:20Z</time>
      </trkpt>
      <trkpt lat="49.97203" lon="5.32736">
        <ele>383.3</ele>
        <time>2025-04-20T16:06:21Z</time>
      </trkpt>
      <trkpt lat="49.97204" lon="5.32736">
        <ele>383.1</ele>
        <time>2025-04-20T16:06:22Z</time>
      </trkpt>
      <trkpt lat="49.97205" lon="5.32736">
        <ele>382.9</ele>
        <time>2025-04-20T16:06:23Z</time>
      </trkpt>
      <trkpt lat="49.97206" lon="5.32737">
        <ele>382.6</ele>
        <time>2025-04-20T16:06:24Z</time>
      </trkpt>
      <trkpt lat="49.97206" lon="5.32737">
        <ele>382.4</ele>
        <time>2025-04-20T16:06:25Z</time>
      </trkpt>
      <trkpt lat="49.97207" lon="5.32738">
        <ele>382.2</ele>
        <time>2025-04-20T16:06:26Z</time>
      </trkpt>
      <trkpt lat="49.97208" lon="5.32738">
        <ele>381.9</ele>
        <time>2025-04-20T16:06:27Z</time>
      </trkpt>
      <trkpt lat="49.97209" lon="5.32738">
        <ele>381.7</ele>
        <time>2025-04-20T16:06:28Z</time>
      </trkpt>
      <trkpt lat="49.9721" lon="5.32739">
        <ele>381.5</ele>
        <time>2025-04-20T16:06:29Z</time>
      </trkpt>
      <trkpt lat="49.97211" lon="5.32738">
        <ele>381.2</ele>
        <time>2025-04-20T16:06:30Z</time>
      </trkpt>
      <trkpt lat="49.97213" lon="5.32738">
        <ele>381</ele>
        <time>2025-04-20T16:06:31Z</time>
      </trkpt>
      <trkpt lat="49.97214" lon="5.32737">
        <ele>380.9</ele>
        <time>2025-04-20T16:06:32Z</time>
      </trkpt>
      <trkpt lat="49.97216" lon="5.32736">
        <ele>380.8</ele>
        <time>2025-04-20T16:06:33Z</time>
      </trkpt>
      <trkpt lat="49.97217" lon="5.32735">
        <ele>380.8</ele>
        <time>2025-04-20T16:06:34Z</time>
      </trkpt>
      <trkpt lat="49.97218" lon="5.32734">
        <ele>380.7</ele>
        <time>2025-04-20T16:06:35Z</time>
      </trkpt>
      <trkpt lat="49.97219" lon="5.32732">
        <ele>380.7</ele>
        <time>2025-04-20T16:06:36Z</time>
      </trkpt>
      <trkpt lat="49.97221" lon="5.32731">
        <ele>380.8</ele>
        <time>2025-04-20T16:06:37Z</time>
      </trkpt>
      <trkpt lat="49.97222" lon="5.3273">
        <ele>380.8</ele>
        <time>2025-04-20T16:06:38Z</time>
      </trkpt>
      <trkpt lat="49.97223" lon="5.32728">
        <ele>380.8</ele>
        <time>2025-04-20T16:06:39Z</time>
      </trkpt>
      <trkpt lat="49.97224" lon="5.32727">
        <ele>380.9</ele>
        <time>2025-04-20T16:06:40Z</time>
      </trkpt>
      <trkpt lat="49.97224" lon="5.32726">
        <ele>380.9</ele>
        <time>2025-04-20T16:06:41Z</time>
      </trkpt>
      <trkpt lat="49.97225" lon="5.32725">
        <ele>381</ele>
        <time>2025-04-20T16:06:42Z</time>
      </trkpt>
      <trkpt lat="49.97226" lon="5.32724">
        <ele>381.1</ele>
        <time>2025-04-20T16:06:43Z</time>
      </trkpt>
      <trkpt lat="49.97226" lon="5.32722">
        <ele>381.3</ele>
        <time>2025-04-20T16:06:44Z</time>
      </trkpt>
      <trkpt lat="49.97227" lon="5.32721">
        <ele>381.2</ele>
        <time>2025-04-20T16:06:45Z</time>
      </trkpt>
      <trkpt lat="49.97227" lon="5.3272">
        <ele>381.1</ele>
        <time>2025-04-20T16:06:46Z</time>
      </trkpt>
      <trkpt lat="49.97227" lon="5.32718">
        <ele>381</ele>
        <time>2025-04-20T16:06:47Z</time>
      </trkpt>
      <trkpt lat="49.97228" lon="5.32717">
        <ele>380.9</ele>
        <time>2025-04-20T16:06:48Z</time>
      </trkpt>
      <trkpt lat="49.97228" lon="5.32715">
        <ele>380.8</ele>
        <time>2025-04-20T16:06:49Z</time>
      </trkpt>
      <trkpt lat="49.97229" lon="5.32714">
        <ele>380.7</ele>
        <time>2025-04-20T16:06:50Z</time>
      </trkpt>
      <trkpt lat="49.97229" lon="5.32712">
        <ele>380.6</ele>
        <time>2025-04-20T16:06:51Z</time>
      </trkpt>
      <trkpt lat="49.97229" lon="5.3271">
        <ele>380.6</ele>
        <time>2025-04-20T16:06:52Z</time>
      </trkpt>
      <trkpt lat="49.97229" lon="5.32709">
        <ele>380.6</ele>
        <time>2025-04-20T16:06:53Z</time>
      </trkpt>
      <trkpt lat="49.97229" lon="5.32708">
        <ele>380.6</ele>
        <time>2025-04-20T16:06:54Z</time>
      </trkpt>
      <trkpt lat="49.97228" lon="5.32707">
        <ele>380.6</ele>
        <time>2025-04-20T16:06:55Z</time>
      </trkpt>
      <trkpt lat="49.97228" lon="5.32705">
        <ele>380.6</ele>
        <time>2025-04-20T16:07:06Z</time>
      </trkpt>
      <trkpt lat="49.97228" lon="5.32704">
        <ele>380.6</ele>
        <time>2025-04-20T16:07:07Z</time>
      </trkpt>
      <trkpt lat="49.97228" lon="5.32704">
        <ele>380.6</ele>
        <time>2025-04-20T16:07:08Z</time>
      </trkpt>
      <trkpt lat="49.97228" lon="5.32703">
        <ele>380.6</ele>
        <time>2025-04-20T16:07:09Z</time>
      </trkpt>
      <trkpt lat="49.97228" lon="5.32703">
        <ele>380.6</ele>
        <time>2025-04-20T16:07:10Z</time>
      </trkpt>
      <trkpt lat="49.97228" lon="5.32703">
        <ele>380.6</ele>
        <time>2025-04-20T16:07:11Z</time>
      </trkpt>
      <trkpt lat="49.97227" lon="5.32702">
        <ele>380.6</ele>
        <time>2025-04-20T16:07:12Z</time>
      </trkpt>
      <trkpt lat="49.97228" lon="5.32702">
        <ele>380.6</ele>
        <time>2025-04-20T16:07:13Z</time>
      </trkpt>
      <trkpt lat="49.97228" lon="5.32702">
        <ele>380.5</ele>
        <time>2025-04-20T16:07:14Z</time>
      </trkpt>
      <trkpt lat="49.97228" lon="5.32702">
        <ele>380.5</ele>
        <time>2025-04-20T16:07:15Z</time>
      </trkpt>
      <trkpt lat="49.97228" lon="5.32702">
        <ele>380.5</ele>
        <time>2025-04-20T16:07:16Z</time>
      </trkpt>
      <trkpt lat="49.97229" lon="5.32703">
        <ele>380.4</ele>
        <time>2025-04-20T16:07:17Z</time>
      </trkpt>
      <trkpt lat="49.97229" lon="5.32703">
        <ele>380.4</ele>
        <time>2025-04-20T16:07:18Z</time>
      </trkpt>
      <trkpt lat="49.9723" lon="5.32703">
        <ele>380.3</ele>
        <time>2025-04-20T16:07:19Z</time>
      </trkpt>
      <trkpt lat="49.9723" lon="5.32703">
        <ele>380.3</ele>
        <time>2025-04-20T16:08:33Z</time>
      </trkpt>
      <trkpt lat="49.97229" lon="5.32702">
        <ele>380.4</ele>
        <time>2025-04-20T16:08:34Z</time>
      </trkpt>
      <trkpt lat="49.97229" lon="5.32702">
        <ele>380.4</ele>
        <time>2025-04-20T16:08:35Z</time>
      </trkpt>
      <trkpt lat="49.97228" lon="5.32702">
        <ele>380.5</ele>
        <time>2025-04-20T16:08:36Z</time>
      </trkpt>
      <trkpt lat="49.97228" lon="5.32701">
        <ele>380.6</ele>
        <time>2025-04-20T16:08:37Z</time>
      </trkpt>
      <trkpt lat="49.97227" lon="5.32701">
        <ele>380.6</ele>
        <time>2025-04-20T16:08:38Z</time>
      </trkpt>
      <trkpt lat="49.97227" lon="5.32701">
        <ele>380.7</ele>
        <time>2025-04-20T16:08:39Z</time>
      </trkpt>
      <trkpt lat="49.97226" lon="5.32701">
        <ele>380.8</ele>
        <time>2025-04-20T16:08:40Z</time>
      </trkpt>
      <trkpt lat="49.97226" lon="5.32701">
        <ele>380.8</ele>
        <time>2025-04-20T16:08:41Z</time>
      </trkpt>
      <trkpt lat="49.97226" lon="5.32702">
        <ele>380.7</ele>
        <time>2025-04-20T16:08:42Z</time>
      </trkpt>
      <trkpt lat="49.97225" lon="5.32702">
        <ele>381</ele>
        <time>2025-04-20T16:10:26Z</time>
      </trkpt>
      <trkpt lat="49.97224" lon="5.32702">
        <ele>381</ele>
        <time>2025-04-20T16:10:27Z</time>
      </trkpt>
      <trkpt lat="49.97224" lon="5.32702">
        <ele>381.1</ele>
        <time>2025-04-20T16:10:28Z</time>
      </trkpt>
      <trkpt lat="49.97223" lon="5.32701">
        <ele>381.1</ele>
        <time>2025-04-20T16:10:37Z</time>
      </trkpt>
      <trkpt lat="49.97223" lon="5.32701">
        <ele>381.1</ele>
        <time>2025-04-20T16:10:38Z</time>
      </trkpt>
      <trkpt lat="49.97223" lon="5.32701">
        <ele>381.1</ele>
        <time>2025-04-20T16:10:39Z</time>
      </trkpt>
      <trkpt lat="49.97223" lon="5.327">
        <ele>381.2</ele>
        <time>2025-04-20T16:10:59Z</time>
      </trkpt>
      <trkpt lat="49.97223" lon="5.327">
        <ele>381.2</ele>
        <time>2025-04-20T16:11:00Z</time>
      </trkpt>
      <trkpt lat="49.97223" lon="5.32701">
        <ele>381.2</ele>
        <time>2025-04-20T16:11:01Z</time>
      </trkpt>
      <trkpt lat="49.97223" lon="5.32701">
        <ele>381.1</ele>
        <time>2025-04-20T16:11:02Z</time>
      </trkpt>
      <trkpt lat="49.97223" lon="5.32701">
        <ele>381.1</ele>
        <time>2025-04-20T16:11:03Z</time>
      </trkpt>
      <trkpt lat="49.97224" lon="5.32701">
        <ele>381</ele>
        <time>2025-04-20T16:11:13Z</time>
      </trkpt>
      <trkpt lat="49.97225" lon="5.32701">
        <ele>380.9</ele>
        <time>2025-04-20T16:11:14Z</time>
      </trkpt>
      <trkpt lat="49.97226" lon="5.327">
        <ele>380.8</ele>
        <time>2025-04-20T16:11:15Z</time>
      </trkpt>
      <trkpt lat="49.97227" lon="5.327">
        <ele>380.7</ele>
        <time>2025-04-20T16:11:16Z</time>
      </trkpt>
      <trkpt lat="49.97227" lon="5.327">
        <ele>380.7</ele>
        <time>2025-04-20T16:11:17Z</time>
      </trkpt>
      <trkpt lat="49.97227" lon="5.32701">
        <ele>380.6</ele>
        <time>2025-04-20T16:11:18Z</time>
      </trkpt>
      <trkpt lat="49.97227" lon="5.32701">
        <ele>380.6</ele>
        <time>2025-04-20T16:11:19Z</time>
      </trkpt>
      <trkpt lat="49.97227" lon="5.32701">
        <ele>380.6</ele>
        <time>2025-04-20T16:11:20Z</time>
      </trkpt>
      <trkpt lat="49.97228" lon="5.32701">
        <ele>380.6</ele>
        <time>2025-04-20T16:11:21Z</time>
      </trkpt>
      <trkpt lat="49.97227" lon="5.32701">
        <ele>380.6</ele>
        <time>2025-04-20T16:11:22Z</time>
      </trkpt>
      <trkpt lat="49.97227" lon="5.327">
        <ele>380.6</ele>
        <time>2025-04-20T16:11:23Z</time>
      </trkpt>
      <trkpt lat="49.97228" lon="5.32699">
        <ele>380.5</ele>
        <time>2025-04-20T16:11:58Z</time>
      </trkpt>
      <trkpt lat="49.97228" lon="5.32699">
        <ele>380.4</ele>
        <time>2025-04-20T16:11:59Z</time>
      </trkpt>
      <trkpt lat="49.97229" lon="5.32698">
        <ele>380.3</ele>
        <time>2025-04-20T16:12:00Z</time>
      </trkpt>
      <trkpt lat="49.97229" lon="5.32698">
        <ele>380.3</ele>
        <time>2025-04-20T16:12:01Z</time>
      </trkpt>
      <trkpt lat="49.9723" lon="5.32698">
        <ele>380.2</ele>
        <time>2025-04-20T16:12:02Z</time>
      </trkpt>
      <trkpt lat="49.9723" lon="5.32698">
        <ele>380.2</ele>
        <time>2025-04-20T16:12:03Z</time>
      </trkpt>
      <trkpt lat="49.97231" lon="5.32696">
        <ele>380.1</ele>
        <time>2025-04-20T16:12:15Z</time>
      </trkpt>
      <trkpt lat="49.97232" lon="5.32695">
        <ele>380</ele>
        <time>2025-04-20T16:12:16Z</time>
      </trkpt>
      <trkpt lat="49.97232" lon="5.32694">
        <ele>379.9</ele>
        <time>2025-04-20T16:12:17Z</time>
      </trkpt>
      <trkpt lat="49.97233" lon="5.32694">
        <ele>379.8</ele>
        <time>2025-04-20T16:12:18Z</time>
      </trkpt>
      <trkpt lat="49.97233" lon="5.32693">
        <ele>379.7</ele>
        <time>2025-04-20T16:12:19Z</time>
      </trkpt>
      <trkpt lat="49.97234" lon="5.32692">
        <ele>379.7</ele>
        <time>2025-04-20T16:12:20Z</time>
      </trkpt>
      <trkpt lat="49.97234" lon="5.32691">
        <ele>379.6</ele>
        <time>2025-04-20T16:12:21Z</time>
      </trkpt>
      <trkpt lat="49.97236" lon="5.3269">
        <ele>379.4</ele>
        <time>2025-04-20T16:12:39Z</time>
      </trkpt>
      <trkpt lat="49.97237" lon="5.32689">
        <ele>379.3</ele>
        <time>2025-04-20T16:12:40Z</time>
      </trkpt>
      <trkpt lat="49.97238" lon="5.32688">
        <ele>379.2</ele>
        <time>2025-04-20T16:12:41Z</time>
      </trkpt>
      <trkpt lat="49.97239" lon="5.32687">
        <ele>379.1</ele>
        <time>2025-04-20T16:12:42Z</time>
      </trkpt>
      <trkpt lat="49.9724" lon="5.32686">
        <ele>379.1</ele>
        <time>2025-04-20T16:12:43Z</time>
      </trkpt>
      <trkpt lat="49.97241" lon="5.32686">
        <ele>379</ele>
        <time>2025-04-20T16:12:44Z</time>
      </trkpt>
      <trkpt lat="49.97242" lon="5.32685">
        <ele>378.9</ele>
        <time>2025-04-20T16:12:45Z</time>
      </trkpt>
      <trkpt lat="49.97243" lon="5.32685">
        <ele>378.9</ele>
        <time>2025-04-20T16:12:46Z</time>
      </trkpt>
      <trkpt lat="49.97244" lon="5.32684">
        <ele>378.8</ele>
        <time>2025-04-20T16:12:47Z</time>
      </trkpt>
      <trkpt lat="49.97245" lon="5.32684">
        <ele>378.7</ele>
        <time>2025-04-20T16:12:48Z</time>
      </trkpt>
      <trkpt lat="49.97246" lon="5.32684">
        <ele>378.7</ele>
        <time>2025-04-20T16:12:49Z</time>
      </trkpt>
      <trkpt lat="49.97247" lon="5.32683">
        <ele>378.6</ele>
        <time>2025-04-20T16:12:50Z</time>
      </trkpt>
      <trkpt lat="49.97248" lon="5.32683">
        <ele>378.5</ele>
        <time>2025-04-20T16:12:51Z</time>
      </trkpt>
      <trkpt lat="49.97249" lon="5.32682">
        <ele>378.5</ele>
        <time>2025-04-20T16:12:52Z</time>
      </trkpt>
      <trkpt lat="49.9725" lon="5.32681">
        <ele>378.5</ele>
        <time>2025-04-20T16:12:53Z</time>
      </trkpt>
      <trkpt lat="49.97251" lon="5.3268">
        <ele>378.5</ele>
        <time>2025-04-20T16:12:54Z</time>
      </trkpt>
      <trkpt lat="49.97252" lon="5.32679">
        <ele>378.5</ele>
        <time>2025-04-20T16:12:55Z</time>
      </trkpt>
      <trkpt lat="49.97253" lon="5.32678">
        <ele>378.5</ele>
        <time>2025-04-20T16:12:56Z</time>
      </trkpt>
      <trkpt lat="49.97254" lon="5.32677">
        <ele>378.5</ele>
        <time>2025-04-20T16:12:57Z</time>
      </trkpt>
      <trkpt lat="49.97255" lon="5.32676">
        <ele>378.6</ele>
        <time>2025-04-20T16:12:58Z</time>
      </trkpt>
      <trkpt lat="49.97256" lon="5.32674">
        <ele>378.6</ele>
        <time>2025-04-20T16:12:59Z</time>
      </trkpt>
      <trkpt lat="49.97256" lon="5.32673">
        <ele>378.7</ele>
        <time>2025-04-20T16:13:00Z</time>
      </trkpt>
      <trkpt lat="49.97257" lon="5.32671">
        <ele>378.8</ele>
        <time>2025-04-20T16:13:01Z</time>
      </trkpt>
      <trkpt lat="49.97258" lon="5.32669">
        <ele>378.8</ele>
        <time>2025-04-20T16:13:02Z</time>
      </trkpt>
      <trkpt lat="49.97259" lon="5.32668">
        <ele>378.9</ele>
        <time>2025-04-20T16:13:03Z</time>
      </trkpt>
      <trkpt lat="49.97259" lon="5.32668">
        <ele>378.9</ele>
        <time>2025-04-20T16:13:04Z</time>
      </trkpt>
      <trkpt lat="49.9726" lon="5.32667">
        <ele>379</ele>
        <time>2025-04-20T16:13:05Z</time>
      </trkpt>
      <trkpt lat="49.97261" lon="5.32666">
        <ele>379</ele>
        <time>2025-04-20T16:13:06Z</time>
      </trkpt>
      <trkpt lat="49.97262" lon="5.32665">
        <ele>379</ele>
        <time>2025-04-20T16:13:07Z</time>
      </trkpt>
      <trkpt lat="49.97262" lon="5.32664">
        <ele>379</ele>
        <time>2025-04-20T16:13:08Z</time>
      </trkpt>
      <trkpt lat="49.97263" lon="5.32663">
        <ele>379.1</ele>
        <time>2025-04-20T16:13:09Z</time>
      </trkpt>
      <trkpt lat="49.97263" lon="5.32662">
        <ele>379.1</ele>
        <time>2025-04-20T16:13:10Z</time>
      </trkpt>
      <trkpt lat="49.97264" lon="5.32661">
        <ele>379.1</ele>
        <time>2025-04-20T16:13:11Z</time>
      </trkpt>
      <trkpt lat="49.97264" lon="5.32659">
        <ele>379.1</ele>
        <time>2025-04-20T16:13:12Z</time>
      </trkpt>
      <trkpt lat="49.97265" lon="5.32658">
        <ele>379.1</ele>
        <time>2025-04-20T16:13:13Z</time>
      </trkpt>
      <trkpt lat="49.97265" lon="5.32657">
        <ele>379.2</ele>
        <time>2025-04-20T16:13:14Z</time>
      </trkpt>
      <trkpt lat="49.97265" lon="5.32656">
        <ele>379.2</ele>
        <time>2025-04-20T16:13:15Z</time>
      </trkpt>
      <trkpt lat="49.97266" lon="5.32654">
        <ele>379.2</ele>
        <time>2025-04-20T16:13:16Z</time>
      </trkpt>
      <trkpt lat="49.97267" lon="5.32653">
        <ele>379.2</ele>
        <time>2025-04-20T16:13:17Z</time>
      </trkpt>
      <trkpt lat="49.97267" lon="5.32652">
        <ele>379.2</ele>
        <time>2025-04-20T16:13:18Z</time>
      </trkpt>
      <trkpt lat="49.97268" lon="5.32652">
        <ele>379.2</ele>
        <time>2025-04-20T16:13:19Z</time>
      </trkpt>
      <trkpt lat="49.97269" lon="5.32651">
        <ele>379.2</ele>
        <time>2025-04-20T16:13:20Z</time>
      </trkpt>
      <trkpt lat="49.97269" lon="5.32651">
        <ele>379.2</ele>
        <time>2025-04-20T16:13:21Z</time>
      </trkpt>
      <trkpt lat="49.97269" lon="5.32651">
        <ele>379.2</ele>
        <time>2025-04-20T16:13:22Z</time>
      </trkpt>
      <trkpt lat="49.9727" lon="5.32651">
        <ele>379.2</ele>
        <time>2025-04-20T16:13:23Z</time>
      </trkpt>
      <trkpt lat="49.9727" lon="5.32651">
        <ele>379.2</ele>
        <time>2025-04-20T16:13:24Z</time>
      </trkpt>
      <trkpt lat="49.9727" lon="5.32651">
        <ele>379.2</ele>
        <time>2025-04-20T16:13:25Z</time>
      </trkpt>
      <trkpt lat="49.97271" lon="5.3265">
        <ele>379.1</ele>
        <time>2025-04-20T16:13:26Z</time>
      </trkpt>
      <trkpt lat="49.97272" lon="5.3265">
        <ele>379.1</ele>
        <time>2025-04-20T16:13:27Z</time>
      </trkpt>
      <trkpt lat="49.97273" lon="5.32649">
        <ele>379.1</ele>
        <time>2025-04-20T16:13:28Z</time>
      </trkpt>
      <trkpt lat="49.97273" lon="5.32648">
        <ele>379.1</ele>
        <time>2025-04-20T16:13:29Z</time>
      </trkpt>
      <trkpt lat="49.97274" lon="5.32646">
        <ele>379.1</ele>
        <time>2025-04-20T16:13:30Z</time>
      </trkpt>
      <trkpt lat="49.97274" lon="5.32644">
        <ele>379.1</ele>
        <time>2025-04-20T16:13:31Z</time>
      </trkpt>
      <trkpt lat="49.97275" lon="5.32643">
        <ele>379.1</ele>
        <time>2025-04-20T16:13:32Z</time>
      </trkpt>
      <trkpt lat="49.97276" lon="5.32641">
        <ele>379.1</ele>
        <time>2025-04-20T16:13:33Z</time>
      </trkpt>
      <trkpt lat="49.97277" lon="5.32639">
        <ele>379</ele>
        <time>2025-04-20T16:13:34Z</time>
      </trkpt>
      <trkpt lat="49.97279" lon="5.32636">
        <ele>379.1</ele>
        <time>2025-04-20T16:13:42Z</time>
      </trkpt>
      <trkpt lat="49.97279" lon="5.32635">
        <ele>379.1</ele>
        <time>2025-04-20T16:13:43Z</time>
      </trkpt>
      <trkpt lat="49.97279" lon="5.32634">
        <ele>379.1</ele>
        <time>2025-04-20T16:13:44Z</time>
      </trkpt>
      <trkpt lat="49.97279" lon="5.32633">
        <ele>379.2</ele>
        <time>2025-04-20T16:13:52Z</time>
      </trkpt>
      <trkpt lat="49.97279" lon="5.32633">
        <ele>379.2</ele>
        <time>2025-04-20T16:13:53Z</time>
      </trkpt>
      <trkpt lat="49.97278" lon="5.32632">
        <ele>379.2</ele>
        <time>2025-04-20T16:13:54Z</time>
      </trkpt>
      <trkpt lat="49.97279" lon="5.32631">
        <ele>379.2</ele>
        <time>2025-04-20T16:13:55Z</time>
      </trkpt>
      <trkpt lat="49.97279" lon="5.32631">
        <ele>379.3</ele>
        <time>2025-04-20T16:13:56Z</time>
      </trkpt>
      <trkpt lat="49.9728" lon="5.32628">
        <ele>379.3</ele>
        <time>2025-04-20T16:14:22Z</time>
      </trkpt>
      <trkpt lat="49.9728" lon="5.32627">
        <ele>379.4</ele>
        <time>2025-04-20T16:14:23Z</time>
      </trkpt>
      <trkpt lat="49.9728" lon="5.32625">
        <ele>379.4</ele>
        <time>2025-04-20T16:14:24Z</time>
      </trkpt>
      <trkpt lat="49.97281" lon="5.32624">
        <ele>379.4</ele>
        <time>2025-04-20T16:14:25Z</time>
      </trkpt>
      <trkpt lat="49.97281" lon="5.32623">
        <ele>379.5</ele>
        <time>2025-04-20T16:14:26Z</time>
      </trkpt>
      <trkpt lat="49.97281" lon="5.32622">
        <ele>379.5</ele>
        <time>2025-04-20T16:14:27Z</time>
      </trkpt>
      <trkpt lat="49.97282" lon="5.3262">
        <ele>379.5</ele>
        <time>2025-04-20T16:14:28Z</time>
      </trkpt>
      <trkpt lat="49.97281" lon="5.32619">
        <ele>379.6</ele>
        <time>2025-04-20T16:14:29Z</time>
      </trkpt>
      <trkpt lat="49.97281" lon="5.32617">
        <ele>379.7</ele>
        <time>2025-04-20T16:14:30Z</time>
      </trkpt>
      <trkpt lat="49.97281" lon="5.32615">
        <ele>379.7</ele>
        <time>2025-04-20T16:14:31Z</time>
      </trkpt>
      <trkpt lat="49.97281" lon="5.32614">
        <ele>379.8</ele>
        <time>2025-04-20T16:14:32Z</time>
      </trkpt>
      <trkpt lat="49.9728" lon="5.32613">
        <ele>379.9</ele>
        <time>2025-04-20T16:14:33Z</time>
      </trkpt>
      <trkpt lat="49.97279" lon="5.32612">
        <ele>379.9</ele>
        <time>2025-04-20T16:14:34Z</time>
      </trkpt>
      <trkpt lat="49.97277" lon="5.32612">
        <ele>380</ele>
        <time>2025-04-20T16:14:35Z</time>
      </trkpt>
      <trkpt lat="49.97276" lon="5.32611">
        <ele>380</ele>
        <time>2025-04-20T16:14:36Z</time>
      </trkpt>
      <trkpt lat="49.97275" lon="5.32611">
        <ele>380</ele>
        <time>2025-04-20T16:14:37Z</time>
      </trkpt>
      <trkpt lat="49.97274" lon="5.32611">
        <ele>380</ele>
        <time>2025-04-20T16:14:38Z</time>
      </trkpt>
      <trkpt lat="49.97272" lon="5.32611">
        <ele>380</ele>
        <time>2025-04-20T16:14:39Z</time>
      </trkpt>
      <trkpt lat="49.97271" lon="5.32611">
        <ele>380</ele>
        <time>2025-04-20T16:14:40Z</time>
      </trkpt>
      <trkpt lat="49.9727" lon="5.32611">
        <ele>380</ele>
        <time>2025-04-20T16:14:41Z</time>
      </trkpt>
      <trkpt lat="49.97269" lon="5.32611">
        <ele>380</ele>
        <time>2025-04-20T16:14:42Z</time>
      </trkpt>
      <trkpt lat="49.97268" lon="5.32611">
        <ele>380.1</ele>
        <time>2025-04-20T16:14:43Z</time>
      </trkpt>
      <trkpt lat="49.97267" lon="5.3261">
        <ele>380.2</ele>
        <time>2025-04-20T16:14:44Z</time>
      </trkpt>
      <trkpt lat="49.97266" lon="5.3261">
        <ele>380.3</ele>
        <time>2025-04-20T16:14:45Z</time>
      </trkpt>
      <trkpt lat="49.97265" lon="5.32609">
        <ele>380.4</ele>
        <time>2025-04-20T16:14:46Z</time>
      </trkpt>
      <trkpt lat="49.97264" lon="5.32608">
        <ele>380.5</ele>
        <time>2025-04-20T16:14:47Z</time>
      </trkpt>
      <trkpt lat="49.97263" lon="5.32608">
        <ele>380.7</ele>
        <time>2025-04-20T16:14:48Z</time>
      </trkpt>
      <trkpt lat="49.97262" lon="5.32607">
        <ele>380.8</ele>
        <time>2025-04-20T16:14:49Z</time>
      </trkpt>
      <trkpt lat="49.97261" lon="5.32606">
        <ele>381</ele>
        <time>2025-04-20T16:14:50Z</time>
      </trkpt>
      <trkpt lat="49.9726" lon="5.32605">
        <ele>381.1</ele>
        <time>2025-04-20T16:14:51Z</time>
      </trkpt>
      <trkpt lat="49.97259" lon="5.32605">
        <ele>381.3</ele>
        <time>2025-04-20T16:14:52Z</time>
      </trkpt>
      <trkpt lat="49.97258" lon="5.32604">
        <ele>381.4</ele>
        <time>2025-04-20T16:14:53Z</time>
      </trkpt>
      <trkpt lat="49.97257" lon="5.32603">
        <ele>381.5</ele>
        <time>2025-04-20T16:14:54Z</time>
      </trkpt>
      <trkpt lat="49.97256" lon="5.32602">
        <ele>381.6</ele>
        <time>2025-04-20T16:14:55Z</time>
      </trkpt>
      <trkpt lat="49.97256" lon="5.32602">
        <ele>381.8</ele>
        <time>2025-04-20T16:14:56Z</time>
      </trkpt>
      <trkpt lat="49.97255" lon="5.32601">
        <ele>381.9</ele>
        <time>2025-04-20T16:14:57Z</time>
      </trkpt>
      <trkpt lat="49.97254" lon="5.32601">
        <ele>381.9</ele>
        <time>2025-04-20T16:14:58Z</time>
      </trkpt>
      <trkpt lat="49.97254" lon="5.326">
        <ele>382</ele>
        <time>2025-04-20T16:14:59Z</time>
      </trkpt>
      <trkpt lat="49.97253" lon="5.32599">
        <ele>382.1</ele>
        <time>2025-04-20T16:15:00Z</time>
      </trkpt>
      <trkpt lat="49.97253" lon="5.32599">
        <ele>382.3</ele>
        <time>2025-04-20T16:15:01Z</time>
      </trkpt>
      <trkpt lat="49.97252" lon="5.32598">
        <ele>382.4</ele>
        <time>2025-04-20T16:15:02Z</time>
      </trkpt>
      <trkpt lat="49.97252" lon="5.32597">
        <ele>382.5</ele>
        <time>2025-04-20T16:15:03Z</time>
      </trkpt>
      <trkpt lat="49.97251" lon="5.32596">
        <ele>382.7</ele>
        <time>2025-04-20T16:15:04Z</time>
      </trkpt>
      <trkpt lat="49.97251" lon="5.32595">
        <ele>382.8</ele>
        <time>2025-04-20T16:15:05Z</time>
      </trkpt>
      <trkpt lat="49.9725" lon="5.32595">
        <ele>383</ele>
        <time>2025-04-20T16:15:06Z</time>
      </trkpt>
      <trkpt lat="49.97249" lon="5.32594">
        <ele>383.1</ele>
        <time>2025-04-20T16:15:07Z</time>
      </trkpt>
      <trkpt lat="49.97249" lon="5.32593">
        <ele>383.2</ele>
        <time>2025-04-20T16:15:08Z</time>
      </trkpt>
      <trkpt lat="49.97248" lon="5.32592">
        <ele>383.3</ele>
        <time>2025-04-20T16:15:09Z</time>
      </trkpt>
      <trkpt lat="49.97247" lon="5.32591">
        <ele>383.4</ele>
        <time>2025-04-20T16:15:10Z</time>
      </trkpt>
      <trkpt lat="49.97247" lon="5.3259">
        <ele>383.6</ele>
        <time>2025-04-20T16:15:11Z</time>
      </trkpt>
      <trkpt lat="49.97246" lon="5.32589">
        <ele>383.7</ele>
        <time>2025-04-20T16:15:12Z</time>
      </trkpt>
      <trkpt lat="49.97246" lon="5.32588">
        <ele>383.8</ele>
        <time>2025-04-20T16:15:13Z</time>
      </trkpt>
      <trkpt lat="49.97245" lon="5.32587">
        <ele>383.9</ele>
        <time>2025-04-20T16:15:14Z</time>
      </trkpt>
      <trkpt lat="49.97244" lon="5.32585">
        <ele>384.1</ele>
        <time>2025-04-20T16:15:15Z</time>
      </trkpt>
      <trkpt lat="49.97243" lon="5.32585">
        <ele>384.1</ele>
        <time>2025-04-20T16:15:16Z</time>
      </trkpt>
      <trkpt lat="49.97243" lon="5.32584">
        <ele>384.1</ele>
        <time>2025-04-20T16:15:17Z</time>
      </trkpt>
      <trkpt lat="49.97242" lon="5.32583">
        <ele>384.1</ele>
        <time>2025-04-20T16:15:18Z</time>
      </trkpt>
      <trkpt lat="49.97241" lon="5.32583">
        <ele>384.1</ele>
        <time>2025-04-20T16:15:19Z</time>
      </trkpt>
      <trkpt lat="49.9724" lon="5.32582">
        <ele>384.1</ele>
        <time>2025-04-20T16:15:20Z</time>
      </trkpt>
      <trkpt lat="49.97239" lon="5.32581">
        <ele>384.1</ele>
        <time>2025-04-20T16:15:21Z</time>
      </trkpt>
      <trkpt lat="49.97238" lon="5.3258">
        <ele>384.2</ele>
        <time>2025-04-20T16:15:22Z</time>
      </trkpt>
      <trkpt lat="49.97237" lon="5.32578">
        <ele>384.2</ele>
        <time>2025-04-20T16:15:23Z</time>
      </trkpt>
      <trkpt lat="49.97236" lon="5.32577">
        <ele>384.2</ele>
        <time>2025-04-20T16:15:24Z</time>
      </trkpt>
      <trkpt lat="49.97235" lon="5.32576">
        <ele>384.3</ele>
        <time>2025-04-20T16:15:25Z</time>
      </trkpt>
      <trkpt lat="49.97235" lon="5.32574">
        <ele>384.3</ele>
        <time>2025-04-20T16:15:26Z</time>
      </trkpt>
      <trkpt lat="49.97234" lon="5.32573">
        <ele>384.3</ele>
        <time>2025-04-20T16:15:27Z</time>
      </trkpt>
      <trkpt lat="49.97233" lon="5.32572">
        <ele>384.3</ele>
        <time>2025-04-20T16:15:28Z</time>
      </trkpt>
      <trkpt lat="49.97232" lon="5.3257">
        <ele>384.4</ele>
        <time>2025-04-20T16:15:29Z</time>
      </trkpt>
      <trkpt lat="49.97232" lon="5.32569">
        <ele>384.4</ele>
        <time>2025-04-20T16:15:30Z</time>
      </trkpt>
      <trkpt lat="49.97231" lon="5.32568">
        <ele>384.4</ele>
        <time>2025-04-20T16:15:31Z</time>
      </trkpt>
      <trkpt lat="49.97231" lon="5.32567">
        <ele>384.5</ele>
        <time>2025-04-20T16:15:32Z</time>
      </trkpt>
      <trkpt lat="49.97231" lon="5.32566">
        <ele>384.5</ele>
        <time>2025-04-20T16:15:33Z</time>
      </trkpt>
      <trkpt lat="49.9723" lon="5.32565">
        <ele>384.6</ele>
        <time>2025-04-20T16:15:34Z</time>
      </trkpt>
      <trkpt lat="49.9723" lon="5.32563">
        <ele>384.6</ele>
        <time>2025-04-20T16:15:35Z</time>
      </trkpt>
      <trkpt lat="49.97229" lon="5.32562">
        <ele>384.6</ele>
        <time>2025-04-20T16:15:36Z</time>
      </trkpt>
      <trkpt lat="49.97228" lon="5.32561">
        <ele>384.6</ele>
        <time>2025-04-20T16:15:37Z</time>
      </trkpt>
      <trkpt lat="49.97227" lon="5.32559">
        <ele>384.6</ele>
        <time>2025-04-20T16:15:38Z</time>
      </trkpt>
      <trkpt lat="49.97226" lon="5.32558">
        <ele>384.5</ele>
        <time>2025-04-20T16:15:39Z</time>
      </trkpt>
      <trkpt lat="49.97225" lon="5.32556">
        <ele>384.5</ele>
        <time>2025-04-20T16:15:40Z</time>
      </trkpt>
      <trkpt lat="49.97224" lon="5.32555">
        <ele>384.4</ele>
        <time>2025-04-20T16:15:41Z</time>
      </trkpt>
      <trkpt lat="49.97223" lon="5.32553">
        <ele>384.4</ele>
        <time>2025-04-20T16:15:42Z</time>
      </trkpt>
      <trkpt lat="49.97222" lon="5.32551">
        <ele>384.5</ele>
        <time>2025-04-20T16:15:43Z</time>
      </trkpt>
      <trkpt lat="49.97221" lon="5.3255">
        <ele>384.6</ele>
        <time>2025-04-20T16:15:44Z</time>
      </trkpt>
      <trkpt lat="49.9722" lon="5.32549">
        <ele>384.8</ele>
        <time>2025-04-20T16:15:45Z</time>
      </trkpt>
      <trkpt lat="49.97219" lon="5.32548">
        <ele>384.9</ele>
        <time>2025-04-20T16:15:46Z</time>
      </trkpt>
      <trkpt lat="49.97218" lon="5.32546">
        <ele>385</ele>
        <time>2025-04-20T16:15:47Z</time>
      </trkpt>
      <trkpt lat="49.97218" lon="5.32545">
        <ele>385.2</ele>
        <time>2025-04-20T16:15:48Z</time>
      </trkpt>
      <trkpt lat="49.97217" lon="5.32544">
        <ele>385.3</ele>
        <time>2025-04-20T16:15:49Z</time>
      </trkpt>
      <trkpt lat="49.97217" lon="5.32542">
        <ele>385.4</ele>
        <time>2025-04-20T16:15:50Z</time>
      </trkpt>
      <trkpt lat="49.97216" lon="5.32541">
        <ele>385.6</ele>
        <time>2025-04-20T16:15:51Z</time>
      </trkpt>
      <trkpt lat="49.97216" lon="5.3254">
        <ele>385.7</ele>
        <time>2025-04-20T16:15:52Z</time>
      </trkpt>
      <trkpt lat="49.97215" lon="5.32538">
        <ele>385.8</ele>
        <time>2025-04-20T16:15:53Z</time>
      </trkpt>
      <trkpt lat="49.97215" lon="5.32537">
        <ele>385.9</ele>
        <time>2025-04-20T16:15:54Z</time>
      </trkpt>
      <trkpt lat="49.97214" lon="5.32535">
        <ele>386.1</ele>
        <time>2025-04-20T16:15:55Z</time>
      </trkpt>
      <trkpt lat="49.97214" lon="5.32534">
        <ele>386.2</ele>
        <time>2025-04-20T16:15:56Z</time>
      </trkpt>
      <trkpt lat="49.97213" lon="5.32533">
        <ele>386.2</ele>
        <time>2025-04-20T16:15:57Z</time>
      </trkpt>
      <trkpt lat="49.97212" lon="5.32532">
        <ele>386.3</ele>
        <time>2025-04-20T16:15:58Z</time>
      </trkpt>
      <trkpt lat="49.97211" lon="5.3253">
        <ele>386.4</ele>
        <time>2025-04-20T16:15:59Z</time>
      </trkpt>
      <trkpt lat="49.9721" lon="5.32529">
        <ele>386.5</ele>
        <time>2025-04-20T16:16:00Z</time>
      </trkpt>
      <trkpt lat="49.97209" lon="5.32528">
        <ele>386.5</ele>
        <time>2025-04-20T16:16:01Z</time>
      </trkpt>
      <trkpt lat="49.97208" lon="5.32527">
        <ele>386.6</ele>
        <time>2025-04-20T16:16:02Z</time>
      </trkpt>
      <trkpt lat="49.97207" lon="5.32526">
        <ele>386.8</ele>
        <time>2025-04-20T16:16:03Z</time>
      </trkpt>
      <trkpt lat="49.97206" lon="5.32525">
        <ele>386.9</ele>
        <time>2025-04-20T16:16:04Z</time>
      </trkpt>
      <trkpt lat="49.97206" lon="5.32524">
        <ele>387</ele>
        <time>2025-04-20T16:16:05Z</time>
      </trkpt>
      <trkpt lat="49.97205" lon="5.32523">
        <ele>387.1</ele>
        <time>2025-04-20T16:16:06Z</time>
      </trkpt>
      <trkpt lat="49.97204" lon="5.32522">
        <ele>387.2</ele>
        <time>2025-04-20T16:16:07Z</time>
      </trkpt>
      <trkpt lat="49.97204" lon="5.32522">
        <ele>387.3</ele>
        <time>2025-04-20T16:16:08Z</time>
      </trkpt>
      <trkpt lat="49.97203" lon="5.32521">
        <ele>387.4</ele>
        <time>2025-04-20T16:16:09Z</time>
      </trkpt>
      <trkpt lat="49.97202" lon="5.32519">
        <ele>387.5</ele>
        <time>2025-04-20T16:16:10Z</time>
      </trkpt>
      <trkpt lat="49.97202" lon="5.32518">
        <ele>387.7</ele>
        <time>2025-04-20T16:16:11Z</time>
      </trkpt>
      <trkpt lat="49.97201" lon="5.32516">
        <ele>387.8</ele>
        <time>2025-04-20T16:16:12Z</time>
      </trkpt>
      <trkpt lat="49.972" lon="5.32514">
        <ele>388</ele>
        <time>2025-04-20T16:16:13Z</time>
      </trkpt>
      <trkpt lat="49.97198" lon="5.32513">
        <ele>388</ele>
        <time>2025-04-20T16:16:14Z</time>
      </trkpt>
      <trkpt lat="49.97196" lon="5.32511">
        <ele>388.1</ele>
        <time>2025-04-20T16:16:15Z</time>
      </trkpt>
      <trkpt lat="49.97194" lon="5.32509">
        <ele>388.1</ele>
        <time>2025-04-20T16:16:16Z</time>
      </trkpt>
      <trkpt lat="49.97193" lon="5.32507">
        <ele>388.2</ele>
        <time>2025-04-20T16:16:17Z</time>
      </trkpt>
      <trkpt lat="49.97191" lon="5.32505">
        <ele>388.4</ele>
        <time>2025-04-20T16:16:18Z</time>
      </trkpt>
      <trkpt lat="49.9719" lon="5.32503">
        <ele>388.5</ele>
        <time>2025-04-20T16:16:19Z</time>
      </trkpt>
      <trkpt lat="49.97188" lon="5.32502">
        <ele>388.6</ele>
        <time>2025-04-20T16:16:20Z</time>
      </trkpt>
      <trkpt lat="49.97187" lon="5.325">
        <ele>388.7</ele>
        <time>2025-04-20T16:16:21Z</time>
      </trkpt>
      <trkpt lat="49.97186" lon="5.32499">
        <ele>388.8</ele>
        <time>2025-04-20T16:16:22Z</time>
      </trkpt>
      <trkpt lat="49.97185" lon="5.32498">
        <ele>389</ele>
        <time>2025-04-20T16:16:23Z</time>
      </trkpt>
      <trkpt lat="49.97184" lon="5.32497">
        <ele>389.1</ele>
        <time>2025-04-20T16:16:24Z</time>
      </trkpt>
      <trkpt lat="49.97183" lon="5.32496">
        <ele>389.2</ele>
        <time>2025-04-20T16:16:25Z</time>
      </trkpt>
      <trkpt lat="49.97182" lon="5.32495">
        <ele>389.3</ele>
        <time>2025-04-20T16:16:26Z</time>
      </trkpt>
      <trkpt lat="49.97182" lon="5.32494">
        <ele>389.4</ele>
        <time>2025-04-20T16:16:27Z</time>
      </trkpt>
      <trkpt lat="49.97181" lon="5.32493">
        <ele>389.5</ele>
        <time>2025-04-20T16:16:28Z</time>
      </trkpt>
      <trkpt lat="49.9718" lon="5.32493">
        <ele>389.5</ele>
        <time>2025-04-20T16:16:29Z</time>
      </trkpt>
      <trkpt lat="49.9718" lon="5.32492">
        <ele>389.6</ele>
        <time>2025-04-20T16:16:30Z</time>
      </trkpt>
      <trkpt lat="49.97179" lon="5.32491">
        <ele>389.7</ele>
        <time>2025-04-20T16:16:31Z</time>
      </trkpt>
      <trkpt lat="49.97178" lon="5.3249">
        <ele>389.7</ele>
        <time>2025-04-20T16:16:32Z</time>
      </trkpt>
      <trkpt lat="49.97177" lon="5.3249">
        <ele>389.8</ele>
        <time>2025-04-20T16:16:33Z</time>
      </trkpt>
      <trkpt lat="49.97176" lon="5.32489">
        <ele>389.8</ele>
        <time>2025-04-20T16:16:34Z</time>
      </trkpt>
      <trkpt lat="49.97176" lon="5.32488">
        <ele>389.9</ele>
        <time>2025-04-20T16:16:35Z</time>
      </trkpt>
      <trkpt lat="49.97175" lon="5.32487">
        <ele>390</ele>
        <time>2025-04-20T16:16:36Z</time>
      </trkpt>
      <trkpt lat="49.97174" lon="5.32485">
        <ele>390.1</ele>
        <time>2025-04-20T16:16:37Z</time>
      </trkpt>
      <trkpt lat="49.97173" lon="5.32484">
        <ele>390.2</ele>
        <time>2025-04-20T16:16:38Z</time>
      </trkpt>
      <trkpt lat="49.97172" lon="5.32483">
        <ele>390.3</ele>
        <time>2025-04-20T16:16:39Z</time>
      </trkpt>
      <trkpt lat="49.97171" lon="5.32481">
        <ele>390.4</ele>
        <time>2025-04-20T16:16:40Z</time>
      </trkpt>
      <trkpt lat="49.9717" lon="5.3248">
        <ele>390.4</ele>
        <time>2025-04-20T16:16:41Z</time>
      </trkpt>
      <trkpt lat="49.97169" lon="5.32479">
        <ele>390.4</ele>
        <time>2025-04-20T16:16:42Z</time>
      </trkpt>
      <trkpt lat="49.97168" lon="5.32479">
        <ele>390.4</ele>
        <time>2025-04-20T16:16:43Z</time>
      </trkpt>
      <trkpt lat="49.97167" lon="5.32478">
        <ele>390.4</ele>
        <time>2025-04-20T16:16:44Z</time>
      </trkpt>
      <trkpt lat="49.97165" lon="5.32477">
        <ele>390.4</ele>
        <time>2025-04-20T16:16:45Z</time>
      </trkpt>
      <trkpt lat="49.97165" lon="5.32476">
        <ele>390.5</ele>
        <time>2025-04-20T16:16:46Z</time>
      </trkpt>
      <trkpt lat="49.97164" lon="5.32475">
        <ele>390.6</ele>
        <time>2025-04-20T16:16:47Z</time>
      </trkpt>
      <trkpt lat="49.97163" lon="5.32474">
        <ele>390.6</ele>
        <time>2025-04-20T16:16:48Z</time>
      </trkpt>
      <trkpt lat="49.97162" lon="5.32473">
        <ele>390.7</ele>
        <time>2025-04-20T16:16:49Z</time>
      </trkpt>
      <trkpt lat="49.97161" lon="5.32473">
        <ele>390.7</ele>
        <time>2025-04-20T16:16:50Z</time>
      </trkpt>
      <trkpt lat="49.9716" lon="5.32473">
        <ele>390.7</ele>
        <time>2025-04-20T16:16:51Z</time>
      </trkpt>
      <trkpt lat="49.97159" lon="5.32472">
        <ele>390.7</ele>
        <time>2025-04-20T16:16:52Z</time>
      </trkpt>
      <trkpt lat="49.97158" lon="5.32472">
        <ele>390.7</ele>
        <time>2025-04-20T16:16:53Z</time>
      </trkpt>
      <trkpt lat="49.97156" lon="5.32472">
        <ele>390.7</ele>
        <time>2025-04-20T16:16:54Z</time>
      </trkpt>
      <trkpt lat="49.97155" lon="5.32471">
        <ele>390.7</ele>
        <time>2025-04-20T16:16:55Z</time>
      </trkpt>
      <trkpt lat="49.97154" lon="5.3247">
        <ele>390.8</ele>
        <time>2025-04-20T16:16:56Z</time>
      </trkpt>
      <trkpt lat="49.97153" lon="5.3247">
        <ele>390.8</ele>
        <time>2025-04-20T16:16:57Z</time>
      </trkpt>
      <trkpt lat="49.97152" lon="5.32469">
        <ele>390.9</ele>
        <time>2025-04-20T16:16:58Z</time>
      </trkpt>
      <trkpt lat="49.97152" lon="5.32467">
        <ele>391</ele>
        <time>2025-04-20T16:16:59Z</time>
      </trkpt>
      <trkpt lat="49.97151" lon="5.32466">
        <ele>391</ele>
        <time>2025-04-20T16:17:00Z</time>
      </trkpt>
      <trkpt lat="49.9715" lon="5.32465">
        <ele>391.1</ele>
        <time>2025-04-20T16:17:01Z</time>
      </trkpt>
      <trkpt lat="49.9715" lon="5.32464">
        <ele>391.2</ele>
        <time>2025-04-20T16:17:02Z</time>
      </trkpt>
      <trkpt lat="49.97149" lon="5.32463">
        <ele>391.2</ele>
        <time>2025-04-20T16:17:03Z</time>
      </trkpt>
      <trkpt lat="49.97148" lon="5.32462">
        <ele>391.2</ele>
        <time>2025-04-20T16:17:04Z</time>
      </trkpt>
      <trkpt lat="49.97147" lon="5.3246">
        <ele>391.2</ele>
        <time>2025-04-20T16:17:05Z</time>
      </trkpt>
      <trkpt lat="49.97146" lon="5.3246">
        <ele>391.2</ele>
        <time>2025-04-20T16:17:06Z</time>
      </trkpt>
      <trkpt lat="49.97145" lon="5.32459">
        <ele>391.2</ele>
        <time>2025-04-20T16:17:07Z</time>
      </trkpt>
      <trkpt lat="49.97144" lon="5.32458">
        <ele>391.1</ele>
        <time>2025-04-20T16:17:08Z</time>
      </trkpt>
      <trkpt lat="49.97143" lon="5.32457">
        <ele>391</ele>
        <time>2025-04-20T16:17:09Z</time>
      </trkpt>
      <trkpt lat="49.97142" lon="5.32456">
        <ele>391</ele>
        <time>2025-04-20T16:17:10Z</time>
      </trkpt>
      <trkpt lat="49.97141" lon="5.32455">
        <ele>390.9</ele>
        <time>2025-04-20T16:17:11Z</time>
      </trkpt>
      <trkpt lat="49.9714" lon="5.32454">
        <ele>390.8</ele>
        <time>2025-04-20T16:17:12Z</time>
      </trkpt>
      <trkpt lat="49.9714" lon="5.32454">
        <ele>390.8</ele>
        <time>2025-04-20T16:17:13Z</time>
      </trkpt>
      <trkpt lat="49.97139" lon="5.32453">
        <ele>390.7</ele>
        <time>2025-04-20T16:17:14Z</time>
      </trkpt>
      <trkpt lat="49.97138" lon="5.32452">
        <ele>390.7</ele>
        <time>2025-04-20T16:17:15Z</time>
      </trkpt>
      <trkpt lat="49.97137" lon="5.32451">
        <ele>390.6</ele>
        <time>2025-04-20T16:17:16Z</time>
      </trkpt>
      <trkpt lat="49.97136" lon="5.3245">
        <ele>390.6</ele>
        <time>2025-04-20T16:17:17Z</time>
      </trkpt>
      <trkpt lat="49.97135" lon="5.32449">
        <ele>390.6</ele>
        <time>2025-04-20T16:17:18Z</time>
      </trkpt>
      <trkpt lat="49.97135" lon="5.32448">
        <ele>390.6</ele>
        <time>2025-04-20T16:17:19Z</time>
      </trkpt>
      <trkpt lat="49.97134" lon="5.32446">
        <ele>390.6</ele>
        <time>2025-04-20T16:17:20Z</time>
      </trkpt>
      <trkpt lat="49.97133" lon="5.32445">
        <ele>390.5</ele>
        <time>2025-04-20T16:17:21Z</time>
      </trkpt>
      <trkpt lat="49.97132" lon="5.32444">
        <ele>390.6</ele>
        <time>2025-04-20T16:17:22Z</time>
      </trkpt>
      <trkpt lat="49.97131" lon="5.32442">
        <ele>390.7</ele>
        <time>2025-04-20T16:17:23Z</time>
      </trkpt>
      <trkpt lat="49.97131" lon="5.32441">
        <ele>390.9</ele>
        <time>2025-04-20T16:17:24Z</time>
      </trkpt>
      <trkpt lat="49.9713" lon="5.32439">
        <ele>391</ele>
        <time>2025-04-20T16:17:25Z</time>
      </trkpt>
      <trkpt lat="49.97129" lon="5.32438">
        <ele>391.1</ele>
        <time>2025-04-20T16:17:26Z</time>
      </trkpt>
      <trkpt lat="49.97128" lon="5.32436">
        <ele>391.2</ele>
        <time>2025-04-20T16:17:27Z</time>
      </trkpt>
      <trkpt lat="49.97128" lon="5.32435">
        <ele>391.3</ele>
        <time>2025-04-20T16:17:28Z</time>
      </trkpt>
      <trkpt lat="49.97127" lon="5.32433">
        <ele>391.4</ele>
        <time>2025-04-20T16:17:29Z</time>
      </trkpt>
      <trkpt lat="49.97126" lon="5.32432">
        <ele>391.5</ele>
        <time>2025-04-20T16:17:30Z</time>
      </trkpt>
      <trkpt lat="49.97126" lon="5.32431">
        <ele>391.5</ele>
        <time>2025-04-20T16:17:31Z</time>
      </trkpt>
      <trkpt lat="49.97125" lon="5.32429">
        <ele>391.6</ele>
        <time>2025-04-20T16:17:32Z</time>
      </trkpt>
      <trkpt lat="49.97124" lon="5.32428">
        <ele>391.7</ele>
        <time>2025-04-20T16:17:33Z</time>
      </trkpt>
      <trkpt lat="49.97124" lon="5.32427">
        <ele>391.7</ele>
        <time>2025-04-20T16:17:34Z</time>
      </trkpt>
      <trkpt lat="49.97123" lon="5.32425">
        <ele>391.8</ele>
        <time>2025-04-20T16:17:35Z</time>
      </trkpt>
      <trkpt lat="49.97122" lon="5.32424">
        <ele>391.9</ele>
        <time>2025-04-20T16:17:36Z</time>
      </trkpt>
      <trkpt lat="49.97122" lon="5.32422">
        <ele>392</ele>
        <time>2025-04-20T16:17:37Z</time>
      </trkpt>
      <trkpt lat="49.97122" lon="5.32421">
        <ele>392.1</ele>
        <time>2025-04-20T16:17:38Z</time>
      </trkpt>
      <trkpt lat="49.97121" lon="5.32419">
        <ele>392.2</ele>
        <time>2025-04-20T16:17:39Z</time>
      </trkpt>
      <trkpt lat="49.97121" lon="5.32418">
        <ele>392.3</ele>
        <time>2025-04-20T16:17:40Z</time>
      </trkpt>
      <trkpt lat="49.97121" lon="5.32417">
        <ele>392.3</ele>
        <time>2025-04-20T16:17:41Z</time>
      </trkpt>
      <trkpt lat="49.9712" lon="5.32416">
        <ele>392.4</ele>
        <time>2025-04-20T16:17:42Z</time>
      </trkpt>
      <trkpt lat="49.9712" lon="5.32415">
        <ele>392.4</ele>
        <time>2025-04-20T16:17:43Z</time>
      </trkpt>
      <trkpt lat="49.9712" lon="5.32415">
        <ele>392.4</ele>
        <time>2025-04-20T16:17:44Z</time>
      </trkpt>
      <trkpt lat="49.9712" lon="5.32413">
        <ele>392.5</ele>
        <time>2025-04-20T16:17:45Z</time>
      </trkpt>
      <trkpt lat="49.9712" lon="5.32412">
        <ele>392.5</ele>
        <time>2025-04-20T16:17:46Z</time>
      </trkpt>
      <trkpt lat="49.9712" lon="5.32411">
        <ele>392.6</ele>
        <time>2025-04-20T16:17:47Z</time>
      </trkpt>
      <trkpt lat="49.97119" lon="5.3241">
        <ele>392.7</ele>
        <time>2025-04-20T16:17:48Z</time>
      </trkpt>
      <trkpt lat="49.97119" lon="5.32409">
        <ele>392.7</ele>
        <time>2025-04-20T16:17:49Z</time>
      </trkpt>
      <trkpt lat="49.97119" lon="5.32407">
        <ele>392.8</ele>
        <time>2025-04-20T16:17:50Z</time>
      </trkpt>
      <trkpt lat="49.97119" lon="5.32406">
        <ele>392.9</ele>
        <time>2025-04-20T16:17:51Z</time>
      </trkpt>
      <trkpt lat="49.97119" lon="5.32404">
        <ele>393</ele>
        <time>2025-04-20T16:17:52Z</time>
      </trkpt>
      <trkpt lat="49.97119" lon="5.32403">
        <ele>393</ele>
        <time>2025-04-20T16:17:53Z</time>
      </trkpt>
      <trkpt lat="49.97119" lon="5.32401">
        <ele>393.1</ele>
        <time>2025-04-20T16:17:54Z</time>
      </trkpt>
      <trkpt lat="49.97119" lon="5.324">
        <ele>393.2</ele>
        <time>2025-04-20T16:17:55Z</time>
      </trkpt>
      <trkpt lat="49.97119" lon="5.32399">
        <ele>393.3</ele>
        <time>2025-04-20T16:17:56Z</time>
      </trkpt>
      <trkpt lat="49.97119" lon="5.32397">
        <ele>393.4</ele>
        <time>2025-04-20T16:17:57Z</time>
      </trkpt>
      <trkpt lat="49.97119" lon="5.32395">
        <ele>393.4</ele>
        <time>2025-04-20T16:17:58Z</time>
      </trkpt>
      <trkpt lat="49.97118" lon="5.32394">
        <ele>393.5</ele>
        <time>2025-04-20T16:17:59Z</time>
      </trkpt>
      <trkpt lat="49.97118" lon="5.32392">
        <ele>393.6</ele>
        <time>2025-04-20T16:18:00Z</time>
      </trkpt>
      <trkpt lat="49.97118" lon="5.32391">
        <ele>393.6</ele>
        <time>2025-04-20T16:18:01Z</time>
      </trkpt>
      <trkpt lat="49.97118" lon="5.32389">
        <ele>393.7</ele>
        <time>2025-04-20T16:18:02Z</time>
      </trkpt>
      <trkpt lat="49.97118" lon="5.32388">
        <ele>393.7</ele>
        <time>2025-04-20T16:18:03Z</time>
      </trkpt>
      <trkpt lat="49.97117" lon="5.32387">
        <ele>393.8</ele>
        <time>2025-04-20T16:18:04Z</time>
      </trkpt>
      <trkpt lat="49.97117" lon="5.32385">
        <ele>393.8</ele>
        <time>2025-04-20T16:18:05Z</time>
      </trkpt>
      <trkpt lat="49.97116" lon="5.32384">
        <ele>393.8</ele>
        <time>2025-04-20T16:18:06Z</time>
      </trkpt>
      <trkpt lat="49.97115" lon="5.32382">
        <ele>393.7</ele>
        <time>2025-04-20T16:18:07Z</time>
      </trkpt>
      <trkpt lat="49.97114" lon="5.3238">
        <ele>393.6</ele>
        <time>2025-04-20T16:18:08Z</time>
      </trkpt>
      <trkpt lat="49.97113" lon="5.32378">
        <ele>393.6</ele>
        <time>2025-04-20T16:18:09Z</time>
      </trkpt>
      <trkpt lat="49.97112" lon="5.32376">
        <ele>393.6</ele>
        <time>2025-04-20T16:18:10Z</time>
      </trkpt>
      <trkpt lat="49.97111" lon="5.32375">
        <ele>393.5</ele>
        <time>2025-04-20T16:18:11Z</time>
      </trkpt>
      <trkpt lat="49.9711" lon="5.32373">
        <ele>393.6</ele>
        <time>2025-04-20T16:18:12Z</time>
      </trkpt>
      <trkpt lat="49.9711" lon="5.32372">
        <ele>393.7</ele>
        <time>2025-04-20T16:18:13Z</time>
      </trkpt>
      <trkpt lat="49.97109" lon="5.3237">
        <ele>393.8</ele>
        <time>2025-04-20T16:18:14Z</time>
      </trkpt>
      <trkpt lat="49.97108" lon="5.32368">
        <ele>393.8</ele>
        <time>2025-04-20T16:18:15Z</time>
      </trkpt>
      <trkpt lat="49.97108" lon="5.32367">
        <ele>393.9</ele>
        <time>2025-04-20T16:18:16Z</time>
      </trkpt>
      <trkpt lat="49.97107" lon="5.32365">
        <ele>394</ele>
        <time>2025-04-20T16:18:17Z</time>
      </trkpt>
      <trkpt lat="49.97106" lon="5.32363">
        <ele>394.1</ele>
        <time>2025-04-20T16:18:18Z</time>
      </trkpt>
      <trkpt lat="49.97106" lon="5.32362">
        <ele>394.2</ele>
        <time>2025-04-20T16:18:19Z</time>
      </trkpt>
      <trkpt lat="49.97105" lon="5.3236">
        <ele>394.3</ele>
        <time>2025-04-20T16:18:20Z</time>
      </trkpt>
      <trkpt lat="49.97105" lon="5.32358">
        <ele>394.3</ele>
        <time>2025-04-20T16:18:21Z</time>
      </trkpt>
      <trkpt lat="49.97104" lon="5.32357">
        <ele>394.4</ele>
        <time>2025-04-20T16:18:22Z</time>
      </trkpt>
      <trkpt lat="49.97104" lon="5.32355">
        <ele>394.5</ele>
        <time>2025-04-20T16:18:23Z</time>
      </trkpt>
      <trkpt lat="49.97103" lon="5.32354">
        <ele>394.5</ele>
        <time>2025-04-20T16:18:24Z</time>
      </trkpt>
      <trkpt lat="49.97103" lon="5.32352">
        <ele>394.6</ele>
        <time>2025-04-20T16:18:25Z</time>
      </trkpt>
      <trkpt lat="49.97102" lon="5.32351">
        <ele>394.6</ele>
        <time>2025-04-20T16:18:26Z</time>
      </trkpt>
      <trkpt lat="49.97102" lon="5.32349">
        <ele>394.7</ele>
        <time>2025-04-20T16:18:27Z</time>
      </trkpt>
      <trkpt lat="49.97101" lon="5.32347">
        <ele>394.7</ele>
        <time>2025-04-20T16:18:28Z</time>
      </trkpt>
      <trkpt lat="49.971" lon="5.32345">
        <ele>394.7</ele>
        <time>2025-04-20T16:18:29Z</time>
      </trkpt>
      <trkpt lat="49.97099" lon="5.32343">
        <ele>394.7</ele>
        <time>2025-04-20T16:18:30Z</time>
      </trkpt>
      <trkpt lat="49.97099" lon="5.32342">
        <ele>394.7</ele>
        <time>2025-04-20T16:18:31Z</time>
      </trkpt>
      <trkpt lat="49.97098" lon="5.32341">
        <ele>394.6</ele>
        <time>2025-04-20T16:18:32Z</time>
      </trkpt>
      <trkpt lat="49.97098" lon="5.3234">
        <ele>394.6</ele>
        <time>2025-04-20T16:18:33Z</time>
      </trkpt>
      <trkpt lat="49.97097" lon="5.3234">
        <ele>394.5</ele>
        <time>2025-04-20T16:18:34Z</time>
      </trkpt>
      <trkpt lat="49.97097" lon="5.32339">
        <ele>394.5</ele>
        <time>2025-04-20T16:18:35Z</time>
      </trkpt>
      <trkpt lat="49.97097" lon="5.32339">
        <ele>394.5</ele>
        <time>2025-04-20T16:18:36Z</time>
      </trkpt>
      <trkpt lat="49.97096" lon="5.32337">
        <ele>394.4</ele>
        <time>2025-04-20T16:18:37Z</time>
      </trkpt>
      <trkpt lat="49.97095" lon="5.32335">
        <ele>394.3</ele>
        <time>2025-04-20T16:18:38Z</time>
      </trkpt>
      <trkpt lat="49.97094" lon="5.32334">
        <ele>394.3</ele>
        <time>2025-04-20T16:18:39Z</time>
      </trkpt>
      <trkpt lat="49.97094" lon="5.32332">
        <ele>394.3</ele>
        <time>2025-04-20T16:18:40Z</time>
      </trkpt>
      <trkpt lat="49.97093" lon="5.32331">
        <ele>394.4</ele>
        <time>2025-04-20T16:18:41Z</time>
      </trkpt>
      <trkpt lat="49.97093" lon="5.32329">
        <ele>394.4</ele>
        <time>2025-04-20T16:18:42Z</time>
      </trkpt>
      <trkpt lat="49.97093" lon="5.32327">
        <ele>394.6</ele>
        <time>2025-04-20T16:18:43Z</time>
      </trkpt>
      <trkpt lat="49.97093" lon="5.32325">
        <ele>394.7</ele>
        <time>2025-04-20T16:18:44Z</time>
      </trkpt>
      <trkpt lat="49.97093" lon="5.32323">
        <ele>394.8</ele>
        <time>2025-04-20T16:18:45Z</time>
      </trkpt>
      <trkpt lat="49.97092" lon="5.32321">
        <ele>395</ele>
        <time>2025-04-20T16:18:46Z</time>
      </trkpt>
      <trkpt lat="49.97092" lon="5.3232">
        <ele>395.1</ele>
        <time>2025-04-20T16:18:47Z</time>
      </trkpt>
      <trkpt lat="49.97093" lon="5.32319">
        <ele>395.2</ele>
        <time>2025-04-20T16:18:48Z</time>
      </trkpt>
      <trkpt lat="49.97093" lon="5.32318">
        <ele>395.3</ele>
        <time>2025-04-20T16:18:49Z</time>
      </trkpt>
      <trkpt lat="49.97093" lon="5.32317">
        <ele>395.4</ele>
        <time>2025-04-20T16:18:50Z</time>
      </trkpt>
      <trkpt lat="49.97092" lon="5.32316">
        <ele>395.4</ele>
        <time>2025-04-20T16:18:51Z</time>
      </trkpt>
      <trkpt lat="49.97092" lon="5.32314">
        <ele>395.5</ele>
        <time>2025-04-20T16:18:52Z</time>
      </trkpt>
      <trkpt lat="49.97092" lon="5.32313">
        <ele>395.5</ele>
        <time>2025-04-20T16:18:53Z</time>
      </trkpt>
      <trkpt lat="49.97091" lon="5.32312">
        <ele>395.5</ele>
        <time>2025-04-20T16:18:54Z</time>
      </trkpt>
      <trkpt lat="49.97091" lon="5.32311">
        <ele>395.6</ele>
        <time>2025-04-20T16:18:55Z</time>
      </trkpt>
      <trkpt lat="49.97091" lon="5.32309">
        <ele>395.6</ele>
        <time>2025-04-20T16:18:56Z</time>
      </trkpt>
      <trkpt lat="49.97091" lon="5.32309">
        <ele>395.7</ele>
        <time>2025-04-20T16:18:57Z</time>
      </trkpt>
      <trkpt lat="49.97091" lon="5.32308">
        <ele>395.7</ele>
        <time>2025-04-20T16:18:58Z</time>
      </trkpt>
      <trkpt lat="49.97091" lon="5.32306">
        <ele>395.8</ele>
        <time>2025-04-20T16:18:59Z</time>
      </trkpt>
      <trkpt lat="49.97091" lon="5.32305">
        <ele>395.8</ele>
        <time>2025-04-20T16:19:00Z</time>
      </trkpt>
      <trkpt lat="49.9709" lon="5.32303">
        <ele>395.9</ele>
        <time>2025-04-20T16:19:01Z</time>
      </trkpt>
      <trkpt lat="49.9709" lon="5.32301">
        <ele>395.9</ele>
        <time>2025-04-20T16:19:02Z</time>
      </trkpt>
      <trkpt lat="49.9709" lon="5.323">
        <ele>395.9</ele>
        <time>2025-04-20T16:19:03Z</time>
      </trkpt>
      <trkpt lat="49.9709" lon="5.32298">
        <ele>395.9</ele>
        <time>2025-04-20T16:19:04Z</time>
      </trkpt>
      <trkpt lat="49.9709" lon="5.32296">
        <ele>395.9</ele>
        <time>2025-04-20T16:19:05Z</time>
      </trkpt>
      <trkpt lat="49.97089" lon="5.32294">
        <ele>395.9</ele>
        <time>2025-04-20T16:19:06Z</time>
      </trkpt>
      <trkpt lat="49.97089" lon="5.32292">
        <ele>395.9</ele>
        <time>2025-04-20T16:19:07Z</time>
      </trkpt>
      <trkpt lat="49.97089" lon="5.3229">
        <ele>395.9</ele>
        <time>2025-04-20T16:19:08Z</time>
      </trkpt>
      <trkpt lat="49.97088" lon="5.32288">
        <ele>395.9</ele>
        <time>2025-04-20T16:19:09Z</time>
      </trkpt>
      <trkpt lat="49.97088" lon="5.32286">
        <ele>395.9</ele>
        <time>2025-04-20T16:19:10Z</time>
      </trkpt>
      <trkpt lat="49.97088" lon="5.32284">
        <ele>396</ele>
        <time>2025-04-20T16:19:11Z</time>
      </trkpt>
      <trkpt lat="49.97088" lon="5.32282">
        <ele>396</ele>
        <time>2025-04-20T16:19:12Z</time>
      </trkpt>
      <trkpt lat="49.97088" lon="5.3228">
        <ele>396.2</ele>
        <time>2025-04-20T16:19:13Z</time>
      </trkpt>
      <trkpt lat="49.97089" lon="5.32278">
        <ele>396.3</ele>
        <time>2025-04-20T16:19:14Z</time>
      </trkpt>
      <trkpt lat="49.97089" lon="5.32276">
        <ele>396.6</ele>
        <time>2025-04-20T16:19:15Z</time>
      </trkpt>
      <trkpt lat="49.97089" lon="5.32274">
        <ele>396.8</ele>
        <time>2025-04-20T16:19:16Z</time>
      </trkpt>
      <trkpt lat="49.97089" lon="5.32272">
        <ele>396.9</ele>
        <time>2025-04-20T16:19:17Z</time>
      </trkpt>
      <trkpt lat="49.97089" lon="5.3227">
        <ele>397</ele>
        <time>2025-04-20T16:19:18Z</time>
      </trkpt>
      <trkpt lat="49.97089" lon="5.32268">
        <ele>397</ele>
        <time>2025-04-20T16:19:19Z</time>
      </trkpt>
      <trkpt lat="49.97088" lon="5.32266">
        <ele>397</ele>
        <time>2025-04-20T16:19:20Z</time>
      </trkpt>
      <trkpt lat="49.97088" lon="5.32264">
        <ele>397</ele>
        <time>2025-04-20T16:19:21Z</time>
      </trkpt>
      <trkpt lat="49.97087" lon="5.32262">
        <ele>397</ele>
        <time>2025-04-20T16:19:22Z</time>
      </trkpt>
      <trkpt lat="49.97087" lon="5.3226">
        <ele>397</ele>
        <time>2025-04-20T16:19:23Z</time>
      </trkpt>
      <trkpt lat="49.97086" lon="5.32258">
        <ele>397.1</ele>
        <time>2025-04-20T16:19:24Z</time>
      </trkpt>
      <trkpt lat="49.97086" lon="5.32257">
        <ele>397.1</ele>
        <time>2025-04-20T16:19:25Z</time>
      </trkpt>
      <trkpt lat="49.97086" lon="5.32255">
        <ele>397.1</ele>
        <time>2025-04-20T16:19:26Z</time>
      </trkpt>
      <trkpt lat="49.97085" lon="5.32254">
        <ele>397.2</ele>
        <time>2025-04-20T16:19:27Z</time>
      </trkpt>
      <trkpt lat="49.97085" lon="5.32253">
        <ele>397.2</ele>
        <time>2025-04-20T16:19:28Z</time>
      </trkpt>
      <trkpt lat="49.97085" lon="5.32253">
        <ele>397.2</ele>
        <time>2025-04-20T16:19:29Z</time>
      </trkpt>
      <trkpt lat="49.97086" lon="5.32252">
        <ele>397.3</ele>
        <time>2025-04-20T16:19:30Z</time>
      </trkpt>
      <trkpt lat="49.97086" lon="5.32251">
        <ele>397.4</ele>
        <time>2025-04-20T16:19:31Z</time>
      </trkpt>
      <trkpt lat="49.97087" lon="5.3225">
        <ele>397.7</ele>
        <time>2025-04-20T16:19:32Z</time>
      </trkpt>
      <trkpt lat="49.97087" lon="5.32249">
        <ele>397.9</ele>
        <time>2025-04-20T16:19:33Z</time>
      </trkpt>
      <trkpt lat="49.97088" lon="5.32248">
        <ele>398.2</ele>
        <time>2025-04-20T16:19:34Z</time>
      </trkpt>
      <trkpt lat="49.97088" lon="5.32246">
        <ele>398.4</ele>
        <time>2025-04-20T16:19:35Z</time>
      </trkpt>
      <trkpt lat="49.97088" lon="5.32245">
        <ele>398.6</ele>
        <time>2025-04-20T16:19:36Z</time>
      </trkpt>
      <trkpt lat="49.97088" lon="5.32243">
        <ele>398.7</ele>
        <time>2025-04-20T16:19:37Z</time>
      </trkpt>
      <trkpt lat="49.97088" lon="5.32242">
        <ele>398.7</ele>
        <time>2025-04-20T16:19:38Z</time>
      </trkpt>
      <trkpt lat="49.97087" lon="5.32241">
        <ele>398.8</ele>
        <time>2025-04-20T16:19:39Z</time>
      </trkpt>
      <trkpt lat="49.97087" lon="5.32239">
        <ele>398.8</ele>
        <time>2025-04-20T16:19:40Z</time>
      </trkpt>
      <trkpt lat="49.97086" lon="5.32239">
        <ele>398.8</ele>
        <time>2025-04-20T16:19:41Z</time>
      </trkpt>
      <trkpt lat="49.97086" lon="5.32238">
        <ele>398.9</ele>
        <time>2025-04-20T16:19:42Z</time>
      </trkpt>
      <trkpt lat="49.97086" lon="5.32236">
        <ele>399</ele>
        <time>2025-04-20T16:19:43Z</time>
      </trkpt>
      <trkpt lat="49.97086" lon="5.32235">
        <ele>399.1</ele>
        <time>2025-04-20T16:19:44Z</time>
      </trkpt>
      <trkpt lat="49.97086" lon="5.32234">
        <ele>399.3</ele>
        <time>2025-04-20T16:19:45Z</time>
      </trkpt>
      <trkpt lat="49.97087" lon="5.32233">
        <ele>399.5</ele>
        <time>2025-04-20T16:19:46Z</time>
      </trkpt>
      <trkpt lat="49.97087" lon="5.32231">
        <ele>399.6</ele>
        <time>2025-04-20T16:19:47Z</time>
      </trkpt>
      <trkpt lat="49.97087" lon="5.3223">
        <ele>399.8</ele>
        <time>2025-04-20T16:19:48Z</time>
      </trkpt>
      <trkpt lat="49.97087" lon="5.32229">
        <ele>400</ele>
        <time>2025-04-20T16:19:49Z</time>
      </trkpt>
      <trkpt lat="49.97087" lon="5.32227">
        <ele>400.1</ele>
        <time>2025-04-20T16:19:50Z</time>
      </trkpt>
      <trkpt lat="49.97087" lon="5.32225">
        <ele>400.3</ele>
        <time>2025-04-20T16:19:51Z</time>
      </trkpt>
      <trkpt lat="49.97087" lon="5.32223">
        <ele>400.6</ele>
        <time>2025-04-20T16:19:52Z</time>
      </trkpt>
      <trkpt lat="49.97087" lon="5.32221">
        <ele>400.8</ele>
        <time>2025-04-20T16:19:53Z</time>
      </trkpt>
      <trkpt lat="49.97087" lon="5.32219">
        <ele>400.9</ele>
        <time>2025-04-20T16:19:54Z</time>
      </trkpt>
      <trkpt lat="49.97088" lon="5.32217">
        <ele>401.1</ele>
        <time>2025-04-20T16:19:55Z</time>
      </trkpt>
      <trkpt lat="49.97088" lon="5.32215">
        <ele>401.3</ele>
        <time>2025-04-20T16:19:56Z</time>
      </trkpt>
      <trkpt lat="49.97088" lon="5.32213">
        <ele>401.5</ele>
        <time>2025-04-20T16:19:57Z</time>
      </trkpt>
      <trkpt lat="49.97088" lon="5.32211">
        <ele>401.6</ele>
        <time>2025-04-20T16:19:58Z</time>
      </trkpt>
      <trkpt lat="49.97088" lon="5.3221">
        <ele>401.7</ele>
        <time>2025-04-20T16:19:59Z</time>
      </trkpt>
      <trkpt lat="49.97088" lon="5.32208">
        <ele>401.8</ele>
        <time>2025-04-20T16:20:00Z</time>
      </trkpt>
      <trkpt lat="49.97088" lon="5.32207">
        <ele>401.9</ele>
        <time>2025-04-20T16:20:01Z</time>
      </trkpt>
      <trkpt lat="49.97088" lon="5.32205">
        <ele>401.9</ele>
        <time>2025-04-20T16:20:02Z</time>
      </trkpt>
      <trkpt lat="49.97087" lon="5.32203">
        <ele>402</ele>
        <time>2025-04-20T16:20:03Z</time>
      </trkpt>
      <trkpt lat="49.97087" lon="5.32202">
        <ele>402</ele>
        <time>2025-04-20T16:20:04Z</time>
      </trkpt>
      <trkpt lat="49.97087" lon="5.322">
        <ele>402.1</ele>
        <time>2025-04-20T16:20:05Z</time>
      </trkpt>
      <trkpt lat="49.97086" lon="5.32199">
        <ele>402.2</ele>
        <time>2025-04-20T16:20:06Z</time>
      </trkpt>
      <trkpt lat="49.97086" lon="5.32197">
        <ele>402.3</ele>
        <time>2025-04-20T16:20:07Z</time>
      </trkpt>
      <trkpt lat="49.97086" lon="5.32195">
        <ele>402.3</ele>
        <time>2025-04-20T16:20:08Z</time>
      </trkpt>
      <trkpt lat="49.97086" lon="5.32194">
        <ele>402.4</ele>
        <time>2025-04-20T16:20:09Z</time>
      </trkpt>
      <trkpt lat="49.97086" lon="5.32193">
        <ele>402.4</ele>
        <time>2025-04-20T16:20:10Z</time>
      </trkpt>
      <trkpt lat="49.97086" lon="5.32192">
        <ele>402.4</ele>
        <time>2025-04-20T16:20:11Z</time>
      </trkpt>
      <trkpt lat="49.97086" lon="5.32191">
        <ele>402.5</ele>
        <time>2025-04-20T16:20:12Z</time>
      </trkpt>
      <trkpt lat="49.97085" lon="5.32189">
        <ele>402.5</ele>
        <time>2025-04-20T16:20:13Z</time>
      </trkpt>
      <trkpt lat="49.97085" lon="5.32188">
        <ele>402.4</ele>
        <time>2025-04-20T16:20:14Z</time>
      </trkpt>
      <trkpt lat="49.97084" lon="5.32186">
        <ele>402.4</ele>
        <time>2025-04-20T16:20:15Z</time>
      </trkpt>
      <trkpt lat="49.97083" lon="5.32184">
        <ele>402.3</ele>
        <time>2025-04-20T16:20:16Z</time>
      </trkpt>
      <trkpt lat="49.97082" lon="5.32182">
        <ele>402.3</ele>
        <time>2025-04-20T16:20:17Z</time>
      </trkpt>
      <trkpt lat="49.97082" lon="5.3218">
        <ele>402.2</ele>
        <time>2025-04-20T16:20:18Z</time>
      </trkpt>
      <trkpt lat="49.97081" lon="5.32178">
        <ele>402.2</ele>
        <time>2025-04-20T16:20:19Z</time>
      </trkpt>
      <trkpt lat="49.97081" lon="5.32177">
        <ele>402.2</ele>
        <time>2025-04-20T16:20:20Z</time>
      </trkpt>
      <trkpt lat="49.97081" lon="5.32175">
        <ele>402.3</ele>
        <time>2025-04-20T16:20:21Z</time>
      </trkpt>
      <trkpt lat="49.97081" lon="5.32173">
        <ele>402.4</ele>
        <time>2025-04-20T16:20:22Z</time>
      </trkpt>
      <trkpt lat="49.97081" lon="5.32171">
        <ele>402.5</ele>
        <time>2025-04-20T16:20:23Z</time>
      </trkpt>
      <trkpt lat="49.97081" lon="5.32169">
        <ele>402.6</ele>
        <time>2025-04-20T16:20:24Z</time>
      </trkpt>
      <trkpt lat="49.97081" lon="5.32167">
        <ele>402.6</ele>
        <time>2025-04-20T16:20:25Z</time>
      </trkpt>
      <trkpt lat="49.97081" lon="5.32166">
        <ele>402.7</ele>
        <time>2025-04-20T16:20:26Z</time>
      </trkpt>
      <trkpt lat="49.97081" lon="5.32165">
        <ele>402.8</ele>
        <time>2025-04-20T16:20:27Z</time>
      </trkpt>
      <trkpt lat="49.97081" lon="5.32164">
        <ele>402.8</ele>
        <time>2025-04-20T16:20:28Z</time>
      </trkpt>
      <trkpt lat="49.97082" lon="5.32163">
        <ele>402.9</ele>
        <time>2025-04-20T16:20:29Z</time>
      </trkpt>
      <trkpt lat="49.97082" lon="5.32161">
        <ele>403</ele>
        <time>2025-04-20T16:20:30Z</time>
      </trkpt>
      <trkpt lat="49.97083" lon="5.3216">
        <ele>403.1</ele>
        <time>2025-04-20T16:20:31Z</time>
      </trkpt>
      <trkpt lat="49.97083" lon="5.32158">
        <ele>403.3</ele>
        <time>2025-04-20T16:20:32Z</time>
      </trkpt>
      <trkpt lat="49.97084" lon="5.32157">
        <ele>403.4</ele>
        <time>2025-04-20T16:20:33Z</time>
      </trkpt>
      <trkpt lat="49.97084" lon="5.32156">
        <ele>403.5</ele>
        <time>2025-04-20T16:20:34Z</time>
      </trkpt>
      <trkpt lat="49.97085" lon="5.32155">
        <ele>403.6</ele>
        <time>2025-04-20T16:20:35Z</time>
      </trkpt>
      <trkpt lat="49.97085" lon="5.32155">
        <ele>403.6</ele>
        <time>2025-04-20T16:20:36Z</time>
      </trkpt>
      <trkpt lat="49.97085" lon="5.32154">
        <ele>403.7</ele>
        <time>2025-04-20T16:20:37Z</time>
      </trkpt>
      <trkpt lat="49.97086" lon="5.32153">
        <ele>403.8</ele>
        <time>2025-04-20T16:20:38Z</time>
      </trkpt>
      <trkpt lat="49.97086" lon="5.32151">
        <ele>403.9</ele>
        <time>2025-04-20T16:20:39Z</time>
      </trkpt>
      <trkpt lat="49.97086" lon="5.3215">
        <ele>404</ele>
        <time>2025-04-20T16:20:40Z</time>
      </trkpt>
      <trkpt lat="49.97087" lon="5.32148">
        <ele>404.1</ele>
        <time>2025-04-20T16:20:41Z</time>
      </trkpt>
      <trkpt lat="49.97087" lon="5.32147">
        <ele>404.2</ele>
        <time>2025-04-20T16:20:42Z</time>
      </trkpt>
      <trkpt lat="49.97088" lon="5.32146">
        <ele>404.3</ele>
        <time>2025-04-20T16:20:43Z</time>
      </trkpt>
      <trkpt lat="49.97089" lon="5.32144">
        <ele>404.5</ele>
        <time>2025-04-20T16:20:44Z</time>
      </trkpt>
      <trkpt lat="49.9709" lon="5.32143">
        <ele>404.6</ele>
        <time>2025-04-20T16:20:45Z</time>
      </trkpt>
      <trkpt lat="49.97091" lon="5.32142">
        <ele>404.8</ele>
        <time>2025-04-20T16:20:46Z</time>
      </trkpt>
      <trkpt lat="49.97092" lon="5.32142">
        <ele>404.9</ele>
        <time>2025-04-20T16:20:47Z</time>
      </trkpt>
      <trkpt lat="49.97092" lon="5.32141">
        <ele>404.9</ele>
        <time>2025-04-20T16:20:48Z</time>
      </trkpt>
      <trkpt lat="49.97093" lon="5.32139">
        <ele>405</ele>
        <time>2025-04-20T16:20:56Z</time>
      </trkpt>
      <trkpt lat="49.97093" lon="5.32138">
        <ele>405.1</ele>
        <time>2025-04-20T16:20:57Z</time>
      </trkpt>
      <trkpt lat="49.97093" lon="5.32137">
        <ele>405.1</ele>
        <time>2025-04-20T16:20:58Z</time>
      </trkpt>
      <trkpt lat="49.97094" lon="5.32135">
        <ele>405.2</ele>
        <time>2025-04-20T16:20:59Z</time>
      </trkpt>
      <trkpt lat="49.97094" lon="5.32134">
        <ele>405.3</ele>
        <time>2025-04-20T16:21:00Z</time>
      </trkpt>
      <trkpt lat="49.97094" lon="5.32133">
        <ele>405.4</ele>
        <time>2025-04-20T16:21:01Z</time>
      </trkpt>
      <trkpt lat="49.97094" lon="5.32132">
        <ele>405.4</ele>
        <time>2025-04-20T16:21:02Z</time>
      </trkpt>
      <trkpt lat="49.97095" lon="5.3213">
        <ele>405.5</ele>
        <time>2025-04-20T16:21:03Z</time>
      </trkpt>
      <trkpt lat="49.97095" lon="5.32128">
        <ele>405.6</ele>
        <time>2025-04-20T16:21:04Z</time>
      </trkpt>
      <trkpt lat="49.97096" lon="5.32127">
        <ele>405.8</ele>
        <time>2025-04-20T16:21:05Z</time>
      </trkpt>
      <trkpt lat="49.97096" lon="5.32125">
        <ele>405.9</ele>
        <time>2025-04-20T16:21:06Z</time>
      </trkpt>
      <trkpt lat="49.97097" lon="5.32123">
        <ele>406</ele>
        <time>2025-04-20T16:21:07Z</time>
      </trkpt>
      <trkpt lat="49.97097" lon="5.32121">
        <ele>406.2</ele>
        <time>2025-04-20T16:21:08Z</time>
      </trkpt>
      <trkpt lat="49.97098" lon="5.32119">
        <ele>406.3</ele>
        <time>2025-04-20T16:21:09Z</time>
      </trkpt>
      <trkpt lat="49.97098" lon="5.32117">
        <ele>406.4</ele>
        <time>2025-04-20T16:21:10Z</time>
      </trkpt>
      <trkpt lat="49.97099" lon="5.32115">
        <ele>406.5</ele>
        <time>2025-04-20T16:21:11Z</time>
      </trkpt>
      <trkpt lat="49.97099" lon="5.32113">
        <ele>406.7</ele>
        <time>2025-04-20T16:21:12Z</time>
      </trkpt>
      <trkpt lat="49.971" lon="5.32111">
        <ele>406.8</ele>
        <time>2025-04-20T16:21:13Z</time>
      </trkpt>
      <trkpt lat="49.971" lon="5.32109">
        <ele>406.9</ele>
        <time>2025-04-20T16:21:14Z</time>
      </trkpt>
      <trkpt lat="49.97101" lon="5.32108">
        <ele>407.1</ele>
        <time>2025-04-20T16:21:15Z</time>
      </trkpt>
      <trkpt lat="49.97101" lon="5.32106">
        <ele>407.2</ele>
        <time>2025-04-20T16:21:16Z</time>
      </trkpt>
      <trkpt lat="49.97102" lon="5.32105">
        <ele>407.4</ele>
        <time>2025-04-20T16:21:17Z</time>
      </trkpt>
      <trkpt lat="49.97102" lon="5.32103">
        <ele>407.5</ele>
        <time>2025-04-20T16:21:18Z</time>
      </trkpt>
      <trkpt lat="49.97102" lon="5.32101">
        <ele>407.6</ele>
        <time>2025-04-20T16:21:19Z</time>
      </trkpt>
      <trkpt lat="49.97102" lon="5.321">
        <ele>407.7</ele>
        <time>2025-04-20T16:21:20Z</time>
      </trkpt>
      <trkpt lat="49.97102" lon="5.32098">
        <ele>407.8</ele>
        <time>2025-04-20T16:21:21Z</time>
      </trkpt>
      <trkpt lat="49.97102" lon="5.32097">
        <ele>407.9</ele>
        <time>2025-04-20T16:21:22Z</time>
      </trkpt>
      <trkpt lat="49.97102" lon="5.32096">
        <ele>408</ele>
        <time>2025-04-20T16:21:23Z</time>
      </trkpt>
      <trkpt lat="49.97102" lon="5.32095">
        <ele>408</ele>
        <time>2025-04-20T16:21:24Z</time>
      </trkpt>
      <trkpt lat="49.97103" lon="5.32094">
        <ele>408.1</ele>
        <time>2025-04-20T16:21:25Z</time>
      </trkpt>
      <trkpt lat="49.97103" lon="5.32093">
        <ele>408.2</ele>
        <time>2025-04-20T16:21:26Z</time>
      </trkpt>
      <trkpt lat="49.97103" lon="5.32092">
        <ele>408.3</ele>
        <time>2025-04-20T16:21:27Z</time>
      </trkpt>
      <trkpt lat="49.97103" lon="5.32091">
        <ele>408.4</ele>
        <time>2025-04-20T16:21:28Z</time>
      </trkpt>
      <trkpt lat="49.97103" lon="5.3209">
        <ele>408.5</ele>
        <time>2025-04-20T16:21:29Z</time>
      </trkpt>
      <trkpt lat="49.97103" lon="5.32089">
        <ele>408.6</ele>
        <time>2025-04-20T16:21:30Z</time>
      </trkpt>
      <trkpt lat="49.97104" lon="5.32088">
        <ele>408.7</ele>
        <time>2025-04-20T16:21:31Z</time>
      </trkpt>
      <trkpt lat="49.97104" lon="5.32086">
        <ele>408.8</ele>
        <time>2025-04-20T16:21:32Z</time>
      </trkpt>
      <trkpt lat="49.97104" lon="5.32085">
        <ele>408.9</ele>
        <time>2025-04-20T16:21:33Z</time>
      </trkpt>
      <trkpt lat="49.97105" lon="5.32083">
        <ele>409.1</ele>
        <time>2025-04-20T16:21:34Z</time>
      </trkpt>
      <trkpt lat="49.97105" lon="5.32082">
        <ele>409.1</ele>
        <time>2025-04-20T16:21:35Z</time>
      </trkpt>
      <trkpt lat="49.97106" lon="5.3208">
        <ele>409.2</ele>
        <time>2025-04-20T16:21:36Z</time>
      </trkpt>
      <trkpt lat="49.97107" lon="5.32079">
        <ele>409.3</ele>
        <time>2025-04-20T16:21:37Z</time>
      </trkpt>
      <trkpt lat="49.97107" lon="5.32077">
        <ele>409.4</ele>
        <time>2025-04-20T16:21:38Z</time>
      </trkpt>
      <trkpt lat="49.97108" lon="5.32076">
        <ele>409.5</ele>
        <time>2025-04-20T16:21:39Z</time>
      </trkpt>
      <trkpt lat="49.97108" lon="5.32075">
        <ele>409.6</ele>
        <time>2025-04-20T16:21:40Z</time>
      </trkpt>
      <trkpt lat="49.97109" lon="5.32073">
        <ele>409.6</ele>
        <time>2025-04-20T16:21:41Z</time>
      </trkpt>
      <trkpt lat="49.97109" lon="5.32072">
        <ele>409.7</ele>
        <time>2025-04-20T16:21:42Z</time>
      </trkpt>
      <trkpt lat="49.9711" lon="5.3207">
        <ele>409.8</ele>
        <time>2025-04-20T16:21:43Z</time>
      </trkpt>
      <trkpt lat="49.97111" lon="5.32069">
        <ele>410</ele>
        <time>2025-04-20T16:21:44Z</time>
      </trkpt>
      <trkpt lat="49.97112" lon="5.32067">
        <ele>410.1</ele>
        <time>2025-04-20T16:21:45Z</time>
      </trkpt>
      <trkpt lat="49.97113" lon="5.32065">
        <ele>410.2</ele>
        <time>2025-04-20T16:21:46Z</time>
      </trkpt>
      <trkpt lat="49.97113" lon="5.32063">
        <ele>410.2</ele>
        <time>2025-04-20T16:21:47Z</time>
      </trkpt>
      <trkpt lat="49.97114" lon="5.32061">
        <ele>410.3</ele>
        <time>2025-04-20T16:21:48Z</time>
      </trkpt>
      <trkpt lat="49.97115" lon="5.32059">
        <ele>410.4</ele>
        <time>2025-04-20T16:21:49Z</time>
      </trkpt>
      <trkpt lat="49.97115" lon="5.32057">
        <ele>410.5</ele>
        <time>2025-04-20T16:21:50Z</time>
      </trkpt>
      <trkpt lat="49.97116" lon="5.32056">
        <ele>410.6</ele>
        <time>2025-04-20T16:21:51Z</time>
      </trkpt>
      <trkpt lat="49.97117" lon="5.32054">
        <ele>410.7</ele>
        <time>2025-04-20T16:21:52Z</time>
      </trkpt>
      <trkpt lat="49.97118" lon="5.32053">
        <ele>410.8</ele>
        <time>2025-04-20T16:21:53Z</time>
      </trkpt>
      <trkpt lat="49.97119" lon="5.32052">
        <ele>410.9</ele>
        <time>2025-04-20T16:21:54Z</time>
      </trkpt>
      <trkpt lat="49.9712" lon="5.32051">
        <ele>411</ele>
        <time>2025-04-20T16:21:55Z</time>
      </trkpt>
      <trkpt lat="49.97121" lon="5.32049">
        <ele>411.1</ele>
        <time>2025-04-20T16:21:56Z</time>
      </trkpt>
      <trkpt lat="49.97122" lon="5.32048">
        <ele>411.1</ele>
        <time>2025-04-20T16:21:57Z</time>
      </trkpt>
      <trkpt lat="49.97122" lon="5.32047">
        <ele>411.2</ele>
        <time>2025-04-20T16:21:58Z</time>
      </trkpt>
      <trkpt lat="49.97122" lon="5.32046">
        <ele>411.2</ele>
        <time>2025-04-20T16:21:59Z</time>
      </trkpt>
      <trkpt lat="49.97122" lon="5.32045">
        <ele>411.2</ele>
        <time>2025-04-20T16:22:00Z</time>
      </trkpt>
      <trkpt lat="49.97122" lon="5.32045">
        <ele>411.2</ele>
        <time>2025-04-20T16:22:01Z</time>
      </trkpt>
      <trkpt lat="49.97122" lon="5.32044">
        <ele>411.2</ele>
        <time>2025-04-20T16:22:02Z</time>
      </trkpt>
      <trkpt lat="49.97122" lon="5.32043">
        <ele>411.2</ele>
        <time>2025-04-20T16:22:03Z</time>
      </trkpt>
      <trkpt lat="49.97122" lon="5.32042">
        <ele>411.2</ele>
        <time>2025-04-20T16:22:04Z</time>
      </trkpt>
      <trkpt lat="49.97123" lon="5.32041">
        <ele>411.2</ele>
        <time>2025-04-20T16:22:05Z</time>
      </trkpt>
      <trkpt lat="49.97123" lon="5.3204">
        <ele>411.3</ele>
        <time>2025-04-20T16:22:06Z</time>
      </trkpt>
      <trkpt lat="49.97123" lon="5.32039">
        <ele>411.3</ele>
        <time>2025-04-20T16:22:07Z</time>
      </trkpt>
      <trkpt lat="49.97124" lon="5.32037">
        <ele>411.4</ele>
        <time>2025-04-20T16:22:08Z</time>
      </trkpt>
      <trkpt lat="49.97124" lon="5.32036">
        <ele>411.4</ele>
        <time>2025-04-20T16:22:09Z</time>
      </trkpt>
      <trkpt lat="49.97125" lon="5.32034">
        <ele>411.5</ele>
        <time>2025-04-20T16:22:10Z</time>
      </trkpt>
      <trkpt lat="49.97125" lon="5.32032">
        <ele>411.5</ele>
        <time>2025-04-20T16:22:11Z</time>
      </trkpt>
      <trkpt lat="49.97126" lon="5.32031">
        <ele>411.6</ele>
        <time>2025-04-20T16:22:12Z</time>
      </trkpt>
      <trkpt lat="49.97126" lon="5.32029">
        <ele>411.6</ele>
        <time>2025-04-20T16:22:13Z</time>
      </trkpt>
      <trkpt lat="49.97127" lon="5.32028">
        <ele>411.7</ele>
        <time>2025-04-20T16:22:14Z</time>
      </trkpt>
      <trkpt lat="49.97127" lon="5.32026">
        <ele>411.8</ele>
        <time>2025-04-20T16:22:15Z</time>
      </trkpt>
      <trkpt lat="49.97127" lon="5.32025">
        <ele>411.8</ele>
        <time>2025-04-20T16:22:16Z</time>
      </trkpt>
      <trkpt lat="49.97128" lon="5.32023">
        <ele>411.8</ele>
        <time>2025-04-20T16:22:17Z</time>
      </trkpt>
      <trkpt lat="49.97128" lon="5.32022">
        <ele>411.8</ele>
        <time>2025-04-20T16:22:18Z</time>
      </trkpt>
      <trkpt lat="49.97128" lon="5.32021">
        <ele>411.8</ele>
        <time>2025-04-20T16:22:19Z</time>
      </trkpt>
      <trkpt lat="49.97129" lon="5.32019">
        <ele>412</ele>
        <time>2025-04-20T16:22:20Z</time>
      </trkpt>
      <trkpt lat="49.9713" lon="5.32018">
        <ele>412.1</ele>
        <time>2025-04-20T16:22:21Z</time>
      </trkpt>
      <trkpt lat="49.97131" lon="5.32017">
        <ele>412.1</ele>
        <time>2025-04-20T16:22:22Z</time>
      </trkpt>
      <trkpt lat="49.97131" lon="5.32016">
        <ele>412.2</ele>
        <time>2025-04-20T16:22:23Z</time>
      </trkpt>
      <trkpt lat="49.97132" lon="5.32015">
        <ele>412.3</ele>
        <time>2025-04-20T16:22:24Z</time>
      </trkpt>
      <trkpt lat="49.97133" lon="5.32013">
        <ele>412.3</ele>
        <time>2025-04-20T16:22:25Z</time>
      </trkpt>
      <trkpt lat="49.97133" lon="5.32012">
        <ele>412.4</ele>
        <time>2025-04-20T16:22:26Z</time>
      </trkpt>
      <trkpt lat="49.97134" lon="5.3201">
        <ele>412.4</ele>
        <time>2025-04-20T16:22:27Z</time>
      </trkpt>
      <trkpt lat="49.97134" lon="5.32009">
        <ele>412.5</ele>
        <time>2025-04-20T16:22:28Z</time>
      </trkpt>
      <trkpt lat="49.97134" lon="5.32008">
        <ele>412.5</ele>
        <time>2025-04-20T16:22:29Z</time>
      </trkpt>
      <trkpt lat="49.97134" lon="5.32008">
        <ele>412.5</ele>
        <time>2025-04-20T16:22:30Z</time>
      </trkpt>
      <trkpt lat="49.97135" lon="5.32007">
        <ele>412.5</ele>
        <time>2025-04-20T16:22:31Z</time>
      </trkpt>
      <trkpt lat="49.97135" lon="5.32006">
        <ele>412.6</ele>
        <time>2025-04-20T16:22:32Z</time>
      </trkpt>
      <trkpt lat="49.97135" lon="5.32005">
        <ele>412.6</ele>
        <time>2025-04-20T16:22:33Z</time>
      </trkpt>
      <trkpt lat="49.97136" lon="5.32004">
        <ele>412.6</ele>
        <time>2025-04-20T16:22:34Z</time>
      </trkpt>
      <trkpt lat="49.97136" lon="5.32003">
        <ele>412.7</ele>
        <time>2025-04-20T16:22:35Z</time>
      </trkpt>
      <trkpt lat="49.97136" lon="5.32001">
        <ele>412.7</ele>
        <time>2025-04-20T16:22:36Z</time>
      </trkpt>
      <trkpt lat="49.97137" lon="5.32">
        <ele>412.8</ele>
        <time>2025-04-20T16:22:37Z</time>
      </trkpt>
      <trkpt lat="49.97137" lon="5.31998">
        <ele>412.9</ele>
        <time>2025-04-20T16:22:38Z</time>
      </trkpt>
      <trkpt lat="49.97138" lon="5.31997">
        <ele>413</ele>
        <time>2025-04-20T16:22:39Z</time>
      </trkpt>
      <trkpt lat="49.97139" lon="5.31994">
        <ele>413.2</ele>
        <time>2025-04-20T16:22:54Z</time>
      </trkpt>
      <trkpt lat="49.9714" lon="5.31993">
        <ele>413.4</ele>
        <time>2025-04-20T16:22:55Z</time>
      </trkpt>
      <trkpt lat="49.9714" lon="5.31993">
        <ele>413.5</ele>
        <time>2025-04-20T16:22:56Z</time>
      </trkpt>
      <trkpt lat="49.9714" lon="5.31991">
        <ele>413.5</ele>
        <time>2025-04-20T16:22:57Z</time>
      </trkpt>
      <trkpt lat="49.97141" lon="5.3199">
        <ele>413.6</ele>
        <time>2025-04-20T16:22:58Z</time>
      </trkpt>
      <trkpt lat="49.97141" lon="5.31988">
        <ele>413.7</ele>
        <time>2025-04-20T16:22:59Z</time>
      </trkpt>
      <trkpt lat="49.97141" lon="5.31987">
        <ele>413.7</ele>
        <time>2025-04-20T16:23:00Z</time>
      </trkpt>
      <trkpt lat="49.97141" lon="5.31985">
        <ele>413.8</ele>
        <time>2025-04-20T16:23:01Z</time>
      </trkpt>
      <trkpt lat="49.97141" lon="5.31984">
        <ele>413.9</ele>
        <time>2025-04-20T16:23:02Z</time>
      </trkpt>
      <trkpt lat="49.97142" lon="5.31982">
        <ele>414</ele>
        <time>2025-04-20T16:23:03Z</time>
      </trkpt>
      <trkpt lat="49.97142" lon="5.31981">
        <ele>414.1</ele>
        <time>2025-04-20T16:23:04Z</time>
      </trkpt>
      <trkpt lat="49.97143" lon="5.3198">
        <ele>414.2</ele>
        <time>2025-04-20T16:23:05Z</time>
      </trkpt>
      <trkpt lat="49.97144" lon="5.31978">
        <ele>414.3</ele>
        <time>2025-04-20T16:23:06Z</time>
      </trkpt>
      <trkpt lat="49.97144" lon="5.31977">
        <ele>414.5</ele>
        <time>2025-04-20T16:23:07Z</time>
      </trkpt>
      <trkpt lat="49.97145" lon="5.31976">
        <ele>414.6</ele>
        <time>2025-04-20T16:23:08Z</time>
      </trkpt>
      <trkpt lat="49.97146" lon="5.31974">
        <ele>414.7</ele>
        <time>2025-04-20T16:23:09Z</time>
      </trkpt>
      <trkpt lat="49.97147" lon="5.31973">
        <ele>414.8</ele>
        <time>2025-04-20T16:23:10Z</time>
      </trkpt>
      <trkpt lat="49.97148" lon="5.31972">
        <ele>415</ele>
        <time>2025-04-20T16:23:11Z</time>
      </trkpt>
      <trkpt lat="49.97149" lon="5.3197">
        <ele>415.1</ele>
        <time>2025-04-20T16:23:12Z</time>
      </trkpt>
      <trkpt lat="49.97149" lon="5.31969">
        <ele>415.1</ele>
        <time>2025-04-20T16:23:13Z</time>
      </trkpt>
      <trkpt lat="49.97149" lon="5.31969">
        <ele>415.1</ele>
        <time>2025-04-20T16:23:14Z</time>
      </trkpt>
      <trkpt lat="49.9715" lon="5.31968">
        <ele>415.2</ele>
        <time>2025-04-20T16:23:15Z</time>
      </trkpt>
      <trkpt lat="49.9715" lon="5.31967">
        <ele>415.2</ele>
        <time>2025-04-20T16:23:16Z</time>
      </trkpt>
      <trkpt lat="49.97151" lon="5.31966">
        <ele>415.3</ele>
        <time>2025-04-20T16:23:17Z</time>
      </trkpt>
      <trkpt lat="49.97151" lon="5.31965">
        <ele>415.3</ele>
        <time>2025-04-20T16:23:18Z</time>
      </trkpt>
      <trkpt lat="49.97151" lon="5.31964">
        <ele>415.4</ele>
        <time>2025-04-20T16:23:19Z</time>
      </trkpt>
      <trkpt lat="49.97152" lon="5.31962">
        <ele>415.4</ele>
        <time>2025-04-20T16:23:20Z</time>
      </trkpt>
      <trkpt lat="49.97153" lon="5.31961">
        <ele>415.5</ele>
        <time>2025-04-20T16:23:21Z</time>
      </trkpt>
      <trkpt lat="49.97154" lon="5.31959">
        <ele>415.6</ele>
        <time>2025-04-20T16:23:22Z</time>
      </trkpt>
      <trkpt lat="49.97155" lon="5.31957">
        <ele>415.7</ele>
        <time>2025-04-20T16:23:23Z</time>
      </trkpt>
      <trkpt lat="49.97156" lon="5.31955">
        <ele>415.8</ele>
        <time>2025-04-20T16:23:24Z</time>
      </trkpt>
      <trkpt lat="49.97157" lon="5.31954">
        <ele>415.9</ele>
        <time>2025-04-20T16:23:25Z</time>
      </trkpt>
      <trkpt lat="49.97158" lon="5.31953">
        <ele>416</ele>
        <time>2025-04-20T16:23:26Z</time>
      </trkpt>
      <trkpt lat="49.97159" lon="5.31951">
        <ele>416.1</ele>
        <time>2025-04-20T16:23:27Z</time>
      </trkpt>
      <trkpt lat="49.97159" lon="5.3195">
        <ele>416.2</ele>
        <time>2025-04-20T16:23:28Z</time>
      </trkpt>
      <trkpt lat="49.9716" lon="5.31949">
        <ele>416.3</ele>
        <time>2025-04-20T16:23:29Z</time>
      </trkpt>
      <trkpt lat="49.97161" lon="5.31947">
        <ele>416.4</ele>
        <time>2025-04-20T16:23:30Z</time>
      </trkpt>
      <trkpt lat="49.97162" lon="5.31945">
        <ele>416.4</ele>
        <time>2025-04-20T16:23:31Z</time>
      </trkpt>
      <trkpt lat="49.97162" lon="5.31944">
        <ele>416.5</ele>
        <time>2025-04-20T16:23:32Z</time>
      </trkpt>
      <trkpt lat="49.97163" lon="5.31942">
        <ele>416.6</ele>
        <time>2025-04-20T16:23:33Z</time>
      </trkpt>
      <trkpt lat="49.97164" lon="5.31941">
        <ele>416.7</ele>
        <time>2025-04-20T16:23:34Z</time>
      </trkpt>
      <trkpt lat="49.97164" lon="5.31939">
        <ele>416.8</ele>
        <time>2025-04-20T16:23:35Z</time>
      </trkpt>
      <trkpt lat="49.97165" lon="5.31938">
        <ele>416.9</ele>
        <time>2025-04-20T16:23:36Z</time>
      </trkpt>
      <trkpt lat="49.97166" lon="5.31937">
        <ele>416.9</ele>
        <time>2025-04-20T16:23:37Z</time>
      </trkpt>
      <trkpt lat="49.97168" lon="5.31934">
        <ele>417.1</ele>
        <time>2025-04-20T16:23:50Z</time>
      </trkpt>
      <trkpt lat="49.97168" lon="5.31934">
        <ele>417.2</ele>
        <time>2025-04-20T16:23:51Z</time>
      </trkpt>
      <trkpt lat="49.97169" lon="5.31933">
        <ele>417.2</ele>
        <time>2025-04-20T16:23:52Z</time>
      </trkpt>
      <trkpt lat="49.97169" lon="5.31932">
        <ele>417.3</ele>
        <time>2025-04-20T16:23:53Z</time>
      </trkpt>
      <trkpt lat="49.9717" lon="5.31931">
        <ele>417.4</ele>
        <time>2025-04-20T16:23:54Z</time>
      </trkpt>
      <trkpt lat="49.9717" lon="5.3193">
        <ele>417.4</ele>
        <time>2025-04-20T16:23:55Z</time>
      </trkpt>
      <trkpt lat="49.97171" lon="5.31928">
        <ele>417.4</ele>
        <time>2025-04-20T16:23:56Z</time>
      </trkpt>
      <trkpt lat="49.97171" lon="5.31926">
        <ele>417.4</ele>
        <time>2025-04-20T16:23:57Z</time>
      </trkpt>
      <trkpt lat="49.97171" lon="5.31925">
        <ele>417.5</ele>
        <time>2025-04-20T16:23:58Z</time>
      </trkpt>
      <trkpt lat="49.97171" lon="5.31923">
        <ele>417.5</ele>
        <time>2025-04-20T16:23:59Z</time>
      </trkpt>
      <trkpt lat="49.97171" lon="5.31921">
        <ele>417.5</ele>
        <time>2025-04-20T16:24:00Z</time>
      </trkpt>
      <trkpt lat="49.97171" lon="5.31919">
        <ele>417.5</ele>
        <time>2025-04-20T16:24:01Z</time>
      </trkpt>
      <trkpt lat="49.97172" lon="5.31918">
        <ele>417.5</ele>
        <time>2025-04-20T16:24:02Z</time>
      </trkpt>
      <trkpt lat="49.97172" lon="5.31916">
        <ele>417.6</ele>
        <time>2025-04-20T16:24:03Z</time>
      </trkpt>
      <trkpt lat="49.97173" lon="5.31915">
        <ele>417.7</ele>
        <time>2025-04-20T16:24:04Z</time>
      </trkpt>
      <trkpt lat="49.97173" lon="5.31913">
        <ele>417.8</ele>
        <time>2025-04-20T16:24:05Z</time>
      </trkpt>
      <trkpt lat="49.97174" lon="5.31912">
        <ele>417.9</ele>
        <time>2025-04-20T16:24:06Z</time>
      </trkpt>
      <trkpt lat="49.97175" lon="5.31911">
        <ele>418</ele>
        <time>2025-04-20T16:24:07Z</time>
      </trkpt>
      <trkpt lat="49.97175" lon="5.31909">
        <ele>418.1</ele>
        <time>2025-04-20T16:24:08Z</time>
      </trkpt>
      <trkpt lat="49.97176" lon="5.31908">
        <ele>418.2</ele>
        <time>2025-04-20T16:24:09Z</time>
      </trkpt>
      <trkpt lat="49.97177" lon="5.31906">
        <ele>418.3</ele>
        <time>2025-04-20T16:24:10Z</time>
      </trkpt>
      <trkpt lat="49.97177" lon="5.31905">
        <ele>418.4</ele>
        <time>2025-04-20T16:24:11Z</time>
      </trkpt>
      <trkpt lat="49.97177" lon="5.31904">
        <ele>418.4</ele>
        <time>2025-04-20T16:24:12Z</time>
      </trkpt>
      <trkpt lat="49.97177" lon="5.31904">
        <ele>418.4</ele>
        <time>2025-04-20T16:24:13Z</time>
      </trkpt>
      <trkpt lat="49.97177" lon="5.31903">
        <ele>418.4</ele>
        <time>2025-04-20T16:24:14Z</time>
      </trkpt>
      <trkpt lat="49.97177" lon="5.31903">
        <ele>418.5</ele>
        <time>2025-04-20T16:24:15Z</time>
      </trkpt>
      <trkpt lat="49.97177" lon="5.31903">
        <ele>418.5</ele>
        <time>2025-04-20T16:24:16Z</time>
      </trkpt>
      <trkpt lat="49.97177" lon="5.31902">
        <ele>418.5</ele>
        <time>2025-04-20T16:24:17Z</time>
      </trkpt>
      <trkpt lat="49.97177" lon="5.31901">
        <ele>418.5</ele>
        <time>2025-04-20T16:24:18Z</time>
      </trkpt>
      <trkpt lat="49.97177" lon="5.319">
        <ele>418.5</ele>
        <time>2025-04-20T16:24:19Z</time>
      </trkpt>
      <trkpt lat="49.97177" lon="5.31899">
        <ele>418.5</ele>
        <time>2025-04-20T16:24:20Z</time>
      </trkpt>
      <trkpt lat="49.97177" lon="5.31898">
        <ele>418.6</ele>
        <time>2025-04-20T16:24:21Z</time>
      </trkpt>
      <trkpt lat="49.97178" lon="5.31896">
        <ele>418.6</ele>
        <time>2025-04-20T16:24:22Z</time>
      </trkpt>
      <trkpt lat="49.97178" lon="5.31895">
        <ele>418.7</ele>
        <time>2025-04-20T16:24:23Z</time>
      </trkpt>
      <trkpt lat="49.97179" lon="5.31893">
        <ele>418.8</ele>
        <time>2025-04-20T16:24:24Z</time>
      </trkpt>
      <trkpt lat="49.97179" lon="5.31892">
        <ele>418.8</ele>
        <time>2025-04-20T16:24:25Z</time>
      </trkpt>
      <trkpt lat="49.9718" lon="5.3189">
        <ele>418.9</ele>
        <time>2025-04-20T16:24:26Z</time>
      </trkpt>
      <trkpt lat="49.9718" lon="5.31889">
        <ele>419</ele>
        <time>2025-04-20T16:24:27Z</time>
      </trkpt>
      <trkpt lat="49.97181" lon="5.31888">
        <ele>419</ele>
        <time>2025-04-20T16:24:28Z</time>
      </trkpt>
      <trkpt lat="49.97181" lon="5.31887">
        <ele>419</ele>
        <time>2025-04-20T16:24:29Z</time>
      </trkpt>
      <trkpt lat="49.97182" lon="5.31886">
        <ele>419.1</ele>
        <time>2025-04-20T16:24:30Z</time>
      </trkpt>
      <trkpt lat="49.97182" lon="5.31885">
        <ele>419.1</ele>
        <time>2025-04-20T16:24:31Z</time>
      </trkpt>
      <trkpt lat="49.97183" lon="5.31883">
        <ele>419.2</ele>
        <time>2025-04-20T16:24:32Z</time>
      </trkpt>
      <trkpt lat="49.97183" lon="5.31882">
        <ele>419.2</ele>
        <time>2025-04-20T16:24:33Z</time>
      </trkpt>
      <trkpt lat="49.97183" lon="5.31881">
        <ele>419.2</ele>
        <time>2025-04-20T16:24:34Z</time>
      </trkpt>
      <trkpt lat="49.97184" lon="5.3188">
        <ele>419.2</ele>
        <time>2025-04-20T16:24:35Z</time>
      </trkpt>
      <trkpt lat="49.97184" lon="5.3188">
        <ele>419.2</ele>
        <time>2025-04-20T16:24:36Z</time>
      </trkpt>
      <trkpt lat="49.97184" lon="5.31879">
        <ele>419.2</ele>
        <time>2025-04-20T16:24:37Z</time>
      </trkpt>
      <trkpt lat="49.97184" lon="5.31878">
        <ele>419.2</ele>
        <time>2025-04-20T16:24:38Z</time>
      </trkpt>
      <trkpt lat="49.97184" lon="5.31877">
        <ele>419.3</ele>
        <time>2025-04-20T16:24:39Z</time>
      </trkpt>
      <trkpt lat="49.97185" lon="5.31876">
        <ele>419.3</ele>
        <time>2025-04-20T16:24:40Z</time>
      </trkpt>
      <trkpt lat="49.97185" lon="5.31874">
        <ele>419.3</ele>
        <time>2025-04-20T16:24:41Z</time>
      </trkpt>
      <trkpt lat="49.97186" lon="5.31873">
        <ele>419.4</ele>
        <time>2025-04-20T16:24:42Z</time>
      </trkpt>
      <trkpt lat="49.97187" lon="5.31871">
        <ele>419.4</ele>
        <time>2025-04-20T16:24:43Z</time>
      </trkpt>
      <trkpt lat="49.97187" lon="5.3187">
        <ele>419.5</ele>
        <time>2025-04-20T16:24:44Z</time>
      </trkpt>
      <trkpt lat="49.97188" lon="5.31868">
        <ele>419.5</ele>
        <time>2025-04-20T16:24:45Z</time>
      </trkpt>
      <trkpt lat="49.97189" lon="5.31866">
        <ele>419.6</ele>
        <time>2025-04-20T16:24:46Z</time>
      </trkpt>
      <trkpt lat="49.9719" lon="5.31865">
        <ele>419.7</ele>
        <time>2025-04-20T16:24:47Z</time>
      </trkpt>
      <trkpt lat="49.97191" lon="5.31863">
        <ele>419.7</ele>
        <time>2025-04-20T16:24:48Z</time>
      </trkpt>
      <trkpt lat="49.97192" lon="5.31862">
        <ele>419.8</ele>
        <time>2025-04-20T16:24:49Z</time>
      </trkpt>
      <trkpt lat="49.97193" lon="5.3186">
        <ele>419.9</ele>
        <time>2025-04-20T16:24:50Z</time>
      </trkpt>
      <trkpt lat="49.97193" lon="5.31859">
        <ele>420</ele>
        <time>2025-04-20T16:24:51Z</time>
      </trkpt>
      <trkpt lat="49.97194" lon="5.31858">
        <ele>420.1</ele>
        <time>2025-04-20T16:24:52Z</time>
      </trkpt>
      <trkpt lat="49.97195" lon="5.31856">
        <ele>420.2</ele>
        <time>2025-04-20T16:24:53Z</time>
      </trkpt>
      <trkpt lat="49.97196" lon="5.31855">
        <ele>420.3</ele>
        <time>2025-04-20T16:24:54Z</time>
      </trkpt>
      <trkpt lat="49.97196" lon="5.31853">
        <ele>420.5</ele>
        <time>2025-04-20T16:24:55Z</time>
      </trkpt>
      <trkpt lat="49.97197" lon="5.31852">
        <ele>420.6</ele>
        <time>2025-04-20T16:24:56Z</time>
      </trkpt>
      <trkpt lat="49.97198" lon="5.3185">
        <ele>420.7</ele>
        <time>2025-04-20T16:24:57Z</time>
      </trkpt>
      <trkpt lat="49.97198" lon="5.31849">
        <ele>420.8</ele>
        <time>2025-04-20T16:24:58Z</time>
      </trkpt>
      <trkpt lat="49.97199" lon="5.31847">
        <ele>420.9</ele>
        <time>2025-04-20T16:24:59Z</time>
      </trkpt>
      <trkpt lat="49.972" lon="5.31846">
        <ele>421</ele>
        <time>2025-04-20T16:25:00Z</time>
      </trkpt>
      <trkpt lat="49.972" lon="5.31845">
        <ele>421.1</ele>
        <time>2025-04-20T16:25:01Z</time>
      </trkpt>
      <trkpt lat="49.97201" lon="5.31843">
        <ele>421.2</ele>
        <time>2025-04-20T16:25:02Z</time>
      </trkpt>
      <trkpt lat="49.97201" lon="5.31842">
        <ele>421.2</ele>
        <time>2025-04-20T16:25:03Z</time>
      </trkpt>
      <trkpt lat="49.97201" lon="5.31841">
        <ele>421.3</ele>
        <time>2025-04-20T16:25:04Z</time>
      </trkpt>
      <trkpt lat="49.97202" lon="5.31839">
        <ele>421.4</ele>
        <time>2025-04-20T16:25:05Z</time>
      </trkpt>
      <trkpt lat="49.97202" lon="5.31838">
        <ele>421.5</ele>
        <time>2025-04-20T16:25:06Z</time>
      </trkpt>
      <trkpt lat="49.97203" lon="5.31837">
        <ele>421.5</ele>
        <time>2025-04-20T16:25:07Z</time>
      </trkpt>
      <trkpt lat="49.97203" lon="5.31836">
        <ele>421.6</ele>
        <time>2025-04-20T16:25:08Z</time>
      </trkpt>
      <trkpt lat="49.97204" lon="5.31835">
        <ele>421.6</ele>
        <time>2025-04-20T16:25:09Z</time>
      </trkpt>
      <trkpt lat="49.97205" lon="5.31834">
        <ele>421.7</ele>
        <time>2025-04-20T16:25:10Z</time>
      </trkpt>
      <trkpt lat="49.97205" lon="5.31833">
        <ele>421.8</ele>
        <time>2025-04-20T16:25:11Z</time>
      </trkpt>
      <trkpt lat="49.97206" lon="5.31832">
        <ele>421.9</ele>
        <time>2025-04-20T16:25:12Z</time>
      </trkpt>
      <trkpt lat="49.97207" lon="5.31831">
        <ele>421.9</ele>
        <time>2025-04-20T16:25:13Z</time>
      </trkpt>
      <trkpt lat="49.97208" lon="5.3183">
        <ele>422</ele>
        <time>2025-04-20T16:25:14Z</time>
      </trkpt>
      <trkpt lat="49.97209" lon="5.31828">
        <ele>422</ele>
        <time>2025-04-20T16:25:15Z</time>
      </trkpt>
      <trkpt lat="49.97209" lon="5.31827">
        <ele>422.1</ele>
        <time>2025-04-20T16:25:16Z</time>
      </trkpt>
      <trkpt lat="49.9721" lon="5.31825">
        <ele>422.1</ele>
        <time>2025-04-20T16:25:17Z</time>
      </trkpt>
      <trkpt lat="49.9721" lon="5.31824">
        <ele>422.1</ele>
        <time>2025-04-20T16:25:18Z</time>
      </trkpt>
      <trkpt lat="49.97211" lon="5.31822">
        <ele>422.2</ele>
        <time>2025-04-20T16:25:19Z</time>
      </trkpt>
      <trkpt lat="49.97211" lon="5.31821">
        <ele>422.2</ele>
        <time>2025-04-20T16:25:20Z</time>
      </trkpt>
      <trkpt lat="49.97212" lon="5.31819">
        <ele>422.2</ele>
        <time>2025-04-20T16:25:21Z</time>
      </trkpt>
      <trkpt lat="49.97212" lon="5.31818">
        <ele>422.3</ele>
        <time>2025-04-20T16:25:22Z</time>
      </trkpt>
      <trkpt lat="49.97212" lon="5.31816">
        <ele>422.3</ele>
        <time>2025-04-20T16:25:23Z</time>
      </trkpt>
      <trkpt lat="49.97213" lon="5.31814">
        <ele>422.3</ele>
        <time>2025-04-20T16:25:24Z</time>
      </trkpt>
      <trkpt lat="49.97213" lon="5.31813">
        <ele>422.3</ele>
        <time>2025-04-20T16:25:25Z</time>
      </trkpt>
      <trkpt lat="49.97213" lon="5.31811">
        <ele>422.3</ele>
        <time>2025-04-20T16:25:26Z</time>
      </trkpt>
      <trkpt lat="49.97213" lon="5.31809">
        <ele>422.3</ele>
        <time>2025-04-20T16:25:27Z</time>
      </trkpt>
      <trkpt lat="49.97213" lon="5.31808">
        <ele>422.4</ele>
        <time>2025-04-20T16:25:28Z</time>
      </trkpt>
      <trkpt lat="49.97214" lon="5.31806">
        <ele>422.4</ele>
        <time>2025-04-20T16:25:29Z</time>
      </trkpt>
      <trkpt lat="49.97214" lon="5.31804">
        <ele>422.4</ele>
        <time>2025-04-20T16:25:30Z</time>
      </trkpt>
      <trkpt lat="49.97215" lon="5.31803">
        <ele>422.5</ele>
        <time>2025-04-20T16:25:31Z</time>
      </trkpt>
      <trkpt lat="49.97216" lon="5.31802">
        <ele>422.5</ele>
        <time>2025-04-20T16:25:32Z</time>
      </trkpt>
      <trkpt lat="49.97217" lon="5.318">
        <ele>422.6</ele>
        <time>2025-04-20T16:25:33Z</time>
      </trkpt>
      <trkpt lat="49.97218" lon="5.31799">
        <ele>422.7</ele>
        <time>2025-04-20T16:25:34Z</time>
      </trkpt>
      <trkpt lat="49.97219" lon="5.31798">
        <ele>422.8</ele>
        <time>2025-04-20T16:25:35Z</time>
      </trkpt>
      <trkpt lat="49.9722" lon="5.31796">
        <ele>422.8</ele>
        <time>2025-04-20T16:25:36Z</time>
      </trkpt>
      <trkpt lat="49.9722" lon="5.31795">
        <ele>422.8</ele>
        <time>2025-04-20T16:25:37Z</time>
      </trkpt>
      <trkpt lat="49.97221" lon="5.31794">
        <ele>422.9</ele>
        <time>2025-04-20T16:25:38Z</time>
      </trkpt>
      <trkpt lat="49.97221" lon="5.31793">
        <ele>422.9</ele>
        <time>2025-04-20T16:25:39Z</time>
      </trkpt>
      <trkpt lat="49.97221" lon="5.31791">
        <ele>422.9</ele>
        <time>2025-04-20T16:25:40Z</time>
      </trkpt>
      <trkpt lat="49.97221" lon="5.3179">
        <ele>422.9</ele>
        <time>2025-04-20T16:25:41Z</time>
      </trkpt>
      <trkpt lat="49.97221" lon="5.31788">
        <ele>422.9</ele>
        <time>2025-04-20T16:25:42Z</time>
      </trkpt>
      <trkpt lat="49.97221" lon="5.31786">
        <ele>422.9</ele>
        <time>2025-04-20T16:25:43Z</time>
      </trkpt>
      <trkpt lat="49.97221" lon="5.31784">
        <ele>422.9</ele>
        <time>2025-04-20T16:25:44Z</time>
      </trkpt>
      <trkpt lat="49.97221" lon="5.31782">
        <ele>422.9</ele>
        <time>2025-04-20T16:25:45Z</time>
      </trkpt>
      <trkpt lat="49.97222" lon="5.31781">
        <ele>423</ele>
        <time>2025-04-20T16:25:46Z</time>
      </trkpt>
      <trkpt lat="49.97222" lon="5.31779">
        <ele>423</ele>
        <time>2025-04-20T16:25:47Z</time>
      </trkpt>
      <trkpt lat="49.97222" lon="5.31778">
        <ele>423</ele>
        <time>2025-04-20T16:25:48Z</time>
      </trkpt>
      <trkpt lat="49.97222" lon="5.31776">
        <ele>423</ele>
        <time>2025-04-20T16:25:49Z</time>
      </trkpt>
      <trkpt lat="49.97222" lon="5.31775">
        <ele>423.1</ele>
        <time>2025-04-20T16:25:50Z</time>
      </trkpt>
      <trkpt lat="49.97222" lon="5.31773">
        <ele>423.2</ele>
        <time>2025-04-20T16:25:51Z</time>
      </trkpt>
      <trkpt lat="49.97223" lon="5.31772">
        <ele>423.3</ele>
        <time>2025-04-20T16:25:52Z</time>
      </trkpt>
      <trkpt lat="49.97224" lon="5.3177">
        <ele>423.4</ele>
        <time>2025-04-20T16:25:53Z</time>
      </trkpt>
      <trkpt lat="49.97224" lon="5.31769">
        <ele>423.5</ele>
        <time>2025-04-20T16:25:54Z</time>
      </trkpt>
      <trkpt lat="49.97225" lon="5.31767">
        <ele>423.6</ele>
        <time>2025-04-20T16:25:55Z</time>
      </trkpt>
      <trkpt lat="49.97226" lon="5.31766">
        <ele>423.7</ele>
        <time>2025-04-20T16:25:56Z</time>
      </trkpt>
      <trkpt lat="49.97226" lon="5.31764">
        <ele>423.8</ele>
        <time>2025-04-20T16:25:57Z</time>
      </trkpt>
      <trkpt lat="49.97227" lon="5.31763">
        <ele>423.9</ele>
        <time>2025-04-20T16:25:58Z</time>
      </trkpt>
      <trkpt lat="49.97227" lon="5.31761">
        <ele>424</ele>
        <time>2025-04-20T16:25:59Z</time>
      </trkpt>
      <trkpt lat="49.97228" lon="5.3176">
        <ele>424.1</ele>
        <time>2025-04-20T16:26:00Z</time>
      </trkpt>
      <trkpt lat="49.97228" lon="5.31758">
        <ele>424.2</ele>
        <time>2025-04-20T16:26:01Z</time>
      </trkpt>
      <trkpt lat="49.97229" lon="5.31757">
        <ele>424.3</ele>
        <time>2025-04-20T16:26:02Z</time>
      </trkpt>
      <trkpt lat="49.9723" lon="5.31755">
        <ele>424.4</ele>
        <time>2025-04-20T16:26:03Z</time>
      </trkpt>
      <trkpt lat="49.97231" lon="5.31753">
        <ele>424.5</ele>
        <time>2025-04-20T16:26:04Z</time>
      </trkpt>
      <trkpt lat="49.97232" lon="5.31752">
        <ele>424.6</ele>
        <time>2025-04-20T16:26:05Z</time>
      </trkpt>
      <trkpt lat="49.97233" lon="5.3175">
        <ele>424.8</ele>
        <time>2025-04-20T16:26:06Z</time>
      </trkpt>
      <trkpt lat="49.97233" lon="5.31748">
        <ele>424.8</ele>
        <time>2025-04-20T16:26:07Z</time>
      </trkpt>
      <trkpt lat="49.97234" lon="5.31746">
        <ele>424.8</ele>
        <time>2025-04-20T16:26:08Z</time>
      </trkpt>
      <trkpt lat="49.97234" lon="5.31744">
        <ele>424.9</ele>
        <time>2025-04-20T16:26:09Z</time>
      </trkpt>
      <trkpt lat="49.97234" lon="5.31743">
        <ele>424.9</ele>
        <time>2025-04-20T16:26:10Z</time>
      </trkpt>
      <trkpt lat="49.97235" lon="5.31741">
        <ele>424.9</ele>
        <time>2025-04-20T16:26:11Z</time>
      </trkpt>
      <trkpt lat="49.97235" lon="5.31739">
        <ele>424.9</ele>
        <time>2025-04-20T16:26:12Z</time>
      </trkpt>
      <trkpt lat="49.97236" lon="5.31737">
        <ele>425</ele>
        <time>2025-04-20T16:26:13Z</time>
      </trkpt>
      <trkpt lat="49.97236" lon="5.31735">
        <ele>425</ele>
        <time>2025-04-20T16:26:14Z</time>
      </trkpt>
      <trkpt lat="49.97237" lon="5.31733">
        <ele>425</ele>
        <time>2025-04-20T16:26:15Z</time>
      </trkpt>
      <trkpt lat="49.97237" lon="5.31731">
        <ele>425.1</ele>
        <time>2025-04-20T16:26:16Z</time>
      </trkpt>
      <trkpt lat="49.97238" lon="5.31729">
        <ele>425.1</ele>
        <time>2025-04-20T16:26:17Z</time>
      </trkpt>
      <trkpt lat="49.97238" lon="5.31728">
        <ele>425.1</ele>
        <time>2025-04-20T16:26:18Z</time>
      </trkpt>
      <trkpt lat="49.97238" lon="5.31726">
        <ele>425.1</ele>
        <time>2025-04-20T16:26:19Z</time>
      </trkpt>
      <trkpt lat="49.97238" lon="5.31725">
        <ele>425.2</ele>
        <time>2025-04-20T16:26:20Z</time>
      </trkpt>
      <trkpt lat="49.97239" lon="5.31723">
        <ele>425.2</ele>
        <time>2025-04-20T16:26:21Z</time>
      </trkpt>
      <trkpt lat="49.97239" lon="5.31722">
        <ele>425.2</ele>
        <time>2025-04-20T16:26:22Z</time>
      </trkpt>
      <trkpt lat="49.97239" lon="5.31721">
        <ele>425.3</ele>
        <time>2025-04-20T16:26:23Z</time>
      </trkpt>
      <trkpt lat="49.97239" lon="5.3172">
        <ele>425.3</ele>
        <time>2025-04-20T16:26:24Z</time>
      </trkpt>
      <trkpt lat="49.9724" lon="5.31719">
        <ele>425.4</ele>
        <time>2025-04-20T16:26:25Z</time>
      </trkpt>
      <trkpt lat="49.9724" lon="5.31717">
        <ele>425.4</ele>
        <time>2025-04-20T16:26:26Z</time>
      </trkpt>
      <trkpt lat="49.9724" lon="5.31716">
        <ele>425.5</ele>
        <time>2025-04-20T16:26:27Z</time>
      </trkpt>
      <trkpt lat="49.9724" lon="5.31715">
        <ele>425.6</ele>
        <time>2025-04-20T16:26:28Z</time>
      </trkpt>
      <trkpt lat="49.97241" lon="5.31713">
        <ele>425.7</ele>
        <time>2025-04-20T16:26:29Z</time>
      </trkpt>
      <trkpt lat="49.97241" lon="5.31711">
        <ele>425.7</ele>
        <time>2025-04-20T16:26:30Z</time>
      </trkpt>
      <trkpt lat="49.97241" lon="5.3171">
        <ele>425.8</ele>
        <time>2025-04-20T16:26:31Z</time>
      </trkpt>
      <trkpt lat="49.97242" lon="5.31708">
        <ele>425.9</ele>
        <time>2025-04-20T16:26:32Z</time>
      </trkpt>
      <trkpt lat="49.97242" lon="5.31707">
        <ele>426</ele>
        <time>2025-04-20T16:26:33Z</time>
      </trkpt>
      <trkpt lat="49.97243" lon="5.31705">
        <ele>426.1</ele>
        <time>2025-04-20T16:26:34Z</time>
      </trkpt>
      <trkpt lat="49.97243" lon="5.31703">
        <ele>426.2</ele>
        <time>2025-04-20T16:26:35Z</time>
      </trkpt>
      <trkpt lat="49.97244" lon="5.31701">
        <ele>426.3</ele>
        <time>2025-04-20T16:26:36Z</time>
      </trkpt>
      <trkpt lat="49.97245" lon="5.31699">
        <ele>426.5</ele>
        <time>2025-04-20T16:26:37Z</time>
      </trkpt>
      <trkpt lat="49.97245" lon="5.31697">
        <ele>426.6</ele>
        <time>2025-04-20T16:26:38Z</time>
      </trkpt>
      <trkpt lat="49.97246" lon="5.31695">
        <ele>426.7</ele>
        <time>2025-04-20T16:26:39Z</time>
      </trkpt>
      <trkpt lat="49.97246" lon="5.31694">
        <ele>426.7</ele>
        <time>2025-04-20T16:26:40Z</time>
      </trkpt>
      <trkpt lat="49.97247" lon="5.31692">
        <ele>426.8</ele>
        <time>2025-04-20T16:26:41Z</time>
      </trkpt>
      <trkpt lat="49.97247" lon="5.3169">
        <ele>426.8</ele>
        <time>2025-04-20T16:26:42Z</time>
      </trkpt>
      <trkpt lat="49.97247" lon="5.31688">
        <ele>426.8</ele>
        <time>2025-04-20T16:26:43Z</time>
      </trkpt>
      <trkpt lat="49.97248" lon="5.31687">
        <ele>426.9</ele>
        <time>2025-04-20T16:26:44Z</time>
      </trkpt>
      <trkpt lat="49.97248" lon="5.31685">
        <ele>426.9</ele>
        <time>2025-04-20T16:26:45Z</time>
      </trkpt>
      <trkpt lat="49.97249" lon="5.31684">
        <ele>426.9</ele>
        <time>2025-04-20T16:26:46Z</time>
      </trkpt>
      <trkpt lat="49.97249" lon="5.31682">
        <ele>427</ele>
        <time>2025-04-20T16:26:47Z</time>
      </trkpt>
      <trkpt lat="49.9725" lon="5.31681">
        <ele>427</ele>
        <time>2025-04-20T16:26:48Z</time>
      </trkpt>
      <trkpt lat="49.9725" lon="5.3168">
        <ele>427</ele>
        <time>2025-04-20T16:26:49Z</time>
      </trkpt>
      <trkpt lat="49.97251" lon="5.31678">
        <ele>427</ele>
        <time>2025-04-20T16:26:50Z</time>
      </trkpt>
      <trkpt lat="49.97251" lon="5.31677">
        <ele>427.1</ele>
        <time>2025-04-20T16:26:51Z</time>
      </trkpt>
      <trkpt lat="49.97251" lon="5.31676">
        <ele>427.1</ele>
        <time>2025-04-20T16:26:52Z</time>
      </trkpt>
      <trkpt lat="49.97252" lon="5.31675">
        <ele>427.1</ele>
        <time>2025-04-20T16:26:53Z</time>
      </trkpt>
      <trkpt lat="49.97252" lon="5.31673">
        <ele>427.1</ele>
        <time>2025-04-20T16:26:54Z</time>
      </trkpt>
      <trkpt lat="49.97252" lon="5.31672">
        <ele>427.1</ele>
        <time>2025-04-20T16:26:55Z</time>
      </trkpt>
      <trkpt lat="49.97252" lon="5.31671">
        <ele>427.1</ele>
        <time>2025-04-20T16:26:56Z</time>
      </trkpt>
      <trkpt lat="49.97252" lon="5.31669">
        <ele>427.1</ele>
        <time>2025-04-20T16:26:57Z</time>
      </trkpt>
      <trkpt lat="49.97252" lon="5.31668">
        <ele>427.1</ele>
        <time>2025-04-20T16:26:58Z</time>
      </trkpt>
      <trkpt lat="49.97252" lon="5.31666">
        <ele>427.2</ele>
        <time>2025-04-20T16:26:59Z</time>
      </trkpt>
      <trkpt lat="49.97253" lon="5.31665">
        <ele>427.3</ele>
        <time>2025-04-20T16:27:00Z</time>
      </trkpt>
      <trkpt lat="49.97253" lon="5.31663">
        <ele>427.3</ele>
        <time>2025-04-20T16:27:01Z</time>
      </trkpt>
      <trkpt lat="49.97253" lon="5.31661">
        <ele>427.4</ele>
        <time>2025-04-20T16:27:02Z</time>
      </trkpt>
      <trkpt lat="49.97253" lon="5.31659">
        <ele>427.5</ele>
        <time>2025-04-20T16:27:03Z</time>
      </trkpt>
      <trkpt lat="49.97254" lon="5.31657">
        <ele>427.6</ele>
        <time>2025-04-20T16:27:04Z</time>
      </trkpt>
      <trkpt lat="49.97254" lon="5.31655">
        <ele>427.6</ele>
        <time>2025-04-20T16:27:05Z</time>
      </trkpt>
      <trkpt lat="49.97254" lon="5.31653">
        <ele>427.7</ele>
        <time>2025-04-20T16:27:06Z</time>
      </trkpt>
      <trkpt lat="49.97255" lon="5.31651">
        <ele>427.8</ele>
        <time>2025-04-20T16:27:07Z</time>
      </trkpt>
      <trkpt lat="49.97255" lon="5.31649">
        <ele>427.9</ele>
        <time>2025-04-20T16:27:08Z</time>
      </trkpt>
      <trkpt lat="49.97256" lon="5.31647">
        <ele>428</ele>
        <time>2025-04-20T16:27:09Z</time>
      </trkpt>
      <trkpt lat="49.97257" lon="5.31644">
        <ele>428.1</ele>
        <time>2025-04-20T16:27:10Z</time>
      </trkpt>
      <trkpt lat="49.97258" lon="5.31642">
        <ele>428.2</ele>
        <time>2025-04-20T16:27:11Z</time>
      </trkpt>
      <trkpt lat="49.97258" lon="5.3164">
        <ele>428.3</ele>
        <time>2025-04-20T16:27:12Z</time>
      </trkpt>
      <trkpt lat="49.97259" lon="5.31637">
        <ele>428.3</ele>
        <time>2025-04-20T16:27:13Z</time>
      </trkpt>
      <trkpt lat="49.9726" lon="5.31635">
        <ele>428.4</ele>
        <time>2025-04-20T16:27:14Z</time>
      </trkpt>
      <trkpt lat="49.9726" lon="5.31633">
        <ele>428.4</ele>
        <time>2025-04-20T16:27:15Z</time>
      </trkpt>
      <trkpt lat="49.9726" lon="5.31632">
        <ele>428.5</ele>
        <time>2025-04-20T16:27:16Z</time>
      </trkpt>
      <trkpt lat="49.97261" lon="5.3163">
        <ele>428.5</ele>
        <time>2025-04-20T16:27:17Z</time>
      </trkpt>
      <trkpt lat="49.97261" lon="5.31629">
        <ele>428.5</ele>
        <time>2025-04-20T16:27:18Z</time>
      </trkpt>
      <trkpt lat="49.97261" lon="5.31627">
        <ele>428.6</ele>
        <time>2025-04-20T16:27:19Z</time>
      </trkpt>
      <trkpt lat="49.97261" lon="5.31626">
        <ele>428.6</ele>
        <time>2025-04-20T16:27:20Z</time>
      </trkpt>
      <trkpt lat="49.97261" lon="5.31624">
        <ele>428.6</ele>
        <time>2025-04-20T16:27:21Z</time>
      </trkpt>
      <trkpt lat="49.97261" lon="5.31622">
        <ele>428.6</ele>
        <time>2025-04-20T16:27:22Z</time>
      </trkpt>
      <trkpt lat="49.97261" lon="5.31621">
        <ele>428.7</ele>
        <time>2025-04-20T16:27:23Z</time>
      </trkpt>
      <trkpt lat="49.97261" lon="5.31619">
        <ele>428.7</ele>
        <time>2025-04-20T16:27:24Z</time>
      </trkpt>
      <trkpt lat="49.97261" lon="5.31618">
        <ele>428.7</ele>
        <time>2025-04-20T16:27:25Z</time>
      </trkpt>
      <trkpt lat="49.97261" lon="5.31616">
        <ele>428.8</ele>
        <time>2025-04-20T16:27:26Z</time>
      </trkpt>
      <trkpt lat="49.97262" lon="5.31614">
        <ele>428.8</ele>
        <time>2025-04-20T16:27:27Z</time>
      </trkpt>
      <trkpt lat="49.97262" lon="5.31612">
        <ele>428.8</ele>
        <time>2025-04-20T16:27:28Z</time>
      </trkpt>
      <trkpt lat="49.97262" lon="5.3161">
        <ele>428.9</ele>
        <time>2025-04-20T16:27:29Z</time>
      </trkpt>
      <trkpt lat="49.97262" lon="5.31608">
        <ele>428.9</ele>
        <time>2025-04-20T16:27:30Z</time>
      </trkpt>
      <trkpt lat="49.97262" lon="5.31605">
        <ele>429</ele>
        <time>2025-04-20T16:27:31Z</time>
      </trkpt>
      <trkpt lat="49.97262" lon="5.31603">
        <ele>429.1</ele>
        <time>2025-04-20T16:27:32Z</time>
      </trkpt>
      <trkpt lat="49.97263" lon="5.31601">
        <ele>429.1</ele>
        <time>2025-04-20T16:27:33Z</time>
      </trkpt>
      <trkpt lat="49.97263" lon="5.31599">
        <ele>429.2</ele>
        <time>2025-04-20T16:27:34Z</time>
      </trkpt>
      <trkpt lat="49.97264" lon="5.31596">
        <ele>429.3</ele>
        <time>2025-04-20T16:27:35Z</time>
      </trkpt>
      <trkpt lat="49.97264" lon="5.31595">
        <ele>429.3</ele>
        <time>2025-04-20T16:27:36Z</time>
      </trkpt>
      <trkpt lat="49.97265" lon="5.31593">
        <ele>429.4</ele>
        <time>2025-04-20T16:27:37Z</time>
      </trkpt>
      <trkpt lat="49.97266" lon="5.31591">
        <ele>429.4</ele>
        <time>2025-04-20T16:27:38Z</time>
      </trkpt>
      <trkpt lat="49.97266" lon="5.31589">
        <ele>429.5</ele>
        <time>2025-04-20T16:27:39Z</time>
      </trkpt>
      <trkpt lat="49.97267" lon="5.31587">
        <ele>429.5</ele>
        <time>2025-04-20T16:27:40Z</time>
      </trkpt>
      <trkpt lat="49.97267" lon="5.31585">
        <ele>429.6</ele>
        <time>2025-04-20T16:27:41Z</time>
      </trkpt>
      <trkpt lat="49.97267" lon="5.31583">
        <ele>429.6</ele>
        <time>2025-04-20T16:27:42Z</time>
      </trkpt>
      <trkpt lat="49.97268" lon="5.31581">
        <ele>429.7</ele>
        <time>2025-04-20T16:27:43Z</time>
      </trkpt>
      <trkpt lat="49.97268" lon="5.31579">
        <ele>429.7</ele>
        <time>2025-04-20T16:27:44Z</time>
      </trkpt>
      <trkpt lat="49.97268" lon="5.31577">
        <ele>429.8</ele>
        <time>2025-04-20T16:27:45Z</time>
      </trkpt>
      <trkpt lat="49.97268" lon="5.31576">
        <ele>429.8</ele>
        <time>2025-04-20T16:27:46Z</time>
      </trkpt>
      <trkpt lat="49.97269" lon="5.31574">
        <ele>429.9</ele>
        <time>2025-04-20T16:27:47Z</time>
      </trkpt>
      <trkpt lat="49.9727" lon="5.31572">
        <ele>430</ele>
        <time>2025-04-20T16:27:48Z</time>
      </trkpt>
      <trkpt lat="49.9727" lon="5.3157">
        <ele>430.1</ele>
        <time>2025-04-20T16:27:49Z</time>
      </trkpt>
      <trkpt lat="49.97271" lon="5.31569">
        <ele>430.2</ele>
        <time>2025-04-20T16:27:50Z</time>
      </trkpt>
      <trkpt lat="49.97272" lon="5.31567">
        <ele>430.2</ele>
        <time>2025-04-20T16:27:51Z</time>
      </trkpt>
      <trkpt lat="49.97273" lon="5.31566">
        <ele>430.3</ele>
        <time>2025-04-20T16:27:52Z</time>
      </trkpt>
      <trkpt lat="49.97273" lon="5.31564">
        <ele>430.4</ele>
        <time>2025-04-20T16:27:53Z</time>
      </trkpt>
      <trkpt lat="49.97274" lon="5.31563">
        <ele>430.5</ele>
        <time>2025-04-20T16:27:54Z</time>
      </trkpt>
      <trkpt lat="49.97275" lon="5.31561">
        <ele>430.6</ele>
        <time>2025-04-20T16:27:55Z</time>
      </trkpt>
      <trkpt lat="49.97276" lon="5.3156">
        <ele>430.7</ele>
        <time>2025-04-20T16:27:56Z</time>
      </trkpt>
      <trkpt lat="49.97276" lon="5.31559">
        <ele>430.8</ele>
        <time>2025-04-20T16:27:57Z</time>
      </trkpt>
      <trkpt lat="49.97277" lon="5.31558">
        <ele>430.8</ele>
        <time>2025-04-20T16:27:58Z</time>
      </trkpt>
      <trkpt lat="49.97277" lon="5.31558">
        <ele>430.9</ele>
        <time>2025-04-20T16:27:59Z</time>
      </trkpt>
      <trkpt lat="49.97278" lon="5.31557">
        <ele>431</ele>
        <time>2025-04-20T16:28:00Z</time>
      </trkpt>
      <trkpt lat="49.97278" lon="5.31556">
        <ele>431</ele>
        <time>2025-04-20T16:28:01Z</time>
      </trkpt>
      <trkpt lat="49.97279" lon="5.31555">
        <ele>431.1</ele>
        <time>2025-04-20T16:28:02Z</time>
      </trkpt>
      <trkpt lat="49.9728" lon="5.31554">
        <ele>431.1</ele>
        <time>2025-04-20T16:28:03Z</time>
      </trkpt>
      <trkpt lat="49.97281" lon="5.31554">
        <ele>431.1</ele>
        <time>2025-04-20T16:28:04Z</time>
      </trkpt>
      <trkpt lat="49.97282" lon="5.31553">
        <ele>431.2</ele>
        <time>2025-04-20T16:28:05Z</time>
      </trkpt>
      <trkpt lat="49.97283" lon="5.31552">
        <ele>431.2</ele>
        <time>2025-04-20T16:28:06Z</time>
      </trkpt>
      <trkpt lat="49.97284" lon="5.31551">
        <ele>431.2</ele>
        <time>2025-04-20T16:28:07Z</time>
      </trkpt>
      <trkpt lat="49.97285" lon="5.31551">
        <ele>431.3</ele>
        <time>2025-04-20T16:28:08Z</time>
      </trkpt>
      <trkpt lat="49.97286" lon="5.3155">
        <ele>431.3</ele>
        <time>2025-04-20T16:28:09Z</time>
      </trkpt>
      <trkpt lat="49.97288" lon="5.31549">
        <ele>431.4</ele>
        <time>2025-04-20T16:28:10Z</time>
      </trkpt>
      <trkpt lat="49.97289" lon="5.31549">
        <ele>431.4</ele>
        <time>2025-04-20T16:28:11Z</time>
      </trkpt>
      <trkpt lat="49.9729" lon="5.31548">
        <ele>431.4</ele>
        <time>2025-04-20T16:28:12Z</time>
      </trkpt>
      <trkpt lat="49.97291" lon="5.31547">
        <ele>431.5</ele>
        <time>2025-04-20T16:28:13Z</time>
      </trkpt>
      <trkpt lat="49.97292" lon="5.31547">
        <ele>431.5</ele>
        <time>2025-04-20T16:28:14Z</time>
      </trkpt>
      <trkpt lat="49.97293" lon="5.31546">
        <ele>431.5</ele>
        <time>2025-04-20T16:28:15Z</time>
      </trkpt>
      <trkpt lat="49.97294" lon="5.31546">
        <ele>431.6</ele>
        <time>2025-04-20T16:28:16Z</time>
      </trkpt>
      <trkpt lat="49.97295" lon="5.31545">
        <ele>431.6</ele>
        <time>2025-04-20T16:28:17Z</time>
      </trkpt>
      <trkpt lat="49.97296" lon="5.31545">
        <ele>431.6</ele>
        <time>2025-04-20T16:28:18Z</time>
      </trkpt>
      <trkpt lat="49.97297" lon="5.31544">
        <ele>431.7</ele>
        <time>2025-04-20T16:28:19Z</time>
      </trkpt>
      <trkpt lat="49.97298" lon="5.31544">
        <ele>431.7</ele>
        <time>2025-04-20T16:28:20Z</time>
      </trkpt>
      <trkpt lat="49.97299" lon="5.31543">
        <ele>431.8</ele>
        <time>2025-04-20T16:28:21Z</time>
      </trkpt>
      <trkpt lat="49.973" lon="5.31543">
        <ele>431.8</ele>
        <time>2025-04-20T16:28:22Z</time>
      </trkpt>
      <trkpt lat="49.973" lon="5.31542">
        <ele>431.8</ele>
        <time>2025-04-20T16:28:23Z</time>
      </trkpt>
      <trkpt lat="49.97301" lon="5.31542">
        <ele>431.8</ele>
        <time>2025-04-20T16:28:24Z</time>
      </trkpt>
      <trkpt lat="49.97302" lon="5.31541">
        <ele>431.9</ele>
        <time>2025-04-20T16:28:25Z</time>
      </trkpt>
      <trkpt lat="49.97303" lon="5.3154">
        <ele>431.9</ele>
        <time>2025-04-20T16:28:26Z</time>
      </trkpt>
      <trkpt lat="49.97303" lon="5.3154">
        <ele>431.9</ele>
        <time>2025-04-20T16:28:27Z</time>
      </trkpt>
      <trkpt lat="49.97304" lon="5.3154">
        <ele>432</ele>
        <time>2025-04-20T16:28:28Z</time>
      </trkpt>
      <trkpt lat="49.97305" lon="5.31539">
        <ele>432</ele>
        <time>2025-04-20T16:28:29Z</time>
      </trkpt>
      <trkpt lat="49.97306" lon="5.31539">
        <ele>432</ele>
        <time>2025-04-20T16:28:30Z</time>
      </trkpt>
      <trkpt lat="49.97307" lon="5.31538">
        <ele>432.1</ele>
        <time>2025-04-20T16:28:31Z</time>
      </trkpt>
      <trkpt lat="49.97308" lon="5.31538">
        <ele>432.1</ele>
        <time>2025-04-20T16:28:32Z</time>
      </trkpt>
      <trkpt lat="49.97309" lon="5.31537">
        <ele>432.1</ele>
        <time>2025-04-20T16:28:33Z</time>
      </trkpt>
      <trkpt lat="49.9731" lon="5.31537">
        <ele>432.2</ele>
        <time>2025-04-20T16:28:34Z</time>
      </trkpt>
      <trkpt lat="49.97311" lon="5.31536">
        <ele>432.2</ele>
        <time>2025-04-20T16:28:35Z</time>
      </trkpt>
      <trkpt lat="49.97312" lon="5.31536">
        <ele>432.2</ele>
        <time>2025-04-20T16:28:36Z</time>
      </trkpt>
      <trkpt lat="49.97313" lon="5.31535">
        <ele>432.3</ele>
        <time>2025-04-20T16:28:37Z</time>
      </trkpt>
      <trkpt lat="49.97314" lon="5.31535">
        <ele>432.3</ele>
        <time>2025-04-20T16:28:38Z</time>
      </trkpt>
      <trkpt lat="49.97315" lon="5.31534">
        <ele>432.4</ele>
        <time>2025-04-20T16:28:39Z</time>
      </trkpt>
      <trkpt lat="49.97316" lon="5.31534">
        <ele>432.4</ele>
        <time>2025-04-20T16:28:40Z</time>
      </trkpt>
      <trkpt lat="49.97317" lon="5.31533">
        <ele>432.4</ele>
        <time>2025-04-20T16:28:41Z</time>
      </trkpt>
      <trkpt lat="49.97318" lon="5.31532">
        <ele>432.5</ele>
        <time>2025-04-20T16:28:42Z</time>
      </trkpt>
      <trkpt lat="49.97319" lon="5.31532">
        <ele>432.5</ele>
        <time>2025-04-20T16:28:43Z</time>
      </trkpt>
      <trkpt lat="49.97321" lon="5.31531">
        <ele>432.5</ele>
        <time>2025-04-20T16:28:44Z</time>
      </trkpt>
      <trkpt lat="49.97322" lon="5.31531">
        <ele>432.6</ele>
        <time>2025-04-20T16:28:45Z</time>
      </trkpt>
      <trkpt lat="49.97323" lon="5.3153">
        <ele>432.6</ele>
        <time>2025-04-20T16:28:46Z</time>
      </trkpt>
      <trkpt lat="49.97324" lon="5.31529">
        <ele>432.7</ele>
        <time>2025-04-20T16:28:47Z</time>
      </trkpt>
      <trkpt lat="49.97325" lon="5.31528">
        <ele>432.7</ele>
        <time>2025-04-20T16:28:48Z</time>
      </trkpt>
      <trkpt lat="49.97326" lon="5.31528">
        <ele>432.7</ele>
        <time>2025-04-20T16:28:49Z</time>
      </trkpt>
      <trkpt lat="49.97327" lon="5.31527">
        <ele>432.8</ele>
        <time>2025-04-20T16:28:50Z</time>
      </trkpt>
      <trkpt lat="49.97328" lon="5.31527">
        <ele>432.8</ele>
        <time>2025-04-20T16:28:51Z</time>
      </trkpt>
      <trkpt lat="49.97329" lon="5.31526">
        <ele>432.8</ele>
        <time>2025-04-20T16:28:52Z</time>
      </trkpt>
      <trkpt lat="49.9733" lon="5.31526">
        <ele>432.9</ele>
        <time>2025-04-20T16:28:53Z</time>
      </trkpt>
      <trkpt lat="49.9733" lon="5.31525">
        <ele>432.9</ele>
        <time>2025-04-20T16:28:54Z</time>
      </trkpt>
      <trkpt lat="49.97331" lon="5.31525">
        <ele>432.9</ele>
        <time>2025-04-20T16:28:55Z</time>
      </trkpt>
      <trkpt lat="49.97332" lon="5.31524">
        <ele>433</ele>
        <time>2025-04-20T16:28:56Z</time>
      </trkpt>
      <trkpt lat="49.97333" lon="5.31524">
        <ele>433</ele>
        <time>2025-04-20T16:28:57Z</time>
      </trkpt>
      <trkpt lat="49.97334" lon="5.31523">
        <ele>433</ele>
        <time>2025-04-20T16:28:58Z</time>
      </trkpt>
      <trkpt lat="49.97336" lon="5.31522">
        <ele>433.1</ele>
        <time>2025-04-20T16:28:59Z</time>
      </trkpt>
      <trkpt lat="49.97337" lon="5.31522">
        <ele>433.1</ele>
        <time>2025-04-20T16:29:00Z</time>
      </trkpt>
      <trkpt lat="49.97338" lon="5.31522">
        <ele>433.2</ele>
        <time>2025-04-20T16:29:01Z</time>
      </trkpt>
      <trkpt lat="49.97339" lon="5.31522">
        <ele>433.2</ele>
        <time>2025-04-20T16:29:02Z</time>
      </trkpt>
      <trkpt lat="49.9734" lon="5.31521">
        <ele>433.2</ele>
        <time>2025-04-20T16:29:03Z</time>
      </trkpt>
      <trkpt lat="49.97341" lon="5.31521">
        <ele>433.3</ele>
        <time>2025-04-20T16:29:04Z</time>
      </trkpt>
      <trkpt lat="49.97342" lon="5.3152">
        <ele>433.3</ele>
        <time>2025-04-20T16:29:05Z</time>
      </trkpt>
      <trkpt lat="49.97343" lon="5.3152">
        <ele>433.3</ele>
        <time>2025-04-20T16:29:06Z</time>
      </trkpt>
      <trkpt lat="49.97344" lon="5.31519">
        <ele>433.4</ele>
        <time>2025-04-20T16:29:07Z</time>
      </trkpt>
      <trkpt lat="49.97345" lon="5.31519">
        <ele>433.4</ele>
        <time>2025-04-20T16:29:08Z</time>
      </trkpt>
      <trkpt lat="49.97346" lon="5.31518">
        <ele>433.5</ele>
        <time>2025-04-20T16:29:09Z</time>
      </trkpt>
      <trkpt lat="49.97347" lon="5.31517">
        <ele>433.5</ele>
        <time>2025-04-20T16:29:10Z</time>
      </trkpt>
      <trkpt lat="49.97348" lon="5.31517">
        <ele>433.5</ele>
        <time>2025-04-20T16:29:11Z</time>
      </trkpt>
      <trkpt lat="49.97349" lon="5.31516">
        <ele>433.6</ele>
        <time>2025-04-20T16:29:12Z</time>
      </trkpt>
      <trkpt lat="49.9735" lon="5.31515">
        <ele>433.6</ele>
        <time>2025-04-20T16:29:13Z</time>
      </trkpt>
      <trkpt lat="49.97352" lon="5.31515">
        <ele>433.7</ele>
        <time>2025-04-20T16:29:14Z</time>
      </trkpt>
      <trkpt lat="49.97353" lon="5.31514">
        <ele>433.7</ele>
        <time>2025-04-20T16:29:15Z</time>
      </trkpt>
      <trkpt lat="49.97354" lon="5.31514">
        <ele>433.7</ele>
        <time>2025-04-20T16:29:16Z</time>
      </trkpt>
      <trkpt lat="49.97355" lon="5.31513">
        <ele>433.8</ele>
        <time>2025-04-20T16:29:17Z</time>
      </trkpt>
      <trkpt lat="49.97356" lon="5.31512">
        <ele>433.8</ele>
        <time>2025-04-20T16:29:18Z</time>
      </trkpt>
      <trkpt lat="49.97357" lon="5.31512">
        <ele>433.8</ele>
        <time>2025-04-20T16:29:19Z</time>
      </trkpt>
      <trkpt lat="49.97358" lon="5.31511">
        <ele>433.9</ele>
        <time>2025-04-20T16:29:20Z</time>
      </trkpt>
      <trkpt lat="49.97359" lon="5.31511">
        <ele>433.9</ele>
        <time>2025-04-20T16:29:21Z</time>
      </trkpt>
      <trkpt lat="49.9736" lon="5.3151">
        <ele>434</ele>
        <time>2025-04-20T16:29:22Z</time>
      </trkpt>
      <trkpt lat="49.97361" lon="5.3151">
        <ele>434</ele>
        <time>2025-04-20T16:29:23Z</time>
      </trkpt>
      <trkpt lat="49.97362" lon="5.31509">
        <ele>434.1</ele>
        <time>2025-04-20T16:29:24Z</time>
      </trkpt>
      <trkpt lat="49.97363" lon="5.31509">
        <ele>434.1</ele>
        <time>2025-04-20T16:29:25Z</time>
      </trkpt>
      <trkpt lat="49.97365" lon="5.31508">
        <ele>434.2</ele>
        <time>2025-04-20T16:29:26Z</time>
      </trkpt>
      <trkpt lat="49.97366" lon="5.31507">
        <ele>434.2</ele>
        <time>2025-04-20T16:29:27Z</time>
      </trkpt>
      <trkpt lat="49.97367" lon="5.31506">
        <ele>434.3</ele>
        <time>2025-04-20T16:29:28Z</time>
      </trkpt>
      <trkpt lat="49.97368" lon="5.31506">
        <ele>434.3</ele>
        <time>2025-04-20T16:29:29Z</time>
      </trkpt>
      <trkpt lat="49.97369" lon="5.31505">
        <ele>434.3</ele>
        <time>2025-04-20T16:29:30Z</time>
      </trkpt>
      <trkpt lat="49.9737" lon="5.31504">
        <ele>434.4</ele>
        <time>2025-04-20T16:29:31Z</time>
      </trkpt>
      <trkpt lat="49.97371" lon="5.31503">
        <ele>434.4</ele>
        <time>2025-04-20T16:29:32Z</time>
      </trkpt>
      <trkpt lat="49.97372" lon="5.31502">
        <ele>434.4</ele>
        <time>2025-04-20T16:29:33Z</time>
      </trkpt>
      <trkpt lat="49.97373" lon="5.31502">
        <ele>434.5</ele>
        <time>2025-04-20T16:29:34Z</time>
      </trkpt>
      <trkpt lat="49.97375" lon="5.31501">
        <ele>434.5</ele>
        <time>2025-04-20T16:29:35Z</time>
      </trkpt>
      <trkpt lat="49.97375" lon="5.31501">
        <ele>434.5</ele>
        <time>2025-04-20T16:29:36Z</time>
      </trkpt>
      <trkpt lat="49.97376" lon="5.315">
        <ele>434.6</ele>
        <time>2025-04-20T16:29:37Z</time>
      </trkpt>
      <trkpt lat="49.97377" lon="5.31499">
        <ele>434.6</ele>
        <time>2025-04-20T16:29:38Z</time>
      </trkpt>
      <trkpt lat="49.97378" lon="5.31499">
        <ele>434.6</ele>
        <time>2025-04-20T16:29:39Z</time>
      </trkpt>
      <trkpt lat="49.97379" lon="5.31498">
        <ele>434.6</ele>
        <time>2025-04-20T16:29:40Z</time>
      </trkpt>
      <trkpt lat="49.9738" lon="5.31497">
        <ele>434.7</ele>
        <time>2025-04-20T16:29:41Z</time>
      </trkpt>
      <trkpt lat="49.97381" lon="5.31497">
        <ele>434.7</ele>
        <time>2025-04-20T16:29:42Z</time>
      </trkpt>
      <trkpt lat="49.97382" lon="5.31496">
        <ele>434.7</ele>
        <time>2025-04-20T16:29:43Z</time>
      </trkpt>
      <trkpt lat="49.97383" lon="5.31495">
        <ele>434.7</ele>
        <time>2025-04-20T16:29:44Z</time>
      </trkpt>
      <trkpt lat="49.97384" lon="5.31495">
        <ele>434.8</ele>
        <time>2025-04-20T16:29:45Z</time>
      </trkpt>
      <trkpt lat="49.97385" lon="5.31495">
        <ele>434.8</ele>
        <time>2025-04-20T16:29:46Z</time>
      </trkpt>
      <trkpt lat="49.97386" lon="5.31495">
        <ele>434.9</ele>
        <time>2025-04-20T16:29:47Z</time>
      </trkpt>
      <trkpt lat="49.97387" lon="5.31494">
        <ele>434.9</ele>
        <time>2025-04-20T16:29:48Z</time>
      </trkpt>
      <trkpt lat="49.97388" lon="5.31494">
        <ele>435</ele>
        <time>2025-04-20T16:29:49Z</time>
      </trkpt>
      <trkpt lat="49.97389" lon="5.31494">
        <ele>435</ele>
        <time>2025-04-20T16:29:50Z</time>
      </trkpt>
      <trkpt lat="49.97391" lon="5.31493">
        <ele>435.1</ele>
        <time>2025-04-20T16:29:51Z</time>
      </trkpt>
      <trkpt lat="49.97392" lon="5.31492">
        <ele>435.2</ele>
        <time>2025-04-20T16:29:52Z</time>
      </trkpt>
      <trkpt lat="49.97393" lon="5.31492">
        <ele>435.3</ele>
        <time>2025-04-20T16:29:53Z</time>
      </trkpt>
      <trkpt lat="49.97394" lon="5.31491">
        <ele>435.4</ele>
        <time>2025-04-20T16:29:54Z</time>
      </trkpt>
      <trkpt lat="49.97396" lon="5.3149">
        <ele>435.5</ele>
        <time>2025-04-20T16:29:55Z</time>
      </trkpt>
      <trkpt lat="49.97397" lon="5.31489">
        <ele>435.6</ele>
        <time>2025-04-20T16:29:56Z</time>
      </trkpt>
      <trkpt lat="49.97398" lon="5.31488">
        <ele>435.6</ele>
        <time>2025-04-20T16:29:57Z</time>
      </trkpt>
      <trkpt lat="49.97399" lon="5.31488">
        <ele>435.7</ele>
        <time>2025-04-20T16:29:58Z</time>
      </trkpt>
      <trkpt lat="49.974" lon="5.31487">
        <ele>435.8</ele>
        <time>2025-04-20T16:29:59Z</time>
      </trkpt>
      <trkpt lat="49.97401" lon="5.31486">
        <ele>435.9</ele>
        <time>2025-04-20T16:30:00Z</time>
      </trkpt>
      <trkpt lat="49.97402" lon="5.31485">
        <ele>435.9</ele>
        <time>2025-04-20T16:30:01Z</time>
      </trkpt>
      <trkpt lat="49.97403" lon="5.31484">
        <ele>436</ele>
        <time>2025-04-20T16:30:02Z</time>
      </trkpt>
      <trkpt lat="49.97403" lon="5.31483">
        <ele>436</ele>
        <time>2025-04-20T16:30:03Z</time>
      </trkpt>
      <trkpt lat="49.97404" lon="5.31482">
        <ele>436.1</ele>
        <time>2025-04-20T16:30:04Z</time>
      </trkpt>
      <trkpt lat="49.97405" lon="5.31481">
        <ele>436.1</ele>
        <time>2025-04-20T16:30:05Z</time>
      </trkpt>
      <trkpt lat="49.97405" lon="5.31481">
        <ele>436.2</ele>
        <time>2025-04-20T16:30:06Z</time>
      </trkpt>
      <trkpt lat="49.97405" lon="5.3148">
        <ele>436.2</ele>
        <time>2025-04-20T16:30:07Z</time>
      </trkpt>
      <trkpt lat="49.97405" lon="5.31479">
        <ele>436.2</ele>
        <time>2025-04-20T16:30:08Z</time>
      </trkpt>
      <trkpt lat="49.97405" lon="5.31477">
        <ele>436.2</ele>
        <time>2025-04-20T16:30:09Z</time>
      </trkpt>
      <trkpt lat="49.97404" lon="5.31476">
        <ele>436.1</ele>
        <time>2025-04-20T16:30:10Z</time>
      </trkpt>
      <trkpt lat="49.97403" lon="5.31475">
        <ele>436</ele>
        <time>2025-04-20T16:30:11Z</time>
      </trkpt>
      <trkpt lat="49.97402" lon="5.31474">
        <ele>436</ele>
        <time>2025-04-20T16:30:12Z</time>
      </trkpt>
      <trkpt lat="49.97401" lon="5.31473">
        <ele>435.9</ele>
        <time>2025-04-20T16:30:13Z</time>
      </trkpt>
      <trkpt lat="49.974" lon="5.31472">
        <ele>435.8</ele>
        <time>2025-04-20T16:30:14Z</time>
      </trkpt>
      <trkpt lat="49.97399" lon="5.31471">
        <ele>435.6</ele>
        <time>2025-04-20T16:30:15Z</time>
      </trkpt>
      <trkpt lat="49.97397" lon="5.31469">
        <ele>435.5</ele>
        <time>2025-04-20T16:30:16Z</time>
      </trkpt>
      <trkpt lat="49.97396" lon="5.31468">
        <ele>435.4</ele>
        <time>2025-04-20T16:30:17Z</time>
      </trkpt>
      <trkpt lat="49.97394" lon="5.31467">
        <ele>435.2</ele>
        <time>2025-04-20T16:30:18Z</time>
      </trkpt>
      <trkpt lat="49.97393" lon="5.31466">
        <ele>435.1</ele>
        <time>2025-04-20T16:30:19Z</time>
      </trkpt>
      <trkpt lat="49.97392" lon="5.31465">
        <ele>434.9</ele>
        <time>2025-04-20T16:30:20Z</time>
      </trkpt>
      <trkpt lat="49.9739" lon="5.31463">
        <ele>434.8</ele>
        <time>2025-04-20T16:30:21Z</time>
      </trkpt>
      <trkpt lat="49.97389" lon="5.31462">
        <ele>434.6</ele>
        <time>2025-04-20T16:30:22Z</time>
      </trkpt>
      <trkpt lat="49.97388" lon="5.31461">
        <ele>434.5</ele>
        <time>2025-04-20T16:30:23Z</time>
      </trkpt>
      <trkpt lat="49.97386" lon="5.3146">
        <ele>434.4</ele>
        <time>2025-04-20T16:30:24Z</time>
      </trkpt>
      <trkpt lat="49.97385" lon="5.31459">
        <ele>434.3</ele>
        <time>2025-04-20T16:30:25Z</time>
      </trkpt>
      <trkpt lat="49.97384" lon="5.31458">
        <ele>434.1</ele>
        <time>2025-04-20T16:30:26Z</time>
      </trkpt>
      <trkpt lat="49.97383" lon="5.31456">
        <ele>434</ele>
        <time>2025-04-20T16:30:27Z</time>
      </trkpt>
      <trkpt lat="49.97382" lon="5.31455">
        <ele>433.9</ele>
        <time>2025-04-20T16:30:28Z</time>
      </trkpt>
      <trkpt lat="49.97381" lon="5.31454">
        <ele>433.8</ele>
        <time>2025-04-20T16:30:29Z</time>
      </trkpt>
      <trkpt lat="49.9738" lon="5.31453">
        <ele>433.7</ele>
        <time>2025-04-20T16:30:30Z</time>
      </trkpt>
      <trkpt lat="49.97379" lon="5.31452">
        <ele>433.6</ele>
        <time>2025-04-20T16:30:31Z</time>
      </trkpt>
      <trkpt lat="49.97378" lon="5.31451">
        <ele>433.5</ele>
        <time>2025-04-20T16:30:32Z</time>
      </trkpt>
      <trkpt lat="49.97377" lon="5.3145">
        <ele>433.4</ele>
        <time>2025-04-20T16:30:33Z</time>
      </trkpt>
      <trkpt lat="49.97376" lon="5.31449">
        <ele>433.3</ele>
        <time>2025-04-20T16:30:34Z</time>
      </trkpt>
      <trkpt lat="49.97375" lon="5.31448">
        <ele>433.1</ele>
        <time>2025-04-20T16:30:35Z</time>
      </trkpt>
      <trkpt lat="49.97375" lon="5.31446">
        <ele>433</ele>
        <time>2025-04-20T16:30:36Z</time>
      </trkpt>
      <trkpt lat="49.97374" lon="5.31445">
        <ele>432.9</ele>
        <time>2025-04-20T16:30:37Z</time>
      </trkpt>
      <trkpt lat="49.97373" lon="5.31444">
        <ele>432.8</ele>
        <time>2025-04-20T16:30:38Z</time>
      </trkpt>
      <trkpt lat="49.97372" lon="5.31443">
        <ele>432.7</ele>
        <time>2025-04-20T16:30:39Z</time>
      </trkpt>
      <trkpt lat="49.97371" lon="5.31442">
        <ele>432.6</ele>
        <time>2025-04-20T16:30:40Z</time>
      </trkpt>
      <trkpt lat="49.9737" lon="5.3144">
        <ele>432.5</ele>
        <time>2025-04-20T16:30:41Z</time>
      </trkpt>
      <trkpt lat="49.97369" lon="5.31439">
        <ele>432.4</ele>
        <time>2025-04-20T16:30:42Z</time>
      </trkpt>
      <trkpt lat="49.97368" lon="5.31438">
        <ele>432.2</ele>
        <time>2025-04-20T16:30:43Z</time>
      </trkpt>
      <trkpt lat="49.97367" lon="5.31437">
        <ele>432.1</ele>
        <time>2025-04-20T16:30:44Z</time>
      </trkpt>
      <trkpt lat="49.97366" lon="5.31436">
        <ele>432</ele>
        <time>2025-04-20T16:30:45Z</time>
      </trkpt>
      <trkpt lat="49.97364" lon="5.31435">
        <ele>431.9</ele>
        <time>2025-04-20T16:30:46Z</time>
      </trkpt>
      <trkpt lat="49.97363" lon="5.31434">
        <ele>431.8</ele>
        <time>2025-04-20T16:30:47Z</time>
      </trkpt>
      <trkpt lat="49.97362" lon="5.31433">
        <ele>431.7</ele>
        <time>2025-04-20T16:30:48Z</time>
      </trkpt>
      <trkpt lat="49.97361" lon="5.31431">
        <ele>431.5</ele>
        <time>2025-04-20T16:30:49Z</time>
      </trkpt>
      <trkpt lat="49.9736" lon="5.3143">
        <ele>431.4</ele>
        <time>2025-04-20T16:30:50Z</time>
      </trkpt>
      <trkpt lat="49.97359" lon="5.31429">
        <ele>431.3</ele>
        <time>2025-04-20T16:30:51Z</time>
      </trkpt>
      <trkpt lat="49.97358" lon="5.31428">
        <ele>431.2</ele>
        <time>2025-04-20T16:30:52Z</time>
      </trkpt>
      <trkpt lat="49.97357" lon="5.31427">
        <ele>431.1</ele>
        <time>2025-04-20T16:30:53Z</time>
      </trkpt>
      <trkpt lat="49.97356" lon="5.31425">
        <ele>431</ele>
        <time>2025-04-20T16:30:54Z</time>
      </trkpt>
      <trkpt lat="49.97355" lon="5.31424">
        <ele>430.9</ele>
        <time>2025-04-20T16:30:55Z</time>
      </trkpt>
      <trkpt lat="49.97355" lon="5.31423">
        <ele>430.8</ele>
        <time>2025-04-20T16:30:56Z</time>
      </trkpt>
      <trkpt lat="49.97354" lon="5.31422">
        <ele>430.7</ele>
        <time>2025-04-20T16:30:57Z</time>
      </trkpt>
      <trkpt lat="49.97353" lon="5.3142">
        <ele>430.6</ele>
        <time>2025-04-20T16:30:58Z</time>
      </trkpt>
      <trkpt lat="49.97352" lon="5.31419">
        <ele>430.5</ele>
        <time>2025-04-20T16:30:59Z</time>
      </trkpt>
      <trkpt lat="49.97351" lon="5.31418">
        <ele>430.3</ele>
        <time>2025-04-20T16:31:00Z</time>
      </trkpt>
      <trkpt lat="49.9735" lon="5.31417">
        <ele>430.2</ele>
        <time>2025-04-20T16:31:01Z</time>
      </trkpt>
      <trkpt lat="49.9735" lon="5.31416">
        <ele>430.1</ele>
        <time>2025-04-20T16:31:02Z</time>
      </trkpt>
      <trkpt lat="49.97349" lon="5.31415">
        <ele>430</ele>
        <time>2025-04-20T16:31:03Z</time>
      </trkpt>
      <trkpt lat="49.97348" lon="5.31413">
        <ele>429.9</ele>
        <time>2025-04-20T16:31:04Z</time>
      </trkpt>
      <trkpt lat="49.97347" lon="5.31412">
        <ele>429.8</ele>
        <time>2025-04-20T16:31:05Z</time>
      </trkpt>
      <trkpt lat="49.97347" lon="5.31411">
        <ele>429.7</ele>
        <time>2025-04-20T16:31:06Z</time>
      </trkpt>
      <trkpt lat="49.97346" lon="5.3141">
        <ele>429.7</ele>
        <time>2025-04-20T16:31:07Z</time>
      </trkpt>
      <trkpt lat="49.97345" lon="5.31409">
        <ele>429.5</ele>
        <time>2025-04-20T16:31:08Z</time>
      </trkpt>
      <trkpt lat="49.97344" lon="5.31408">
        <ele>429.4</ele>
        <time>2025-04-20T16:31:09Z</time>
      </trkpt>
      <trkpt lat="49.97343" lon="5.31407">
        <ele>429.3</ele>
        <time>2025-04-20T16:31:10Z</time>
      </trkpt>
      <trkpt lat="49.97342" lon="5.31406">
        <ele>429.2</ele>
        <time>2025-04-20T16:31:11Z</time>
      </trkpt>
      <trkpt lat="49.97341" lon="5.31405">
        <ele>429.1</ele>
        <time>2025-04-20T16:31:12Z</time>
      </trkpt>
      <trkpt lat="49.9734" lon="5.31404">
        <ele>429</ele>
        <time>2025-04-20T16:31:13Z</time>
      </trkpt>
      <trkpt lat="49.97338" lon="5.31403">
        <ele>428.9</ele>
        <time>2025-04-20T16:31:14Z</time>
      </trkpt>
      <trkpt lat="49.97337" lon="5.31402">
        <ele>428.8</ele>
        <time>2025-04-20T16:31:15Z</time>
      </trkpt>
      <trkpt lat="49.97336" lon="5.31401">
        <ele>428.6</ele>
        <time>2025-04-20T16:31:16Z</time>
      </trkpt>
      <trkpt lat="49.97335" lon="5.314">
        <ele>428.5</ele>
        <time>2025-04-20T16:31:17Z</time>
      </trkpt>
      <trkpt lat="49.97334" lon="5.31398">
        <ele>428.4</ele>
        <time>2025-04-20T16:31:18Z</time>
      </trkpt>
      <trkpt lat="49.97333" lon="5.31397">
        <ele>428.3</ele>
        <time>2025-04-20T16:31:19Z</time>
      </trkpt>
      <trkpt lat="49.97332" lon="5.31396">
        <ele>428.2</ele>
        <time>2025-04-20T16:31:20Z</time>
      </trkpt>
      <trkpt lat="49.97331" lon="5.31395">
        <ele>428.1</ele>
        <time>2025-04-20T16:31:21Z</time>
      </trkpt>
      <trkpt lat="49.9733" lon="5.31393">
        <ele>427.9</ele>
        <time>2025-04-20T16:31:22Z</time>
      </trkpt>
      <trkpt lat="49.97329" lon="5.31392">
        <ele>427.8</ele>
        <time>2025-04-20T16:31:23Z</time>
      </trkpt>
      <trkpt lat="49.97328" lon="5.31391">
        <ele>427.7</ele>
        <time>2025-04-20T16:31:24Z</time>
      </trkpt>
      <trkpt lat="49.97327" lon="5.3139">
        <ele>427.6</ele>
        <time>2025-04-20T16:31:25Z</time>
      </trkpt>
      <trkpt lat="49.97326" lon="5.31388">
        <ele>427.5</ele>
        <time>2025-04-20T16:31:26Z</time>
      </trkpt>
      <trkpt lat="49.97325" lon="5.31387">
        <ele>427.4</ele>
        <time>2025-04-20T16:31:27Z</time>
      </trkpt>
      <trkpt lat="49.97325" lon="5.31386">
        <ele>427.3</ele>
        <time>2025-04-20T16:31:28Z</time>
      </trkpt>
      <trkpt lat="49.97324" lon="5.31385">
        <ele>427.2</ele>
        <time>2025-04-20T16:31:29Z</time>
      </trkpt>
      <trkpt lat="49.97323" lon="5.31384">
        <ele>427.1</ele>
        <time>2025-04-20T16:31:30Z</time>
      </trkpt>
      <trkpt lat="49.97322" lon="5.31383">
        <ele>427</ele>
        <time>2025-04-20T16:31:31Z</time>
      </trkpt>
      <trkpt lat="49.97322" lon="5.31382">
        <ele>426.9</ele>
        <time>2025-04-20T16:31:32Z</time>
      </trkpt>
      <trkpt lat="49.97321" lon="5.31381">
        <ele>426.8</ele>
        <time>2025-04-20T16:31:33Z</time>
      </trkpt>
      <trkpt lat="49.9732" lon="5.31379">
        <ele>426.7</ele>
        <time>2025-04-20T16:31:34Z</time>
      </trkpt>
      <trkpt lat="49.97319" lon="5.31378">
        <ele>426.6</ele>
        <time>2025-04-20T16:31:35Z</time>
      </trkpt>
      <trkpt lat="49.97318" lon="5.31377">
        <ele>426.5</ele>
        <time>2025-04-20T16:31:36Z</time>
      </trkpt>
      <trkpt lat="49.97318" lon="5.31376">
        <ele>426.4</ele>
        <time>2025-04-20T16:31:37Z</time>
      </trkpt>
      <trkpt lat="49.97317" lon="5.31374">
        <ele>426.3</ele>
        <time>2025-04-20T16:31:38Z</time>
      </trkpt>
      <trkpt lat="49.97316" lon="5.31373">
        <ele>426.2</ele>
        <time>2025-04-20T16:31:39Z</time>
      </trkpt>
      <trkpt lat="49.97315" lon="5.31372">
        <ele>426.1</ele>
        <time>2025-04-20T16:31:40Z</time>
      </trkpt>
      <trkpt lat="49.97315" lon="5.3137">
        <ele>426</ele>
        <time>2025-04-20T16:31:41Z</time>
      </trkpt>
      <trkpt lat="49.97314" lon="5.31369">
        <ele>425.9</ele>
        <time>2025-04-20T16:31:42Z</time>
      </trkpt>
      <trkpt lat="49.97313" lon="5.31367">
        <ele>425.7</ele>
        <time>2025-04-20T16:31:43Z</time>
      </trkpt>
      <trkpt lat="49.97312" lon="5.31365">
        <ele>425.6</ele>
        <time>2025-04-20T16:31:44Z</time>
      </trkpt>
      <trkpt lat="49.97312" lon="5.31364">
        <ele>425.5</ele>
        <time>2025-04-20T16:31:45Z</time>
      </trkpt>
      <trkpt lat="49.97311" lon="5.31362">
        <ele>425.4</ele>
        <time>2025-04-20T16:31:46Z</time>
      </trkpt>
      <trkpt lat="49.9731" lon="5.3136">
        <ele>425.3</ele>
        <time>2025-04-20T16:31:47Z</time>
      </trkpt>
      <trkpt lat="49.97309" lon="5.31358">
        <ele>425.3</ele>
        <time>2025-04-20T16:31:48Z</time>
      </trkpt>
      <trkpt lat="49.97309" lon="5.31356">
        <ele>425.2</ele>
        <time>2025-04-20T16:31:49Z</time>
      </trkpt>
      <trkpt lat="49.97308" lon="5.31354">
        <ele>425.2</ele>
        <time>2025-04-20T16:31:50Z</time>
      </trkpt>
      <trkpt lat="49.97307" lon="5.31352">
        <ele>425.1</ele>
        <time>2025-04-20T16:31:51Z</time>
      </trkpt>
      <trkpt lat="49.97306" lon="5.31351">
        <ele>425</ele>
        <time>2025-04-20T16:31:52Z</time>
      </trkpt>
      <trkpt lat="49.97305" lon="5.31349">
        <ele>425</ele>
        <time>2025-04-20T16:31:53Z</time>
      </trkpt>
      <trkpt lat="49.97305" lon="5.31348">
        <ele>424.9</ele>
        <time>2025-04-20T16:31:54Z</time>
      </trkpt>
      <trkpt lat="49.97304" lon="5.31346">
        <ele>424.9</ele>
        <time>2025-04-20T16:31:55Z</time>
      </trkpt>
      <trkpt lat="49.97304" lon="5.31345">
        <ele>424.8</ele>
        <time>2025-04-20T16:31:56Z</time>
      </trkpt>
      <trkpt lat="49.97303" lon="5.31343">
        <ele>424.8</ele>
        <time>2025-04-20T16:31:57Z</time>
      </trkpt>
      <trkpt lat="49.97303" lon="5.31341">
        <ele>424.7</ele>
        <time>2025-04-20T16:31:58Z</time>
      </trkpt>
      <trkpt lat="49.97302" lon="5.3134">
        <ele>424.6</ele>
        <time>2025-04-20T16:31:59Z</time>
      </trkpt>
      <trkpt lat="49.97301" lon="5.31338">
        <ele>424.6</ele>
        <time>2025-04-20T16:32:00Z</time>
      </trkpt>
      <trkpt lat="49.97301" lon="5.31336">
        <ele>424.5</ele>
        <time>2025-04-20T16:32:01Z</time>
      </trkpt>
      <trkpt lat="49.973" lon="5.31335">
        <ele>424.4</ele>
        <time>2025-04-20T16:32:02Z</time>
      </trkpt>
      <trkpt lat="49.973" lon="5.31333">
        <ele>424.4</ele>
        <time>2025-04-20T16:32:03Z</time>
      </trkpt>
      <trkpt lat="49.97299" lon="5.31332">
        <ele>424.2</ele>
        <time>2025-04-20T16:32:04Z</time>
      </trkpt>
      <trkpt lat="49.97298" lon="5.31331">
        <ele>424.1</ele>
        <time>2025-04-20T16:32:05Z</time>
      </trkpt>
      <trkpt lat="49.97297" lon="5.31329">
        <ele>424</ele>
        <time>2025-04-20T16:32:06Z</time>
      </trkpt>
      <trkpt lat="49.97296" lon="5.31328">
        <ele>423.9</ele>
        <time>2025-04-20T16:32:07Z</time>
      </trkpt>
      <trkpt lat="49.97296" lon="5.31326">
        <ele>423.8</ele>
        <time>2025-04-20T16:32:08Z</time>
      </trkpt>
      <trkpt lat="49.97295" lon="5.31324">
        <ele>423.6</ele>
        <time>2025-04-20T16:32:09Z</time>
      </trkpt>
      <trkpt lat="49.97294" lon="5.31323">
        <ele>423.5</ele>
        <time>2025-04-20T16:32:10Z</time>
      </trkpt>
      <trkpt lat="49.97293" lon="5.31321">
        <ele>423.4</ele>
        <time>2025-04-20T16:32:11Z</time>
      </trkpt>
      <trkpt lat="49.97293" lon="5.31319">
        <ele>423.4</ele>
        <time>2025-04-20T16:32:12Z</time>
      </trkpt>
      <trkpt lat="49.97292" lon="5.31318">
        <ele>423.3</ele>
        <time>2025-04-20T16:32:13Z</time>
      </trkpt>
      <trkpt lat="49.97292" lon="5.31316">
        <ele>423.2</ele>
        <time>2025-04-20T16:32:14Z</time>
      </trkpt>
      <trkpt lat="49.97292" lon="5.31314">
        <ele>423.2</ele>
        <time>2025-04-20T16:32:15Z</time>
      </trkpt>
      <trkpt lat="49.97291" lon="5.31313">
        <ele>423.1</ele>
        <time>2025-04-20T16:32:16Z</time>
      </trkpt>
      <trkpt lat="49.9729" lon="5.31311">
        <ele>423</ele>
        <time>2025-04-20T16:32:17Z</time>
      </trkpt>
      <trkpt lat="49.9729" lon="5.31309">
        <ele>422.9</ele>
        <time>2025-04-20T16:32:18Z</time>
      </trkpt>
      <trkpt lat="49.97289" lon="5.31308">
        <ele>422.9</ele>
        <time>2025-04-20T16:32:19Z</time>
      </trkpt>
      <trkpt lat="49.97289" lon="5.31306">
        <ele>422.8</ele>
        <time>2025-04-20T16:32:20Z</time>
      </trkpt>
      <trkpt lat="49.97288" lon="5.31304">
        <ele>422.7</ele>
        <time>2025-04-20T16:32:21Z</time>
      </trkpt>
      <trkpt lat="49.97288" lon="5.31302">
        <ele>422.7</ele>
        <time>2025-04-20T16:32:22Z</time>
      </trkpt>
      <trkpt lat="49.97288" lon="5.313">
        <ele>422.6</ele>
        <time>2025-04-20T16:32:23Z</time>
      </trkpt>
      <trkpt lat="49.97288" lon="5.31299">
        <ele>422.6</ele>
        <time>2025-04-20T16:32:24Z</time>
      </trkpt>
      <trkpt lat="49.97288" lon="5.31297">
        <ele>422.5</ele>
        <time>2025-04-20T16:32:25Z</time>
      </trkpt>
      <trkpt lat="49.97287" lon="5.31295">
        <ele>422.4</ele>
        <time>2025-04-20T16:32:26Z</time>
      </trkpt>
      <trkpt lat="49.97287" lon="5.31293">
        <ele>422.3</ele>
        <time>2025-04-20T16:32:27Z</time>
      </trkpt>
      <trkpt lat="49.97286" lon="5.31292">
        <ele>422.2</ele>
        <time>2025-04-20T16:32:28Z</time>
      </trkpt>
      <trkpt lat="49.97285" lon="5.3129">
        <ele>422.1</ele>
        <time>2025-04-20T16:32:29Z</time>
      </trkpt>
      <trkpt lat="49.97285" lon="5.31288">
        <ele>422</ele>
        <time>2025-04-20T16:32:30Z</time>
      </trkpt>
      <trkpt lat="49.97284" lon="5.31287">
        <ele>421.9</ele>
        <time>2025-04-20T16:32:31Z</time>
      </trkpt>
      <trkpt lat="49.97284" lon="5.31285">
        <ele>421.8</ele>
        <time>2025-04-20T16:32:32Z</time>
      </trkpt>
      <trkpt lat="49.97283" lon="5.31283">
        <ele>421.7</ele>
        <time>2025-04-20T16:32:33Z</time>
      </trkpt>
      <trkpt lat="49.97283" lon="5.31282">
        <ele>421.7</ele>
        <time>2025-04-20T16:32:34Z</time>
      </trkpt>
      <trkpt lat="49.97282" lon="5.3128">
        <ele>421.6</ele>
        <time>2025-04-20T16:32:35Z</time>
      </trkpt>
      <trkpt lat="49.97282" lon="5.31278">
        <ele>421.4</ele>
        <time>2025-04-20T16:32:36Z</time>
      </trkpt>
      <trkpt lat="49.97281" lon="5.31277">
        <ele>421.4</ele>
        <time>2025-04-20T16:32:37Z</time>
      </trkpt>
      <trkpt lat="49.9728" lon="5.31275">
        <ele>421.2</ele>
        <time>2025-04-20T16:32:38Z</time>
      </trkpt>
      <trkpt lat="49.97279" lon="5.31273">
        <ele>421.1</ele>
        <time>2025-04-20T16:32:39Z</time>
      </trkpt>
      <trkpt lat="49.97278" lon="5.31271">
        <ele>421</ele>
        <time>2025-04-20T16:32:40Z</time>
      </trkpt>
      <trkpt lat="49.97277" lon="5.31269">
        <ele>420.9</ele>
        <time>2025-04-20T16:32:41Z</time>
      </trkpt>
      <trkpt lat="49.97275" lon="5.31268">
        <ele>420.8</ele>
        <time>2025-04-20T16:32:42Z</time>
      </trkpt>
      <trkpt lat="49.97274" lon="5.31266">
        <ele>420.7</ele>
        <time>2025-04-20T16:32:43Z</time>
      </trkpt>
      <trkpt lat="49.97273" lon="5.31265">
        <ele>420.7</ele>
        <time>2025-04-20T16:32:44Z</time>
      </trkpt>
      <trkpt lat="49.97272" lon="5.31263">
        <ele>420.6</ele>
        <time>2025-04-20T16:32:45Z</time>
      </trkpt>
      <trkpt lat="49.97271" lon="5.31262">
        <ele>420.5</ele>
        <time>2025-04-20T16:32:46Z</time>
      </trkpt>
      <trkpt lat="49.9727" lon="5.3126">
        <ele>420.5</ele>
        <time>2025-04-20T16:32:47Z</time>
      </trkpt>
      <trkpt lat="49.9727" lon="5.31258">
        <ele>420.4</ele>
        <time>2025-04-20T16:32:48Z</time>
      </trkpt>
      <trkpt lat="49.97269" lon="5.31257">
        <ele>420.4</ele>
        <time>2025-04-20T16:32:49Z</time>
      </trkpt>
      <trkpt lat="49.97268" lon="5.31255">
        <ele>420.3</ele>
        <time>2025-04-20T16:32:50Z</time>
      </trkpt>
      <trkpt lat="49.97267" lon="5.31253">
        <ele>420.3</ele>
        <time>2025-04-20T16:32:51Z</time>
      </trkpt>
      <trkpt lat="49.97267" lon="5.31252">
        <ele>420.2</ele>
        <time>2025-04-20T16:32:52Z</time>
      </trkpt>
      <trkpt lat="49.97266" lon="5.3125">
        <ele>420.2</ele>
        <time>2025-04-20T16:32:53Z</time>
      </trkpt>
      <trkpt lat="49.97266" lon="5.31248">
        <ele>420.1</ele>
        <time>2025-04-20T16:32:54Z</time>
      </trkpt>
      <trkpt lat="49.97266" lon="5.31247">
        <ele>420.1</ele>
        <time>2025-04-20T16:32:55Z</time>
      </trkpt>
      <trkpt lat="49.97265" lon="5.31245">
        <ele>420.1</ele>
        <time>2025-04-20T16:32:56Z</time>
      </trkpt>
      <trkpt lat="49.97265" lon="5.31244">
        <ele>420.1</ele>
        <time>2025-04-20T16:32:57Z</time>
      </trkpt>
      <trkpt lat="49.97264" lon="5.31243">
        <ele>420</ele>
        <time>2025-04-20T16:32:58Z</time>
      </trkpt>
      <trkpt lat="49.97264" lon="5.31241">
        <ele>420</ele>
        <time>2025-04-20T16:32:59Z</time>
      </trkpt>
      <trkpt lat="49.97263" lon="5.3124">
        <ele>420</ele>
        <time>2025-04-20T16:33:00Z</time>
      </trkpt>
      <trkpt lat="49.97263" lon="5.31239">
        <ele>419.9</ele>
        <time>2025-04-20T16:33:01Z</time>
      </trkpt>
      <trkpt lat="49.97262" lon="5.31238">
        <ele>419.9</ele>
        <time>2025-04-20T16:33:02Z</time>
      </trkpt>
      <trkpt lat="49.97262" lon="5.31236">
        <ele>419.8</ele>
        <time>2025-04-20T16:33:03Z</time>
      </trkpt>
      <trkpt lat="49.97261" lon="5.31235">
        <ele>419.8</ele>
        <time>2025-04-20T16:33:04Z</time>
      </trkpt>
      <trkpt lat="49.97261" lon="5.31234">
        <ele>419.8</ele>
        <time>2025-04-20T16:33:05Z</time>
      </trkpt>
      <trkpt lat="49.9726" lon="5.31234">
        <ele>419.7</ele>
        <time>2025-04-20T16:33:06Z</time>
      </trkpt>
      <trkpt lat="49.9726" lon="5.31233">
        <ele>419.7</ele>
        <time>2025-04-20T16:33:07Z</time>
      </trkpt>
      <trkpt lat="49.9726" lon="5.31232">
        <ele>419.7</ele>
        <time>2025-04-20T16:33:08Z</time>
      </trkpt>
      <trkpt lat="49.97259" lon="5.31231">
        <ele>419.7</ele>
        <time>2025-04-20T16:33:09Z</time>
      </trkpt>
      <trkpt lat="49.97259" lon="5.3123">
        <ele>419.6</ele>
        <time>2025-04-20T16:33:10Z</time>
      </trkpt>
      <trkpt lat="49.97258" lon="5.31229">
        <ele>419.6</ele>
        <time>2025-04-20T16:33:11Z</time>
      </trkpt>
      <trkpt lat="49.97257" lon="5.31227">
        <ele>419.5</ele>
        <time>2025-04-20T16:33:12Z</time>
      </trkpt>
      <trkpt lat="49.97257" lon="5.31226">
        <ele>419.5</ele>
        <time>2025-04-20T16:33:13Z</time>
      </trkpt>
      <trkpt lat="49.97256" lon="5.31224">
        <ele>419.4</ele>
        <time>2025-04-20T16:33:14Z</time>
      </trkpt>
      <trkpt lat="49.97255" lon="5.31222">
        <ele>419.4</ele>
        <time>2025-04-20T16:33:15Z</time>
      </trkpt>
      <trkpt lat="49.97254" lon="5.31221">
        <ele>419.3</ele>
        <time>2025-04-20T16:33:16Z</time>
      </trkpt>
      <trkpt lat="49.97254" lon="5.31219">
        <ele>419.4</ele>
        <time>2025-04-20T16:33:17Z</time>
      </trkpt>
      <trkpt lat="49.97253" lon="5.31217">
        <ele>419.4</ele>
        <time>2025-04-20T16:33:18Z</time>
      </trkpt>
      <trkpt lat="49.97252" lon="5.31216">
        <ele>419.4</ele>
        <time>2025-04-20T16:33:19Z</time>
      </trkpt>
      <trkpt lat="49.97252" lon="5.31214">
        <ele>419.4</ele>
        <time>2025-04-20T16:33:20Z</time>
      </trkpt>
      <trkpt lat="49.97251" lon="5.31213">
        <ele>419.4</ele>
        <time>2025-04-20T16:33:21Z</time>
      </trkpt>
      <trkpt lat="49.9725" lon="5.31211">
        <ele>419.4</ele>
        <time>2025-04-20T16:33:22Z</time>
      </trkpt>
      <trkpt lat="49.97249" lon="5.3121">
        <ele>419.4</ele>
        <time>2025-04-20T16:33:23Z</time>
      </trkpt>
      <trkpt lat="49.97248" lon="5.31209">
        <ele>419.4</ele>
        <time>2025-04-20T16:33:24Z</time>
      </trkpt>
      <trkpt lat="49.97247" lon="5.31208">
        <ele>419.4</ele>
        <time>2025-04-20T16:33:25Z</time>
      </trkpt>
      <trkpt lat="49.97246" lon="5.31207">
        <ele>419.4</ele>
        <time>2025-04-20T16:33:26Z</time>
      </trkpt>
      <trkpt lat="49.97246" lon="5.31207">
        <ele>419.4</ele>
        <time>2025-04-20T16:33:27Z</time>
      </trkpt>
      <trkpt lat="49.97246" lon="5.31207">
        <ele>419.4</ele>
        <time>2025-04-20T16:33:28Z</time>
      </trkpt>
      <trkpt lat="49.97245" lon="5.31206">
        <ele>419.4</ele>
        <time>2025-04-20T16:33:29Z</time>
      </trkpt>
      <trkpt lat="49.97244" lon="5.31206">
        <ele>419.4</ele>
        <time>2025-04-20T16:33:30Z</time>
      </trkpt>
      <trkpt lat="49.97243" lon="5.31205">
        <ele>419.4</ele>
        <time>2025-04-20T16:33:31Z</time>
      </trkpt>
      <trkpt lat="49.97242" lon="5.31204">
        <ele>419.4</ele>
        <time>2025-04-20T16:33:32Z</time>
      </trkpt>
      <trkpt lat="49.97241" lon="5.31204">
        <ele>419.3</ele>
        <time>2025-04-20T16:33:33Z</time>
      </trkpt>
      <trkpt lat="49.9724" lon="5.31203">
        <ele>419.3</ele>
        <time>2025-04-20T16:33:34Z</time>
      </trkpt>
      <trkpt lat="49.97239" lon="5.31202">
        <ele>419.3</ele>
        <time>2025-04-20T16:33:35Z</time>
      </trkpt>
      <trkpt lat="49.97237" lon="5.31202">
        <ele>419.3</ele>
        <time>2025-04-20T16:33:36Z</time>
      </trkpt>
      <trkpt lat="49.97235" lon="5.31201">
        <ele>419.2</ele>
        <time>2025-04-20T16:33:37Z</time>
      </trkpt>
      <trkpt lat="49.97233" lon="5.312">
        <ele>419.2</ele>
        <time>2025-04-20T16:33:38Z</time>
      </trkpt>
    </trkseg>
  </trk>
</gpx>